Wetterdaten: Mittwoch, 16.08.2017
Datum Zeit Temp. A. Temp. A. max Feuchte A. Luftdruck Regen Wind Richtung Richtung Sonnenschein ET UV Solar Taupunkt Windchill Windböen
16.08.2017 00:00 16,9 °C 17,0 °C 87 % 1018,5 hPa 0,0 mm 9,5 km/h (2 Bft) W-NW 292 ° 0 min 0,000 mm 0,0 UV-I 0 W/m² 14,7 °C 16,9 °C 16,1 km/h (3 Bft)
16.08.2017 00:01 16,9 °C 16,9 °C 87 % 1018,5 hPa 0,0 mm 8,9 km/h (2 Bft) SW 219 ° 0 min 0,000 mm 0,0 UV-I 0 W/m² 14,7 °C 16,9 °C 16,1 km/h (3 Bft)
16.08.2017 00:02 16,8 °C 16,9 °C 87 % 1018,5 hPa 0,0 mm 7,6 km/h (2 Bft) W-NW 291 ° 0 min 0,000 mm 0,0 UV-I 0 W/m² 14,6 °C 16,8 °C 14,5 km/h (3 Bft)
16.08.2017 00:03 16,7 °C 16,8 °C 87 % 1018,5 hPa 0,0 mm 5,2 km/h (1 Bft) W 269 ° 0 min 0,000 mm 0,0 UV-I 0 W/m² 14,5 °C 16,7 °C 12,9 km/h (3 Bft)
16.08.2017 00:04 16,7 °C 16,7 °C 88 % 1018,5 hPa 0,0 mm 12,4 km/h (3 Bft) W 268 ° 0 min 0,000 mm 0,0 UV-I 0 W/m² 14,7 °C 16,7 °C 17,7 km/h (3 Bft)
16.08.2017 00:05 16,6 °C 16,7 °C 88 % 1018,5 hPa 0,2 mm 9,0 km/h (2 Bft) W-SW 247 ° 0 min 0,000 mm 0,0 UV-I 0 W/m² 14,6 °C 16,6 °C 14,5 km/h (3 Bft)
16.08.2017 00:06 16,6 °C 16,7 °C 88 % 1018,5 hPa 0,0 mm 10,7 km/h (2 Bft) W 261 ° 0 min 0,000 mm 0,0 UV-I 0 W/m² 14,6 °C 16,6 °C 16,1 km/h (3 Bft)
16.08.2017 00:07 16,5 °C 16,6 °C 88 % 1018,6 hPa 0,0 mm 6,3 km/h (2 Bft) W-SW 254 ° 0 min 0,000 mm 0,0 UV-I 0 W/m² 14,5 °C 16,5 °C 11,3 km/h (2 Bft)
16.08.2017 00:08 16,4 °C 16,5 °C 88 % 1018,6 hPa 0,0 mm 7,1 km/h (2 Bft) W 279 ° 0 min 0,000 mm 0,0 UV-I 0 W/m² 14,4 °C 16,4 °C 11,3 km/h (2 Bft)
16.08.2017 00:09 16,4 °C 16,4 °C 89 % 1018,6 hPa 0,2 mm 4,2 km/h (1 Bft) W 263 ° 0 min 0,000 mm 0,0 UV-I 0 W/m² 14,6 °C 16,4 °C 6,4 km/h (2 Bft)
16.08.2017 00:10 16,3 °C 16,4 °C 89 % 1018,6 hPa 0,0 mm 2,5 km/h (1 Bft) W 262 ° 0 min 0,000 mm 0,0 UV-I 0 W/m² 14,5 °C 16,3 °C 3,2 km/h (1 Bft)
16.08.2017 00:11 16,3 °C 16,3 °C 89 % 1018,6 hPa 0,0 mm 3,8 km/h (1 Bft) W 276 ° 0 min 0,000 mm 0,0 UV-I 0 W/m² 14,5 °C 16,3 °C 4,8 km/h (1 Bft)
16.08.2017 00:12 16,2 °C 16,3 °C 89 % 1018,6 hPa 0,0 mm 3,3 km/h (1 Bft) SW 214 ° 0 min 0,000 mm 0,0 UV-I 0 W/m² 14,4 °C 16,2 °C 4,8 km/h (1 Bft)
16.08.2017 00:13 16,2 °C 16,2 °C 89 % 1018,6 hPa 0,2 mm 5,6 km/h (1 Bft) S-SW 205 ° 0 min 0,000 mm 0,0 UV-I 0 W/m² 14,4 °C 16,2 °C 9,7 km/h (2 Bft)
16.08.2017 00:14 16,2 °C 16,2 °C 89 % 1018,6 hPa 0,0 mm 4,1 km/h (1 Bft) S 191 ° 0 min 0,000 mm 0,0 UV-I 0 W/m² 14,4 °C 16,2 °C 11,3 km/h (2 Bft)
16.08.2017 00:15 16,2 °C 16,2 °C 89 % 1018,6 hPa 0,0 mm 8,9 km/h (2 Bft) SW 216 ° 0 min 0,000 mm 0,0 UV-I 0 W/m² 14,4 °C 16,2 °C 17,7 km/h (3 Bft)
16.08.2017 00:16 16,1 °C 16,2 °C 89 % 1018,7 hPa 0,0 mm 6,2 km/h (2 Bft) S 190 ° 0 min 0,000 mm 0,0 UV-I 0 W/m² 14,3 °C 16,1 °C 12,9 km/h (3 Bft)
16.08.2017 00:17 16,1 °C 16,2 °C 89 % 1018,7 hPa 0,0 mm 2,9 km/h (1 Bft) S-SW 205 ° 0 min 0,000 mm 0,0 UV-I 0 W/m² 14,3 °C 16,1 °C 6,4 km/h (2 Bft)
16.08.2017 00:18 16,1 °C 16,1 °C 89 % 1018,7 hPa 0,2 mm 2,7 km/h (1 Bft) S 170 ° 0 min 0,000 mm 0,0 UV-I 0 W/m² 14,3 °C 16,1 °C 8,0 km/h (2 Bft)
16.08.2017 00:19 16,1 °C 16,1 °C 90 % 1018,8 hPa 0,0 mm 3,8 km/h (1 Bft) S-SW 209 ° 0 min 0,000 mm 0,0 UV-I 0 W/m² 14,5 °C 16,1 °C 6,4 km/h (2 Bft)
16.08.2017 00:20 16,1 °C 16,1 °C 90 % 1018,9 hPa 0,0 mm 0,3 km/h (0 Bft) S-SW 209 ° 0 min 0,000 mm 0,0 UV-I 0 W/m² 14,5 °C 16,1 °C 3,2 km/h (1 Bft)
16.08.2017 00:21 16,0 °C 16,1 °C 90 % 1018,9 hPa 0,0 mm 1,8 km/h (1 Bft) SW 232 ° 0 min 0,000 mm 0,0 UV-I 0 W/m² 14,4 °C 16,0 °C 3,2 km/h (1 Bft)
16.08.2017 00:22 16,0 °C 16,0 °C 90 % 1018,9 hPa 0,0 mm 1,7 km/h (1 Bft) SW 234 ° 0 min 0,000 mm 0,0 UV-I 0 W/m² 14,4 °C 16,0 °C 3,2 km/h (1 Bft)
16.08.2017 00:23 15,9 °C 16,0 °C 91 % 1019,0 hPa 0,0 mm 0,8 km/h (0 Bft) SW 234 ° 0 min 0,000 mm 0,0 UV-I 0 W/m² 14,4 °C 15,9 °C 3,2 km/h (1 Bft)
16.08.2017 00:24 15,8 °C 15,9 °C 91 % 1019,0 hPa 0,0 mm 0,0 km/h (0 Bft) SW 234 ° 0 min 0,000 mm 0,0 UV-I 0 W/m² 14,3 °C 15,8 °C 0,0 km/h (0 Bft)
16.08.2017 00:25 15,8 °C 15,9 °C 91 % 1019,1 hPa 0,2 mm 0,0 km/h (0 Bft) SW 234 ° 0 min 0,000 mm 0,0 UV-I 0 W/m² 14,3 °C 15,8 °C 0,0 km/h (0 Bft)
16.08.2017 00:26 15,8 °C 15,8 °C 91 % 1019,1 hPa 0,0 mm 0,0 km/h (0 Bft) SW 234 ° 0 min 0,000 mm 0,0 UV-I 0 W/m² 14,3 °C 15,8 °C 0,0 km/h (0 Bft)
16.08.2017 00:27 15,8 °C 15,8 °C 91 % 1019,1 hPa 0,0 mm 0,0 km/h (0 Bft) SW 234 ° 0 min 0,000 mm 0,0 UV-I 0 W/m² 14,3 °C 15,8 °C 0,0 km/h (0 Bft)
16.08.2017 00:28 15,7 °C 15,8 °C 92 % 1019,1 hPa 0,0 mm 0,1 km/h (0 Bft) SW 234 ° 0 min 0,000 mm 0,0 UV-I 0 W/m² 14,4 °C 15,7 °C 1,6 km/h (1 Bft)
16.08.2017 00:29 15,7 °C 15,7 °C 92 % 1019,2 hPa 0,0 mm 0,0 km/h (0 Bft) SW 234 ° 0 min 0,000 mm 0,0 UV-I 0 W/m² 14,4 °C 15,7 °C 0,0 km/h (0 Bft)
16.08.2017 00:30 15,7 °C 15,7 °C 92 % 1019,2 hPa 0,0 mm 0,0 km/h (0 Bft) SW 234 ° 0 min 0,000 mm 0,0 UV-I 0 W/m² 14,4 °C 15,7 °C 0,0 km/h (0 Bft)
16.08.2017 00:31 15,7 °C 15,7 °C 92 % 1019,2 hPa 0,0 mm 0,0 km/h (0 Bft) SW 234 ° 0 min 0,000 mm 0,0 UV-I 0 W/m² 14,4 °C 15,7 °C 0,0 km/h (0 Bft)
16.08.2017 00:32 15,6 °C 15,7 °C 92 % 1019,3 hPa 0,0 mm 2,7 km/h (1 Bft) N-NO 30 ° 0 min 0,000 mm 0,0 UV-I 0 W/m² 14,3 °C 15,6 °C 4,8 km/h (1 Bft)
16.08.2017 00:33 15,6 °C 15,6 °C 92 % 1019,3 hPa 0,2 mm 0,2 km/h (0 Bft) N-NO 30 ° 0 min 0,000 mm 0,0 UV-I 0 W/m² 14,3 °C 15,6 °C 1,6 km/h (1 Bft)
16.08.2017 00:34 15,6 °C 15,6 °C 92 % 1019,1 hPa 0,0 mm 0,0 km/h (0 Bft) N-NO 30 ° 0 min 0,000 mm 0,0 UV-I 0 W/m² 14,3 °C 15,6 °C 0,0 km/h (0 Bft)
16.08.2017 00:35 15,6 °C 15,6 °C 92 % 1019,1 hPa 0,0 mm 1,7 km/h (1 Bft) N 355 ° 0 min 0,000 mm 0,0 UV-I 0 W/m² 14,3 °C 15,6 °C 3,2 km/h (1 Bft)
16.08.2017 00:36 15,6 °C 15,6 °C 93 % 1019,1 hPa 0,0 mm 0,0 km/h (0 Bft) N 355 ° 0 min 0,000 mm 0,0 UV-I 0 W/m² 14,5 °C 15,6 °C 0,0 km/h (0 Bft)
16.08.2017 00:37 15,6 °C 15,6 °C 93 % 1019,0 hPa 0,2 mm 0,8 km/h (0 Bft) N 355 ° 0 min 0,000 mm 0,0 UV-I 0 W/m² 14,5 °C 15,6 °C 3,2 km/h (1 Bft)
16.08.2017 00:38 15,6 °C 15,6 °C 93 % 1019,0 hPa 0,0 mm 0,0 km/h (0 Bft) N 355 ° 0 min 0,000 mm 0,0 UV-I 0 W/m² 14,5 °C 15,6 °C 0,0 km/h (0 Bft)
16.08.2017 00:39 15,6 °C 15,6 °C 93 % 1019,0 hPa 0,0 mm 0,6 km/h (0 Bft) O-NO 67 ° 0 min 0,000 mm 0,0 UV-I 0 W/m² 14,5 °C 15,6 °C 3,2 km/h (1 Bft)
16.08.2017 00:40 15,6 °C 15,6 °C 93 % 1019,0 hPa 0,0 mm 3,4 km/h (1 Bft) O-NO 75 ° 0 min 0,000 mm 0,0 UV-I 0 W/m² 14,5 °C 15,6 °C 6,4 km/h (2 Bft)
16.08.2017 00:41 15,5 °C 15,6 °C 93 % 1019,0 hPa 0,2 mm 0,3 km/h (0 Bft) O-NO 75 ° 0 min 0,000 mm 0,0 UV-I 0 W/m² 14,4 °C 15,5 °C 1,6 km/h (1 Bft)
16.08.2017 00:42 15,4 °C 15,5 °C 93 % 1019,1 hPa 0,0 mm 0,0 km/h (0 Bft) O-NO 75 ° 0 min 0,000 mm 0,0 UV-I 0 W/m² 14,3 °C 15,4 °C 0,0 km/h (0 Bft)
16.08.2017 00:43 15,4 °C 15,5 °C 93 % 1019,1 hPa 0,0 mm 0,0 km/h (0 Bft) O-NO 75 ° 0 min 0,000 mm 0,0 UV-I 0 W/m² 14,3 °C 15,4 °C 0,0 km/h (0 Bft)
16.08.2017 00:44 15,4 °C 15,5 °C 93 % 1019,1 hPa 0,0 mm 1,3 km/h (1 Bft) W 266 ° 0 min 0,000 mm 0,0 UV-I 0 W/m² 14,3 °C 15,4 °C 4,8 km/h (1 Bft)
16.08.2017 00:45 15,4 °C 15,5 °C 93 % 1019,1 hPa 0,2 mm 2,7 km/h (1 Bft) W 265 ° 0 min 0,000 mm 0,0 UV-I 0 W/m² 14,3 °C 15,4 °C 4,8 km/h (1 Bft)
16.08.2017 00:46 15,5 °C 15,5 °C 93 % 1019,2 hPa 0,0 mm 0,8 km/h (0 Bft) W 265 ° 0 min 0,000 mm 0,0 UV-I 0 W/m² 14,4 °C 15,5 °C 3,2 km/h (1 Bft)
16.08.2017 00:47 15,4 °C 15,5 °C 93 % 1019,1 hPa 0,0 mm 0,0 km/h (0 Bft) W 265 ° 0 min 0,000 mm 0,0 UV-I 0 W/m² 14,3 °C 15,4 °C 0,0 km/h (0 Bft)
16.08.2017 00:48 15,5 °C 15,5 °C 93 % 1019,1 hPa 0,2 mm 1,2 km/h (1 Bft) SW 219 ° 0 min 0,000 mm 0,0 UV-I 0 W/m² 14,4 °C 15,5 °C 3,2 km/h (1 Bft)
16.08.2017 00:49 15,4 °C 15,5 °C 93 % 1019,2 hPa 0,0 mm 2,3 km/h (1 Bft) W-SW 250 ° 0 min 0,000 mm 0,0 UV-I 0 W/m² 14,3 °C 15,4 °C 4,8 km/h (1 Bft)
16.08.2017 00:50 15,4 °C 15,5 °C 93 % 1019,1 hPa 0,2 mm 0,4 km/h (0 Bft) W-SW 250 ° 0 min 0,000 mm 0,0 UV-I 0 W/m² 14,3 °C 15,4 °C 1,6 km/h (1 Bft)
16.08.2017 00:51 15,4 °C 15,4 °C 93 % 1019,1 hPa 0,2 mm 1,8 km/h (1 Bft) W-SW 250 ° 0 min 0,000 mm 0,0 UV-I 0 W/m² 14,3 °C 15,4 °C 4,8 km/h (1 Bft)
16.08.2017 00:52 15,5 °C 15,5 °C 93 % 1019,1 hPa 0,0 mm 0,3 km/h (0 Bft) W-SW 250 ° 0 min 0,000 mm 0,0 UV-I 0 W/m² 14,4 °C 15,5 °C 1,6 km/h (1 Bft)
16.08.2017 00:53 15,4 °C 15,5 °C 93 % 1019,1 hPa 0,2 mm 0,1 km/h (0 Bft) W-SW 250 ° 0 min 0,000 mm 0,0 UV-I 0 W/m² 14,3 °C 15,4 °C 1,6 km/h (1 Bft)
16.08.2017 00:54 15,4 °C 15,5 °C 93 % 1019,0 hPa 0,0 mm 0,0 km/h (0 Bft) W-SW 250 ° 0 min 0,000 mm 0,0 UV-I 0 W/m² 14,3 °C 15,4 °C 0,0 km/h (0 Bft)
16.08.2017 00:55 15,4 °C 15,5 °C 93 % 1019,1 hPa 0,2 mm 0,5 km/h (0 Bft) W-SW 250 ° 0 min 0,000 mm 0,0 UV-I 0 W/m² 14,3 °C 15,4 °C 1,6 km/h (1 Bft)
16.08.2017 00:56 15,5 °C 15,5 °C 93 % 1019,1 hPa 0,0 mm 1,4 km/h (1 Bft) W-SW 250 ° 0 min 0,000 mm 0,0 UV-I 0 W/m² 14,4 °C 15,5 °C 3,2 km/h (1 Bft)
16.08.2017 00:57 15,4 °C 15,5 °C 93 % 1019,1 hPa 0,0 mm 2,2 km/h (1 Bft) NW 317 ° 0 min 0,000 mm 0,0 UV-I 0 W/m² 14,3 °C 15,4 °C 4,8 km/h (1 Bft)
16.08.2017 00:58 15,4 °C 15,4 °C 93 % 1019,0 hPa 0,0 mm 2,0 km/h (1 Bft) NW 317 ° 0 min 0,000 mm 0,0 UV-I 0 W/m² 14,3 °C 15,4 °C 4,8 km/h (1 Bft)
16.08.2017 00:59 15,4 °C 15,4 °C 93 % 1019,0 hPa 0,2 mm 2,2 km/h (1 Bft) NW 317 ° 0 min 0,000 mm 0,0 UV-I 0 W/m² 14,3 °C 15,4 °C 3,2 km/h (1 Bft)
16.08.2017 01:00 15,4 °C 15,4 °C 93 % 1019,0 hPa 0,0 mm 0,4 km/h (0 Bft) NW 317 ° 0 min 0,000 mm 0,0 UV-I 0 W/m² 14,3 °C 15,4 °C 1,6 km/h (1 Bft)
16.08.2017 01:01 15,4 °C 15,4 °C 93 % 1019,0 hPa 0,0 mm 1,9 km/h (1 Bft) N-NW 347 ° 0 min 0,000 mm 0,0 UV-I 0 W/m² 14,3 °C 15,4 °C 4,8 km/h (1 Bft)
16.08.2017 01:02 15,4 °C 15,4 °C 93 % 1019,1 hPa 0,0 mm 1,9 km/h (1 Bft) N-NW 344 ° 0 min 0,000 mm 0,0 UV-I 0 W/m² 14,3 °C 15,4 °C 4,8 km/h (1 Bft)
16.08.2017 01:03 15,4 °C 15,4 °C 93 % 1019,1 hPa 0,2 mm 2,3 km/h (1 Bft) SW 219 ° 0 min 0,000 mm 0,0 UV-I 0 W/m² 14,3 °C 15,4 °C 4,8 km/h (1 Bft)
16.08.2017 01:04 15,4 °C 15,4 °C 93 % 1019,0 hPa 0,0 mm 2,7 km/h (1 Bft) W 273 ° 0 min 0,000 mm 0,0 UV-I 0 W/m² 14,3 °C 15,4 °C 4,8 km/h (1 Bft)
16.08.2017 01:05 15,4 °C 15,4 °C 93 % 1019,0 hPa 0,0 mm 0,7 km/h (0 Bft) W 272 ° 0 min 0,000 mm 0,0 UV-I 0 W/m² 14,3 °C 15,4 °C 1,6 km/h (1 Bft)
16.08.2017 01:06 15,4 °C 15,4 °C 93 % 1019,0 hPa 0,2 mm 0,1 km/h (0 Bft) W 272 ° 0 min 0,000 mm 0,0 UV-I 0 W/m² 14,3 °C 15,4 °C 1,6 km/h (1 Bft)
16.08.2017 01:07 15,4 °C 15,4 °C 93 % 1019,0 hPa 0,0 mm 0,4 km/h (0 Bft) W 272 ° 0 min 0,000 mm 0,0 UV-I 0 W/m² 14,3 °C 15,4 °C 3,2 km/h (1 Bft)
16.08.2017 01:08 15,4 °C 15,4 °C 93 % 1019,0 hPa 0,0 mm 0,9 km/h (0 Bft) W 272 ° 0 min 0,000 mm 0,0 UV-I 0 W/m² 14,3 °C 15,4 °C 3,2 km/h (1 Bft)
16.08.2017 01:09 15,4 °C 15,4 °C 93 % 1019,0 hPa 0,0 mm 3,2 km/h (1 Bft) W-NW 296 ° 0 min 0,000 mm 0,0 UV-I 0 W/m² 14,3 °C 15,4 °C 6,4 km/h (2 Bft)
16.08.2017 01:10 15,3 °C 15,4 °C 93 % 1019,0 hPa 0,2 mm 3,4 km/h (1 Bft) W 265 ° 0 min 0,000 mm 0,0 UV-I 0 W/m² 14,2 °C 15,3 °C 6,4 km/h (2 Bft)
16.08.2017 01:11 15,3 °C 15,4 °C 93 % 1019,0 hPa 0,0 mm 3,0 km/h (1 Bft) SW 224 ° 0 min 0,000 mm 0,0 UV-I 0 W/m² 14,2 °C 15,3 °C 4,8 km/h (1 Bft)
16.08.2017 01:12 15,4 °C 15,4 °C 93 % 1019,0 hPa 0,2 mm 3,0 km/h (1 Bft) NW 325 ° 0 min 0,000 mm 0,0 UV-I 0 W/m² 14,3 °C 15,4 °C 4,8 km/h (1 Bft)
16.08.2017 01:13 15,3 °C 15,4 °C 93 % 1018,9 hPa 0,0 mm 3,2 km/h (1 Bft) SW 222 ° 0 min 0,000 mm 0,0 UV-I 0 W/m² 14,2 °C 15,3 °C 6,4 km/h (2 Bft)
16.08.2017 01:14 15,4 °C 15,4 °C 93 % 1018,9 hPa 0,0 mm 0,1 km/h (0 Bft) SW 222 ° 0 min 0,000 mm 0,0 UV-I 0 W/m² 14,3 °C 15,4 °C 1,6 km/h (1 Bft)
16.08.2017 01:15 15,3 °C 15,4 °C 93 % 1018,9 hPa 0,2 mm 0,0 km/h (0 Bft) SW 222 ° 0 min 0,000 mm 0,0 UV-I 0 W/m² 14,2 °C 15,3 °C 0,0 km/h (0 Bft)
16.08.2017 01:16 15,3 °C 15,4 °C 93 % 1018,9 hPa 0,0 mm 0,0 km/h (0 Bft) SW 222 ° 0 min 0,000 mm 0,0 UV-I 0 W/m² 14,2 °C 15,3 °C 0,0 km/h (0 Bft)
16.08.2017 01:17 15,3 °C 15,3 °C 93 % 1018,8 hPa 0,0 mm 0,0 km/h (0 Bft) SW 222 ° 0 min 0,000 mm 0,0 UV-I 0 W/m² 14,2 °C 15,3 °C 0,0 km/h (0 Bft)
16.08.2017 01:18 15,3 °C 15,3 °C 93 % 1018,8 hPa 0,0 mm 0,4 km/h (0 Bft) SW 222 ° 0 min 0,000 mm 0,0 UV-I 0 W/m² 14,2 °C 15,3 °C 1,6 km/h (1 Bft)
16.08.2017 01:19 15,3 °C 15,3 °C 94 % 1018,8 hPa 0,0 mm 0,5 km/h (0 Bft) SW 223 ° 0 min 0,000 mm 0,0 UV-I 0 W/m² 14,3 °C 15,3 °C 1,6 km/h (1 Bft)
16.08.2017 01:20 15,3 °C 15,3 °C 94 % 1018,8 hPa 0,0 mm 0,3 km/h (0 Bft) SW 223 ° 0 min 0,000 mm 0,0 UV-I 0 W/m² 14,3 °C 15,3 °C 1,6 km/h (1 Bft)
16.08.2017 01:21 15,3 °C 15,3 °C 94 % 1018,8 hPa 0,0 mm 1,7 km/h (1 Bft) N-NW 336 ° 0 min 0,000 mm 0,0 UV-I 0 W/m² 14,3 °C 15,3 °C 3,2 km/h (1 Bft)
16.08.2017 01:22 15,3 °C 15,3 °C 94 % 1018,7 hPa 0,2 mm 1,3 km/h (1 Bft) N-NW 336 ° 0 min 0,000 mm 0,0 UV-I 0 W/m² 14,3 °C 15,3 °C 3,2 km/h (1 Bft)
16.08.2017 01:23 15,3 °C 15,3 °C 94 % 1018,7 hPa 0,0 mm 0,1 km/h (0 Bft) N-NW 336 ° 0 min 0,000 mm 0,0 UV-I 0 W/m² 14,3 °C 15,3 °C 1,6 km/h (1 Bft)
16.08.2017 01:24 15,3 °C 15,3 °C 94 % 1018,7 hPa 0,0 mm 0,1 km/h (0 Bft) N-NW 336 ° 0 min 0,000 mm 0,0 UV-I 0 W/m² 14,3 °C 15,3 °C 1,6 km/h (1 Bft)
16.08.2017 01:25 15,3 °C 15,3 °C 94 % 1018,7 hPa 0,0 mm 0,0 km/h (0 Bft) N-NW 336 ° 0 min 0,000 mm 0,0 UV-I 0 W/m² 14,3 °C 15,3 °C 0,0 km/h (0 Bft)
16.08.2017 01:26 15,2 °C 15,3 °C 94 % 1018,7 hPa 0,0 mm 0,4 km/h (0 Bft) N-NW 336 ° 0 min 0,000 mm 0,0 UV-I 0 W/m² 14,2 °C 15,2 °C 1,6 km/h (1 Bft)
16.08.2017 01:27 15,2 °C 15,2 °C 94 % 1018,6 hPa 0,0 mm 0,5 km/h (0 Bft) N-NW 336 ° 0 min 0,000 mm 0,0 UV-I 0 W/m² 14,2 °C 15,2 °C 3,2 km/h (1 Bft)
16.08.2017 01:28 15,2 °C 15,2 °C 94 % 1018,6 hPa 0,0 mm 0,3 km/h (0 Bft) N-NW 336 ° 0 min 0,000 mm 0,0 UV-I 0 W/m² 14,2 °C 15,2 °C 1,6 km/h (1 Bft)
16.08.2017 01:29 15,2 °C 15,2 °C 94 % 1018,6 hPa 0,2 mm 0,1 km/h (0 Bft) N-NW 336 ° 0 min 0,000 mm 0,0 UV-I 0 W/m² 14,2 °C 15,2 °C 1,6 km/h (1 Bft)
16.08.2017 01:30 15,2 °C 15,2 °C 94 % 1018,6 hPa 0,0 mm 1,2 km/h (1 Bft) O-NO 76 ° 0 min 0,000 mm 0,0 UV-I 0 W/m² 14,2 °C 15,2 °C 3,2 km/h (1 Bft)
16.08.2017 01:31 15,2 °C 15,2 °C 94 % 1018,5 hPa 0,0 mm 1,0 km/h (0 Bft) SO 124 ° 0 min 0,000 mm 0,0 UV-I 0 W/m² 14,2 °C 15,2 °C 1,6 km/h (1 Bft)
16.08.2017 01:32 15,2 °C 15,2 °C 94 % 1018,5 hPa 0,2 mm 2,6 km/h (1 Bft) O-NO 74 ° 0 min 0,000 mm 0,0 UV-I 0 W/m² 14,2 °C 15,2 °C 4,8 km/h (1 Bft)
16.08.2017 01:33 15,2 °C 15,2 °C 94 % 1018,5 hPa 0,0 mm 0,3 km/h (0 Bft) O-NO 61 ° 0 min 0,000 mm 0,0 UV-I 0 W/m² 14,2 °C 15,2 °C 3,2 km/h (1 Bft)
16.08.2017 01:34 15,2 °C 15,2 °C 94 % 1018,5 hPa 0,2 mm 2,7 km/h (1 Bft) NO 36 ° 0 min 0,000 mm 0,0 UV-I 0 W/m² 14,2 °C 15,2 °C 4,8 km/h (1 Bft)
16.08.2017 01:35 15,2 °C 15,2 °C 94 % 1018,5 hPa 0,0 mm 2,4 km/h (1 Bft) N-NW 331 ° 0 min 0,000 mm 0,0 UV-I 0 W/m² 14,2 °C 15,2 °C 4,8 km/h (1 Bft)
16.08.2017 01:36 15,2 °C 15,2 °C 94 % 1018,5 hPa 0,2 mm 0,0 km/h (0 Bft) N-NW 331 ° 0 min 0,000 mm 0,0 UV-I 0 W/m² 14,2 °C 15,2 °C 0,0 km/h (0 Bft)
16.08.2017 01:37 15,2 °C 15,2 °C 94 % 1018,5 hPa 0,0 mm 0,2 km/h (0 Bft) N-NW 331 ° 0 min 0,000 mm 0,0 UV-I 0 W/m² 14,2 °C 15,2 °C 1,6 km/h (1 Bft)
16.08.2017 01:38 15,2 °C 15,2 °C 94 % 1018,5 hPa 0,2 mm 0,1 km/h (0 Bft) N-NW 331 ° 0 min 0,000 mm 0,0 UV-I 0 W/m² 14,2 °C 15,2 °C 1,6 km/h (1 Bft)
16.08.2017 01:39 15,2 °C 15,2 °C 94 % 1018,5 hPa 0,2 mm 0,7 km/h (0 Bft) N-NW 342 ° 0 min 0,000 mm 0,0 UV-I 0 W/m² 14,2 °C 15,2 °C 3,2 km/h (1 Bft)
16.08.2017 01:40 15,1 °C 15,2 °C 94 % 1018,5 hPa 0,2 mm 1,9 km/h (1 Bft) N-NO 23 ° 0 min 0,000 mm 0,0 UV-I 0 W/m² 14,1 °C 15,1 °C 4,8 km/h (1 Bft)
16.08.2017 01:41 15,2 °C 15,2 °C 94 % 1018,5 hPa 0,0 mm 0,1 km/h (0 Bft) N-NO 30 ° 0 min 0,000 mm 0,0 UV-I 0 W/m² 14,2 °C 15,2 °C 1,6 km/h (1 Bft)
16.08.2017 01:42 15,2 °C 15,2 °C 94 % 1018,5 hPa 0,2 mm 0,0 km/h (0 Bft) N-NO 30 ° 0 min 0,000 mm 0,0 UV-I 0 W/m² 14,2 °C 15,2 °C 0,0 km/h (0 Bft)
16.08.2017 01:43 15,1 °C 15,2 °C 94 % 1018,4 hPa 0,2 mm 1,4 km/h (1 Bft) N-NO 30 ° 0 min 0,000 mm 0,0 UV-I 0 W/m² 14,1 °C 15,1 °C 3,2 km/h (1 Bft)
16.08.2017 01:44 15,1 °C 15,1 °C 94 % 1018,3 hPa 0,0 mm 0,6 km/h (0 Bft) N-NO 30 ° 0 min 0,000 mm 0,0 UV-I 0 W/m² 14,1 °C 15,1 °C 3,2 km/h (1 Bft)
16.08.2017 01:45 15,1 °C 15,1 °C 94 % 1018,3 hPa 0,2 mm 0,9 km/h (0 Bft) N-NO 30 ° 0 min 0,000 mm 0,0 UV-I 0 W/m² 14,1 °C 15,1 °C 1,6 km/h (1 Bft)
16.08.2017 01:46 15,1 °C 15,1 °C 94 % 1018,3 hPa 0,2 mm 0,0 km/h (0 Bft) N-NO 30 ° 0 min 0,000 mm 0,0 UV-I 0 W/m² 14,1 °C 15,1 °C 0,0 km/h (0 Bft)
16.08.2017 01:47 15,1 °C 15,1 °C 94 % 1018,3 hPa 0,2 mm 0,0 km/h (0 Bft) N-NO 30 ° 0 min 0,000 mm 0,0 UV-I 0 W/m² 14,1 °C 15,1 °C 0,0 km/h (0 Bft)
16.08.2017 01:48 15,1 °C 15,1 °C 94 % 1018,3 hPa 0,0 mm 0,0 km/h (0 Bft) N-NO 30 ° 0 min 0,000 mm 0,0 UV-I 0 W/m² 14,1 °C 15,1 °C 0,0 km/h (0 Bft)
16.08.2017 01:49 15,1 °C 15,1 °C 94 % 1018,3 hPa 0,2 mm 0,0 km/h (0 Bft) N-NO 30 ° 0 min 0,000 mm 0,0 UV-I 0 W/m² 14,1 °C 15,1 °C 0,0 km/h (0 Bft)
16.08.2017 01:50 15,1 °C 15,1 °C 94 % 1018,3 hPa 0,2 mm 0,0 km/h (0 Bft) N-NO 31 ° 0 min 0,000 mm 0,0 UV-I 0 W/m² 14,1 °C 15,1 °C 0,0 km/h (0 Bft)
16.08.2017 01:51 15,1 °C 15,1 °C 94 % 1018,3 hPa 0,0 mm 1,7 km/h (1 Bft) O 84 ° 0 min 0,000 mm 0,0 UV-I 0 W/m² 14,1 °C 15,1 °C 3,2 km/h (1 Bft)
16.08.2017 01:52 15,1 °C 15,1 °C 94 % 1018,3 hPa 0,2 mm 3,6 km/h (1 Bft) O 97 ° 0 min 0,000 mm 0,0 UV-I 0 W/m² 14,1 °C 15,1 °C 6,4 km/h (2 Bft)
16.08.2017 01:53 15,1 °C 15,1 °C 94 % 1018,4 hPa 0,0 mm 0,8 km/h (0 Bft) O 91 ° 0 min 0,000 mm 0,0 UV-I 0 W/m² 14,1 °C 15,1 °C 1,6 km/h (1 Bft)
16.08.2017 01:54 15,0 °C 15,1 °C 94 % 1018,4 hPa 0,0 mm 1,5 km/h (1 Bft) O 92 ° 0 min 0,000 mm 0,0 UV-I 0 W/m² 14,0 °C 15,0 °C 3,2 km/h (1 Bft)
16.08.2017 01:55 15,0 °C 15,1 °C 94 % 1018,3 hPa 0,2 mm 1,2 km/h (1 Bft) O 92 ° 0 min 0,000 mm 0,0 UV-I 0 W/m² 14,0 °C 15,0 °C 3,2 km/h (1 Bft)
16.08.2017 01:56 15,0 °C 15,0 °C 94 % 1018,3 hPa 0,0 mm 2,8 km/h (1 Bft) O 92 ° 0 min 0,000 mm 0,0 UV-I 0 W/m² 14,0 °C 15,0 °C 3,2 km/h (1 Bft)
16.08.2017 01:57 14,9 °C 15,0 °C 94 % 1018,2 hPa 0,0 mm 5,7 km/h (1 Bft) O 79 ° 0 min 0,000 mm 0,0 UV-I 0 W/m² 13,9 °C 14,9 °C 8,0 km/h (2 Bft)
16.08.2017 01:58 15,0 °C 15,0 °C 94 % 1018,2 hPa 0,2 mm 5,5 km/h (1 Bft) O 96 ° 0 min 0,000 mm 0,0 UV-I 0 W/m² 14,0 °C 15,0 °C 6,4 km/h (2 Bft)
16.08.2017 01:59 14,9 °C 15,0 °C 94 % 1018,1 hPa 0,0 mm 6,6 km/h (2 Bft) O 97 ° 0 min 0,000 mm 0,0 UV-I 0 W/m² 13,9 °C 14,9 °C 11,3 km/h (2 Bft)
16.08.2017 02:00 14,9 °C 14,9 °C 94 % 1018,0 hPa 0,0 mm 7,2 km/h (2 Bft) O 93 ° 0 min 0,000 mm 0,0 UV-I 0 W/m² 13,9 °C 14,9 °C 12,9 km/h (3 Bft)
16.08.2017 02:01 14,9 °C 14,9 °C 94 % 1017,9 hPa 0,2 mm 8,5 km/h (2 Bft) O-NO 76 ° 0 min 0,000 mm 0,0 UV-I 0 W/m² 13,9 °C 14,9 °C 12,9 km/h (3 Bft)
16.08.2017 02:02 14,9 °C 14,9 °C 94 % 1017,8 hPa 0,0 mm 7,2 km/h (2 Bft) O 90 ° 0 min 0,000 mm 0,0 UV-I 0 W/m² 13,9 °C 14,9 °C 11,3 km/h (2 Bft)
16.08.2017 02:03 14,9 °C 15,0 °C 94 % 1017,8 hPa 0,2 mm 4,9 km/h (1 Bft) O-NO 71 ° 0 min 0,000 mm 0,0 UV-I 0 W/m² 13,9 °C 14,9 °C 6,4 km/h (2 Bft)
16.08.2017 02:04 15,0 °C 15,0 °C 94 % 1017,8 hPa 0,0 mm 3,6 km/h (1 Bft) O-NO 74 ° 0 min 0,000 mm 0,0 UV-I 0 W/m² 14,0 °C 15,0 °C 4,8 km/h (1 Bft)
16.08.2017 02:05 14,9 °C 15,0 °C 94 % 1017,7 hPa 0,0 mm 4,3 km/h (1 Bft) O 89 ° 0 min 0,000 mm 0,0 UV-I 0 W/m² 13,9 °C 14,9 °C 6,4 km/h (2 Bft)
16.08.2017 02:06 15,0 °C 15,0 °C 94 % 1017,7 hPa 0,0 mm 4,9 km/h (1 Bft) O-NO 71 ° 0 min 0,000 mm 0,0 UV-I 0 W/m² 14,0 °C 15,0 °C 8,0 km/h (2 Bft)
16.08.2017 02:07 15,0 °C 15,0 °C 94 % 1017,5 hPa 0,0 mm 4,6 km/h (1 Bft) O-NO 63 ° 0 min 0,000 mm 0,0 UV-I 0 W/m² 14,0 °C 15,0 °C 6,4 km/h (2 Bft)
16.08.2017 02:08 15,0 °C 15,0 °C 94 % 1017,5 hPa 0,2 mm 5,3 km/h (1 Bft) O-NO 69 ° 0 min 0,000 mm 0,0 UV-I 0 W/m² 14,0 °C 15,0 °C 8,0 km/h (2 Bft)
16.08.2017 02:09 15,0 °C 15,0 °C 94 % 1017,5 hPa 0,0 mm 5,6 km/h (1 Bft) O-NO 68 ° 0 min 0,000 mm 0,0 UV-I 0 W/m² 14,0 °C 15,0 °C 11,3 km/h (2 Bft)
16.08.2017 02:10 15,0 °C 15,1 °C 94 % 1017,4 hPa 0,0 mm 5,1 km/h (1 Bft) O-NO 66 ° 0 min 0,000 mm 0,0 UV-I 0 W/m² 14,0 °C 15,0 °C 8,0 km/h (2 Bft)
16.08.2017 02:11 15,1 °C 15,1 °C 94 % 1017,5 hPa 0,0 mm 7,5 km/h (2 Bft) O 94 ° 0 min 0,000 mm 0,0 UV-I 0 W/m² 14,1 °C 15,1 °C 12,9 km/h (3 Bft)
16.08.2017 02:12 15,1 °C 15,1 °C 94 % 1017,5 hPa 0,0 mm 3,1 km/h (1 Bft) O-NO 57 ° 0 min 0,000 mm 0,0 UV-I 0 W/m² 14,1 °C 15,1 °C 6,4 km/h (2 Bft)
16.08.2017 02:13 15,1 °C 15,1 °C 94 % 1017,5 hPa 0,0 mm 3,0 km/h (1 Bft) NO 51 ° 0 min 0,000 mm 0,0 UV-I 0 W/m² 14,1 °C 15,1 °C 4,8 km/h (1 Bft)
16.08.2017 02:14 15,1 °C 15,1 °C 94 % 1017,5 hPa 0,0 mm 1,1 km/h (1 Bft) O-NO 69 ° 0 min 0,000 mm 0,0 UV-I 0 W/m² 14,1 °C 15,1 °C 3,2 km/h (1 Bft)
16.08.2017 02:15 15,1 °C 15,1 °C 94 % 1017,5 hPa 0,2 mm 0,3 km/h (0 Bft) O-NO 69 ° 0 min 0,000 mm 0,0 UV-I 0 W/m² 14,1 °C 15,1 °C 1,6 km/h (1 Bft)
16.08.2017 02:16 15,1 °C 15,1 °C 94 % 1017,6 hPa 0,0 mm 1,3 km/h (1 Bft) O-NO 60 ° 0 min 0,000 mm 0,0 UV-I 0 W/m² 14,1 °C 15,1 °C 3,2 km/h (1 Bft)
16.08.2017 02:17 15,1 °C 15,1 °C 94 % 1017,5 hPa 0,0 mm 3,4 km/h (1 Bft) O 84 ° 0 min 0,000 mm 0,0 UV-I 0 W/m² 14,1 °C 15,1 °C 6,4 km/h (2 Bft)
16.08.2017 02:18 15,1 °C 15,1 °C 94 % 1017,5 hPa 0,0 mm 4,9 km/h (1 Bft) O-SO 103 ° 0 min 0,000 mm 0,0 UV-I 0 W/m² 14,1 °C 15,1 °C 8,0 km/h (2 Bft)
16.08.2017 02:19 15,1 °C 15,1 °C 94 % 1017,5 hPa 0,0 mm 5,5 km/h (1 Bft) O-NO 61 ° 0 min 0,000 mm 0,0 UV-I 0 W/m² 14,1 °C 15,1 °C 9,7 km/h (2 Bft)
16.08.2017 02:20 15,2 °C 15,2 °C 93 % 1017,5 hPa 0,0 mm 2,2 km/h (1 Bft) O-NO 61 ° 0 min 0,000 mm 0,0 UV-I 0 W/m² 14,1 °C 15,2 °C 4,8 km/h (1 Bft)
16.08.2017 02:21 15,2 °C 15,2 °C 94 % 1017,5 hPa 0,0 mm 3,6 km/h (1 Bft) O-NO 62 ° 0 min 0,000 mm 0,0 UV-I 0 W/m² 14,2 °C 15,2 °C 6,4 km/h (2 Bft)
16.08.2017 02:22 15,1 °C 15,2 °C 93 % 1017,4 hPa 0,0 mm 3,2 km/h (1 Bft) O-NO 62 ° 0 min 0,000 mm 0,0 UV-I 0 W/m² 14,0 °C 15,1 °C 4,8 km/h (1 Bft)
16.08.2017 02:23 15,2 °C 15,2 °C 93 % 1017,4 hPa 0,2 mm 2,7 km/h (1 Bft) O-NO 63 ° 0 min 0,000 mm 0,0 UV-I 0 W/m² 14,1 °C 15,2 °C 4,8 km/h (1 Bft)
16.08.2017 02:24 15,2 °C 15,2 °C 93 % 1017,3 hPa 0,0 mm 1,7 km/h (1 Bft) O-NO 63 ° 0 min 0,000 mm 0,0 UV-I 0 W/m² 14,1 °C 15,2 °C 3,2 km/h (1 Bft)
16.08.2017 02:25 15,1 °C 15,2 °C 93 % 1017,3 hPa 0,0 mm 0,0 km/h (0 Bft) O-NO 63 ° 0 min 0,000 mm 0,0 UV-I 0 W/m² 14,0 °C 15,1 °C 0,0 km/h (0 Bft)
16.08.2017 02:26 15,1 °C 15,2 °C 93 % 1017,3 hPa 0,0 mm 0,0 km/h (0 Bft) O-NO 63 ° 0 min 0,000 mm 0,0 UV-I 0 W/m² 14,0 °C 15,1 °C 0,0 km/h (0 Bft)
16.08.2017 02:27 15,1 °C 15,1 °C 93 % 1017,2 hPa 0,0 mm 0,8 km/h (0 Bft) O-NO 63 ° 0 min 0,000 mm 0,0 UV-I 0 W/m² 14,0 °C 15,1 °C 3,2 km/h (1 Bft)
16.08.2017 02:28 15,1 °C 15,2 °C 93 % 1017,2 hPa 0,0 mm 0,0 km/h (0 Bft) O-NO 63 ° 0 min 0,000 mm 0,0 UV-I 0 W/m² 14,0 °C 15,1 °C 0,0 km/h (0 Bft)
16.08.2017 02:29 15,1 °C 15,1 °C 94 % 1017,3 hPa 0,0 mm 0,0 km/h (0 Bft) O-NO 63 ° 0 min 0,000 mm 0,0 UV-I 0 W/m² 14,1 °C 15,1 °C 0,0 km/h (0 Bft)
16.08.2017 02:30 15,1 °C 15,2 °C 94 % 1017,3 hPa 0,0 mm 0,1 km/h (0 Bft) O-NO 63 ° 0 min 0,000 mm 0,0 UV-I 0 W/m² 14,1 °C 15,1 °C 1,6 km/h (1 Bft)
16.08.2017 02:31 15,1 °C 15,1 °C 93 % 1017,4 hPa 0,0 mm 2,8 km/h (1 Bft) N-NO 30 ° 0 min 0,000 mm 0,0 UV-I 0 W/m² 14,0 °C 15,1 °C 4,8 km/h (1 Bft)
16.08.2017 02:32 15,1 °C 15,1 °C 93 % 1017,5 hPa 0,0 mm 2,5 km/h (1 Bft) NW 319 ° 0 min 0,000 mm 0,0 UV-I 0 W/m² 14,0 °C 15,1 °C 4,8 km/h (1 Bft)
16.08.2017 02:33 15,1 °C 15,1 °C 93 % 1017,5 hPa 0,0 mm 1,0 km/h (0 Bft) NW 319 ° 0 min 0,000 mm 0,0 UV-I 0 W/m² 14,0 °C 15,1 °C 1,6 km/h (1 Bft)
16.08.2017 02:34 15,1 °C 15,1 °C 93 % 1017,5 hPa 0,0 mm 1,7 km/h (1 Bft) NW 321 ° 0 min 0,000 mm 0,0 UV-I 0 W/m² 14,0 °C 15,1 °C 3,2 km/h (1 Bft)
16.08.2017 02:35 15,1 °C 15,1 °C 93 % 1017,4 hPa 0,0 mm 0,9 km/h (0 Bft) NW 321 ° 0 min 0,000 mm 0,0 UV-I 0 W/m² 14,0 °C 15,1 °C 3,2 km/h (1 Bft)
16.08.2017 02:36 15,1 °C 15,1 °C 94 % 1017,4 hPa 0,0 mm 0,0 km/h (0 Bft) NW 321 ° 0 min 0,000 mm 0,0 UV-I 0 W/m² 14,1 °C 15,1 °C 0,0 km/h (0 Bft)
16.08.2017 02:37 15,1 °C 15,1 °C 93 % 1017,5 hPa 0,0 mm 0,1 km/h (0 Bft) NW 321 ° 0 min 0,000 mm 0,0 UV-I 0 W/m² 14,0 °C 15,1 °C 1,6 km/h (1 Bft)
16.08.2017 02:38 15,1 °C 15,1 °C 93 % 1017,5 hPa 0,2 mm 1,6 km/h (1 Bft) NW 320 ° 0 min 0,000 mm 0,0 UV-I 0 W/m² 14,0 °C 15,1 °C 3,2 km/h (1 Bft)
16.08.2017 02:39 15,1 °C 15,1 °C 93 % 1017,5 hPa 0,0 mm 0,0 km/h (0 Bft) NW 320 ° 0 min 0,000 mm 0,0 UV-I 0 W/m² 14,0 °C 15,1 °C 0,0 km/h (0 Bft)
16.08.2017 02:40 15,0 °C 15,1 °C 93 % 1017,5 hPa 0,0 mm 0,0 km/h (0 Bft) NW 320 ° 0 min 0,000 mm 0,0 UV-I 0 W/m² 13,9 °C 15,0 °C 0,0 km/h (0 Bft)
16.08.2017 02:41 15,0 °C 15,1 °C 93 % 1017,5 hPa 0,0 mm 0,0 km/h (0 Bft) NW 320 ° 0 min 0,000 mm 0,0 UV-I 0 W/m² 13,9 °C 15,0 °C 0,0 km/h (0 Bft)
16.08.2017 02:42 15,0 °C 15,1 °C 93 % 1017,6 hPa 0,0 mm 0,9 km/h (0 Bft) NW 321 ° 0 min 0,000 mm 0,0 UV-I 0 W/m² 13,9 °C 15,0 °C 3,2 km/h (1 Bft)
16.08.2017 02:43 15,0 °C 15,0 °C 94 % 1017,6 hPa 0,0 mm 1,9 km/h (1 Bft) NW 321 ° 0 min 0,000 mm 0,0 UV-I 0 W/m² 14,0 °C 15,0 °C 3,2 km/h (1 Bft)
16.08.2017 02:44 14,9 °C 15,0 °C 94 % 1017,6 hPa 0,0 mm 1,1 km/h (1 Bft) NW 322 ° 0 min 0,000 mm 0,0 UV-I 0 W/m² 13,9 °C 14,9 °C 3,2 km/h (1 Bft)
16.08.2017 02:45 14,9 °C 15,0 °C 94 % 1017,6 hPa 0,0 mm 1,4 km/h (1 Bft) N-NW 328 ° 0 min 0,000 mm 0,0 UV-I 0 W/m² 13,9 °C 14,9 °C 3,2 km/h (1 Bft)
16.08.2017 02:46 14,9 °C 15,0 °C 94 % 1017,5 hPa 0,0 mm 0,0 km/h (0 Bft) N-NW 328 ° 0 min 0,000 mm 0,0 UV-I 0 W/m² 13,9 °C 14,9 °C 0,0 km/h (0 Bft)
16.08.2017 02:47 14,9 °C 14,9 °C 94 % 1017,5 hPa 0,0 mm 1,0 km/h (0 Bft) N-NW 341 ° 0 min 0,000 mm 0,0 UV-I 0 W/m² 13,9 °C 14,9 °C 3,2 km/h (1 Bft)
16.08.2017 02:48 14,9 °C 14,9 °C 94 % 1017,5 hPa 0,0 mm 2,1 km/h (1 Bft) N-NW 342 ° 0 min 0,000 mm 0,0 UV-I 0 W/m² 13,9 °C 14,9 °C 3,2 km/h (1 Bft)
16.08.2017 02:49 14,9 °C 14,9 °C 94 % 1017,5 hPa 0,0 mm 1,5 km/h (1 Bft) N-NW 342 ° 0 min 0,000 mm 0,0 UV-I 0 W/m² 13,9 °C 14,9 °C 3,2 km/h (1 Bft)
16.08.2017 02:50 14,9 °C 14,9 °C 94 % 1017,5 hPa 0,0 mm 2,3 km/h (1 Bft) NO 42 ° 0 min 0,000 mm 0,0 UV-I 0 W/m² 13,9 °C 14,9 °C 4,8 km/h (1 Bft)
16.08.2017 02:51 14,9 °C 14,9 °C 94 % 1017,4 hPa 0,0 mm 3,2 km/h (1 Bft) NO 48 ° 0 min 0,000 mm 0,0 UV-I 0 W/m² 13,9 °C 14,9 °C 3,2 km/h (1 Bft)
16.08.2017 02:52 14,9 °C 14,9 °C 94 % 1017,4 hPa 0,0 mm 2,7 km/h (1 Bft) NO 48 ° 0 min 0,000 mm 0,0 UV-I 0 W/m² 13,9 °C 14,9 °C 3,2 km/h (1 Bft)
16.08.2017 02:53 14,8 °C 14,9 °C 94 % 1017,4 hPa 0,0 mm 3,0 km/h (1 Bft) NO 48 ° 0 min 0,000 mm 0,0 UV-I 0 W/m² 13,8 °C 14,8 °C 4,8 km/h (1 Bft)
16.08.2017 02:54 14,9 °C 14,9 °C 94 % 1017,5 hPa 0,0 mm 2,4 km/h (1 Bft) NO 48 ° 0 min 0,000 mm 0,0 UV-I 0 W/m² 13,9 °C 14,9 °C 3,2 km/h (1 Bft)
16.08.2017 02:55 14,9 °C 14,9 °C 94 % 1017,5 hPa 0,0 mm 1,1 km/h (1 Bft) NO 48 ° 0 min 0,000 mm 0,0 UV-I 0 W/m² 13,9 °C 14,9 °C 1,6 km/h (1 Bft)
16.08.2017 02:56 14,8 °C 14,9 °C 94 % 1017,5 hPa 0,0 mm 0,8 km/h (0 Bft) NO 48 ° 0 min 0,000 mm 0,0 UV-I 0 W/m² 13,8 °C 14,8 °C 3,2 km/h (1 Bft)
16.08.2017 02:57 14,8 °C 14,9 °C 94 % 1017,5 hPa 0,0 mm 0,0 km/h (0 Bft) NO 48 ° 0 min 0,000 mm 0,0 UV-I 0 W/m² 13,8 °C 14,8 °C 0,0 km/h (0 Bft)
16.08.2017 02:58 14,8 °C 14,8 °C 94 % 1017,5 hPa 0,0 mm 0,0 km/h (0 Bft) NO 48 ° 0 min 0,000 mm 0,0 UV-I 0 W/m² 13,8 °C 14,8 °C 0,0 km/h (0 Bft)
16.08.2017 02:59 14,8 °C 14,8 °C 94 % 1017,6 hPa 0,0 mm 0,0 km/h (0 Bft) NO 48 ° 0 min 0,000 mm 0,0 UV-I 0 W/m² 13,8 °C 14,8 °C 0,0 km/h (0 Bft)
16.08.2017 03:00 14,8 °C 14,8 °C 94 % 1017,6 hPa 0,0 mm 0,0 km/h (0 Bft) NO 48 ° 0 min 0,000 mm 0,0 UV-I 0 W/m² 13,8 °C 14,8 °C 0,0 km/h (0 Bft)
16.08.2017 03:01 14,8 °C 14,8 °C 94 % 1017,6 hPa 0,0 mm 0,0 km/h (0 Bft) NO 48 ° 0 min 0,000 mm 0,0 UV-I 0 W/m² 13,8 °C 14,8 °C 0,0 km/h (0 Bft)
16.08.2017 03:02 14,8 °C 14,8 °C 94 % 1017,6 hPa 0,0 mm 0,0 km/h (0 Bft) NO 48 ° 0 min 0,000 mm 0,0 UV-I 0 W/m² 13,8 °C 14,8 °C 0,0 km/h (0 Bft)
16.08.2017 03:03 14,8 °C 14,8 °C 94 % 1017,6 hPa 0,0 mm 0,0 km/h (0 Bft) NO 48 ° 0 min 0,000 mm 0,0 UV-I 0 W/m² 13,8 °C 14,8 °C 0,0 km/h (0 Bft)
16.08.2017 03:04 14,8 °C 14,8 °C 94 % 1017,6 hPa 0,0 mm 0,0 km/h (0 Bft) NO 48 ° 0 min 0,000 mm 0,0 UV-I 0 W/m² 13,8 °C 14,8 °C 0,0 km/h (0 Bft)
16.08.2017 03:05 14,8 °C 14,8 °C 94 % 1017,6 hPa 0,0 mm 0,0 km/h (0 Bft) NO 48 ° 0 min 0,000 mm 0,0 UV-I 0 W/m² 13,8 °C 14,8 °C 0,0 km/h (0 Bft)
16.08.2017 03:06 14,8 °C 14,8 °C 94 % 1017,5 hPa 0,0 mm 0,0 km/h (0 Bft) NO 48 ° 0 min 0,000 mm 0,0 UV-I 0 W/m² 13,8 °C 14,8 °C 0,0 km/h (0 Bft)
16.08.2017 03:07 14,8 °C 14,8 °C 94 % 1017,5 hPa 0,0 mm 0,0 km/h (0 Bft) NO 48 ° 0 min 0,000 mm 0,0 UV-I 0 W/m² 13,8 °C 14,8 °C 0,0 km/h (0 Bft)
16.08.2017 03:08 14,8 °C 14,8 °C 94 % 1017,5 hPa 0,0 mm 0,0 km/h (0 Bft) NO 48 ° 0 min 0,000 mm 0,0 UV-I 0 W/m² 13,8 °C 14,8 °C 0,0 km/h (0 Bft)
16.08.2017 03:09 14,8 °C 14,8 °C 94 % 1017,5 hPa 0,0 mm 0,0 km/h (0 Bft) NO 48 ° 0 min 0,000 mm 0,0 UV-I 0 W/m² 13,8 °C 14,8 °C 0,0 km/h (0 Bft)
16.08.2017 03:10 14,8 °C 14,8 °C 94 % 1017,5 hPa 0,0 mm 0,0 km/h (0 Bft) NO 48 ° 0 min 0,000 mm 0,0 UV-I 0 W/m² 13,8 °C 14,8 °C 0,0 km/h (0 Bft)
16.08.2017 03:11 14,8 °C 14,8 °C 94 % 1017,5 hPa 0,0 mm 0,0 km/h (0 Bft) NO 48 ° 0 min 0,000 mm 0,0 UV-I 0 W/m² 13,8 °C 14,8 °C 0,0 km/h (0 Bft)
16.08.2017 03:12 14,8 °C 14,8 °C 94 % 1017,5 hPa 0,0 mm 0,0 km/h (0 Bft) NO 48 ° 0 min 0,000 mm 0,0 UV-I 0 W/m² 13,8 °C 14,8 °C 0,0 km/h (0 Bft)
16.08.2017 03:13 14,8 °C 14,8 °C 94 % 1017,5 hPa 0,0 mm 0,0 km/h (0 Bft) NO 48 ° 0 min 0,000 mm 0,0 UV-I 0 W/m² 13,8 °C 14,8 °C 0,0 km/h (0 Bft)
16.08.2017 03:14 14,8 °C 14,8 °C 94 % 1017,4 hPa 0,0 mm 0,0 km/h (0 Bft) NO 48 ° 0 min 0,000 mm 0,0 UV-I 0 W/m² 13,8 °C 14,8 °C 0,0 km/h (0 Bft)
16.08.2017 03:15 14,8 °C 14,8 °C 94 % 1017,3 hPa 0,0 mm 0,0 km/h (0 Bft) NO 48 ° 0 min 0,000 mm 0,0 UV-I 0 W/m² 13,8 °C 14,8 °C 0,0 km/h (0 Bft)
16.08.2017 03:16 14,8 °C 14,8 °C 94 % 1017,3 hPa 0,0 mm 0,0 km/h (0 Bft) NO 48 ° 0 min 0,000 mm 0,0 UV-I 0 W/m² 13,8 °C 14,8 °C 0,0 km/h (0 Bft)
16.08.2017 03:17 14,8 °C 14,8 °C 94 % 1017,4 hPa 0,0 mm 0,0 km/h (0 Bft) NO 48 ° 0 min 0,000 mm 0,0 UV-I 0 W/m² 13,8 °C 14,8 °C 0,0 km/h (0 Bft)
16.08.2017 03:18 14,8 °C 14,8 °C 94 % 1017,4 hPa 0,0 mm 0,0 km/h (0 Bft) NO 48 ° 0 min 0,000 mm 0,0 UV-I 0 W/m² 13,8 °C 14,8 °C 0,0 km/h (0 Bft)
16.08.2017 03:19 14,8 °C 14,8 °C 94 % 1017,3 hPa 0,0 mm 0,0 km/h (0 Bft) NO 48 ° 0 min 0,000 mm 0,0 UV-I 0 W/m² 13,8 °C 14,8 °C 0,0 km/h (0 Bft)
16.08.2017 03:20 14,7 °C 14,8 °C 94 % 1017,4 hPa 0,0 mm 0,0 km/h (0 Bft) NO 48 ° 0 min 0,000 mm 0,0 UV-I 0 W/m² 13,7 °C 14,7 °C 0,0 km/h (0 Bft)
16.08.2017 03:21 14,7 °C 14,7 °C 95 % 1017,4 hPa 0,0 mm 0,0 km/h (0 Bft) NO 48 ° 0 min 0,000 mm 0,0 UV-I 0 W/m² 13,9 °C 14,7 °C 0,0 km/h (0 Bft)
16.08.2017 03:22 14,7 °C 14,7 °C 94 % 1017,5 hPa 0,0 mm 0,0 km/h (0 Bft) NO 48 ° 0 min 0,000 mm 0,0 UV-I 0 W/m² 13,7 °C 14,7 °C 0,0 km/h (0 Bft)
16.08.2017 03:23 14,7 °C 14,7 °C 95 % 1017,5 hPa 0,0 mm 0,0 km/h (0 Bft) NO 48 ° 0 min 0,000 mm 0,0 UV-I 0 W/m² 13,9 °C 14,7 °C 0,0 km/h (0 Bft)
16.08.2017 03:24 14,7 °C 14,7 °C 95 % 1017,4 hPa 0,0 mm 0,0 km/h (0 Bft) NO 48 ° 0 min 0,000 mm 0,0 UV-I 0 W/m² 13,9 °C 14,7 °C 0,0 km/h (0 Bft)
16.08.2017 03:25 14,7 °C 14,7 °C 95 % 1017,4 hPa 0,0 mm 0,0 km/h (0 Bft) NO 48 ° 0 min 0,000 mm 0,0 UV-I 0 W/m² 13,9 °C 14,7 °C 0,0 km/h (0 Bft)
16.08.2017 03:26 14,7 °C 14,7 °C 95 % 1017,4 hPa 0,0 mm 0,0 km/h (0 Bft) NO 48 ° 0 min 0,000 mm 0,0 UV-I 0 W/m² 13,9 °C 14,7 °C 0,0 km/h (0 Bft)
16.08.2017 03:27 14,7 °C 14,7 °C 95 % 1017,4 hPa 0,0 mm 0,0 km/h (0 Bft) NO 48 ° 0 min 0,000 mm 0,0 UV-I 0 W/m² 13,9 °C 14,7 °C 0,0 km/h (0 Bft)
16.08.2017 03:28 14,6 °C 14,7 °C 95 % 1017,4 hPa 0,0 mm 0,0 km/h (0 Bft) NO 48 ° 0 min 0,000 mm 0,0 UV-I 0 W/m² 13,8 °C 14,6 °C 0,0 km/h (0 Bft)
16.08.2017 03:29 14,6 °C 14,7 °C 95 % 1017,5 hPa 0,0 mm 1,0 km/h (0 Bft) NW 310 ° 0 min 0,000 mm 0,0 UV-I 0 W/m² 13,8 °C 14,6 °C 3,2 km/h (1 Bft)
16.08.2017 03:30 14,6 °C 14,6 °C 95 % 1017,5 hPa 0,0 mm 0,2 km/h (0 Bft) NW 310 ° 0 min 0,000 mm 0,0 UV-I 0 W/m² 13,8 °C 14,6 °C 1,6 km/h (1 Bft)
16.08.2017 03:31 14,6 °C 14,6 °C 95 % 1017,6 hPa 0,0 mm 1,5 km/h (1 Bft) NW 310 ° 0 min 0,000 mm 0,0 UV-I 0 W/m² 13,8 °C 14,6 °C 1,6 km/h (1 Bft)
16.08.2017 03:32 14,7 °C 14,7 °C 95 % 1017,6 hPa 0,0 mm 1,3 km/h (1 Bft) NW 310 ° 0 min 0,000 mm 0,0 UV-I 0 W/m² 13,9 °C 14,7 °C 3,2 km/h (1 Bft)
16.08.2017 03:33 14,7 °C 14,7 °C 95 % 1017,6 hPa 0,0 mm 1,9 km/h (1 Bft) W-NW 286 ° 0 min 0,000 mm 0,0 UV-I 0 W/m² 13,9 °C 14,7 °C 4,8 km/h (1 Bft)
16.08.2017 03:34 14,7 °C 14,7 °C 95 % 1017,6 hPa 0,0 mm 2,4 km/h (1 Bft) W-NW 286 ° 0 min 0,000 mm 0,0 UV-I 0 W/m² 13,9 °C 14,7 °C 3,2 km/h (1 Bft)
16.08.2017 03:35 14,7 °C 14,7 °C 95 % 1017,6 hPa 0,0 mm 1,8 km/h (1 Bft) W-NW 286 ° 0 min 0,000 mm 0,0 UV-I 0 W/m² 13,9 °C 14,7 °C 3,2 km/h (1 Bft)
16.08.2017 03:36 14,7 °C 14,7 °C 95 % 1017,6 hPa 0,0 mm 0,5 km/h (0 Bft) W-NW 286 ° 0 min 0,000 mm 0,0 UV-I 0 W/m² 13,9 °C 14,7 °C 1,6 km/h (1 Bft)
16.08.2017 03:37 14,7 °C 14,7 °C 95 % 1017,6 hPa 0,0 mm 1,8 km/h (1 Bft) W-NW 286 ° 0 min 0,000 mm 0,0 UV-I 0 W/m² 13,9 °C 14,7 °C 3,2 km/h (1 Bft)
16.08.2017 03:38 14,6 °C 14,7 °C 95 % 1017,7 hPa 0,0 mm 3,2 km/h (1 Bft) W 268 ° 0 min 0,000 mm 0,0 UV-I 0 W/m² 13,8 °C 14,6 °C 6,4 km/h (2 Bft)
16.08.2017 03:39 14,7 °C 14,7 °C 95 % 1017,7 hPa 0,0 mm 4,2 km/h (1 Bft) W 259 ° 0 min 0,000 mm 0,0 UV-I 0 W/m² 13,9 °C 14,7 °C 6,4 km/h (2 Bft)
16.08.2017 03:40 14,7 °C 14,7 °C 95 % 1017,8 hPa 0,0 mm 2,6 km/h (1 Bft) W 259 ° 0 min 0,000 mm 0,0 UV-I 0 W/m² 13,9 °C 14,7 °C 4,8 km/h (1 Bft)
16.08.2017 03:41 14,7 °C 14,7 °C 95 % 1017,8 hPa 0,0 mm 4,6 km/h (1 Bft) W 279 ° 0 min 0,000 mm 0,0 UV-I 0 W/m² 13,9 °C 14,7 °C 11,3 km/h (2 Bft)
16.08.2017 03:42 14,7 °C 14,7 °C 95 % 1017,8 hPa 0,0 mm 6,7 km/h (2 Bft) S-SW 192 ° 0 min 0,000 mm 0,0 UV-I 0 W/m² 13,9 °C 14,7 °C 11,3 km/h (2 Bft)
16.08.2017 03:43 14,7 °C 14,7 °C 95 % 1017,8 hPa 0,0 mm 6,8 km/h (2 Bft) S-SW 199 ° 0 min 0,000 mm 0,0 UV-I 0 W/m² 13,9 °C 14,7 °C 11,3 km/h (2 Bft)
16.08.2017 03:44 14,8 °C 14,8 °C 94 % 1018,0 hPa 0,0 mm 4,2 km/h (1 Bft) W-SW 247 ° 0 min 0,000 mm 0,0 UV-I 0 W/m² 13,8 °C 14,8 °C 6,4 km/h (2 Bft)
16.08.2017 03:45 14,8 °C 14,8 °C 94 % 1018,0 hPa 0,0 mm 4,5 km/h (1 Bft) W-SW 254 ° 0 min 0,000 mm 0,0 UV-I 0 W/m² 13,8 °C 14,8 °C 4,8 km/h (1 Bft)
16.08.2017 03:46 14,8 °C 14,8 °C 94 % 1018,2 hPa 0,0 mm 6,6 km/h (2 Bft) W-SW 256 ° 0 min 0,000 mm 0,0 UV-I 0 W/m² 13,8 °C 14,8 °C 9,7 km/h (2 Bft)
16.08.2017 03:47 14,8 °C 14,8 °C 94 % 1018,6 hPa 0,0 mm 9,7 km/h (2 Bft) W-SW 258 ° 0 min 0,000 mm 0,0 UV-I 0 W/m² 13,8 °C 14,8 °C 12,9 km/h (3 Bft)
16.08.2017 03:48 14,9 °C 14,9 °C 94 % 1019,0 hPa 0,0 mm 7,0 km/h (2 Bft) W 271 ° 0 min 0,000 mm 0,0 UV-I 0 W/m² 13,9 °C 14,9 °C 11,3 km/h (2 Bft)
16.08.2017 03:49 14,9 °C 14,9 °C 94 % 1019,0 hPa 0,0 mm 13,1 km/h (3 Bft) S-SW 210 ° 0 min 0,000 mm 0,0 UV-I 0 W/m² 13,9 °C 14,9 °C 19,3 km/h (3 Bft)
16.08.2017 03:50 14,9 °C 14,9 °C 94 % 1018,9 hPa 0,0 mm 3,6 km/h (1 Bft) W-SW 244 ° 0 min 0,000 mm 0,0 UV-I 0 W/m² 13,9 °C 14,9 °C 6,4 km/h (2 Bft)
16.08.2017 03:51 14,9 °C 14,9 °C 94 % 1018,9 hPa 0,0 mm 12,7 km/h (3 Bft) W 265 ° 0 min 0,000 mm 0,0 UV-I 0 W/m² 13,9 °C 14,9 °C 29,0 km/h (5 Bft)
16.08.2017 03:52 14,9 °C 14,9 °C 94 % 1019,0 hPa 0,0 mm 13,7 km/h (3 Bft) W-SW 248 ° 0 min 0,000 mm 0,0 UV-I 0 W/m² 13,9 °C 14,9 °C 22,5 km/h (4 Bft)
16.08.2017 03:53 15,0 °C 15,0 °C 94 % 1019,0 hPa 0,0 mm 9,1 km/h (2 Bft) W 261 ° 0 min 0,000 mm 0,0 UV-I 0 W/m² 14,0 °C 15,0 °C 14,5 km/h (3 Bft)
16.08.2017 03:54 15,0 °C 15,0 °C 94 % 1019,0 hPa 0,0 mm 9,2 km/h (2 Bft) W-NW 290 ° 0 min 0,000 mm 0,0 UV-I 0 W/m² 14,0 °C 15,0 °C 14,5 km/h (3 Bft)
16.08.2017 03:55 15,1 °C 15,1 °C 94 % 1018,9 hPa 0,0 mm 7,2 km/h (2 Bft) W 275 ° 0 min 0,000 mm 0,0 UV-I 0 W/m² 14,1 °C 15,1 °C 17,7 km/h (3 Bft)
16.08.2017 03:56 15,1 °C 15,1 °C 94 % 1018,9 hPa 0,0 mm 15,5 km/h (3 Bft) W-SW 258 ° 0 min 0,000 mm 0,0 UV-I 0 W/m² 14,1 °C 15,1 °C 20,9 km/h (4 Bft)
16.08.2017 03:57 15,1 °C 15,1 °C 94 % 1018,9 hPa 0,0 mm 13,4 km/h (3 Bft) W-SW 243 ° 0 min 0,000 mm 0,0 UV-I 0 W/m² 14,1 °C 15,1 °C 20,9 km/h (4 Bft)
16.08.2017 03:58 15,1 °C 15,1 °C 94 % 1019,0 hPa 0,0 mm 10,7 km/h (2 Bft) W-SW 237 ° 0 min 0,000 mm 0,0 UV-I 0 W/m² 14,1 °C 15,1 °C 16,1 km/h (3 Bft)
16.08.2017 03:59 15,1 °C 15,1 °C 94 % 1019,0 hPa 0,0 mm 13,6 km/h (3 Bft) W-NW 298 ° 0 min 0,000 mm 0,0 UV-I 0 W/m² 14,1 °C 15,1 °C 20,9 km/h (4 Bft)
16.08.2017 04:00 15,1 °C 15,2 °C 94 % 1019,0 hPa 0,0 mm 18,5 km/h (3 Bft) W 281 ° 0 min 0,000 mm 0,0 UV-I 0 W/m² 14,1 °C 15,1 °C 24,1 km/h (4 Bft)
16.08.2017 04:01 15,2 °C 15,2 °C 94 % 1019,0 hPa 0,0 mm 18,6 km/h (3 Bft) W 259 ° 0 min 0,000 mm 0,0 UV-I 0 W/m² 14,2 °C 15,2 °C 27,4 km/h (4 Bft)
16.08.2017 04:02 15,2 °C 15,2 °C 94 % 1019,1 hPa 0,0 mm 16,4 km/h (3 Bft) W-SW 254 ° 0 min 0,000 mm 0,0 UV-I 0 W/m² 14,2 °C 15,2 °C 25,7 km/h (4 Bft)
16.08.2017 04:03 15,2 °C 15,2 °C 94 % 1019,1 hPa 0,0 mm 13,5 km/h (3 Bft) W 270 ° 0 min 0,000 mm 0,0 UV-I 0 W/m² 14,2 °C 15,2 °C 20,9 km/h (4 Bft)
16.08.2017 04:04 15,2 °C 15,2 °C 94 % 1019,0 hPa 0,0 mm 11,2 km/h (2 Bft) W-NW 284 ° 0 min 0,000 mm 0,0 UV-I 0 W/m² 14,2 °C 15,2 °C 14,5 km/h (3 Bft)
16.08.2017 04:05 15,2 °C 15,2 °C 93 % 1019,0 hPa 0,0 mm 12,4 km/h (3 Bft) W 266 ° 0 min 0,000 mm 0,0 UV-I 0 W/m² 14,1 °C 15,2 °C 19,3 km/h (3 Bft)
16.08.2017 04:06 15,2 °C 15,2 °C 93 % 1019,0 hPa 0,0 mm 16,4 km/h (3 Bft) W-SW 258 ° 0 min 0,000 mm 0,0 UV-I 0 W/m² 14,1 °C 15,2 °C 25,7 km/h (4 Bft)
16.08.2017 04:07 15,2 °C 15,2 °C 93 % 1018,9 hPa 0,0 mm 16,9 km/h (3 Bft) W 277 ° 0 min 0,000 mm 0,0 UV-I 0 W/m² 14,1 °C 15,2 °C 24,1 km/h (4 Bft)
16.08.2017 04:08 15,2 °C 15,2 °C 93 % 1018,9 hPa 0,2 mm 18,6 km/h (3 Bft) NW 309 ° 0 min 0,000 mm 0,0 UV-I 0 W/m² 14,1 °C 15,2 °C 25,7 km/h (4 Bft)
16.08.2017 04:09 15,2 °C 15,2 °C 93 % 1018,9 hPa 0,2 mm 21,0 km/h (4 Bft) W 276 ° 0 min 0,000 mm 0,0 UV-I 0 W/m² 14,1 °C 15,2 °C 27,4 km/h (4 Bft)
16.08.2017 04:10 15,2 °C 15,2 °C 93 % 1018,9 hPa 0,0 mm 19,2 km/h (3 Bft) W 269 ° 0 min 0,000 mm 0,0 UV-I 0 W/m² 14,1 °C 15,2 °C 29,0 km/h (5 Bft)
16.08.2017 04:11 15,2 °C 15,2 °C 93 % 1018,8 hPa 0,0 mm 17,6 km/h (3 Bft) W 264 ° 0 min 0,000 mm 0,0 UV-I 0 W/m² 14,1 °C 15,2 °C 29,0 km/h (5 Bft)
16.08.2017 04:12 15,2 °C 15,2 °C 92 % 1018,8 hPa 0,0 mm 14,9 km/h (3 Bft) W-NW 294 ° 0 min 0,000 mm 0,0 UV-I 0 W/m² 13,9 °C 15,2 °C 24,1 km/h (4 Bft)
16.08.2017 04:13 15,2 °C 15,2 °C 92 % 1018,8 hPa 0,0 mm 17,6 km/h (3 Bft) W 262 ° 0 min 0,000 mm 0,0 UV-I 0 W/m² 13,9 °C 15,2 °C 24,1 km/h (4 Bft)
16.08.2017 04:14 15,2 °C 15,2 °C 92 % 1018,7 hPa 0,0 mm 18,3 km/h (3 Bft) W 267 ° 0 min 0,000 mm 0,0 UV-I 0 W/m² 13,9 °C 15,2 °C 25,7 km/h (4 Bft)
16.08.2017 04:15 15,2 °C 15,2 °C 92 % 1018,7 hPa 0,0 mm 14,4 km/h (3 Bft) W 279 ° 0 min 0,000 mm 0,0 UV-I 0 W/m² 13,9 °C 15,2 °C 22,5 km/h (4 Bft)
16.08.2017 04:16 15,2 °C 15,2 °C 92 % 1018,8 hPa 0,0 mm 10,5 km/h (2 Bft) W-SW 243 ° 0 min 0,000 mm 0,0 UV-I 0 W/m² 13,9 °C 15,2 °C 14,5 km/h (3 Bft)
16.08.2017 04:17 15,2 °C 15,2 °C 92 % 1018,8 hPa 0,0 mm 13,5 km/h (3 Bft) W 261 ° 0 min 0,000 mm 0,0 UV-I 0 W/m² 13,9 °C 15,2 °C 19,3 km/h (3 Bft)
16.08.2017 04:18 15,2 °C 15,2 °C 92 % 1018,8 hPa 0,0 mm 14,4 km/h (3 Bft) W-NW 296 ° 0 min 0,000 mm 0,0 UV-I 0 W/m² 13,9 °C 15,2 °C 22,5 km/h (4 Bft)
16.08.2017 04:19 15,1 °C 15,2 °C 91 % 1018,7 hPa 0,0 mm 18,5 km/h (3 Bft) W-SW 254 ° 0 min 0,000 mm 0,0 UV-I 0 W/m² 13,6 °C 15,1 °C 25,7 km/h (4 Bft)
16.08.2017 04:20 15,1 °C 15,2 °C 91 % 1018,7 hPa 0,0 mm 18,1 km/h (3 Bft) W-NW 294 ° 0 min 0,000 mm 0,0 UV-I 0 W/m² 13,6 °C 15,1 °C 24,1 km/h (4 Bft)
16.08.2017 04:21 15,1 °C 15,2 °C 91 % 1018,7 hPa 0,0 mm 9,1 km/h (2 Bft) W-NW 300 ° 0 min 0,000 mm 0,0 UV-I 0 W/m² 13,6 °C 15,1 °C 14,5 km/h (3 Bft)
16.08.2017 04:22 15,2 °C 15,2 °C 91 % 1018,7 hPa 0,0 mm 9,2 km/h (2 Bft) W 279 ° 0 min 0,000 mm 0,0 UV-I 0 W/m² 13,7 °C 15,2 °C 14,5 km/h (3 Bft)
16.08.2017 04:23 15,1 °C 15,2 °C 91 % 1018,6 hPa 0,0 mm 12,4 km/h (3 Bft) W-NW 291 ° 0 min 0,000 mm 0,0 UV-I 0 W/m² 13,6 °C 15,1 °C 24,1 km/h (4 Bft)
16.08.2017 04:24 15,1 °C 15,1 °C 91 % 1018,6 hPa 0,0 mm 10,0 km/h (2 Bft) W 277 ° 0 min 0,000 mm 0,0 UV-I 0 W/m² 13,6 °C 15,1 °C 17,7 km/h (3 Bft)
16.08.2017 04:25 15,1 °C 15,1 °C 91 % 1018,6 hPa 0,0 mm 7,3 km/h (2 Bft) W 277 ° 0 min 0,000 mm 0,0 UV-I 0 W/m² 13,6 °C 15,1 °C 11,3 km/h (2 Bft)
16.08.2017 04:26 15,0 °C 15,1 °C 91 % 1018,5 hPa 0,0 mm 3,0 km/h (1 Bft) SW 219 ° 0 min 0,000 mm 0,0 UV-I 0 W/m² 13,5 °C 15,0 °C 4,8 km/h (1 Bft)
16.08.2017 04:27 15,0 °C 15,1 °C 91 % 1018,5 hPa 0,0 mm 4,7 km/h (1 Bft) W-SW 248 ° 0 min 0,000 mm 0,0 UV-I 0 W/m² 13,5 °C 15,0 °C 9,7 km/h (2 Bft)
16.08.2017 04:28 14,9 °C 15,0 °C 92 % 1018,4 hPa 0,0 mm 5,3 km/h (1 Bft) W 265 ° 0 min 0,000 mm 0,0 UV-I 0 W/m² 13,6 °C 14,9 °C 11,3 km/h (2 Bft)
16.08.2017 04:29 14,9 °C 14,9 °C 92 % 1018,4 hPa 0,0 mm 7,3 km/h (2 Bft) NW 320 ° 0 min 0,000 mm 0,0 UV-I 0 W/m² 13,6 °C 14,9 °C 12,9 km/h (3 Bft)
16.08.2017 04:30 14,9 °C 14,9 °C 92 % 1018,4 hPa 0,0 mm 8,9 km/h (2 Bft) W 269 ° 0 min 0,000 mm 0,0 UV-I 0 W/m² 13,6 °C 14,9 °C 16,1 km/h (3 Bft)
16.08.2017 04:31 14,9 °C 14,9 °C 92 % 1018,4 hPa 0,0 mm 5,1 km/h (1 Bft) W-SW 240 ° 0 min 0,000 mm 0,0 UV-I 0 W/m² 13,6 °C 14,9 °C 8,0 km/h (2 Bft)
16.08.2017 04:32 14,8 °C 14,9 °C 92 % 1018,4 hPa 0,0 mm 3,7 km/h (1 Bft) W 275 ° 0 min 0,000 mm 0,0 UV-I 0 W/m² 13,5 °C 14,8 °C 6,4 km/h (2 Bft)
16.08.2017 04:33 14,8 °C 14,9 °C 92 % 1018,3 hPa 0,2 mm 1,7 km/h (1 Bft) W 272 ° 0 min 0,000 mm 0,0 UV-I 0 W/m² 13,5 °C 14,8 °C 4,8 km/h (1 Bft)
16.08.2017 04:34 14,8 °C 14,8 °C 92 % 1018,2 hPa 0,0 mm 2,3 km/h (1 Bft) W 272 ° 0 min 0,000 mm 0,0 UV-I 0 W/m² 13,5 °C 14,8 °C 4,8 km/h (1 Bft)
16.08.2017 04:35 14,8 °C 14,8 °C 92 % 1018,2 hPa 0,0 mm 1,9 km/h (1 Bft) W-SW 238 ° 0 min 0,000 mm 0,0 UV-I 0 W/m² 13,5 °C 14,8 °C 3,2 km/h (1 Bft)
16.08.2017 04:36 14,7 °C 14,8 °C 92 % 1018,1 hPa 0,0 mm 6,2 km/h (2 Bft) W-SW 248 ° 0 min 0,000 mm 0,0 UV-I 0 W/m² 13,4 °C 14,7 °C 9,7 km/h (2 Bft)
16.08.2017 04:37 14,7 °C 14,7 °C 92 % 1018,1 hPa 0,0 mm 2,5 km/h (1 Bft) SW 231 ° 0 min 0,000 mm 0,0 UV-I 0 W/m² 13,4 °C 14,7 °C 4,8 km/h (1 Bft)
16.08.2017 04:38 14,7 °C 14,7 °C 92 % 1018,0 hPa 0,0 mm 4,1 km/h (1 Bft) S-SW 192 ° 0 min 0,000 mm 0,0 UV-I 0 W/m² 13,4 °C 14,7 °C 8,0 km/h (2 Bft)
16.08.2017 04:39 14,7 °C 14,7 °C 92 % 1018,1 hPa 0,0 mm 1,7 km/h (1 Bft) S-SW 192 ° 0 min 0,000 mm 0,0 UV-I 0 W/m² 13,4 °C 14,7 °C 3,2 km/h (1 Bft)
16.08.2017 04:40 14,7 °C 14,7 °C 92 % 1018,0 hPa 0,0 mm 3,0 km/h (1 Bft) S 188 ° 0 min 0,000 mm 0,0 UV-I 0 W/m² 13,4 °C 14,7 °C 4,8 km/h (1 Bft)
16.08.2017 04:41 14,7 °C 14,7 °C 92 % 1018,0 hPa 0,0 mm 2,1 km/h (1 Bft) S 188 ° 0 min 0,000 mm 0,0 UV-I 0 W/m² 13,4 °C 14,7 °C 4,8 km/h (1 Bft)
16.08.2017 04:42 14,6 °C 14,7 °C 93 % 1018,0 hPa 0,0 mm 3,8 km/h (1 Bft) S 183 ° 0 min 0,000 mm 0,0 UV-I 0 W/m² 13,5 °C 14,6 °C 8,0 km/h (2 Bft)
16.08.2017 04:43 14,6 °C 14,7 °C 92 % 1018,0 hPa 0,0 mm 2,0 km/h (1 Bft) S 182 ° 0 min 0,000 mm 0,0 UV-I 0 W/m² 13,3 °C 14,6 °C 3,2 km/h (1 Bft)
16.08.2017 04:44 14,6 °C 14,6 °C 92 % 1018,0 hPa 0,0 mm 1,5 km/h (1 Bft) S 182 ° 0 min 0,000 mm 0,0 UV-I 0 W/m² 13,3 °C 14,6 °C 4,8 km/h (1 Bft)
16.08.2017 04:45 14,6 °C 14,6 °C 93 % 1018,0 hPa 0,0 mm 3,0 km/h (1 Bft) SW 225 ° 0 min 0,000 mm 0,0 UV-I 0 W/m² 13,5 °C 14,6 °C 4,8 km/h (1 Bft)
16.08.2017 04:46 14,6 °C 14,6 °C 93 % 1018,0 hPa 0,0 mm 3,6 km/h (1 Bft) SW 221 ° 0 min 0,000 mm 0,0 UV-I 0 W/m² 13,5 °C 14,6 °C 4,8 km/h (1 Bft)
16.08.2017 04:47 14,6 °C 14,6 °C 93 % 1018,0 hPa 0,0 mm 1,0 km/h (0 Bft) SW 221 ° 0 min 0,000 mm 0,0 UV-I 0 W/m² 13,5 °C 14,6 °C 3,2 km/h (1 Bft)
16.08.2017 04:48 14,5 °C 14,6 °C 93 % 1018,0 hPa 0,0 mm 0,7 km/h (0 Bft) SW 221 ° 0 min 0,000 mm 0,0 UV-I 0 W/m² 13,4 °C 14,5 °C 1,6 km/h (1 Bft)
16.08.2017 04:49 14,5 °C 14,6 °C 93 % 1018,0 hPa 0,0 mm 3,6 km/h (1 Bft) W-SW 258 ° 0 min 0,000 mm 0,0 UV-I 0 W/m² 13,4 °C 14,5 °C 4,8 km/h (1 Bft)
16.08.2017 04:50 14,5 °C 14,6 °C 93 % 1018,1 hPa 0,0 mm 2,7 km/h (1 Bft) S-SW 192 ° 0 min 0,000 mm 0,0 UV-I 0 W/m² 13,4 °C 14,5 °C 4,8 km/h (1 Bft)
16.08.2017 04:51 14,5 °C 14,5 °C 93 % 1018,1 hPa 0,2 mm 4,0 km/h (1 Bft) S-SW 200 ° 0 min 0,000 mm 0,0 UV-I 0 W/m² 13,4 °C 14,5 °C 6,4 km/h (2 Bft)
16.08.2017 04:52 14,5 °C 14,5 °C 93 % 1018,1 hPa 0,0 mm 2,4 km/h (1 Bft) S-SW 200 ° 0 min 0,000 mm 0,0 UV-I 0 W/m² 13,4 °C 14,5 °C 4,8 km/h (1 Bft)
16.08.2017 04:53 14,4 °C 14,5 °C 93 % 1018,2 hPa 0,0 mm 3,2 km/h (1 Bft) S 182 ° 0 min 0,000 mm 0,0 UV-I 0 W/m² 13,3 °C 14,4 °C 4,8 km/h (1 Bft)
16.08.2017 04:54 14,4 °C 14,5 °C 93 % 1018,2 hPa 0,0 mm 3,2 km/h (1 Bft) S 191 ° 0 min 0,000 mm 0,0 UV-I 0 W/m² 13,3 °C 14,4 °C 4,8 km/h (1 Bft)
16.08.2017 04:55 14,5 °C 14,5 °C 93 % 1018,2 hPa 0,0 mm 0,0 km/h (0 Bft) S 191 ° 0 min 0,000 mm 0,0 UV-I 0 W/m² 13,4 °C 14,5 °C 0,0 km/h (0 Bft)
16.08.2017 04:56 14,5 °C 14,5 °C 93 % 1018,2 hPa 0,0 mm 0,1 km/h (0 Bft) S 191 ° 0 min 0,000 mm 0,0 UV-I 0 W/m² 13,4 °C 14,5 °C 1,6 km/h (1 Bft)
16.08.2017 04:57 14,4 °C 14,5 °C 93 % 1018,3 hPa 0,0 mm 0,0 km/h (0 Bft) S-SW 192 ° 0 min 0,000 mm 0,0 UV-I 0 W/m² 13,3 °C 14,4 °C 0,0 km/h (0 Bft)
16.08.2017 04:58 14,4 °C 14,4 °C 93 % 1018,2 hPa 0,0 mm 0,2 km/h (0 Bft) S-SW 192 ° 0 min 0,000 mm 0,0 UV-I 0 W/m² 13,3 °C 14,4 °C 3,2 km/h (1 Bft)
16.08.2017 04:59 14,4 °C 14,4 °C 93 % 1018,2 hPa 0,0 mm 0,5 km/h (0 Bft) S-SW 192 ° 0 min 0,000 mm 0,0 UV-I 0 W/m² 13,3 °C 14,4 °C 3,2 km/h (1 Bft)
16.08.2017 05:00 14,3 °C 14,4 °C 93 % 1018,2 hPa 0,0 mm 0,7 km/h (0 Bft) S-SW 192 ° 0 min 0,000 mm 0,0 UV-I 0 W/m² 13,2 °C 14,3 °C 1,6 km/h (1 Bft)
16.08.2017 05:01 14,3 °C 14,3 °C 93 % 1018,2 hPa 0,0 mm 0,3 km/h (0 Bft) S-SW 192 ° 0 min 0,000 mm 0,0 UV-I 0 W/m² 13,2 °C 14,3 °C 1,6 km/h (1 Bft)
16.08.2017 05:02 14,3 °C 14,3 °C 93 % 1018,2 hPa 0,0 mm 0,1 km/h (0 Bft) S-SW 192 ° 0 min 0,000 mm 0,0 UV-I 0 W/m² 13,2 °C 14,3 °C 1,6 km/h (1 Bft)
16.08.2017 05:03 14,2 °C 14,3 °C 93 % 1018,2 hPa 0,0 mm 0,0 km/h (0 Bft) S-SW 192 ° 0 min 0,000 mm 0,0 UV-I 0 W/m² 13,1 °C 14,2 °C 0,0 km/h (0 Bft)
16.08.2017 05:04 14,2 °C 14,2 °C 93 % 1018,2 hPa 0,0 mm 0,0 km/h (0 Bft) S-SW 192 ° 0 min 0,000 mm 0,0 UV-I 0 W/m² 13,1 °C 14,2 °C 0,0 km/h (0 Bft)
16.08.2017 05:05 14,2 °C 14,2 °C 93 % 1018,2 hPa 0,0 mm 0,0 km/h (0 Bft) S-SW 192 ° 0 min 0,000 mm 0,0 UV-I 0 W/m² 13,1 °C 14,2 °C 0,0 km/h (0 Bft)
16.08.2017 05:06 14,2 °C 14,2 °C 94 % 1018,2 hPa 0,0 mm 0,0 km/h (0 Bft) S-SW 192 ° 0 min 0,000 mm 0,0 UV-I 0 W/m² 13,2 °C 14,2 °C 0,0 km/h (0 Bft)
16.08.2017 05:07 14,1 °C 14,2 °C 94 % 1018,2 hPa 0,0 mm 0,0 km/h (0 Bft) S-SW 192 ° 0 min 0,000 mm 0,0 UV-I 0 W/m² 13,1 °C 14,1 °C 0,0 km/h (0 Bft)
16.08.2017 05:08 14,2 °C 14,2 °C 94 % 1018,2 hPa 0,0 mm 0,0 km/h (0 Bft) S-SW 192 ° 0 min 0,000 mm 0,0 UV-I 0 W/m² 13,2 °C 14,2 °C 0,0 km/h (0 Bft)
16.08.2017 05:09 14,1 °C 14,2 °C 94 % 1018,1 hPa 0,0 mm 0,0 km/h (0 Bft) S-SW 192 ° 0 min 0,000 mm 0,0 UV-I 0 W/m² 13,1 °C 14,1 °C 0,0 km/h (0 Bft)
16.08.2017 05:10 14,1 °C 14,1 °C 94 % 1018,2 hPa 0,0 mm 0,0 km/h (0 Bft) S-SW 192 ° 0 min 0,000 mm 0,0 UV-I 0 W/m² 13,1 °C 14,1 °C 0,0 km/h (0 Bft)
16.08.2017 05:11 14,1 °C 14,1 °C 94 % 1018,3 hPa 0,0 mm 0,0 km/h (0 Bft) S-SW 192 ° 0 min 0,000 mm 0,0 UV-I 0 W/m² 13,1 °C 14,1 °C 0,0 km/h (0 Bft)
16.08.2017 05:12 14,1 °C 14,1 °C 94 % 1018,3 hPa 0,0 mm 0,0 km/h (0 Bft) S-SW 192 ° 0 min 0,000 mm 0,0 UV-I 0 W/m² 13,1 °C 14,1 °C 0,0 km/h (0 Bft)
16.08.2017 05:13 14,1 °C 14,1 °C 94 % 1018,3 hPa 0,0 mm 0,0 km/h (0 Bft) S-SW 192 ° 0 min 0,000 mm 0,0 UV-I 0 W/m² 13,1 °C 14,1 °C 0,0 km/h (0 Bft)
16.08.2017 05:14 14,1 °C 14,1 °C 94 % 1018,3 hPa 0,0 mm 0,0 km/h (0 Bft) S-SW 192 ° 0 min 0,000 mm 0,0 UV-I 0 W/m² 13,1 °C 14,1 °C 0,0 km/h (0 Bft)
16.08.2017 05:15 14,1 °C 14,1 °C 94 % 1018,3 hPa 0,0 mm 0,0 km/h (0 Bft) S-SW 192 ° 0 min 0,000 mm 0,0 UV-I 0 W/m² 13,1 °C 14,1 °C 0,0 km/h (0 Bft)
16.08.2017 05:16 14,1 °C 14,1 °C 94 % 1018,3 hPa 0,0 mm 0,0 km/h (0 Bft) S-SW 192 ° 0 min 0,000 mm 0,0 UV-I 0 W/m² 13,1 °C 14,1 °C 0,0 km/h (0 Bft)
16.08.2017 05:17 14,1 °C 14,1 °C 94 % 1018,4 hPa 0,0 mm 0,0 km/h (0 Bft) S-SW 192 ° 0 min 0,000 mm 0,0 UV-I 0 W/m² 13,1 °C 14,1 °C 0,0 km/h (0 Bft)
16.08.2017 05:18 14,1 °C 14,1 °C 94 % 1018,4 hPa 0,0 mm 0,1 km/h (0 Bft) S-SW 192 ° 0 min 0,000 mm 0,0 UV-I 0 W/m² 13,1 °C 14,1 °C 1,6 km/h (1 Bft)
16.08.2017 05:19 14,1 °C 14,1 °C 94 % 1018,4 hPa 0,0 mm 0,0 km/h (0 Bft) S-SW 192 ° 0 min 0,000 mm 0,0 UV-I 0 W/m² 13,1 °C 14,1 °C 0,0 km/h (0 Bft)
16.08.2017 05:20 14,1 °C 14,1 °C 94 % 1018,4 hPa 0,0 mm 0,5 km/h (0 Bft) S-SW 192 ° 0 min 0,000 mm 0,0 UV-I 0 W/m² 13,1 °C 14,1 °C 3,2 km/h (1 Bft)
16.08.2017 05:21 14,1 °C 14,1 °C 94 % 1018,4 hPa 0,0 mm 3,9 km/h (1 Bft) W 275 ° 0 min 0,000 mm 0,0 UV-I 0 W/m² 13,1 °C 14,1 °C 6,4 km/h (2 Bft)
16.08.2017 05:22 14,1 °C 14,1 °C 94 % 1018,5 hPa 0,0 mm 1,9 km/h (1 Bft) W 275 ° 0 min 0,000 mm 0,0 UV-I 0 W/m² 13,1 °C 14,1 °C 3,2 km/h (1 Bft)
16.08.2017 05:23 14,1 °C 14,1 °C 94 % 1018,5 hPa 0,0 mm 1,4 km/h (1 Bft) W-SW 250 ° 0 min 0,000 mm 0,0 UV-I 0 W/m² 13,1 °C 14,1 °C 4,8 km/h (1 Bft)
16.08.2017 05:24 14,1 °C 14,1 °C 94 % 1018,5 hPa 0,0 mm 0,9 km/h (0 Bft) S-SW 204 ° 0 min 0,000 mm 0,0 UV-I 0 W/m² 13,1 °C 14,1 °C 3,2 km/h (1 Bft)
16.08.2017 05:25 14,1 °C 14,1 °C 94 % 1018,5 hPa 0,0 mm 1,3 km/h (1 Bft) SW 236 ° 0 min 0,000 mm 0,0 UV-I 0 W/m² 13,1 °C 14,1 °C 4,8 km/h (1 Bft)
16.08.2017 05:26 14,1 °C 14,1 °C 94 % 1018,5 hPa 0,0 mm 1,7 km/h (1 Bft) SW 236 ° 0 min 0,000 mm 0,0 UV-I 0 W/m² 13,1 °C 14,1 °C 3,2 km/h (1 Bft)
16.08.2017 05:27 14,1 °C 14,1 °C 94 % 1018,5 hPa 0,0 mm 5,6 km/h (1 Bft) W-NW 284 ° 0 min 0,000 mm 0,0 UV-I 0 W/m² 13,1 °C 14,1 °C 9,7 km/h (2 Bft)
16.08.2017 05:28 14,2 °C 14,2 °C 94 % 1018,5 hPa 0,0 mm 2,7 km/h (1 Bft) W-SW 250 ° 0 min 0,000 mm 0,0 UV-I 0 W/m² 13,2 °C 14,2 °C 4,8 km/h (1 Bft)
16.08.2017 05:29 14,2 °C 14,2 °C 94 % 1018,5 hPa 0,0 mm 2,2 km/h (1 Bft) SW 220 ° 0 min 0,000 mm 0,0 UV-I 0 W/m² 13,2 °C 14,2 °C 3,2 km/h (1 Bft)
16.08.2017 05:30 14,2 °C 14,2 °C 94 % 1018,5 hPa 0,0 mm 1,0 km/h (0 Bft) W-SW 254 ° 0 min 0,000 mm 0,0 UV-I 0 W/m² 13,2 °C 14,2 °C 4,8 km/h (1 Bft)
16.08.2017 05:31 14,2 °C 14,2 °C 94 % 1018,5 hPa 0,0 mm 1,5 km/h (1 Bft) W-SW 246 ° 0 min 0,000 mm 0,0 UV-I 0 W/m² 13,2 °C 14,2 °C 3,2 km/h (1 Bft)
16.08.2017 05:32 14,3 °C 14,3 °C 93 % 1018,5 hPa 0,0 mm 1,2 km/h (1 Bft) W-SW 244 ° 0 min 0,000 mm 0,0 UV-I 0 W/m² 13,2 °C 14,3 °C 3,2 km/h (1 Bft)
16.08.2017 05:33 14,3 °C 14,3 °C 93 % 1018,5 hPa 0,0 mm 0,6 km/h (0 Bft) W-SW 243 ° 0 min 0,000 mm 0,0 UV-I 0 W/m² 13,2 °C 14,3 °C 3,2 km/h (1 Bft)
16.08.2017 05:34 14,3 °C 14,3 °C 93 % 1018,5 hPa 0,0 mm 4,4 km/h (1 Bft) W 263 ° 0 min 0,000 mm 0,0 UV-I 0 W/m² 13,2 °C 14,3 °C 6,4 km/h (2 Bft)
16.08.2017 05:35 14,3 °C 14,3 °C 93 % 1018,6 hPa 0,0 mm 3,4 km/h (1 Bft) SW 233 ° 0 min 0,000 mm 0,0 UV-I 0 W/m² 13,2 °C 14,3 °C 6,4 km/h (2 Bft)
16.08.2017 05:36 14,3 °C 14,3 °C 93 % 1018,6 hPa 0,0 mm 1,8 km/h (1 Bft) W-SW 237 ° 0 min 0,000 mm 0,0 UV-I 0 W/m² 13,2 °C 14,3 °C 3,2 km/h (1 Bft)
16.08.2017 05:37 14,4 °C 14,4 °C 93 % 1018,6 hPa 0,0 mm 0,8 km/h (0 Bft) W-SW 237 ° 0 min 0,000 mm 0,0 UV-I 0 W/m² 13,3 °C 14,4 °C 1,6 km/h (1 Bft)
16.08.2017 05:38 14,4 °C 14,4 °C 93 % 1018,6 hPa 0,0 mm 3,4 km/h (1 Bft) SW 226 ° 0 min 0,000 mm 0,0 UV-I 0 W/m² 13,3 °C 14,4 °C 6,4 km/h (2 Bft)
16.08.2017 05:39 14,4 °C 14,4 °C 93 % 1018,6 hPa 0,0 mm 3,8 km/h (1 Bft) S-SW 194 ° 0 min 0,000 mm 0,0 UV-I 0 W/m² 13,3 °C 14,4 °C 6,4 km/h (2 Bft)
16.08.2017 05:40 14,4 °C 14,4 °C 93 % 1018,6 hPa 0,0 mm 5,4 km/h (1 Bft) S-SW 196 ° 0 min 0,000 mm 0,0 UV-I 0 W/m² 13,3 °C 14,4 °C 8,0 km/h (2 Bft)
16.08.2017 05:41 14,4 °C 14,4 °C 93 % 1018,7 hPa 0,0 mm 1,7 km/h (1 Bft) S-SW 209 ° 0 min 0,000 mm 0,0 UV-I 0 W/m² 13,3 °C 14,4 °C 3,2 km/h (1 Bft)
16.08.2017 05:42 14,5 °C 14,5 °C 92 % 1018,8 hPa 0,0 mm 2,0 km/h (1 Bft) S-SW 209 ° 0 min 0,000 mm 0,0 UV-I 0 W/m² 13,2 °C 14,5 °C 3,2 km/h (1 Bft)
16.08.2017 05:43 14,5 °C 14,5 °C 92 % 1018,8 hPa 0,0 mm 1,7 km/h (1 Bft) S-SW 192 ° 0 min 0,000 mm 0,0 UV-I 0 W/m² 13,2 °C 14,5 °C 6,4 km/h (2 Bft)
16.08.2017 05:44 14,5 °C 14,6 °C 92 % 1018,8 hPa 0,0 mm 1,8 km/h (1 Bft) S-SW 192 ° 0 min 0,000 mm 0,0 UV-I 0 W/m² 13,2 °C 14,5 °C 6,4 km/h (2 Bft)
16.08.2017 05:45 14,5 °C 14,5 °C 92 % 1018,8 hPa 0,0 mm 0,3 km/h (0 Bft) S-SW 192 ° 0 min 0,000 mm 0,0 UV-I 0 W/m² 13,2 °C 14,5 °C 1,6 km/h (1 Bft)
16.08.2017 05:46 14,5 °C 14,5 °C 92 % 1018,8 hPa 0,0 mm 1,7 km/h (1 Bft) S-SW 193 ° 0 min 0,000 mm 0,0 UV-I 0 W/m² 13,2 °C 14,5 °C 3,2 km/h (1 Bft)
16.08.2017 05:47 14,4 °C 14,5 °C 92 % 1018,8 hPa 0,0 mm 0,0 km/h (0 Bft) S-SW 193 ° 0 min 0,000 mm 0,0 UV-I 0 W/m² 13,1 °C 14,4 °C 0,0 km/h (0 Bft)
16.08.2017 05:48 14,4 °C 14,4 °C 93 % 1018,8 hPa 0,0 mm 0,3 km/h (0 Bft) S-SW 193 ° 0 min 0,000 mm 0,0 UV-I 0 W/m² 13,3 °C 14,4 °C 1,6 km/h (1 Bft)
16.08.2017 05:49 14,4 °C 14,4 °C 93 % 1018,8 hPa 0,0 mm 3,4 km/h (1 Bft) S-SW 193 ° 0 min 0,000 mm 0,0 UV-I 0 W/m² 13,3 °C 14,4 °C 4,8 km/h (1 Bft)
16.08.2017 05:50 14,4 °C 14,4 °C 93 % 1018,8 hPa 0,0 mm 0,8 km/h (0 Bft) S-SW 193 ° 0 min 0,000 mm 0,0 UV-I 0 W/m² 13,3 °C 14,4 °C 3,2 km/h (1 Bft)
16.08.2017 05:51 14,4 °C 14,4 °C 93 % 1018,7 hPa 0,0 mm 2,9 km/h (1 Bft) SW 219 ° 0 min 0,000 mm 0,0 UV-I 0 W/m² 13,3 °C 14,4 °C 4,8 km/h (1 Bft)
16.08.2017 05:52 14,4 °C 14,4 °C 93 % 1018,8 hPa 0,0 mm 4,3 km/h (1 Bft) W 262 ° 0 min 0,000 mm 0,0 UV-I 0 W/m² 13,3 °C 14,4 °C 6,4 km/h (2 Bft)
16.08.2017 05:53 14,4 °C 14,4 °C 93 % 1018,8 hPa 0,0 mm 3,5 km/h (1 Bft) S-SW 194 ° 0 min 0,000 mm 0,0 UV-I 0 W/m² 13,3 °C 14,4 °C 9,7 km/h (2 Bft)
16.08.2017 05:54 14,4 °C 14,4 °C 93 % 1018,8 hPa 0,0 mm 0,9 km/h (0 Bft) S-SW 194 ° 0 min 0,000 mm 0,0 UV-I 0 W/m² 13,3 °C 14,4 °C 3,2 km/h (1 Bft)
16.08.2017 05:55 14,4 °C 14,4 °C 93 % 1018,8 hPa 0,0 mm 0,0 km/h (0 Bft) S-SW 194 ° 0 min 0,000 mm 0,0 UV-I 0 W/m² 13,3 °C 14,4 °C 0,0 km/h (0 Bft)
16.08.2017 05:56 14,4 °C 14,4 °C 93 % 1018,8 hPa 0,0 mm 1,7 km/h (1 Bft) S-SW 194 ° 0 min 0,000 mm 0,0 UV-I 0 W/m² 13,3 °C 14,4 °C 3,2 km/h (1 Bft)
16.08.2017 05:57 14,4 °C 14,4 °C 93 % 1018,8 hPa 0,0 mm 2,2 km/h (1 Bft) S-SW 194 ° 0 min 0,000 mm 0,0 UV-I 0 W/m² 13,3 °C 14,4 °C 3,2 km/h (1 Bft)
16.08.2017 05:58 14,4 °C 14,4 °C 93 % 1018,9 hPa 0,0 mm 0,4 km/h (0 Bft) S-SW 194 ° 0 min 0,000 mm 0,0 UV-I 0 W/m² 13,3 °C 14,4 °C 1,6 km/h (1 Bft)
16.08.2017 05:59 14,4 °C 14,4 °C 93 % 1018,8 hPa 0,0 mm 3,1 km/h (1 Bft) S-SW 194 ° 0 min 0,000 mm 0,0 UV-I 0 W/m² 13,3 °C 14,4 °C 6,4 km/h (2 Bft)
16.08.2017 06:00 14,4 °C 14,4 °C 93 % 1018,8 hPa 0,0 mm 1,0 km/h (0 Bft) S-SW 194 ° 0 min 0,000 mm 0,0 UV-I 0 W/m² 13,3 °C 14,4 °C 1,6 km/h (1 Bft)
16.08.2017 06:01 14,4 °C 14,4 °C 93 % 1018,9 hPa 0,0 mm 0,3 km/h (0 Bft) S-SW 194 ° 0 min 0,000 mm 0,0 UV-I 0 W/m² 13,3 °C 14,4 °C 1,6 km/h (1 Bft)
16.08.2017 06:02 14,4 °C 14,4 °C 93 % 1018,9 hPa 0,0 mm 2,8 km/h (1 Bft) S 187 ° 0 min 0,000 mm 0,0 UV-I 0 W/m² 13,3 °C 14,4 °C 3,2 km/h (1 Bft)
16.08.2017 06:03 14,4 °C 14,4 °C 93 % 1018,9 hPa 0,0 mm 1,5 km/h (1 Bft) S 178 ° 0 min 0,000 mm 0,0 UV-I 0 W/m² 13,3 °C 14,4 °C 3,2 km/h (1 Bft)
16.08.2017 06:04 14,4 °C 14,4 °C 93 % 1018,9 hPa 0,0 mm 3,7 km/h (1 Bft) S-SW 211 ° 0 min 0,000 mm 0,0 UV-I 0 W/m² 13,3 °C 14,4 °C 4,8 km/h (1 Bft)
16.08.2017 06:05 14,4 °C 14,4 °C 93 % 1018,9 hPa 0,0 mm 4,2 km/h (1 Bft) S-SW 197 ° 0 min 0,000 mm 0,0 UV-I 0 W/m² 13,3 °C 14,4 °C 6,4 km/h (2 Bft)
16.08.2017 06:06 14,4 °C 14,4 °C 93 % 1018,9 hPa 0,0 mm 2,2 km/h (1 Bft) S-SW 192 ° 0 min 0,000 mm 0,0 UV-I 0 W/m² 13,3 °C 14,4 °C 4,8 km/h (1 Bft)
16.08.2017 06:07 14,4 °C 14,4 °C 93 % 1018,9 hPa 0,0 mm 0,4 km/h (0 Bft) S-SW 192 ° 0 min 0,000 mm 0,0 UV-I 0 W/m² 13,3 °C 14,4 °C 1,6 km/h (1 Bft)
16.08.2017 06:08 14,4 °C 14,4 °C 93 % 1019,0 hPa 0,0 mm 0,1 km/h (0 Bft) S-SW 192 ° 0 min 0,000 mm 0,0 UV-I 0 W/m² 13,3 °C 14,4 °C 1,6 km/h (1 Bft)
16.08.2017 06:09 14,4 °C 14,4 °C 93 % 1019,0 hPa 0,0 mm 0,0 km/h (0 Bft) S-SW 192 ° 0 min 0,000 mm 0,0 UV-I 0 W/m² 13,3 °C 14,4 °C 0,0 km/h (0 Bft)
16.08.2017 06:10 14,4 °C 14,4 °C 93 % 1019,0 hPa 0,0 mm 2,8 km/h (1 Bft) S 176 ° 0 min 0,000 mm 0,0 UV-I 0 W/m² 13,3 °C 14,4 °C 4,8 km/h (1 Bft)
16.08.2017 06:11 14,4 °C 14,4 °C 93 % 1019,0 hPa 0,0 mm 1,5 km/h (1 Bft) S 180 ° 0 min 0,000 mm 0,0 UV-I 0 W/m² 13,3 °C 14,4 °C 3,2 km/h (1 Bft)
16.08.2017 06:12 14,4 °C 14,4 °C 93 % 1019,0 hPa 0,0 mm 1,1 km/h (1 Bft) S 180 ° 0 min 0,000 mm 0,0 UV-I 0 W/m² 13,3 °C 14,4 °C 3,2 km/h (1 Bft)
16.08.2017 06:13 14,4 °C 14,4 °C 93 % 1019,0 hPa 0,0 mm 0,9 km/h (0 Bft) S 180 ° 0 min 0,000 mm 0,0 UV-I 0 W/m² 13,3 °C 14,4 °C 3,2 km/h (1 Bft)
16.08.2017 06:14 14,4 °C 14,4 °C 93 % 1019,0 hPa 0,0 mm 0,6 km/h (0 Bft) S 180 ° 0 min 0,000 mm 0,0 UV-I 0 W/m² 13,3 °C 14,4 °C 1,6 km/h (1 Bft)
16.08.2017 06:15 14,4 °C 14,4 °C 93 % 1019,1 hPa 0,0 mm 2,1 km/h (1 Bft) S 185 ° 0 min 0,000 mm 0,0 UV-I 0 W/m² 13,3 °C 14,4 °C 8,0 km/h (2 Bft)
16.08.2017 06:16 14,4 °C 14,4 °C 93 % 1019,1 hPa 0,0 mm 3,5 km/h (1 Bft) S 179 ° 0 min 0,000 mm 0,0 UV-I 0 W/m² 13,3 °C 14,4 °C 6,4 km/h (2 Bft)
16.08.2017 06:17 14,4 °C 14,4 °C 93 % 1019,0 hPa 0,0 mm 1,4 km/h (1 Bft) S 175 ° 0 min 0,000 mm 0,0 UV-I 0 W/m² 13,3 °C 14,4 °C 3,2 km/h (1 Bft)
16.08.2017 06:18 14,4 °C 14,4 °C 93 % 1019,0 hPa 0,0 mm 1,4 km/h (1 Bft) S 175 ° 0 min 0,000 mm 0,0 UV-I 0 W/m² 13,3 °C 14,4 °C 3,2 km/h (1 Bft)
16.08.2017 06:19 14,3 °C 14,4 °C 93 % 1019,0 hPa 0,0 mm 2,1 km/h (1 Bft) S 175 ° 0 min 0,000 mm 0,0 UV-I 0 W/m² 13,2 °C 14,3 °C 3,2 km/h (1 Bft)
16.08.2017 06:20 14,3 °C 14,3 °C 93 % 1019,1 hPa 0,0 mm 0,0 km/h (0 Bft) S 175 ° 0 min 0,000 mm 0,0 UV-I 0 W/m² 13,2 °C 14,3 °C 0,0 km/h (0 Bft)
16.08.2017 06:21 14,3 °C 14,3 °C 93 % 1019,0 hPa 0,0 mm 0,0 km/h (0 Bft) S 175 ° 0 min 0,000 mm 0,0 UV-I 0 W/m² 13,2 °C 14,3 °C 0,0 km/h (0 Bft)
16.08.2017 06:22 14,2 °C 14,3 °C 93 % 1019,0 hPa 0,0 mm 0,0 km/h (0 Bft) S 175 ° 0 min 0,000 mm 0,0 UV-I 0 W/m² 13,1 °C 14,2 °C 0,0 km/h (0 Bft)
16.08.2017 06:23 14,2 °C 14,2 °C 94 % 1019,1 hPa 0,0 mm 0,1 km/h (0 Bft) S 175 ° 0 min 0,000 mm 0,0 UV-I 0 W/m² 13,2 °C 14,2 °C 1,6 km/h (1 Bft)
16.08.2017 06:24 14,2 °C 14,2 °C 94 % 1019,1 hPa 0,0 mm 1,1 km/h (1 Bft) S 175 ° 0 min 0,000 mm 0,0 UV-I 0 W/m² 13,2 °C 14,2 °C 1,6 km/h (1 Bft)
16.08.2017 06:25 14,2 °C 14,2 °C 94 % 1019,1 hPa 0,0 mm 2,3 km/h (1 Bft) S-SW 203 ° 0 min 0,000 mm 0,0 UV-I 0 W/m² 13,2 °C 14,2 °C 3,2 km/h (1 Bft)
16.08.2017 06:26 14,2 °C 14,2 °C 94 % 1019,1 hPa 0,0 mm 0,5 km/h (0 Bft) S-SW 203 ° 0 min 0,000 mm 0,0 UV-I 0 W/m² 13,2 °C 14,2 °C 1,6 km/h (1 Bft)
16.08.2017 06:27 14,2 °C 14,2 °C 94 % 1019,2 hPa 0,0 mm 2,0 km/h (1 Bft) S-SW 203 ° 0 min 0,000 mm 0,0 UV-I 0 W/m² 13,2 °C 14,2 °C 3,2 km/h (1 Bft)
16.08.2017 06:28 14,2 °C 14,2 °C 94 % 1019,2 hPa 0,0 mm 0,0 km/h (0 Bft) S-SW 203 ° 0 min 0,000 mm 0,0 UV-I 0 W/m² 13,2 °C 14,2 °C 0,0 km/h (0 Bft)
16.08.2017 06:29 14,2 °C 14,2 °C 94 % 1019,1 hPa 0,0 mm 0,0 km/h (0 Bft) S-SW 203 ° 0 min 0,000 mm 0,0 UV-I 0 W/m² 13,2 °C 14,2 °C 0,0 km/h (0 Bft)
16.08.2017 06:30 14,1 °C 14,2 °C 94 % 1019,1 hPa 0,0 mm 0,0 km/h (0 Bft) S-SW 203 ° 0 min 0,000 mm 0,0 UV-I 0 W/m² 13,1 °C 14,1 °C 0,0 km/h (0 Bft)
16.08.2017 06:31 14,1 °C 14,1 °C 94 % 1019,1 hPa 0,0 mm 0,0 km/h (0 Bft) S-SW 203 ° 0 min 0,000 mm 0,0 UV-I 0 W/m² 13,1 °C 14,1 °C 0,0 km/h (0 Bft)
16.08.2017 06:32 14,1 °C 14,1 °C 94 % 1019,1 hPa 0,0 mm 0,0 km/h (0 Bft) S-SW 203 ° 0 min 0,000 mm 0,0 UV-I 0 W/m² 13,1 °C 14,1 °C 0,0 km/h (0 Bft)
16.08.2017 06:33 14,1 °C 14,1 °C 94 % 1019,1 hPa 0,0 mm 0,0 km/h (0 Bft) S-SW 203 ° 0 min 0,000 mm 0,0 UV-I 0 W/m² 13,1 °C 14,1 °C 0,0 km/h (0 Bft)
16.08.2017 06:34 14,1 °C 14,1 °C 94 % 1019,1 hPa 0,0 mm 0,4 km/h (0 Bft) S-SW 203 ° 0 min 0,000 mm 0,0 UV-I 0 W/m² 13,1 °C 14,1 °C 1,6 km/h (1 Bft)
16.08.2017 06:35 14,1 °C 14,1 °C 94 % 1019,2 hPa 0,0 mm 1,3 km/h (1 Bft) S-SW 203 ° 0 min 0,000 mm 0,0 UV-I 0 W/m² 13,1 °C 14,1 °C 3,2 km/h (1 Bft)
16.08.2017 06:36 14,1 °C 14,1 °C 94 % 1019,2 hPa 0,0 mm 1,1 km/h (1 Bft) S-SW 203 ° 0 min 0,000 mm 0,0 UV-I 0 W/m² 13,1 °C 14,1 °C 3,2 km/h (1 Bft)
16.08.2017 06:37 14,1 °C 14,1 °C 94 % 1019,2 hPa 0,0 mm 0,0 km/h (0 Bft) S-SW 203 ° 0 min 0,000 mm 0,0 UV-I 0 W/m² 13,1 °C 14,1 °C 0,0 km/h (0 Bft)
16.08.2017 06:38 14,1 °C 14,1 °C 94 % 1019,2 hPa 0,0 mm 0,0 km/h (0 Bft) S-SW 203 ° 0 min 0,000 mm 0,0 UV-I 0 W/m² 13,1 °C 14,1 °C 0,0 km/h (0 Bft)
16.08.2017 06:39 14,1 °C 14,1 °C 95 % 1019,2 hPa 0,0 mm 0,0 km/h (0 Bft) S-SW 203 ° 0 min 0,000 mm 0,0 UV-I 5 W/m² 13,3 °C 14,1 °C 0,0 km/h (0 Bft)
16.08.2017 06:40 14,1 °C 14,1 °C 95 % 1019,2 hPa 0,0 mm 0,0 km/h (0 Bft) S-SW 203 ° 0 min 0,000 mm 0,0 UV-I 5 W/m² 13,3 °C 14,1 °C 0,0 km/h (0 Bft)
16.08.2017 06:41 14,1 °C 14,1 °C 95 % 1019,2 hPa 0,0 mm 0,0 km/h (0 Bft) S-SW 203 ° 0 min 0,000 mm 0,0 UV-I 5 W/m² 13,3 °C 14,1 °C 0,0 km/h (0 Bft)
16.08.2017 06:42 14,1 °C 14,1 °C 95 % 1019,2 hPa 0,0 mm 0,0 km/h (0 Bft) S-SW 203 ° 0 min 0,000 mm 0,0 UV-I 5 W/m² 13,3 °C 14,1 °C 0,0 km/h (0 Bft)
16.08.2017 06:43 14,1 °C 14,1 °C 95 % 1019,2 hPa 0,0 mm 0,0 km/h (0 Bft) S-SW 203 ° 0 min 0,000 mm 0,0 UV-I 5 W/m² 13,3 °C 14,1 °C 0,0 km/h (0 Bft)
16.08.2017 06:44 14,1 °C 14,1 °C 95 % 1019,2 hPa 0,0 mm 0,0 km/h (0 Bft) S-SW 203 ° 0 min 0,000 mm 0,0 UV-I 7 W/m² 13,3 °C 14,1 °C 0,0 km/h (0 Bft)
16.08.2017 06:45 14,1 °C 14,1 °C 95 % 1019,2 hPa 0,0 mm 0,1 km/h (0 Bft) S-SW 203 ° 0 min 0,000 mm 0,0 UV-I 7 W/m² 13,3 °C 14,1 °C 1,6 km/h (1 Bft)
16.08.2017 06:46 14,1 °C 14,1 °C 95 % 1019,2 hPa 0,0 mm 0,0 km/h (0 Bft) S-SW 203 ° 0 min 0,000 mm 0,0 UV-I 7 W/m² 13,3 °C 14,1 °C 0,0 km/h (0 Bft)
16.08.2017 06:47 14,1 °C 14,1 °C 95 % 1019,2 hPa 0,0 mm 0,0 km/h (0 Bft) S-SW 203 ° 0 min 0,000 mm 0,0 UV-I 7 W/m² 13,3 °C 14,1 °C 0,0 km/h (0 Bft)
16.08.2017 06:48 14,0 °C 14,1 °C 95 % 1019,2 hPa 0,0 mm 0,0 km/h (0 Bft) S-SW 203 ° 0 min 0,000 mm 0,0 UV-I 7 W/m² 13,2 °C 14,0 °C 0,0 km/h (0 Bft)
16.08.2017 06:49 14,1 °C 14,1 °C 95 % 1019,2 hPa 0,0 mm 0,0 km/h (0 Bft) S-SW 203 ° 0 min 0,000 mm 0,0 UV-I 7 W/m² 13,3 °C 14,1 °C 0,0 km/h (0 Bft)
16.08.2017 06:50 14,1 °C 14,1 °C 95 % 1019,2 hPa 0,0 mm 0,0 km/h (0 Bft) S-SW 203 ° 0 min 0,000 mm 0,0 UV-I 9 W/m² 13,3 °C 14,1 °C 0,0 km/h (0 Bft)
16.08.2017 06:51 14,1 °C 14,1 °C 95 % 1019,2 hPa 0,0 mm 0,0 km/h (0 Bft) S-SW 203 ° 0 min 0,000 mm 0,0 UV-I 9 W/m² 13,3 °C 14,1 °C 0,0 km/h (0 Bft)
16.08.2017 06:52 14,0 °C 14,1 °C 95 % 1019,2 hPa 0,0 mm 0,0 km/h (0 Bft) S-SW 203 ° 0 min 0,000 mm 0,0 UV-I 9 W/m² 13,2 °C 14,0 °C 0,0 km/h (0 Bft)
16.08.2017 06:53 14,0 °C 14,1 °C 95 % 1019,2 hPa 0,0 mm 0,0 km/h (0 Bft) S-SW 203 ° 0 min 0,000 mm 0,0 UV-I 11 W/m² 13,2 °C 14,0 °C 0,0 km/h (0 Bft)
16.08.2017 06:54 14,0 °C 14,1 °C 95 % 1019,2 hPa 0,0 mm 0,0 km/h (0 Bft) S-SW 203 ° 0 min 0,000 mm 0,0 UV-I 11 W/m² 13,2 °C 14,0 °C 0,0 km/h (0 Bft)
16.08.2017 06:55 14,0 °C 14,0 °C 95 % 1019,2 hPa 0,0 mm 0,0 km/h (0 Bft) S-SW 203 ° 0 min 0,000 mm 0,0 UV-I 11 W/m² 13,2 °C 14,0 °C 0,0 km/h (0 Bft)
16.08.2017 06:56 14,0 °C 14,1 °C 95 % 1019,2 hPa 0,0 mm 0,0 km/h (0 Bft) S-SW 203 ° 0 min 0,000 mm 0,0 UV-I 12 W/m² 13,2 °C 14,0 °C 0,0 km/h (0 Bft)
16.08.2017 06:57 14,1 °C 14,1 °C 95 % 1019,2 hPa 0,0 mm 0,0 km/h (0 Bft) S-SW 203 ° 0 min 0,000 mm 0,0 UV-I 12 W/m² 13,3 °C 14,1 °C 0,0 km/h (0 Bft)
16.08.2017 06:58 14,1 °C 14,1 °C 95 % 1019,2 hPa 0,0 mm 0,0 km/h (0 Bft) S-SW 203 ° 0 min 0,000 mm 0,0 UV-I 14 W/m² 13,3 °C 14,1 °C 0,0 km/h (0 Bft)
16.08.2017 06:59 14,1 °C 14,1 °C 95 % 1019,2 hPa 0,0 mm 0,0 km/h (0 Bft) S-SW 203 ° 0 min 0,000 mm 0,0 UV-I 16 W/m² 13,3 °C 14,1 °C 0,0 km/h (0 Bft)
16.08.2017 07:00 14,1 °C 14,1 °C 95 % 1019,2 hPa 0,0 mm 0,0 km/h (0 Bft) S-SW 203 ° 0 min 0,000 mm 0,0 UV-I 18 W/m² 13,3 °C 14,1 °C 0,0 km/h (0 Bft)
16.08.2017 07:01 14,1 °C 14,1 °C 95 % 1019,2 hPa 0,0 mm 0,0 km/h (0 Bft) S-SW 203 ° 0 min 0,000 mm 0,0 UV-I 18 W/m² 13,3 °C 14,1 °C 0,0 km/h (0 Bft)
16.08.2017 07:02 14,1 °C 14,1 °C 95 % 1019,2 hPa 0,0 mm 0,0 km/h (0 Bft) S-SW 203 ° 0 min 0,000 mm 0,0 UV-I 19 W/m² 13,3 °C 14,1 °C 0,0 km/h (0 Bft)
16.08.2017 07:03 14,1 °C 14,1 °C 95 % 1019,2 hPa 0,0 mm 0,0 km/h (0 Bft) S-SW 203 ° 0 min 0,000 mm 0,0 UV-I 19 W/m² 13,3 °C 14,1 °C 0,0 km/h (0 Bft)
16.08.2017 07:04 14,1 °C 14,1 °C 95 % 1019,1 hPa 0,0 mm 0,0 km/h (0 Bft) S-SW 203 ° 0 min 0,000 mm 0,0 UV-I 19 W/m² 13,3 °C 14,1 °C 0,0 km/h (0 Bft)
16.08.2017 07:05 14,1 °C 14,1 °C 95 % 1019,2 hPa 0,0 mm 0,0 km/h (0 Bft) S-SW 203 ° 0 min 0,000 mm 0,0 UV-I 19 W/m² 13,3 °C 14,1 °C 0,0 km/h (0 Bft)
16.08.2017 07:06 14,1 °C 14,1 °C 95 % 1019,2 hPa 0,0 mm 0,0 km/h (0 Bft) S-SW 203 ° 0 min 0,000 mm 0,0 UV-I 21 W/m² 13,3 °C 14,1 °C 0,0 km/h (0 Bft)
16.08.2017 07:07 14,1 °C 14,1 °C 95 % 1019,2 hPa 0,0 mm 0,0 km/h (0 Bft) S-SW 203 ° 0 min 0,000 mm 0,0 UV-I 23 W/m² 13,3 °C 14,1 °C 0,0 km/h (0 Bft)
16.08.2017 07:08 14,1 °C 14,1 °C 95 % 1019,2 hPa 0,0 mm 0,0 km/h (0 Bft) S-SW 203 ° 0 min 0,000 mm 0,0 UV-I 25 W/m² 13,3 °C 14,1 °C 0,0 km/h (0 Bft)
16.08.2017 07:09 14,2 °C 14,2 °C 95 % 1019,2 hPa 0,0 mm 0,0 km/h (0 Bft) S-SW 203 ° 0 min 0,000 mm 0,0 UV-I 28 W/m² 13,4 °C 14,2 °C 0,0 km/h (0 Bft)
16.08.2017 07:10 14,2 °C 14,2 °C 95 % 1019,2 hPa 0,0 mm 0,0 km/h (0 Bft) S-SW 203 ° 0 min 0,000 mm 0,0 UV-I 32 W/m² 13,4 °C 14,2 °C 0,0 km/h (0 Bft)
16.08.2017 07:11 14,2 °C 14,2 °C 95 % 1019,2 hPa 0,0 mm 0,0 km/h (0 Bft) S-SW 203 ° 0 min 0,000 mm 0,0 UV-I 37 W/m² 13,4 °C 14,2 °C 0,0 km/h (0 Bft)
16.08.2017 07:12 14,2 °C 14,2 °C 95 % 1019,2 hPa 0,0 mm 0,0 km/h (0 Bft) S-SW 203 ° 0 min 0,000 mm 0,0 UV-I 39 W/m² 13,4 °C 14,2 °C 0,0 km/h (0 Bft)
16.08.2017 07:13 14,2 °C 14,2 °C 95 % 1019,2 hPa 0,0 mm 0,0 km/h (0 Bft) S-SW 203 ° 0 min 0,000 mm 0,0 UV-I 40 W/m² 13,4 °C 14,2 °C 0,0 km/h (0 Bft)
16.08.2017 07:14 14,2 °C 14,2 °C 95 % 1019,2 hPa 0,0 mm 0,0 km/h (0 Bft) S-SW 203 ° 0 min 0,000 mm 0,0 UV-I 44 W/m² 13,4 °C 14,2 °C 0,0 km/h (0 Bft)
16.08.2017 07:15 14,2 °C 14,2 °C 95 % 1019,1 hPa 0,0 mm 0,0 km/h (0 Bft) S-SW 203 ° 0 min 0,000 mm 0,0 UV-I 46 W/m² 13,4 °C 14,2 °C 0,0 km/h (0 Bft)
16.08.2017 07:16 14,2 °C 14,2 °C 95 % 1019,1 hPa 0,0 mm 0,0 km/h (0 Bft) S-SW 203 ° 0 min 0,000 mm 0,0 UV-I 49 W/m² 13,4 °C 14,2 °C 0,0 km/h (0 Bft)
16.08.2017 07:17 14,2 °C 14,2 °C 95 % 1019,2 hPa 0,0 mm 0,0 km/h (0 Bft) S-SW 203 ° 0 min 0,000 mm 0,0 UV-I 54 W/m² 13,4 °C 14,2 °C 0,0 km/h (0 Bft)
16.08.2017 07:18 14,3 °C 14,3 °C 95 % 1019,1 hPa 0,0 mm 0,0 km/h (0 Bft) S-SW 203 ° 0 min 0,000 mm 0,0 UV-I 58 W/m² 13,5 °C 14,3 °C 0,0 km/h (0 Bft)
16.08.2017 07:19 14,2 °C 14,3 °C 95 % 1019,2 hPa 0,0 mm 0,0 km/h (0 Bft) S-SW 203 ° 0 min 0,000 mm 0,0 UV-I 62 W/m² 13,4 °C 14,2 °C 0,0 km/h (0 Bft)
16.08.2017 07:20 14,3 °C 14,3 °C 95 % 1019,2 hPa 0,0 mm 0,0 km/h (0 Bft) S-SW 203 ° 0 min 0,000 mm 0,0 UV-I 63 W/m² 13,5 °C 14,3 °C 0,0 km/h (0 Bft)
16.08.2017 07:21 14,3 °C 14,3 °C 95 % 1019,2 hPa 0,0 mm 0,0 km/h (0 Bft) S-SW 203 ° 0 min 0,000 mm 0,0 UV-I 67 W/m² 13,5 °C 14,3 °C 0,0 km/h (0 Bft)
16.08.2017 07:22 14,3 °C 14,3 °C 95 % 1019,1 hPa 0,0 mm 0,0 km/h (0 Bft) S-SW 203 ° 0 min 0,000 mm 0,0 UV-I 70 W/m² 13,5 °C 14,3 °C 0,0 km/h (0 Bft)
16.08.2017 07:23 14,3 °C 14,3 °C 95 % 1019,1 hPa 0,0 mm 0,0 km/h (0 Bft) S-SW 203 ° 0 min 0,000 mm 0,0 UV-I 79 W/m² 13,5 °C 14,3 °C 0,0 km/h (0 Bft)
16.08.2017 07:24 14,4 °C 14,4 °C 95 % 1019,2 hPa 0,0 mm 0,0 km/h (0 Bft) S-SW 203 ° 0 min 0,000 mm 0,0 UV-I 84 W/m² 13,6 °C 14,4 °C 0,0 km/h (0 Bft)
16.08.2017 07:25 14,4 °C 14,4 °C 95 % 1019,2 hPa 0,0 mm 0,0 km/h (0 Bft) S-SW 203 ° 0 min 0,000 mm 0,5 UV-I 90 W/m² 13,6 °C 14,4 °C 0,0 km/h (0 Bft)
16.08.2017 07:26 14,4 °C 14,4 °C 95 % 1019,2 hPa 0,0 mm 0,0 km/h (0 Bft) S-SW 203 ° 0 min 0,000 mm 0,5 UV-I 95 W/m² 13,6 °C 14,4 °C 0,0 km/h (0 Bft)
16.08.2017 07:27 14,4 °C 14,4 °C 95 % 1019,2 hPa 0,0 mm 0,0 km/h (0 Bft) S-SW 203 ° 0 min 0,000 mm 0,5 UV-I 100 W/m² 13,6 °C 14,4 °C 0,0 km/h (0 Bft)
16.08.2017 07:28 14,4 °C 14,4 °C 95 % 1019,2 hPa 0,0 mm 0,0 km/h (0 Bft) S-SW 203 ° 0 min 0,000 mm 0,5 UV-I 105 W/m² 13,6 °C 14,4 °C 0,0 km/h (0 Bft)
16.08.2017 07:29 14,4 °C 14,4 °C 95 % 1019,2 hPa 0,0 mm 0,0 km/h (0 Bft) S-SW 203 ° 0 min 0,000 mm 0,5 UV-I 113 W/m² 13,6 °C 14,4 °C 0,0 km/h (0 Bft)
16.08.2017 07:30 14,5 °C 14,5 °C 95 % 1019,2 hPa 0,0 mm 0,0 km/h (0 Bft) S-SW 203 ° 0 min 0,000 mm 0,5 UV-I 114 W/m² 13,7 °C 14,5 °C 0,0 km/h (0 Bft)
16.08.2017 07:31 14,6 °C 14,6 °C 95 % 1019,2 hPa 0,0 mm 0,0 km/h (0 Bft) S-SW 203 ° 0 min 0,000 mm 0,5 UV-I 116 W/m² 13,8 °C 14,6 °C 0,0 km/h (0 Bft)
16.08.2017 07:32 14,6 °C 14,6 °C 95 % 1019,1 hPa 0,0 mm 0,0 km/h (0 Bft) S-SW 203 ° 0 min 0,000 mm 0,5 UV-I 116 W/m² 13,8 °C 14,6 °C 0,0 km/h (0 Bft)
16.08.2017 07:33 14,7 °C 14,7 °C 96 % 1019,2 hPa 0,0 mm 0,0 km/h (0 Bft) S-SW 203 ° 0 min 0,000 mm 0,5 UV-I 116 W/m² 14,1 °C 14,7 °C 0,0 km/h (0 Bft)
16.08.2017 07:34 14,7 °C 14,7 °C 96 % 1019,1 hPa 0,0 mm 0,0 km/h (0 Bft) S-SW 203 ° 0 min 0,000 mm 0,5 UV-I 114 W/m² 14,1 °C 14,7 °C 0,0 km/h (0 Bft)
16.08.2017 07:35 14,7 °C 14,8 °C 95 % 1019,1 hPa 0,0 mm 0,0 km/h (0 Bft) S-SW 203 ° 0 min 0,000 mm 0,5 UV-I 114 W/m² 13,9 °C 14,7 °C 0,0 km/h (0 Bft)
16.08.2017 07:36 14,8 °C 14,8 °C 95 % 1019,2 hPa 0,0 mm 0,0 km/h (0 Bft) S-SW 203 ° 0 min 0,000 mm 0,5 UV-I 113 W/m² 14,0 °C 14,8 °C 0,0 km/h (0 Bft)
16.08.2017 07:37 14,8 °C 14,8 °C 95 % 1019,2 hPa 0,0 mm 0,0 km/h (0 Bft) S-SW 203 ° 0 min 0,000 mm 0,5 UV-I 111 W/m² 14,0 °C 14,8 °C 0,0 km/h (0 Bft)
16.08.2017 07:38 14,8 °C 14,8 °C 95 % 1019,2 hPa 0,0 mm 0,0 km/h (0 Bft) S-SW 203 ° 0 min 0,000 mm 0,5 UV-I 109 W/m² 14,0 °C 14,8 °C 0,0 km/h (0 Bft)
16.08.2017 07:39 14,9 °C 14,9 °C 95 % 1019,2 hPa 0,0 mm 0,0 km/h (0 Bft) S-SW 203 ° 0 min 0,000 mm 0,5 UV-I 116 W/m² 14,1 °C 14,9 °C 0,0 km/h (0 Bft)
16.08.2017 07:40 14,9 °C 14,9 °C 95 % 1019,2 hPa 0,0 mm 0,0 km/h (0 Bft) S-SW 203 ° 0 min 0,000 mm 0,5 UV-I 104 W/m² 14,1 °C 14,9 °C 0,0 km/h (0 Bft)
16.08.2017 07:41 14,9 °C 14,9 °C 95 % 1019,2 hPa 0,0 mm 0,0 km/h (0 Bft) S-SW 203 ° 0 min 0,000 mm 0,5 UV-I 111 W/m² 14,1 °C 14,9 °C 0,0 km/h (0 Bft)
16.08.2017 07:42 15,0 °C 15,0 °C 95 % 1019,2 hPa 0,0 mm 0,0 km/h (0 Bft) S-SW 203 ° 0 min 0,000 mm 0,5 UV-I 162 W/m² 14,2 °C 15,0 °C 0,0 km/h (0 Bft)
16.08.2017 07:43 15,0 °C 15,0 °C 95 % 1019,2 hPa 0,0 mm 0,0 km/h (0 Bft) S-SW 203 ° 0 min 0,000 mm 0,5 UV-I 149 W/m² 14,2 °C 15,0 °C 0,0 km/h (0 Bft)
16.08.2017 07:44 15,1 °C 15,1 °C 95 % 1019,1 hPa 0,0 mm 0,0 km/h (0 Bft) S-SW 203 ° 0 min 0,000 mm 0,5 UV-I 151 W/m² 14,3 °C 15,1 °C 0,0 km/h (0 Bft)
16.08.2017 07:45 15,1 °C 15,1 °C 95 % 1019,2 hPa 0,0 mm 0,0 km/h (0 Bft) S-SW 203 ° 0 min 0,000 mm 0,5 UV-I 114 W/m² 14,3 °C 15,1 °C 0,0 km/h (0 Bft)
16.08.2017 07:46 15,2 °C 15,2 °C 95 % 1019,2 hPa 0,0 mm 0,0 km/h (0 Bft) S-SW 203 ° 0 min 0,000 mm 0,5 UV-I 83 W/m² 14,4 °C 15,2 °C 0,0 km/h (0 Bft)
16.08.2017 07:47 15,2 °C 15,2 °C 95 % 1019,2 hPa 0,0 mm 0,0 km/h (0 Bft) S-SW 203 ° 0 min 0,000 mm 0,5 UV-I 81 W/m² 14,4 °C 15,2 °C 0,0 km/h (0 Bft)
16.08.2017 07:48 15,2 °C 15,2 °C 95 % 1019,3 hPa 0,0 mm 0,0 km/h (0 Bft) S-SW 203 ° 0 min 0,000 mm 0,5 UV-I 79 W/m² 14,4 °C 15,2 °C 0,0 km/h (0 Bft)
16.08.2017 07:49 15,2 °C 15,3 °C 94 % 1019,2 hPa 0,0 mm 0,0 km/h (0 Bft) S-SW 203 ° 0 min 0,000 mm 0,5 UV-I 77 W/m² 14,2 °C 15,2 °C 0,0 km/h (0 Bft)
16.08.2017 07:50 15,3 °C 15,3 °C 94 % 1019,3 hPa 0,0 mm 0,0 km/h (0 Bft) S-SW 203 ° 0 min 0,000 mm 0,5 UV-I 77 W/m² 14,3 °C 15,3 °C 0,0 km/h (0 Bft)
16.08.2017 07:51 15,3 °C 15,3 °C 94 % 1019,3 hPa 0,0 mm 0,0 km/h (0 Bft) S-SW 203 ° 0 min 0,000 mm 0,5 UV-I 77 W/m² 14,3 °C 15,3 °C 0,0 km/h (0 Bft)
16.08.2017 07:52 15,3 °C 15,3 °C 94 % 1019,3 hPa 0,0 mm 0,0 km/h (0 Bft) S-SW 203 ° 0 min 0,000 mm 0,5 UV-I 77 W/m² 14,3 °C 15,3 °C 0,0 km/h (0 Bft)
16.08.2017 07:53 15,3 °C 15,3 °C 94 % 1019,3 hPa 0,0 mm 1,2 km/h (1 Bft) S-SW 203 ° 0 min 0,000 mm 0,5 UV-I 77 W/m² 14,3 °C 15,3 °C 3,2 km/h (1 Bft)
16.08.2017 07:54 15,3 °C 15,3 °C 94 % 1019,3 hPa 0,0 mm 2,5 km/h (1 Bft) S 187 ° 0 min 0,000 mm 0,5 UV-I 77 W/m² 14,3 °C 15,3 °C 4,8 km/h (1 Bft)
16.08.2017 07:55 15,3 °C 15,3 °C 94 % 1019,4 hPa 0,0 mm 2,4 km/h (1 Bft) SO 142 ° 0 min 0,000 mm 0,5 UV-I 76 W/m² 14,3 °C 15,3 °C 3,2 km/h (1 Bft)
16.08.2017 07:56 15,3 °C 15,3 °C 94 % 1019,4 hPa 0,0 mm 0,1 km/h (0 Bft) SO 142 ° 0 min 0,000 mm 0,5 UV-I 76 W/m² 14,3 °C 15,3 °C 1,6 km/h (1 Bft)
16.08.2017 07:57 15,2 °C 15,3 °C 94 % 1019,4 hPa 0,0 mm 0,0 km/h (0 Bft) SO 142 ° 0 min 0,000 mm 0,5 UV-I 76 W/m² 14,2 °C 15,2 °C 0,0 km/h (0 Bft)
16.08.2017 07:58 15,2 °C 15,2 °C 94 % 1019,4 hPa 0,0 mm 0,3 km/h (0 Bft) SO 142 ° 0 min 0,000 mm 0,5 UV-I 76 W/m² 14,2 °C 15,2 °C 1,6 km/h (1 Bft)
16.08.2017 07:59 15,2 °C 15,2 °C 94 % 1019,3 hPa 0,0 mm 0,9 km/h (0 Bft) SO 142 ° 0 min 0,000 mm 0,5 UV-I 76 W/m² 14,2 °C 15,2 °C 1,6 km/h (1 Bft)
16.08.2017 08:00 15,2 °C 15,2 °C 94 % 1019,3 hPa 0,0 mm 0,0 km/h (0 Bft) SO 142 ° 0 min 0,051 mm 0,5 UV-I 74 W/m² 14,2 °C 15,2 °C 0,0 km/h (0 Bft)
16.08.2017 08:01 15,2 °C 15,3 °C 94 % 1019,3 hPa 0,0 mm 0,0 km/h (0 Bft) SO 142 ° 0 min 0,000 mm 0,0 UV-I 74 W/m² 14,2 °C 15,2 °C 0,0 km/h (0 Bft)
16.08.2017 08:02 15,3 °C 15,3 °C 94 % 1019,3 hPa 0,0 mm 0,0 km/h (0 Bft) SO 142 ° 0 min 0,000 mm 0,0 UV-I 72 W/m² 14,3 °C 15,3 °C 0,0 km/h (0 Bft)
16.08.2017 08:03 15,3 °C 15,3 °C 94 % 1019,3 hPa 0,0 mm 0,0 km/h (0 Bft) SO 142 ° 0 min 0,000 mm 0,0 UV-I 70 W/m² 14,3 °C 15,3 °C 0,0 km/h (0 Bft)
16.08.2017 08:04 15,3 °C 15,3 °C 94 % 1019,3 hPa 0,0 mm 0,0 km/h (0 Bft) SO 142 ° 0 min 0,000 mm 0,0 UV-I 67 W/m² 14,3 °C 15,3 °C 0,0 km/h (0 Bft)
16.08.2017 08:05 15,3 °C 15,3 °C 95 % 1019,3 hPa 0,0 mm 0,0 km/h (0 Bft) SO 142 ° 0 min 0,000 mm 0,0 UV-I 67 W/m² 14,5 °C 15,3 °C 0,0 km/h (0 Bft)
16.08.2017 08:06 15,3 °C 15,3 °C 95 % 1019,4 hPa 0,0 mm 0,0 km/h (0 Bft) SO 142 ° 0 min 0,000 mm 0,0 UV-I 67 W/m² 14,5 °C 15,3 °C 0,0 km/h (0 Bft)
16.08.2017 08:07 15,3 °C 15,3 °C 94 % 1019,4 hPa 0,0 mm 0,0 km/h (0 Bft) SO 142 ° 0 min 0,000 mm 0,0 UV-I 67 W/m² 14,3 °C 15,3 °C 0,0 km/h (0 Bft)
16.08.2017 08:08 15,3 °C 15,3 °C 94 % 1019,4 hPa 0,0 mm 0,0 km/h (0 Bft) SO 142 ° 0 min 0,000 mm 0,0 UV-I 67 W/m² 14,3 °C 15,3 °C 0,0 km/h (0 Bft)
16.08.2017 08:09 15,3 °C 15,3 °C 94 % 1019,4 hPa 0,0 mm 0,0 km/h (0 Bft) SO 142 ° 0 min 0,000 mm 0,0 UV-I 67 W/m² 14,3 °C 15,3 °C 0,0 km/h (0 Bft)
16.08.2017 08:10 15,4 °C 15,4 °C 94 % 1019,4 hPa 0,0 mm 0,0 km/h (0 Bft) SO 142 ° 0 min 0,000 mm 0,0 UV-I 67 W/m² 14,4 °C 15,4 °C 0,0 km/h (0 Bft)
16.08.2017 08:11 15,4 °C 15,4 °C 95 % 1019,4 hPa 0,0 mm 0,0 km/h (0 Bft) SO 142 ° 0 min 0,000 mm 0,0 UV-I 67 W/m² 14,6 °C 15,4 °C 0,0 km/h (0 Bft)
16.08.2017 08:12 15,4 °C 15,4 °C 94 % 1019,4 hPa 0,0 mm 0,0 km/h (0 Bft) SO 142 ° 0 min 0,000 mm 0,0 UV-I 67 W/m² 14,4 °C 15,4 °C 0,0 km/h (0 Bft)
16.08.2017 08:13 15,4 °C 15,4 °C 94 % 1019,3 hPa 0,0 mm 0,0 km/h (0 Bft) SO 142 ° 0 min 0,000 mm 0,0 UV-I 67 W/m² 14,4 °C 15,4 °C 0,0 km/h (0 Bft)
16.08.2017 08:14 15,5 °C 15,5 °C 94 % 1019,4 hPa 0,0 mm 0,0 km/h (0 Bft) SO 142 ° 0 min 0,000 mm 0,0 UV-I 65 W/m² 14,5 °C 15,5 °C 0,0 km/h (0 Bft)
16.08.2017 08:15 15,5 °C 15,5 °C 94 % 1019,3 hPa 0,0 mm 0,0 km/h (0 Bft) SO 142 ° 0 min 0,000 mm 0,0 UV-I 65 W/m² 14,5 °C 15,5 °C 0,0 km/h (0 Bft)
16.08.2017 08:16 15,4 °C 15,5 °C 94 % 1019,4 hPa 0,0 mm 0,0 km/h (0 Bft) SO 142 ° 0 min 0,000 mm 0,0 UV-I 58 W/m² 14,4 °C 15,4 °C 0,0 km/h (0 Bft)
16.08.2017 08:17 15,4 °C 15,4 °C 94 % 1019,4 hPa 0,0 mm 0,0 km/h (0 Bft) SO 142 ° 0 min 0,000 mm 0,0 UV-I 54 W/m² 14,4 °C 15,4 °C 0,0 km/h (0 Bft)
16.08.2017 08:18 15,4 °C 15,4 °C 94 % 1019,4 hPa 0,0 mm 0,0 km/h (0 Bft) SO 142 ° 0 min 0,000 mm 0,0 UV-I 51 W/m² 14,4 °C 15,4 °C 0,0 km/h (0 Bft)
16.08.2017 08:19 15,4 °C 15,4 °C 94 % 1019,4 hPa 0,0 mm 1,1 km/h (1 Bft) SO 142 ° 0 min 0,000 mm 0,0 UV-I 47 W/m² 14,4 °C 15,4 °C 1,6 km/h (1 Bft)
16.08.2017 08:20 15,4 °C 15,4 °C 94 % 1019,4 hPa 0,0 mm 0,6 km/h (0 Bft) SO 142 ° 0 min 0,000 mm 0,0 UV-I 46 W/m² 14,4 °C 15,4 °C 1,6 km/h (1 Bft)
16.08.2017 08:21 15,5 °C 15,5 °C 94 % 1019,4 hPa 0,0 mm 0,0 km/h (0 Bft) SO 142 ° 0 min 0,000 mm 0,0 UV-I 44 W/m² 14,5 °C 15,5 °C 0,0 km/h (0 Bft)
16.08.2017 08:22 15,5 °C 15,5 °C 94 % 1019,4 hPa 0,0 mm 0,0 km/h (0 Bft) SO 142 ° 0 min 0,000 mm 0,0 UV-I 39 W/m² 14,5 °C 15,5 °C 0,0 km/h (0 Bft)
16.08.2017 08:23 15,4 °C 15,5 °C 94 % 1019,4 hPa 0,0 mm 0,0 km/h (0 Bft) SO 142 ° 0 min 0,000 mm 0,0 UV-I 35 W/m² 14,4 °C 15,4 °C 0,0 km/h (0 Bft)
16.08.2017 08:24 15,4 °C 15,4 °C 94 % 1019,4 hPa 0,0 mm 0,1 km/h (0 Bft) SO 142 ° 0 min 0,000 mm 0,0 UV-I 32 W/m² 14,4 °C 15,4 °C 1,6 km/h (1 Bft)
16.08.2017 08:25 15,3 °C 15,4 °C 94 % 1019,4 hPa 0,0 mm 0,9 km/h (0 Bft) SO 142 ° 0 min 0,000 mm 0,0 UV-I 28 W/m² 14,3 °C 15,3 °C 1,6 km/h (1 Bft)
16.08.2017 08:26 15,3 °C 15,3 °C 94 % 1019,4 hPa 0,0 mm 0,0 km/h (0 Bft) SO 142 ° 0 min 0,000 mm 0,0 UV-I 26 W/m² 14,3 °C 15,3 °C 0,0 km/h (0 Bft)
16.08.2017 08:27 15,3 °C 15,3 °C 94 % 1019,4 hPa 0,0 mm 0,0 km/h (0 Bft) SO 142 ° 0 min 0,000 mm 0,0 UV-I 25 W/m² 14,3 °C 15,3 °C 0,0 km/h (0 Bft)
16.08.2017 08:28 15,2 °C 15,3 °C 94 % 1019,4 hPa 0,0 mm 0,0 km/h (0 Bft) SO 142 ° 0 min 0,000 mm 0,0 UV-I 25 W/m² 14,2 °C 15,2 °C 0,0 km/h (0 Bft)
16.08.2017 08:29 15,2 °C 15,2 °C 94 % 1019,4 hPa 0,0 mm 0,0 km/h (0 Bft) SO 142 ° 0 min 0,000 mm 0,0 UV-I 25 W/m² 14,2 °C 15,2 °C 0,0 km/h (0 Bft)
16.08.2017 08:30 15,2 °C 15,2 °C 94 % 1019,4 hPa 0,0 mm 0,0 km/h (0 Bft) SO 142 ° 0 min 0,000 mm 0,0 UV-I 23 W/m² 14,2 °C 15,2 °C 0,0 km/h (0 Bft)
16.08.2017 08:31 15,2 °C 15,2 °C 94 % 1019,5 hPa 0,0 mm 0,0 km/h (0 Bft) SO 142 ° 0 min 0,000 mm 0,0 UV-I 23 W/m² 14,2 °C 15,2 °C 0,0 km/h (0 Bft)
16.08.2017 08:32 15,1 °C 15,2 °C 94 % 1019,4 hPa 0,0 mm 0,0 km/h (0 Bft) SO 142 ° 0 min 0,000 mm 0,0 UV-I 21 W/m² 14,1 °C 15,1 °C 0,0 km/h (0 Bft)
16.08.2017 08:33 15,2 °C 15,2 °C 94 % 1019,5 hPa 0,0 mm 0,0 km/h (0 Bft) SO 142 ° 0 min 0,000 mm 0,0 UV-I 19 W/m² 14,2 °C 15,2 °C 0,0 km/h (0 Bft)
16.08.2017 08:34 15,2 °C 15,2 °C 94 % 1019,5 hPa 0,0 mm 0,0 km/h (0 Bft) SO 142 ° 0 min 0,000 mm 0,0 UV-I 19 W/m² 14,2 °C 15,2 °C 0,0 km/h (0 Bft)
16.08.2017 08:35 15,1 °C 15,2 °C 94 % 1019,4 hPa 0,0 mm 0,0 km/h (0 Bft) SO 142 ° 0 min 0,000 mm 0,0 UV-I 19 W/m² 14,1 °C 15,1 °C 0,0 km/h (0 Bft)
16.08.2017 08:36 15,2 °C 15,2 °C 94 % 1019,4 hPa 0,0 mm 0,0 km/h (0 Bft) SO 142 ° 0 min 0,000 mm 0,0 UV-I 21 W/m² 14,2 °C 15,2 °C 0,0 km/h (0 Bft)
16.08.2017 08:37 15,1 °C 15,2 °C 94 % 1019,4 hPa 0,0 mm 0,0 km/h (0 Bft) SO 142 ° 0 min 0,000 mm 0,0 UV-I 23 W/m² 14,1 °C 15,1 °C 0,0 km/h (0 Bft)
16.08.2017 08:38 15,1 °C 15,2 °C 94 % 1019,4 hPa 0,0 mm 0,4 km/h (0 Bft) SO 142 ° 0 min 0,000 mm 0,0 UV-I 25 W/m² 14,1 °C 15,1 °C 1,6 km/h (1 Bft)
16.08.2017 08:39 15,1 °C 15,1 °C 94 % 1019,4 hPa 0,0 mm 0,6 km/h (0 Bft) SO 142 ° 0 min 0,000 mm 0,0 UV-I 28 W/m² 14,1 °C 15,1 °C 1,6 km/h (1 Bft)
16.08.2017 08:40 15,1 °C 15,1 °C 94 % 1019,4 hPa 0,0 mm 2,1 km/h (1 Bft) SO 131 ° 0 min 0,000 mm 0,0 UV-I 30 W/m² 14,1 °C 15,1 °C 3,2 km/h (1 Bft)
16.08.2017 08:41 15,1 °C 15,1 °C 94 % 1019,5 hPa 0,0 mm 1,2 km/h (1 Bft) SO 131 ° 0 min 0,000 mm 0,0 UV-I 32 W/m² 14,1 °C 15,1 °C 3,2 km/h (1 Bft)
16.08.2017 08:42 15,1 °C 15,1 °C 94 % 1019,5 hPa 0,0 mm 0,0 km/h (0 Bft) SO 131 ° 0 min 0,000 mm 0,0 UV-I 33 W/m² 14,1 °C 15,1 °C 0,0 km/h (0 Bft)
16.08.2017 08:43 15,1 °C 15,1 °C 94 % 1019,5 hPa 0,0 mm 0,0 km/h (0 Bft) SO 131 ° 0 min 0,000 mm 0,0 UV-I 33 W/m² 14,1 °C 15,1 °C 0,0 km/h (0 Bft)
16.08.2017 08:44 15,1 °C 15,2 °C 94 % 1019,5 hPa 0,0 mm 0,0 km/h (0 Bft) SO 131 ° 0 min 0,000 mm 0,0 UV-I 33 W/m² 14,1 °C 15,1 °C 0,0 km/h (0 Bft)
16.08.2017 08:45 15,1 °C 15,2 °C 95 % 1019,5 hPa 0,0 mm 2,1 km/h (1 Bft) O-NO 57 ° 0 min 0,000 mm 0,0 UV-I 37 W/m² 14,3 °C 15,1 °C 4,8 km/h (1 Bft)
16.08.2017 08:46 15,2 °C 15,2 °C 95 % 1019,5 hPa 0,0 mm 2,7 km/h (1 Bft) O-NO 57 ° 0 min 0,000 mm 0,0 UV-I 39 W/m² 14,4 °C 15,2 °C 4,8 km/h (1 Bft)
16.08.2017 08:47 15,2 °C 15,2 °C 95 % 1019,6 hPa 0,0 mm 4,0 km/h (1 Bft) NO 42 ° 0 min 0,000 mm 0,0 UV-I 40 W/m² 14,4 °C 15,2 °C 6,4 km/h (2 Bft)
16.08.2017 08:48 15,2 °C 15,2 °C 94 % 1019,5 hPa 0,0 mm 1,6 km/h (1 Bft) NO 42 ° 0 min 0,000 mm 0,0 UV-I 40 W/m² 14,2 °C 15,2 °C 4,8 km/h (1 Bft)
16.08.2017 08:49 15,2 °C 15,2 °C 94 % 1019,5 hPa 0,0 mm 0,3 km/h (0 Bft) NO 42 ° 0 min 0,000 mm 0,0 UV-I 40 W/m² 14,2 °C 15,2 °C 1,6 km/h (1 Bft)
16.08.2017 08:50 15,2 °C 15,2 °C 94 % 1019,5 hPa 0,0 mm 0,9 km/h (0 Bft) NO 42 ° 0 min 0,000 mm 0,0 UV-I 40 W/m² 14,2 °C 15,2 °C 1,6 km/h (1 Bft)
16.08.2017 08:51 15,2 °C 15,2 °C 95 % 1019,5 hPa 0,0 mm 0,6 km/h (0 Bft) NO 43 ° 0 min 0,000 mm 0,0 UV-I 44 W/m² 14,4 °C 15,2 °C 3,2 km/h (1 Bft)
16.08.2017 08:52 15,2 °C 15,2 °C 95 % 1019,5 hPa 0,0 mm 1,5 km/h (1 Bft) NO 43 ° 0 min 0,000 mm 0,0 UV-I 47 W/m² 14,4 °C 15,2 °C 3,2 km/h (1 Bft)
16.08.2017 08:53 15,2 °C 15,2 °C 94 % 1019,5 hPa 0,0 mm 0,9 km/h (0 Bft) NO 43 ° 0 min 0,000 mm 0,0 UV-I 49 W/m² 14,2 °C 15,2 °C 3,2 km/h (1 Bft)
16.08.2017 08:54 15,2 °C 15,2 °C 94 % 1019,5 hPa 0,0 mm 0,0 km/h (0 Bft) NO 43 ° 0 min 0,000 mm 0,0 UV-I 53 W/m² 14,2 °C 15,2 °C 0,0 km/h (0 Bft)
16.08.2017 08:55 15,2 °C 15,2 °C 95 % 1019,5 hPa 0,0 mm 0,0 km/h (0 Bft) NO 43 ° 0 min 0,000 mm 0,0 UV-I 54 W/m² 14,4 °C 15,2 °C 0,0 km/h (0 Bft)
16.08.2017 08:56 15,2 °C 15,2 °C 95 % 1019,5 hPa 0,0 mm 0,0 km/h (0 Bft) NO 43 ° 0 min 0,000 mm 0,0 UV-I 54 W/m² 14,4 °C 15,2 °C 0,0 km/h (0 Bft)
16.08.2017 08:57 15,2 °C 15,2 °C 95 % 1019,5 hPa 0,0 mm 0,0 km/h (0 Bft) NO 43 ° 0 min 0,000 mm 0,0 UV-I 56 W/m² 14,4 °C 15,2 °C 0,0 km/h (0 Bft)
16.08.2017 08:58 15,2 °C 15,2 °C 95 % 1019,5 hPa 0,0 mm 0,1 km/h (0 Bft) NO 43 ° 0 min 0,000 mm 0,5 UV-I 58 W/m² 14,4 °C 15,2 °C 1,6 km/h (1 Bft)
16.08.2017 08:59 15,2 °C 15,3 °C 95 % 1019,6 hPa 0,0 mm 0,4 km/h (0 Bft) NO 43 ° 0 min 0,000 mm 0,5 UV-I 62 W/m² 14,4 °C 15,2 °C 1,6 km/h (1 Bft)
16.08.2017 09:00 15,3 °C 15,3 °C 95 % 1019,6 hPa 0,0 mm 0,0 km/h (0 Bft) NO 43 ° 0 min 0,025 mm 0,5 UV-I 62 W/m² 14,5 °C 15,3 °C 0,0 km/h (0 Bft)
16.08.2017 09:01 15,3 °C 15,3 °C 94 % 1019,6 hPa 0,0 mm 0,0 km/h (0 Bft) NO 43 ° 0 min 0,000 mm 0,5 UV-I 63 W/m² 14,3 °C 15,3 °C 0,0 km/h (0 Bft)
16.08.2017 09:02 15,3 °C 15,3 °C 95 % 1019,6 hPa 0,0 mm 0,0 km/h (0 Bft) NO 43 ° 0 min 0,000 mm 0,5 UV-I 63 W/m² 14,5 °C 15,3 °C 0,0 km/h (0 Bft)
16.08.2017 09:03 15,3 °C 15,3 °C 95 % 1019,6 hPa 0,0 mm 0,0 km/h (0 Bft) NO 43 ° 0 min 0,000 mm 0,5 UV-I 63 W/m² 14,5 °C 15,3 °C 0,0 km/h (0 Bft)
16.08.2017 09:04 15,3 °C 15,4 °C 95 % 1019,6 hPa 0,0 mm 0,0 km/h (0 Bft) NO 43 ° 0 min 0,000 mm 0,5 UV-I 63 W/m² 14,5 °C 15,3 °C 0,0 km/h (0 Bft)
16.08.2017 09:05 15,4 °C 15,4 °C 95 % 1019,7 hPa 0,0 mm 0,0 km/h (0 Bft) NO 43 ° 0 min 0,000 mm 0,5 UV-I 67 W/m² 14,6 °C 15,4 °C 0,0 km/h (0 Bft)
16.08.2017 09:06 15,4 °C 15,4 °C 95 % 1019,6 hPa 0,0 mm 0,0 km/h (0 Bft) NO 43 ° 0 min 0,000 mm 0,6 UV-I 69 W/m² 14,6 °C 15,4 °C 0,0 km/h (0 Bft)
16.08.2017 09:07 15,4 °C 15,4 °C 95 % 1019,6 hPa 0,0 mm 0,3 km/h (0 Bft) NO 43 ° 0 min 0,000 mm 0,6 UV-I 72 W/m² 14,6 °C 15,4 °C 1,6 km/h (1 Bft)
16.08.2017 09:08 15,4 °C 15,4 °C 95 % 1019,6 hPa 0,0 mm 0,0 km/h (0 Bft) NO 43 ° 0 min 0,000 mm 0,6 UV-I 76 W/m² 14,6 °C 15,4 °C 0,0 km/h (0 Bft)
16.08.2017 09:09 15,4 °C 15,4 °C 95 % 1019,6 hPa 0,0 mm 0,0 km/h (0 Bft) NO 43 ° 0 min 0,000 mm 0,7 UV-I 83 W/m² 14,6 °C 15,4 °C 0,0 km/h (0 Bft)
16.08.2017 09:10 15,4 °C 15,4 °C 95 % 1019,6 hPa 0,0 mm 0,0 km/h (0 Bft) NO 43 ° 0 min 0,000 mm 0,7 UV-I 84 W/m² 14,6 °C 15,4 °C 0,0 km/h (0 Bft)
16.08.2017 09:11 15,4 °C 15,4 °C 95 % 1019,6 hPa 0,0 mm 0,0 km/h (0 Bft) NO 43 ° 0 min 0,000 mm 0,7 UV-I 86 W/m² 14,6 °C 15,4 °C 0,0 km/h (0 Bft)
16.08.2017 09:12 15,4 °C 15,5 °C 94 % 1019,6 hPa 0,0 mm 0,6 km/h (0 Bft) NO 43 ° 0 min 0,000 mm 0,7 UV-I 86 W/m² 14,4 °C 15,4 °C 1,6 km/h (1 Bft)
16.08.2017 09:13 15,4 °C 15,5 °C 94 % 1019,6 hPa 0,0 mm 0,3 km/h (0 Bft) NO 43 ° 0 min 0,000 mm 0,7 UV-I 88 W/m² 14,4 °C 15,4 °C 1,6 km/h (1 Bft)
16.08.2017 09:14 15,4 °C 15,5 °C 94 % 1019,6 hPa 0,0 mm 0,7 km/h (0 Bft) NO 43 ° 0 min 0,000 mm 0,7 UV-I 88 W/m² 14,4 °C 15,4 °C 3,2 km/h (1 Bft)
16.08.2017 09:15 15,5 °C 15,5 °C 94 % 1019,6 hPa 0,0 mm 0,2 km/h (0 Bft) NO 43 ° 0 min 0,000 mm 0,7 UV-I 88 W/m² 14,5 °C 15,5 °C 1,6 km/h (1 Bft)
16.08.2017 09:16 15,6 °C 15,6 °C 94 % 1019,6 hPa 0,0 mm 0,0 km/h (0 Bft) NO 43 ° 0 min 0,000 mm 0,7 UV-I 88 W/m² 14,6 °C 15,6 °C 0,0 km/h (0 Bft)
16.08.2017 09:17 15,6 °C 15,6 °C 94 % 1019,6 hPa 0,0 mm 0,0 km/h (0 Bft) NO 43 ° 0 min 0,000 mm 0,7 UV-I 86 W/m² 14,6 °C 15,6 °C 0,0 km/h (0 Bft)
16.08.2017 09:18 15,6 °C 15,6 °C 94 % 1019,6 hPa 0,0 mm 0,0 km/h (0 Bft) NO 43 ° 0 min 0,000 mm 0,7 UV-I 84 W/m² 14,6 °C 15,6 °C 0,0 km/h (0 Bft)
16.08.2017 09:19 15,6 °C 15,6 °C 94 % 1019,6 hPa 0,0 mm 0,0 km/h (0 Bft) NO 43 ° 0 min 0,000 mm 0,7 UV-I 83 W/m² 14,6 °C 15,6 °C 0,0 km/h (0 Bft)
16.08.2017 09:20 15,6 °C 15,6 °C 94 % 1019,7 hPa 0,0 mm 0,0 km/h (0 Bft) NO 43 ° 0 min 0,000 mm 0,6 UV-I 79 W/m² 14,6 °C 15,6 °C 0,0 km/h (0 Bft)
16.08.2017 09:21 15,6 °C 15,6 °C 94 % 1019,7 hPa 0,0 mm 0,0 km/h (0 Bft) NO 43 ° 0 min 0,000 mm 0,6 UV-I 77 W/m² 14,6 °C 15,6 °C 0,0 km/h (0 Bft)
16.08.2017 09:22 15,6 °C 15,6 °C 93 % 1019,7 hPa 0,0 mm 0,0 km/h (0 Bft) NO 43 ° 0 min 0,000 mm 0,6 UV-I 77 W/m² 14,5 °C 15,6 °C 0,0 km/h (0 Bft)
16.08.2017 09:23 15,6 °C 15,7 °C 93 % 1019,7 hPa 0,0 mm 1,3 km/h (1 Bft) NO 43 ° 0 min 0,000 mm 0,6 UV-I 77 W/m² 14,5 °C 15,6 °C 3,2 km/h (1 Bft)
16.08.2017 09:24 15,6 °C 15,6 °C 93 % 1019,7 hPa 0,0 mm 2,1 km/h (1 Bft) NO 43 ° 0 min 0,000 mm 0,6 UV-I 79 W/m² 14,5 °C 15,6 °C 3,2 km/h (1 Bft)
16.08.2017 09:25 15,7 °C 15,7 °C 93 % 1019,7 hPa 0,0 mm 1,3 km/h (1 Bft) NO 43 ° 0 min 0,000 mm 0,6 UV-I 83 W/m² 14,6 °C 15,7 °C 3,2 km/h (1 Bft)
16.08.2017 09:26 15,7 °C 15,7 °C 93 % 1019,7 hPa 0,0 mm 1,6 km/h (1 Bft) NO 43 ° 0 min 0,000 mm 0,7 UV-I 90 W/m² 14,6 °C 15,7 °C 3,2 km/h (1 Bft)
16.08.2017 09:27 15,7 °C 15,7 °C 92 % 1019,7 hPa 0,0 mm 1,5 km/h (1 Bft) NO 43 ° 0 min 0,000 mm 0,7 UV-I 93 W/m² 14,4 °C 15,7 °C 3,2 km/h (1 Bft)
16.08.2017 09:28 15,7 °C 15,7 °C 92 % 1019,8 hPa 0,0 mm 1,7 km/h (1 Bft) NO 43 ° 0 min 0,000 mm 0,8 UV-I 97 W/m² 14,4 °C 15,7 °C 3,2 km/h (1 Bft)
16.08.2017 09:29 15,7 °C 15,7 °C 92 % 1019,8 hPa 0,0 mm 1,7 km/h (1 Bft) NO 43 ° 0 min 0,000 mm 0,8 UV-I 102 W/m² 14,4 °C 15,7 °C 3,2 km/h (1 Bft)
16.08.2017 09:30 15,7 °C 15,7 °C 93 % 1019,8 hPa 0,0 mm 0,7 km/h (0 Bft) NO 43 ° 0 min 0,000 mm 0,8 UV-I 105 W/m² 14,6 °C 15,7 °C 3,2 km/h (1 Bft)
16.08.2017 09:31 15,7 °C 15,7 °C 92 % 1019,8 hPa 0,0 mm 0,0 km/h (0 Bft) NO 43 ° 0 min 0,000 mm 0,8 UV-I 111 W/m² 14,4 °C 15,7 °C 0,0 km/h (0 Bft)
16.08.2017 09:32 15,7 °C 15,7 °C 92 % 1019,8 hPa 0,0 mm 0,0 km/h (0 Bft) NO 43 ° 0 min 0,000 mm 0,8 UV-I 118 W/m² 14,4 °C 15,7 °C 0,0 km/h (0 Bft)
16.08.2017 09:33 15,8 °C 15,8 °C 93 % 1019,8 hPa 0,0 mm 0,0 km/h (0 Bft) NO 43 ° 0 min 0,000 mm 0,9 UV-I 123 W/m² 14,7 °C 15,8 °C 0,0 km/h (0 Bft)
16.08.2017 09:34 15,8 °C 15,8 °C 93 % 1019,8 hPa 0,0 mm 0,2 km/h (0 Bft) NO 43 ° 0 min 0,000 mm 1,0 UV-I 132 W/m² 14,7 °C 15,8 °C 1,6 km/h (1 Bft)
16.08.2017 09:35 15,7 °C 15,8 °C 92 % 1019,8 hPa 0,0 mm 2,4 km/h (1 Bft) NO 43 ° 0 min 0,000 mm 1,0 UV-I 139 W/m² 14,4 °C 15,7 °C 3,2 km/h (1 Bft)
16.08.2017 09:36 15,7 °C 15,7 °C 92 % 1019,9 hPa 0,0 mm 1,7 km/h (1 Bft) NO 43 ° 0 min 0,000 mm 1,1 UV-I 148 W/m² 14,4 °C 15,7 °C 3,2 km/h (1 Bft)
16.08.2017 09:37 15,8 °C 15,8 °C 93 % 1019,8 hPa 0,0 mm 0,9 km/h (0 Bft) NO 43 ° 0 min 0,000 mm 1,1 UV-I 155 W/m² 14,7 °C 15,8 °C 3,2 km/h (1 Bft)
16.08.2017 09:38 15,8 °C 15,8 °C 93 % 1019,8 hPa 0,0 mm 3,2 km/h (1 Bft) NO 43 ° 0 min 0,000 mm 1,1 UV-I 156 W/m² 14,7 °C 15,8 °C 3,2 km/h (1 Bft)
16.08.2017 09:39 15,8 °C 15,8 °C 93 % 1019,8 hPa 0,0 mm 2,2 km/h (1 Bft) NO 42 ° 0 min 0,000 mm 1,1 UV-I 155 W/m² 14,7 °C 15,8 °C 4,8 km/h (1 Bft)
16.08.2017 09:40 15,8 °C 15,8 °C 92 % 1019,7 hPa 0,0 mm 4,6 km/h (1 Bft) NO 49 ° 0 min 0,000 mm 1,1 UV-I 151 W/m² 14,5 °C 15,8 °C 8,0 km/h (2 Bft)
16.08.2017 09:41 15,8 °C 15,8 °C 92 % 1019,7 hPa 0,0 mm 5,2 km/h (1 Bft) O-NO 60 ° 0 min 0,000 mm 1,1 UV-I 148 W/m² 14,5 °C 15,8 °C 8,0 km/h (2 Bft)
16.08.2017 09:42 15,8 °C 15,8 °C 92 % 1019,7 hPa 0,0 mm 4,2 km/h (1 Bft) O-NO 65 ° 0 min 0,000 mm 1,0 UV-I 144 W/m² 14,5 °C 15,8 °C 6,4 km/h (2 Bft)
16.08.2017 09:43 15,8 °C 15,8 °C 92 % 1019,7 hPa 0,0 mm 4,2 km/h (1 Bft) O-NO 64 ° 0 min 0,000 mm 1,0 UV-I 142 W/m² 14,5 °C 15,8 °C 6,4 km/h (2 Bft)
16.08.2017 09:44 15,8 °C 15,8 °C 92 % 1019,7 hPa 0,0 mm 3,0 km/h (1 Bft) O-NO 63 ° 0 min 0,000 mm 1,0 UV-I 137 W/m² 14,5 °C 15,8 °C 4,8 km/h (1 Bft)
16.08.2017 09:45 15,9 °C 15,9 °C 92 % 1019,7 hPa 0,0 mm 2,9 km/h (1 Bft) O-NO 63 ° 0 min 0,000 mm 1,0 UV-I 135 W/m² 14,6 °C 15,9 °C 4,8 km/h (1 Bft)
16.08.2017 09:46 15,9 °C 15,9 °C 93 % 1019,7 hPa 0,0 mm 3,6 km/h (1 Bft) O-NO 58 ° 0 min 0,000 mm 1,0 UV-I 134 W/m² 14,8 °C 15,9 °C 4,8 km/h (1 Bft)
16.08.2017 09:47 15,9 °C 15,9 °C 92 % 1019,7 hPa 0,0 mm 3,4 km/h (1 Bft) O-NO 59 ° 0 min 0,000 mm 1,0 UV-I 132 W/m² 14,6 °C 15,9 °C 4,8 km/h (1 Bft)
16.08.2017 09:48 15,9 °C 15,9 °C 92 % 1019,7 hPa 0,0 mm 2,3 km/h (1 Bft) O-NO 59 ° 0 min 0,000 mm 1,0 UV-I 128 W/m² 14,6 °C 15,9 °C 4,8 km/h (1 Bft)
16.08.2017 09:49 16,0 °C 16,0 °C 92 % 1019,6 hPa 0,0 mm 1,2 km/h (1 Bft) O-NO 59 ° 0 min 0,000 mm 1,0 UV-I 128 W/m² 14,7 °C 16,0 °C 3,2 km/h (1 Bft)
16.08.2017 09:50 16,0 °C 16,0 °C 92 % 1019,6 hPa 0,0 mm 0,7 km/h (0 Bft) O-NO 59 ° 0 min 0,000 mm 1,0 UV-I 128 W/m² 14,7 °C 16,0 °C 3,2 km/h (1 Bft)
16.08.2017 09:51 16,0 °C 16,0 °C 92 % 1019,7 hPa 0,0 mm 3,6 km/h (1 Bft) O-NO 58 ° 0 min 0,000 mm 1,0 UV-I 132 W/m² 14,7 °C 16,0 °C 4,8 km/h (1 Bft)
16.08.2017 09:52 16,1 °C 16,1 °C 92 % 1019,6 hPa 0,0 mm 2,3 km/h (1 Bft) O-NO 59 ° 0 min 0,000 mm 1,0 UV-I 134 W/m² 14,8 °C 16,1 °C 3,2 km/h (1 Bft)
16.08.2017 09:53 16,1 °C 16,1 °C 92 % 1019,7 hPa 0,0 mm 0,9 km/h (0 Bft) O-NO 59 ° 0 min 0,000 mm 1,0 UV-I 139 W/m² 14,8 °C 16,1 °C 3,2 km/h (1 Bft)
16.08.2017 09:54 16,1 °C 16,1 °C 92 % 1019,6 hPa 0,0 mm 0,6 km/h (0 Bft) O-NO 59 ° 0 min 0,000 mm 1,1 UV-I 142 W/m² 14,8 °C 16,1 °C 1,6 km/h (1 Bft)
16.08.2017 09:55 16,1 °C 16,1 °C 92 % 1019,6 hPa 0,0 mm 1,0 km/h (0 Bft) O-NO 59 ° 0 min 0,000 mm 1,1 UV-I 151 W/m² 14,8 °C 16,1 °C 1,6 km/h (1 Bft)
16.08.2017 09:56 16,1 °C 16,1 °C 92 % 1019,6 hPa 0,0 mm 0,1 km/h (0 Bft) O-NO 59 ° 0 min 0,000 mm 1,1 UV-I 156 W/m² 14,8 °C 16,1 °C 1,6 km/h (1 Bft)
16.08.2017 09:57 16,2 °C 16,2 °C 92 % 1019,6 hPa 0,0 mm 0,0 km/h (0 Bft) O-NO 59 ° 0 min 0,000 mm 1,2 UV-I 163 W/m² 14,9 °C 16,2 °C 0,0 km/h (0 Bft)
16.08.2017 09:58 16,2 °C 16,2 °C 92 % 1019,6 hPa 0,0 mm 0,2 km/h (0 Bft) O-NO 59 ° 0 min 0,000 mm 1,3 UV-I 172 W/m² 14,9 °C 16,2 °C 1,6 km/h (1 Bft)
16.08.2017 09:59 16,3 °C 16,3 °C 92 % 1019,6 hPa 0,0 mm 0,1 km/h (0 Bft) O-NO 59 ° 0 min 0,000 mm 1,3 UV-I 179 W/m² 15,0 °C 16,3 °C 1,6 km/h (1 Bft)
16.08.2017 10:00 16,4 °C 16,4 °C 93 % 1019,6 hPa 0,0 mm 0,0 km/h (0 Bft) O-NO 59 ° 0 min 0,051 mm 1,4 UV-I 186 W/m² 15,3 °C 16,4 °C 0,0 km/h (0 Bft)
16.08.2017 10:01 16,4 °C 16,4 °C 93 % 1019,6 hPa 0,0 mm 0,0 km/h (0 Bft) O-NO 59 ° 0 min 0,000 mm 1,4 UV-I 192 W/m² 15,3 °C 16,4 °C 0,0 km/h (0 Bft)
16.08.2017 10:02 16,4 °C 16,4 °C 92 % 1019,6 hPa 0,0 mm 0,9 km/h (0 Bft) O-NO 59 ° 0 min 0,000 mm 1,4 UV-I 190 W/m² 15,1 °C 16,4 °C 3,2 km/h (1 Bft)
16.08.2017 10:03 16,4 °C 16,4 °C 92 % 1019,6 hPa 0,0 mm 2,1 km/h (1 Bft) O-NO 59 ° 0 min 0,000 mm 1,4 UV-I 188 W/m² 15,1 °C 16,4 °C 3,2 km/h (1 Bft)
16.08.2017 10:04 16,4 °C 16,4 °C 92 % 1019,6 hPa 0,0 mm 1,9 km/h (1 Bft) O-NO 59 ° 0 min 0,000 mm 1,4 UV-I 185 W/m² 15,1 °C 16,4 °C 3,2 km/h (1 Bft)
16.08.2017 10:05 16,5 °C 16,6 °C 92 % 1019,6 hPa 0,0 mm 1,9 km/h (1 Bft) O-NO 59 ° 0 min 0,000 mm 1,4 UV-I 183 W/m² 15,2 °C 16,5 °C 3,2 km/h (1 Bft)
16.08.2017 10:06 16,5 °C 16,5 °C 92 % 1019,6 hPa 0,0 mm 2,1 km/h (1 Bft) O-NO 58 ° 0 min 0,000 mm 1,4 UV-I 185 W/m² 15,2 °C 16,5 °C 3,2 km/h (1 Bft)
16.08.2017 10:07 16,6 °C 16,6 °C 92 % 1019,6 hPa 0,0 mm 1,9 km/h (1 Bft) O-NO 58 ° 0 min 0,000 mm 1,5 UV-I 195 W/m² 15,3 °C 16,6 °C 3,2 km/h (1 Bft)
16.08.2017 10:08 16,6 °C 16,6 °C 92 % 1019,6 hPa 0,0 mm 1,7 km/h (1 Bft) O-NO 58 ° 0 min 0,000 mm 1,5 UV-I 200 W/m² 15,3 °C 16,6 °C 3,2 km/h (1 Bft)
16.08.2017 10:09 16,6 °C 16,6 °C 91 % 1019,5 hPa 0,0 mm 4,0 km/h (1 Bft) O-NO 58 ° 0 min 0,000 mm 1,6 UV-I 206 W/m² 15,1 °C 16,6 °C 4,8 km/h (1 Bft)
16.08.2017 10:10 16,6 °C 16,6 °C 91 % 1019,5 hPa 0,0 mm 4,7 km/h (1 Bft) NO 49 ° 0 min 0,000 mm 1,6 UV-I 211 W/m² 15,1 °C 16,6 °C 6,4 km/h (2 Bft)
16.08.2017 10:11 16,6 °C 16,6 °C 91 % 1019,5 hPa 0,0 mm 4,2 km/h (1 Bft) O-NO 61 ° 0 min 0,000 mm 1,6 UV-I 216 W/m² 15,1 °C 16,6 °C 6,4 km/h (2 Bft)
16.08.2017 10:12 16,6 °C 16,6 °C 91 % 1019,5 hPa 0,0 mm 3,9 km/h (1 Bft) NO 55 ° 0 min 0,000 mm 1,7 UV-I 220 W/m² 15,1 °C 16,6 °C 4,8 km/h (1 Bft)
16.08.2017 10:13 16,6 °C 16,6 °C 91 % 1019,5 hPa 0,0 mm 3,6 km/h (1 Bft) O-NO 57 ° 0 min 0,000 mm 1,7 UV-I 227 W/m² 15,1 °C 16,6 °C 6,4 km/h (2 Bft)
16.08.2017 10:14 16,6 °C 16,6 °C 91 % 1019,5 hPa 0,0 mm 4,5 km/h (1 Bft) O-NO 57 ° 0 min 0,000 mm 1,7 UV-I 227 W/m² 15,1 °C 16,6 °C 6,4 km/h (2 Bft)
16.08.2017 10:15 16,6 °C 16,6 °C 91 % 1019,5 hPa 0,0 mm 3,0 km/h (1 Bft) O-NO 57 ° 0 min 0,000 mm 1,7 UV-I 225 W/m² 15,1 °C 16,6 °C 4,8 km/h (1 Bft)
16.08.2017 10:16 16,7 °C 16,7 °C 91 % 1019,6 hPa 0,0 mm 1,5 km/h (1 Bft) O-NO 57 ° 0 min 0,000 mm 1,7 UV-I 221 W/m² 15,2 °C 16,7 °C 3,2 km/h (1 Bft)
16.08.2017 10:17 16,7 °C 16,7 °C 91 % 1019,6 hPa 0,0 mm 2,0 km/h (1 Bft) O-NO 57 ° 0 min 0,000 mm 1,7 UV-I 220 W/m² 15,2 °C 16,7 °C 3,2 km/h (1 Bft)
16.08.2017 10:18 16,7 °C 16,7 °C 91 % 1019,6 hPa 0,0 mm 1,1 km/h (1 Bft) O-NO 57 ° 0 min 0,000 mm 1,7 UV-I 220 W/m² 15,2 °C 16,7 °C 1,6 km/h (1 Bft)
16.08.2017 10:19 16,7 °C 16,7 °C 91 % 1019,6 hPa 0,0 mm 0,1 km/h (0 Bft) O-NO 57 ° 0 min 0,000 mm 1,7 UV-I 220 W/m² 15,2 °C 16,7 °C 1,6 km/h (1 Bft)
16.08.2017 10:20 16,7 °C 16,7 °C 91 % 1019,6 hPa 0,0 mm 0,5 km/h (0 Bft) O-NO 57 ° 0 min 0,000 mm 1,7 UV-I 221 W/m² 15,2 °C 16,7 °C 1,6 km/h (1 Bft)
16.08.2017 10:21 16,8 °C 16,8 °C 91 % 1019,6 hPa 0,0 mm 0,9 km/h (0 Bft) O-NO 57 ° 0 min 0,000 mm 1,7 UV-I 221 W/m² 15,3 °C 16,8 °C 1,6 km/h (1 Bft)
16.08.2017 10:22 16,8 °C 16,8 °C 90 % 1019,6 hPa 0,0 mm 2,1 km/h (1 Bft) O-NO 57 ° 0 min 0,000 mm 1,8 UV-I 223 W/m² 15,1 °C 16,8 °C 4,8 km/h (1 Bft)
16.08.2017 10:23 16,8 °C 16,8 °C 90 % 1019,6 hPa 0,0 mm 2,3 km/h (1 Bft) O-NO 57 ° 0 min 0,000 mm 1,8 UV-I 225 W/m² 15,1 °C 16,8 °C 3,2 km/h (1 Bft)
16.08.2017 10:24 16,9 °C 16,9 °C 90 % 1019,6 hPa 0,0 mm 1,9 km/h (1 Bft) O-NO 57 ° 0 min 0,000 mm 1,8 UV-I 239 W/m² 15,2 °C 16,9 °C 3,2 km/h (1 Bft)
16.08.2017 10:25 16,9 °C 16,9 °C 90 % 1019,6 hPa 0,0 mm 1,0 km/h (0 Bft) O-NO 57 ° 0 min 0,000 mm 1,9 UV-I 244 W/m² 15,2 °C 16,9 °C 3,2 km/h (1 Bft)
16.08.2017 10:26 16,9 °C 16,9 °C 90 % 1019,6 hPa 0,0 mm 1,1 km/h (1 Bft) O-NO 57 ° 0 min 0,000 mm 1,9 UV-I 250 W/m² 15,2 °C 16,9 °C 3,2 km/h (1 Bft)
16.08.2017 10:27 17,0 °C 17,0 °C 91 % 1019,6 hPa 0,0 mm 0,8 km/h (0 Bft) O-NO 57 ° 0 min 0,000 mm 2,0 UV-I 251 W/m² 15,5 °C 17,0 °C 1,6 km/h (1 Bft)
16.08.2017 10:28 17,1 °C 17,1 °C 90 % 1019,6 hPa 0,0 mm 1,2 km/h (1 Bft) O-NO 57 ° 0 min 0,000 mm 2,0 UV-I 250 W/m² 15,4 °C 17,1 °C 3,2 km/h (1 Bft)
16.08.2017 10:29 17,1 °C 17,2 °C 91 % 1019,6 hPa 0,0 mm 0,7 km/h (0 Bft) O-NO 57 ° 0 min 0,000 mm 2,0 UV-I 250 W/m² 15,6 °C 17,1 °C 1,6 km/h (1 Bft)
16.08.2017 10:30 17,2 °C 17,2 °C 91 % 1019,6 hPa 0,0 mm 1,4 km/h (1 Bft) O-NO 57 ° 0 min 0,000 mm 2,0 UV-I 250 W/m² 15,7 °C 17,2 °C 3,2 km/h (1 Bft)
16.08.2017 10:31 17,3 °C 17,3 °C 91 % 1019,6 hPa 0,0 mm 3,8 km/h (1 Bft) O-NO 57 ° 0 min 0,000 mm 2,0 UV-I 253 W/m² 15,8 °C 17,3 °C 4,8 km/h (1 Bft)
16.08.2017 10:32 17,4 °C 17,4 °C 90 % 1019,6 hPa 0,0 mm 1,8 km/h (1 Bft) O-NO 57 ° 0 min 0,000 mm 2,1 UV-I 258 W/m² 15,7 °C 17,4 °C 4,8 km/h (1 Bft)
16.08.2017 10:33 17,3 °C 17,4 °C 90 % 1019,6 hPa 0,0 mm 0,7 km/h (0 Bft) O-NO 57 ° 0 min 0,000 mm 2,2 UV-I 267 W/m² 15,6 °C 17,3 °C 3,2 km/h (1 Bft)
16.08.2017 10:34 17,3 °C 17,3 °C 89 % 1019,6 hPa 0,0 mm 2,9 km/h (1 Bft) NO 56 ° 0 min 0,000 mm 2,2 UV-I 271 W/m² 15,5 °C 17,3 °C 3,2 km/h (1 Bft)
16.08.2017 10:35 17,3 °C 17,3 °C 90 % 1019,6 hPa 0,0 mm 2,4 km/h (1 Bft) N-NO 29 ° 0 min 0,000 mm 2,2 UV-I 278 W/m² 15,6 °C 17,3 °C 3,2 km/h (1 Bft)
16.08.2017 10:36 17,3 °C 17,3 °C 89 % 1019,6 hPa 0,0 mm 3,0 km/h (1 Bft) N-NW 343 ° 1 min 0,000 mm 2,2 UV-I 292 W/m² 15,5 °C 17,3 °C 4,8 km/h (1 Bft)
16.08.2017 10:37 17,3 °C 17,3 °C 89 % 1019,6 hPa 0,0 mm 1,9 km/h (1 Bft) N-NW 343 ° 1 min 0,000 mm 2,3 UV-I 295 W/m² 15,5 °C 17,3 °C 3,2 km/h (1 Bft)
16.08.2017 10:38 17,3 °C 17,3 °C 89 % 1019,6 hPa 0,0 mm 2,1 km/h (1 Bft) N 5 ° 1 min 0,000 mm 2,3 UV-I 301 W/m² 15,5 °C 17,3 °C 4,8 km/h (1 Bft)
16.08.2017 10:39 17,3 °C 17,3 °C 90 % 1019,6 hPa 0,0 mm 2,8 km/h (1 Bft) N 5 ° 1 min 0,000 mm 2,4 UV-I 304 W/m² 15,6 °C 17,3 °C 3,2 km/h (1 Bft)
16.08.2017 10:40 17,3 °C 17,3 °C 89 % 1019,5 hPa 0,0 mm 1,3 km/h (1 Bft) N 5 ° 1 min 0,000 mm 2,4 UV-I 313 W/m² 15,5 °C 17,3 °C 3,2 km/h (1 Bft)
16.08.2017 10:41 17,3 °C 17,3 °C 89 % 1019,5 hPa 0,0 mm 1,5 km/h (1 Bft) N 5 ° 1 min 0,000 mm 2,4 UV-I 316 W/m² 15,5 °C 17,3 °C 3,2 km/h (1 Bft)
16.08.2017 10:42 17,3 °C 17,3 °C 89 % 1019,5 hPa 0,0 mm 0,3 km/h (0 Bft) N 5 ° 1 min 0,000 mm 2,4 UV-I 323 W/m² 15,5 °C 17,3 °C 1,6 km/h (1 Bft)
16.08.2017 10:43 17,3 °C 17,3 °C 89 % 1019,5 hPa 0,0 mm 0,4 km/h (0 Bft) N 5 ° 1 min 0,000 mm 2,5 UV-I 327 W/m² 15,5 °C 17,3 °C 1,6 km/h (1 Bft)
16.08.2017 10:44 17,3 °C 17,3 °C 89 % 1019,6 hPa 0,0 mm 0,0 km/h (0 Bft) N 5 ° 1 min 0,000 mm 2,5 UV-I 327 W/m² 15,5 °C 17,3 °C 0,0 km/h (0 Bft)
16.08.2017 10:45 17,3 °C 17,3 °C 90 % 1019,6 hPa 0,0 mm 0,1 km/h (0 Bft) N 5 ° 1 min 0,000 mm 2,6 UV-I 330 W/m² 15,6 °C 17,3 °C 1,6 km/h (1 Bft)
16.08.2017 10:46 17,4 °C 17,4 °C 90 % 1019,5 hPa 0,0 mm 1,9 km/h (1 Bft) N 5 ° 1 min 0,000 mm 2,5 UV-I 327 W/m² 15,7 °C 17,4 °C 3,2 km/h (1 Bft)
16.08.2017 10:47 17,5 °C 17,5 °C 90 % 1019,6 hPa 0,0 mm 2,4 km/h (1 Bft) N 5 ° 1 min 0,000 mm 2,5 UV-I 323 W/m² 15,8 °C 17,5 °C 3,2 km/h (1 Bft)
16.08.2017 10:48 17,6 °C 17,6 °C 90 % 1019,5 hPa 0,0 mm 2,9 km/h (1 Bft) NO 49 ° 1 min 0,000 mm 2,5 UV-I 320 W/m² 15,9 °C 17,6 °C 4,8 km/h (1 Bft)
16.08.2017 10:49 17,6 °C 17,6 °C 89 % 1019,5 hPa 0,0 mm 3,2 km/h (1 Bft) NO 49 ° 1 min 0,000 mm 2,5 UV-I 322 W/m² 15,8 °C 17,6 °C 4,8 km/h (1 Bft)
16.08.2017 10:50 17,5 °C 17,6 °C 88 % 1019,6 hPa 0,0 mm 2,6 km/h (1 Bft) NO 49 ° 1 min 0,000 mm 2,5 UV-I 323 W/m² 15,5 °C 17,5 °C 4,8 km/h (1 Bft)
16.08.2017 10:51 17,5 °C 17,5 °C 89 % 1019,6 hPa 0,0 mm 2,1 km/h (1 Bft) NO 49 ° 1 min 0,000 mm 2,5 UV-I 323 W/m² 15,7 °C 17,5 °C 3,2 km/h (1 Bft)
16.08.2017 10:52 17,5 °C 17,6 °C 89 % 1019,6 hPa 0,0 mm 3,5 km/h (1 Bft) N-NO 12 ° 1 min 0,000 mm 2,5 UV-I 322 W/m² 15,7 °C 17,5 °C 4,8 km/h (1 Bft)
16.08.2017 10:53 17,6 °C 17,6 °C 89 % 1019,6 hPa 0,0 mm 3,8 km/h (1 Bft) NO 44 ° 1 min 0,000 mm 2,5 UV-I 318 W/m² 15,8 °C 17,6 °C 6,4 km/h (2 Bft)
16.08.2017 10:54 17,6 °C 17,6 °C 89 % 1019,6 hPa 0,0 mm 3,0 km/h (1 Bft) N-NO 32 ° 1 min 0,000 mm 2,5 UV-I 304 W/m² 15,8 °C 17,6 °C 6,4 km/h (2 Bft)
16.08.2017 10:55 17,6 °C 17,6 °C 88 % 1019,6 hPa 0,0 mm 1,5 km/h (1 Bft) N-NO 32 ° 1 min 0,000 mm 2,5 UV-I 302 W/m² 15,6 °C 17,6 °C 3,2 km/h (1 Bft)
16.08.2017 10:56 17,6 °C 17,6 °C 89 % 1019,5 hPa 0,0 mm 2,0 km/h (1 Bft) NO 42 ° 1 min 0,000 mm 2,5 UV-I 302 W/m² 15,8 °C 17,6 °C 4,8 km/h (1 Bft)
16.08.2017 10:57 17,6 °C 17,6 °C 88 % 1019,5 hPa 0,0 mm 3,6 km/h (1 Bft) NO 42 ° 0 min 0,000 mm 2,4 UV-I 288 W/m² 15,6 °C 17,6 °C 4,8 km/h (1 Bft)
16.08.2017 10:58 17,5 °C 17,6 °C 88 % 1019,6 hPa 0,0 mm 4,0 km/h (1 Bft) O-NO 57 ° 0 min 0,000 mm 2,4 UV-I 283 W/m² 15,5 °C 17,5 °C 4,8 km/h (1 Bft)
16.08.2017 10:59 17,6 °C 17,6 °C 88 % 1019,6 hPa 0,0 mm 1,1 km/h (1 Bft) O-NO 57 ° 0 min 0,000 mm 2,4 UV-I 278 W/m² 15,6 °C 17,6 °C 3,2 km/h (1 Bft)
16.08.2017 11:00 17,6 °C 17,6 °C 89 % 1019,6 hPa 0,0 mm 1,3 km/h (1 Bft) O-NO 57 ° 0 min 0,152 mm 2,4 UV-I 260 W/m² 15,8 °C 17,6 °C 3,2 km/h (1 Bft)
16.08.2017 11:01 17,6 °C 17,6 °C 89 % 1019,6 hPa 0,0 mm 4,2 km/h (1 Bft) N 5 ° 0 min 0,000 mm 2,4 UV-I 250 W/m² 15,8 °C 17,6 °C 4,8 km/h (1 Bft)
16.08.2017 11:02 17,6 °C 17,6 °C 89 % 1019,6 hPa 0,0 mm 3,4 km/h (1 Bft) N-NO 27 ° 0 min 0,000 mm 2,4 UV-I 243 W/m² 15,8 °C 17,6 °C 4,8 km/h (1 Bft)
16.08.2017 11:03 17,6 °C 17,6 °C 88 % 1019,6 hPa 0,0 mm 4,1 km/h (1 Bft) N-NO 27 ° 0 min 0,000 mm 2,4 UV-I 239 W/m² 15,6 °C 17,6 °C 6,4 km/h (2 Bft)
16.08.2017 11:04 17,6 °C 17,6 °C 88 % 1019,6 hPa 0,0 mm 4,8 km/h (1 Bft) N-NO 28 ° 0 min 0,000 mm 2,5 UV-I 248 W/m² 15,6 °C 17,6 °C 6,4 km/h (2 Bft)
16.08.2017 11:05 17,6 °C 17,6 °C 88 % 1019,6 hPa 0,0 mm 1,2 km/h (1 Bft) N-NO 28 ° 1 min 0,000 mm 2,7 UV-I 315 W/m² 15,6 °C 17,6 °C 3,2 km/h (1 Bft)
16.08.2017 11:06 17,6 °C 17,6 °C 88 % 1019,6 hPa 0,0 mm 1,6 km/h (1 Bft) N-NO 29 ° 1 min 0,000 mm 3,5 UV-I 315 W/m² 15,6 °C 17,6 °C 3,2 km/h (1 Bft)
16.08.2017 11:07 17,6 °C 17,6 °C 88 % 1019,5 hPa 0,0 mm 4,1 km/h (1 Bft) NO 44 ° 1 min 0,000 mm 2,8 UV-I 315 W/m² 15,6 °C 17,6 °C 6,4 km/h (2 Bft)
16.08.2017 11:08 17,7 °C 17,7 °C 88 % 1019,5 hPa 0,0 mm 4,9 km/h (1 Bft) NO 55 ° 1 min 0,000 mm 4,1 UV-I 315 W/m² 15,7 °C 17,7 °C 6,4 km/h (2 Bft)
16.08.2017 11:09 17,8 °C 17,8 °C 89 % 1019,5 hPa 0,0 mm 3,7 km/h (1 Bft) O-NO 71 ° 1 min 0,000 mm 4,3 UV-I 737 W/m² 16,0 °C 17,8 °C 6,4 km/h (2 Bft)
16.08.2017 11:10 17,9 °C 17,9 °C 87 % 1019,5 hPa 0,0 mm 3,7 km/h (1 Bft) NO 56 ° 1 min 0,000 mm 4,7 UV-I 765 W/m² 15,7 °C 17,9 °C 6,4 km/h (2 Bft)
16.08.2017 11:11 18,0 °C 18,0 °C 87 % 1019,5 hPa 0,0 mm 5,0 km/h (1 Bft) NO 35 ° 1 min 0,000 mm 4,8 UV-I 786 W/m² 15,8 °C 18,0 °C 8,0 km/h (2 Bft)
16.08.2017 11:12 18,1 °C 18,1 °C 87 % 1019,5 hPa 0,0 mm 4,8 km/h (1 Bft) O-NO 67 ° 1 min 0,000 mm 4,0 UV-I 786 W/m² 15,9 °C 18,1 °C 6,4 km/h (2 Bft)
16.08.2017 11:13 18,1 °C 18,1 °C 86 % 1019,5 hPa 0,0 mm 4,3 km/h (1 Bft) N-NO 22 ° 1 min 0,000 mm 4,9 UV-I 786 W/m² 15,7 °C 18,1 °C 6,4 km/h (2 Bft)
16.08.2017 11:14 18,2 °C 18,2 °C 87 % 1019,5 hPa 0,0 mm 5,3 km/h (1 Bft) N-NO 15 ° 1 min 0,000 mm 4,9 UV-I 770 W/m² 16,0 °C 18,2 °C 6,4 km/h (2 Bft)
16.08.2017 11:15 18,5 °C 18,5 °C 89 % 1019,5 hPa 0,0 mm 5,4 km/h (1 Bft) N 9 ° 1 min 0,000 mm 4,9 UV-I 763 W/m² 16,7 °C 18,5 °C 8,0 km/h (2 Bft)
16.08.2017 11:16 18,7 °C 18,7 °C 88 % 1019,5 hPa 0,0 mm 5,7 km/h (1 Bft) N 11 ° 1 min 0,000 mm 4,9 UV-I 758 W/m² 16,7 °C 18,7 °C 8,0 km/h (2 Bft)
16.08.2017 11:17 18,7 °C 18,8 °C 85 % 1019,4 hPa 0,0 mm 4,3 km/h (1 Bft) N 360 ° 1 min 0,000 mm 4,9 UV-I 761 W/m² 16,1 °C 18,7 °C 6,4 km/h (2 Bft)
16.08.2017 11:18 18,8 °C 18,8 °C 86 % 1019,5 hPa 0,0 mm 2,6 km/h (1 Bft) N 350 ° 1 min 0,000 mm 5,0 UV-I 761 W/m² 16,4 °C 18,8 °C 4,8 km/h (1 Bft)
16.08.2017 11:19 18,9 °C 18,9 °C 88 % 1019,4 hPa 0,0 mm 3,6 km/h (1 Bft) N 5 ° 1 min 0,000 mm 5,0 UV-I 765 W/m² 16,9 °C 18,9 °C 4,8 km/h (1 Bft)
16.08.2017 11:20 18,9 °C 18,9 °C 85 % 1019,4 hPa 0,0 mm 4,1 km/h (1 Bft) N 5 ° 1 min 0,000 mm 5,0 UV-I 766 W/m² 16,3 °C 18,9 °C 4,8 km/h (1 Bft)
16.08.2017 11:21 18,8 °C 18,9 °C 85 % 1019,4 hPa 0,0 mm 4,3 km/h (1 Bft) N 9 ° 1 min 0,000 mm 4,9 UV-I 751 W/m² 16,2 °C 18,8 °C 6,4 km/h (2 Bft)
16.08.2017 11:22 18,8 °C 18,8 °C 84 % 1019,4 hPa 0,0 mm 3,9 km/h (1 Bft) N 9 ° 1 min 0,000 mm 4,8 UV-I 729 W/m² 16,0 °C 18,8 °C 6,4 km/h (2 Bft)
16.08.2017 11:23 18,9 °C 18,9 °C 87 % 1019,4 hPa 0,0 mm 5,2 km/h (1 Bft) N-NO 21 ° 1 min 0,000 mm 4,8 UV-I 693 W/m² 16,7 °C 18,9 °C 6,4 km/h (2 Bft)
16.08.2017 11:24 18,9 °C 18,9 °C 85 % 1019,4 hPa 0,0 mm 6,4 km/h (2 Bft) N-NO 21 ° 1 min 0,000 mm 5,1 UV-I 756 W/m² 16,3 °C 18,9 °C 8,0 km/h (2 Bft)
16.08.2017 11:25 18,9 °C 18,9 °C 84 % 1019,4 hPa 0,0 mm 6,9 km/h (2 Bft) N-NO 21 ° 1 min 0,000 mm 5,0 UV-I 763 W/m² 16,1 °C 18,9 °C 11,3 km/h (2 Bft)
16.08.2017 11:26 18,9 °C 18,9 °C 84 % 1019,4 hPa 0,0 mm 6,0 km/h (2 Bft) NO 47 ° 1 min 0,000 mm 3,6 UV-I 763 W/m² 16,1 °C 18,9 °C 9,7 km/h (2 Bft)
16.08.2017 11:27 18,8 °C 18,9 °C 84 % 1019,4 hPa 0,0 mm 5,4 km/h (1 Bft) O-NO 63 ° 1 min 0,000 mm 4,4 UV-I 480 W/m² 16,0 °C 18,8 °C 6,4 km/h (2 Bft)
16.08.2017 11:28 18,9 °C 18,9 °C 85 % 1019,4 hPa 0,0 mm 4,4 km/h (1 Bft) O-NO 63 ° 1 min 0,000 mm 5,1 UV-I 480 W/m² 16,3 °C 18,9 °C 6,4 km/h (2 Bft)
16.08.2017 11:29 18,8 °C 18,9 °C 84 % 1019,4 hPa 0,0 mm 3,9 km/h (1 Bft) O-NO 61 ° 1 min 0,000 mm 4,5 UV-I 673 W/m² 16,0 °C 18,8 °C 4,8 km/h (1 Bft)
16.08.2017 11:30 18,8 °C 18,9 °C 83 % 1019,4 hPa 0,0 mm 3,1 km/h (1 Bft) O-NO 61 ° 1 min 0,000 mm 4,9 UV-I 754 W/m² 15,8 °C 18,8 °C 3,2 km/h (1 Bft)
16.08.2017 11:31 18,8 °C 18,8 °C 83 % 1019,3 hPa 0,0 mm 1,3 km/h (1 Bft) O-NO 61 ° 1 min 0,000 mm 4,3 UV-I 754 W/m² 15,8 °C 18,8 °C 3,2 km/h (1 Bft)
16.08.2017 11:32 18,8 °C 18,8 °C 85 % 1019,3 hPa 0,0 mm 0,5 km/h (0 Bft) O-NO 59 ° 1 min 0,000 mm 5,0 UV-I 754 W/m² 16,2 °C 18,8 °C 3,2 km/h (1 Bft)
16.08.2017 11:33 19,1 °C 19,1 °C 86 % 1019,3 hPa 0,0 mm 4,2 km/h (1 Bft) N 5 ° 1 min 0,000 mm 4,4 UV-I 666 W/m² 16,7 °C 19,1 °C 6,4 km/h (2 Bft)
16.08.2017 11:34 19,2 °C 19,2 °C 83 % 1019,4 hPa 0,0 mm 2,7 km/h (1 Bft) N 5 ° 1 min 0,000 mm 5,0 UV-I 763 W/m² 16,2 °C 19,2 °C 4,8 km/h (1 Bft)
16.08.2017 11:35 19,3 °C 19,3 °C 86 % 1019,4 hPa 0,0 mm 3,7 km/h (1 Bft) N 5 ° 1 min 0,000 mm 4,5 UV-I 591 W/m² 16,9 °C 19,3 °C 8,0 km/h (2 Bft)
16.08.2017 11:36 19,4 °C 19,4 °C 85 % 1019,4 hPa 0,0 mm 4,5 km/h (1 Bft) N 9 ° 1 min 0,000 mm 4,2 UV-I 563 W/m² 16,8 °C 19,4 °C 6,4 km/h (2 Bft)
16.08.2017 11:37 19,4 °C 19,4 °C 85 % 1019,4 hPa 0,0 mm 4,8 km/h (1 Bft) N 5 ° 1 min 0,000 mm 3,8 UV-I 563 W/m² 16,8 °C 19,4 °C 6,4 km/h (2 Bft)
16.08.2017 11:38 19,4 °C 19,4 °C 84 % 1019,4 hPa 0,0 mm 6,3 km/h (2 Bft) N 5 ° 1 min 0,000 mm 4,0 UV-I 494 W/m² 16,6 °C 19,4 °C 8,0 km/h (2 Bft)
16.08.2017 11:39 19,4 °C 19,4 °C 84 % 1019,4 hPa 0,0 mm 6,5 km/h (2 Bft) N 360 ° 1 min 0,000 mm 3,7 UV-I 427 W/m² 16,6 °C 19,4 °C 9,7 km/h (2 Bft)
16.08.2017 11:40 19,4 °C 19,4 °C 82 % 1019,4 hPa 0,0 mm 5,2 km/h (1 Bft) N 360 ° 1 min 0,000 mm 3,9 UV-I 448 W/m² 16,2 °C 19,4 °C 6,4 km/h (2 Bft)
16.08.2017 11:41 19,4 °C 19,4 °C 81 % 1019,3 hPa 0,0 mm 5,0 km/h (1 Bft) N 9 ° 1 min 0,000 mm 3,9 UV-I 473 W/m² 16,1 °C 19,4 °C 8,0 km/h (2 Bft)
16.08.2017 11:42 19,4 °C 19,4 °C 83 % 1019,4 hPa 0,0 mm 2,8 km/h (1 Bft) N 10 ° 1 min 0,000 mm 4,7 UV-I 473 W/m² 16,4 °C 19,4 °C 4,8 km/h (1 Bft)
16.08.2017 11:43 19,4 °C 19,5 °C 81 % 1019,4 hPa 0,0 mm 1,9 km/h (1 Bft) N 10 ° 1 min 0,000 mm 4,5 UV-I 473 W/m² 16,1 °C 19,4 °C 4,8 km/h (1 Bft)
16.08.2017 11:44 19,5 °C 19,5 °C 81 % 1019,3 hPa 0,0 mm 3,2 km/h (1 Bft) N 10 ° 1 min 0,000 mm 5,4 UV-I 473 W/m² 16,1 °C 19,5 °C 4,8 km/h (1 Bft)
16.08.2017 11:45 19,6 °C 19,6 °C 81 % 1019,3 hPa 0,0 mm 4,2 km/h (1 Bft) N 10 ° 1 min 0,000 mm 5,4 UV-I 770 W/m² 16,2 °C 19,6 °C 6,4 km/h (2 Bft)
16.08.2017 11:46 19,7 °C 19,7 °C 79 % 1019,4 hPa 0,0 mm 3,8 km/h (1 Bft) N-NO 17 ° 1 min 0,000 mm 5,3 UV-I 738 W/m² 16,0 °C 19,7 °C 4,8 km/h (1 Bft)
16.08.2017 11:47 19,7 °C 19,7 °C 78 % 1019,3 hPa 0,0 mm 4,1 km/h (1 Bft) N 5 ° 1 min 0,000 mm 5,4 UV-I 763 W/m² 15,8 °C 19,7 °C 6,4 km/h (2 Bft)
16.08.2017 11:48 19,7 °C 19,7 °C 78 % 1019,3 hPa 0,0 mm 3,4 km/h (1 Bft) N 355 ° 1 min 0,000 mm 5,5 UV-I 766 W/m² 15,8 °C 19,7 °C 4,8 km/h (1 Bft)
16.08.2017 11:49 19,8 °C 19,8 °C 81 % 1019,3 hPa 0,0 mm 3,2 km/h (1 Bft) N 360 ° 1 min 0,000 mm 5,5 UV-I 766 W/m² 16,4 °C 19,8 °C 4,8 km/h (1 Bft)
16.08.2017 11:50 19,9 °C 19,9 °C 82 % 1019,3 hPa 0,0 mm 4,0 km/h (1 Bft) N 360 ° 1 min 0,000 mm 5,5 UV-I 751 W/m² 16,7 °C 19,9 °C 4,8 km/h (1 Bft)
16.08.2017 11:51 20,1 °C 20,1 °C 81 % 1019,3 hPa 0,0 mm 5,1 km/h (1 Bft) N 5 ° 1 min 0,000 mm 5,5 UV-I 758 W/m² 16,7 °C 20,1 °C 6,4 km/h (2 Bft)
16.08.2017 11:52 20,2 °C 20,2 °C 79 % 1019,3 hPa 0,0 mm 4,0 km/h (1 Bft) N-NO 15 ° 1 min 0,000 mm 5,3 UV-I 701 W/m² 16,4 °C 20,2 °C 6,4 km/h (2 Bft)
16.08.2017 11:53 20,2 °C 20,2 °C 79 % 1019,3 hPa 0,0 mm 4,8 km/h (1 Bft) N 9 ° 1 min 0,000 mm 5,3 UV-I 686 W/m² 16,4 °C 20,2 °C 8,0 km/h (2 Bft)
16.08.2017 11:54 20,1 °C 20,2 °C 80 % 1019,3 hPa 0,0 mm 4,8 km/h (1 Bft) N 9 ° 1 min 0,000 mm 5,4 UV-I 707 W/m² 16,5 °C 20,1 °C 8,0 km/h (2 Bft)
16.08.2017 11:55 20,1 °C 20,2 °C 79 % 1019,3 hPa 0,0 mm 2,7 km/h (1 Bft) N 355 ° 1 min 0,000 mm 5,4 UV-I 742 W/m² 16,3 °C 20,1 °C 4,8 km/h (1 Bft)
16.08.2017 11:56 20,1 °C 20,1 °C 78 % 1019,2 hPa 0,0 mm 5,1 km/h (1 Bft) N-NW 342 ° 1 min 0,000 mm 5,3 UV-I 729 W/m² 16,1 °C 20,1 °C 6,4 km/h (2 Bft)
16.08.2017 11:57 20,1 °C 20,1 °C 80 % 1019,2 hPa 0,0 mm 3,9 km/h (1 Bft) N-NO 20 ° 1 min 0,000 mm 5,3 UV-I 708 W/m² 16,5 °C 20,1 °C 6,4 km/h (2 Bft)
16.08.2017 11:58 20,1 °C 20,1 °C 78 % 1019,2 hPa 0,0 mm 5,0 km/h (1 Bft) N-NO 15 ° 1 min 0,000 mm 5,4 UV-I 650 W/m² 16,1 °C 20,1 °C 6,4 km/h (2 Bft)
16.08.2017 11:59 20,1 °C 20,1 °C 78 % 1019,2 hPa 0,0 mm 4,0 km/h (1 Bft) N 355 ° 1 min 0,000 mm 5,6 UV-I 766 W/m² 16,1 °C 20,1 °C 6,4 km/h (2 Bft)
16.08.2017 12:00 20,0 °C 20,1 °C 78 % 1019,2 hPa 0,0 mm 2,5 km/h (1 Bft) N 360 ° 1 min 0,381 mm 5,6 UV-I 770 W/m² 16,0 °C 20,0 °C 4,8 km/h (1 Bft)
16.08.2017 12:01 20,1 °C 20,1 °C 81 % 1019,2 hPa 0,0 mm 2,4 km/h (1 Bft) N-NW 346 ° 1 min 0,000 mm 5,6 UV-I 768 W/m² 16,7 °C 20,1 °C 4,8 km/h (1 Bft)
16.08.2017 12:02 20,2 °C 20,2 °C 82 % 1019,2 hPa 0,0 mm 4,5 km/h (1 Bft) NO 41 ° 1 min 0,000 mm 5,6 UV-I 768 W/m² 17,0 °C 20,2 °C 6,4 km/h (2 Bft)
16.08.2017 12:03 20,3 °C 20,3 °C 82 % 1019,2 hPa 0,0 mm 2,8 km/h (1 Bft) NO 46 ° 1 min 0,000 mm 5,6 UV-I 766 W/m² 17,1 °C 20,3 °C 6,4 km/h (2 Bft)
16.08.2017 12:04 20,3 °C 20,3 °C 80 % 1019,1 hPa 0,0 mm 2,7 km/h (1 Bft) N-NO 30 ° 1 min 0,000 mm 5,6 UV-I 759 W/m² 16,7 °C 20,3 °C 6,4 km/h (2 Bft)
16.08.2017 12:05 20,4 °C 20,4 °C 83 % 1019,2 hPa 0,0 mm 4,0 km/h (1 Bft) N-NO 22 ° 1 min 0,000 mm 5,6 UV-I 758 W/m² 17,4 °C 20,4 °C 6,4 km/h (2 Bft)
16.08.2017 12:06 20,5 °C 20,5 °C 83 % 1019,1 hPa 0,0 mm 2,8 km/h (1 Bft) O-NO 78 ° 1 min 0,000 mm 5,7 UV-I 766 W/m² 17,5 °C 20,5 °C 4,8 km/h (1 Bft)
16.08.2017 12:07 20,5 °C 20,5 °C 82 % 1019,1 hPa 0,0 mm 4,6 km/h (1 Bft) O 84 ° 1 min 0,000 mm 5,7 UV-I 766 W/m² 17,3 °C 20,5 °C 6,4 km/h (2 Bft)
16.08.2017 12:08 20,4 °C 20,5 °C 83 % 1019,2 hPa 0,0 mm 3,5 km/h (1 Bft) O-NO 61 ° 1 min 0,000 mm 5,7 UV-I 766 W/m² 17,4 °C 20,4 °C 4,8 km/h (1 Bft)
16.08.2017 12:09 20,4 °C 20,4 °C 83 % 1019,2 hPa 0,0 mm 4,9 km/h (1 Bft) O 84 ° 1 min 0,000 mm 5,7 UV-I 768 W/m² 17,4 °C 20,4 °C 6,4 km/h (2 Bft)
16.08.2017 12:10 20,3 °C 20,4 °C 82 % 1019,2 hPa 0,0 mm 5,8 km/h (2 Bft) O 83 ° 1 min 0,000 mm 5,7 UV-I 772 W/m² 17,1 °C 20,3 °C 6,4 km/h (2 Bft)
16.08.2017 12:11 20,2 °C 20,3 °C 83 % 1019,1 hPa 0,0 mm 6,8 km/h (2 Bft) NO 40 ° 1 min 0,000 mm 5,7 UV-I 772 W/m² 17,2 °C 20,2 °C 9,7 km/h (2 Bft)
16.08.2017 12:12 20,2 °C 20,2 °C 83 % 1019,1 hPa 0,0 mm 5,9 km/h (2 Bft) NO 49 ° 1 min 0,000 mm 5,7 UV-I 773 W/m² 17,2 °C 20,2 °C 9,7 km/h (2 Bft)
16.08.2017 12:13 20,2 °C 20,2 °C 84 % 1019,1 hPa 0,0 mm 3,7 km/h (1 Bft) N-NO 26 ° 1 min 0,000 mm 5,8 UV-I 773 W/m² 17,4 °C 20,2 °C 6,4 km/h (2 Bft)
16.08.2017 12:14 20,3 °C 20,3 °C 81 % 1019,2 hPa 0,0 mm 2,3 km/h (1 Bft) O-NO 61 ° 1 min 0,000 mm 5,8 UV-I 772 W/m² 16,9 °C 20,3 °C 6,4 km/h (2 Bft)
16.08.2017 12:15 20,3 °C 20,3 °C 81 % 1019,1 hPa 0,0 mm 5,5 km/h (1 Bft) NO 40 ° 1 min 0,000 mm 5,8 UV-I 773 W/m² 16,9 °C 20,3 °C 11,3 km/h (2 Bft)
16.08.2017 12:16 20,4 °C 20,4 °C 82 % 1019,1 hPa 0,0 mm 4,7 km/h (1 Bft) N 355 ° 1 min 0,000 mm 5,8 UV-I 773 W/m² 17,2 °C 20,4 °C 6,4 km/h (2 Bft)
16.08.2017 12:17 20,4 °C 20,4 °C 82 % 1019,1 hPa 0,0 mm 6,9 km/h (2 Bft) NO 43 ° 1 min 0,000 mm 5,8 UV-I 777 W/m² 17,2 °C 20,4 °C 9,7 km/h (2 Bft)
16.08.2017 12:18 20,4 °C 20,5 °C 80 % 1019,1 hPa 0,0 mm 5,4 km/h (1 Bft) O-NO 59 ° 1 min 0,000 mm 5,8 UV-I 779 W/m² 16,8 °C 20,4 °C 8,0 km/h (2 Bft)
16.08.2017 12:19 20,5 °C 20,5 °C 80 % 1019,1 hPa 0,0 mm 6,3 km/h (2 Bft) N-NO 24 ° 1 min 0,000 mm 5,8 UV-I 780 W/m² 16,9 °C 20,5 °C 9,7 km/h (2 Bft)
16.08.2017 12:20 20,6 °C 20,6 °C 82 % 1019,1 hPa 0,0 mm 3,8 km/h (1 Bft) NO 54 ° 1 min 0,000 mm 5,8 UV-I 784 W/m² 17,4 °C 20,6 °C 8,0 km/h (2 Bft)
16.08.2017 12:21 20,7 °C 20,7 °C 78 % 1019,1 hPa 0,0 mm 4,6 km/h (1 Bft) N-NO 18 ° 1 min 0,000 mm 5,8 UV-I 777 W/m² 16,7 °C 20,7 °C 8,0 km/h (2 Bft)
16.08.2017 12:22 20,7 °C 20,7 °C 82 % 1019,1 hPa 0,0 mm 3,0 km/h (1 Bft) N-NO 18 ° 1 min 0,000 mm 5,8 UV-I 777 W/m² 17,5 °C 20,7 °C 4,8 km/h (1 Bft)
16.08.2017 12:23 20,8 °C 20,8 °C 79 % 1019,1 hPa 0,0 mm 3,7 km/h (1 Bft) N 355 ° 1 min 0,000 mm 5,9 UV-I 777 W/m² 17,0 °C 20,8 °C 8,0 km/h (2 Bft)
16.08.2017 12:24 20,9 °C 20,9 °C 82 % 1019,1 hPa 0,0 mm 5,9 km/h (2 Bft) NO 43 ° 1 min 0,000 mm 5,9 UV-I 779 W/m² 17,7 °C 20,9 °C 8,0 km/h (2 Bft)
16.08.2017 12:25 21,0 °C 21,0 °C 77 % 1019,1 hPa 0,0 mm 6,0 km/h (2 Bft) NO 49 ° 1 min 0,000 mm 5,9 UV-I 779 W/m² 16,8 °C 21,0 °C 8,0 km/h (2 Bft)
16.08.2017 12:26 20,8 °C 21,0 °C 78 % 1019,1 hPa 0,0 mm 7,2 km/h (2 Bft) O 92 ° 1 min 0,000 mm 5,9 UV-I 780 W/m² 16,8 °C 20,8 °C 9,7 km/h (2 Bft)
16.08.2017 12:27 20,8 °C 20,8 °C 80 % 1019,1 hPa 0,0 mm 3,8 km/h (1 Bft) O 85 ° 1 min 0,000 mm 5,9 UV-I 780 W/m² 17,2 °C 20,8 °C 6,4 km/h (2 Bft)
16.08.2017 12:28 20,7 °C 20,8 °C 80 % 1019,1 hPa 0,0 mm 4,8 km/h (1 Bft) NO 44 ° 1 min 0,000 mm 5,9 UV-I 780 W/m² 17,1 °C 20,7 °C 6,4 km/h (2 Bft)
16.08.2017 12:29 20,8 °C 20,8 °C 80 % 1019,1 hPa 0,0 mm 3,8 km/h (1 Bft) N 9 ° 1 min 0,000 mm 5,9 UV-I 780 W/m² 17,2 °C 20,8 °C 6,4 km/h (2 Bft)
16.08.2017 12:30 20,8 °C 20,8 °C 80 % 1019,0 hPa 0,0 mm 5,2 km/h (1 Bft) NO 46 ° 1 min 0,000 mm 5,9 UV-I 784 W/m² 17,2 °C 20,8 °C 8,0 km/h (2 Bft)
16.08.2017 12:31 20,8 °C 20,8 °C 79 % 1019,1 hPa 0,0 mm 5,4 km/h (1 Bft) NO 38 ° 1 min 0,000 mm 5,9 UV-I 786 W/m² 17,0 °C 20,8 °C 8,0 km/h (2 Bft)
16.08.2017 12:32 20,7 °C 20,8 °C 79 % 1019,0 hPa 0,0 mm 3,6 km/h (1 Bft) O-NO 69 ° 1 min 0,000 mm 5,9 UV-I 788 W/m² 16,9 °C 20,7 °C 6,4 km/h (2 Bft)
16.08.2017 12:33 20,7 °C 20,7 °C 80 % 1019,0 hPa 0,0 mm 4,8 km/h (1 Bft) NO 56 ° 1 min 0,000 mm 5,9 UV-I 788 W/m² 17,1 °C 20,7 °C 8,0 km/h (2 Bft)
16.08.2017 12:34 20,8 °C 20,8 °C 80 % 1019,0 hPa 0,0 mm 3,4 km/h (1 Bft) N 11 ° 1 min 0,000 mm 6,0 UV-I 788 W/m² 17,2 °C 20,8 °C 6,4 km/h (2 Bft)
16.08.2017 12:35 20,8 °C 20,8 °C 79 % 1018,9 hPa 0,0 mm 3,6 km/h (1 Bft) N 355 ° 1 min 0,000 mm 6,0 UV-I 789 W/m² 17,0 °C 20,8 °C 6,4 km/h (2 Bft)
16.08.2017 12:36 20,9 °C 20,9 °C 82 % 1019,0 hPa 0,0 mm 4,3 km/h (1 Bft) NO 48 ° 1 min 0,000 mm 6,0 UV-I 789 W/m² 17,7 °C 20,9 °C 6,4 km/h (2 Bft)
16.08.2017 12:37 21,1 °C 21,1 °C 83 % 1019,0 hPa 0,0 mm 2,3 km/h (1 Bft) O 92 ° 1 min 0,000 mm 6,0 UV-I 791 W/m² 18,1 °C 21,1 °C 4,8 km/h (1 Bft)
16.08.2017 12:38 20,8 °C 21,1 °C 79 % 1019,0 hPa 0,0 mm 2,7 km/h (1 Bft) O 96 ° 1 min 0,000 mm 6,0 UV-I 793 W/m² 17,0 °C 20,8 °C 4,8 km/h (1 Bft)
16.08.2017 12:39 20,8 °C 20,8 °C 79 % 1019,0 hPa 0,0 mm 5,8 km/h (2 Bft) SO 132 ° 1 min 0,000 mm 6,0 UV-I 798 W/m² 17,0 °C 20,8 °C 9,7 km/h (2 Bft)
16.08.2017 12:40 20,8 °C 20,8 °C 80 % 1019,0 hPa 0,0 mm 7,0 km/h (2 Bft) O-SO 111 ° 1 min 0,000 mm 6,1 UV-I 800 W/m² 17,2 °C 20,8 °C 11,3 km/h (2 Bft)
16.08.2017 12:41 20,6 °C 20,8 °C 77 % 1019,0 hPa 0,0 mm 1,3 km/h (1 Bft) NO 44 ° 1 min 0,000 mm 6,1 UV-I 802 W/m² 16,4 °C 20,6 °C 4,8 km/h (1 Bft)
16.08.2017 12:42 20,6 °C 20,6 °C 78 % 1019,0 hPa 0,0 mm 2,7 km/h (1 Bft) NO 44 ° 1 min 0,000 mm 6,1 UV-I 807 W/m² 16,6 °C 20,6 °C 6,4 km/h (2 Bft)
16.08.2017 12:43 20,7 °C 20,7 °C 79 % 1019,0 hPa 0,0 mm 0,3 km/h (0 Bft) NO 44 ° 1 min 0,000 mm 6,1 UV-I 810 W/m² 16,9 °C 20,7 °C 1,6 km/h (1 Bft)
16.08.2017 12:44 20,7 °C 20,7 °C 80 % 1019,0 hPa 0,0 mm 0,9 km/h (0 Bft) NO 44 ° 1 min 0,000 mm 6,2 UV-I 814 W/m² 17,1 °C 20,7 °C 3,2 km/h (1 Bft)
16.08.2017 12:45 20,8 °C 20,8 °C 81 % 1019,0 hPa 0,0 mm 4,2 km/h (1 Bft) NO 44 ° 1 min 0,000 mm 6,2 UV-I 812 W/m² 17,4 °C 20,8 °C 8,0 km/h (2 Bft)
16.08.2017 12:46 20,8 °C 20,9 °C 79 % 1019,0 hPa 0,0 mm 4,8 km/h (1 Bft) S 171 ° 1 min 0,000 mm 6,2 UV-I 810 W/m² 17,0 °C 20,8 °C 8,0 km/h (2 Bft)
16.08.2017 12:47 20,8 °C 20,8 °C 77 % 1018,9 hPa 0,0 mm 2,5 km/h (1 Bft) O 82 ° 1 min 0,000 mm 6,2 UV-I 814 W/m² 16,6 °C 20,8 °C 3,2 km/h (1 Bft)
16.08.2017 12:48 20,8 °C 20,8 °C 78 % 1019,0 hPa 0,0 mm 4,4 km/h (1 Bft) N 355 ° 1 min 0,000 mm 6,2 UV-I 817 W/m² 16,8 °C 20,8 °C 6,4 km/h (2 Bft)
16.08.2017 12:49 21,1 °C 21,1 °C 78 % 1018,9 hPa 0,0 mm 5,4 km/h (1 Bft) NO 51 ° 1 min 0,000 mm 6,2 UV-I 814 W/m² 17,1 °C 21,1 °C 8,0 km/h (2 Bft)
16.08.2017 12:50 21,1 °C 21,1 °C 76 % 1019,0 hPa 0,0 mm 4,8 km/h (1 Bft) O 80 ° 1 min 0,000 mm 6,2 UV-I 805 W/m² 16,7 °C 21,1 °C 6,4 km/h (2 Bft)
16.08.2017 12:51 21,1 °C 21,2 °C 77 % 1019,0 hPa 0,0 mm 4,6 km/h (1 Bft) O 80 ° 1 min 0,000 mm 6,2 UV-I 802 W/m² 16,9 °C 21,1 °C 6,4 km/h (2 Bft)
16.08.2017 12:52 20,9 °C 21,1 °C 75 % 1019,0 hPa 0,0 mm 4,8 km/h (1 Bft) O 91 ° 1 min 0,000 mm 6,2 UV-I 803 W/m² 16,3 °C 20,9 °C 6,4 km/h (2 Bft)
16.08.2017 12:53 20,9 °C 20,9 °C 77 % 1018,9 hPa 0,0 mm 1,9 km/h (1 Bft) O-NO 69 ° 1 min 0,000 mm 6,2 UV-I 805 W/m² 16,7 °C 20,9 °C 4,8 km/h (1 Bft)
16.08.2017 12:54 20,9 °C 20,9 °C 77 % 1018,9 hPa 0,0 mm 2,0 km/h (1 Bft) O 85 ° 1 min 0,000 mm 6,2 UV-I 809 W/m² 16,7 °C 20,9 °C 4,8 km/h (1 Bft)
16.08.2017 12:55 20,9 °C 21,0 °C 81 % 1018,9 hPa 0,0 mm 2,9 km/h (1 Bft) S-SO 153 ° 1 min 0,000 mm 6,2 UV-I 810 W/m² 17,5 °C 20,9 °C 3,2 km/h (1 Bft)
16.08.2017 12:56 20,9 °C 20,9 °C 76 % 1018,9 hPa 0,0 mm 2,5 km/h (1 Bft) NO 36 ° 1 min 0,000 mm 6,2 UV-I 814 W/m² 16,5 °C 20,9 °C 8,0 km/h (2 Bft)
16.08.2017 12:57 21,1 °C 21,1 °C 77 % 1018,9 hPa 0,0 mm 6,6 km/h (2 Bft) NO 42 ° 1 min 0,000 mm 6,3 UV-I 824 W/m² 16,9 °C 21,1 °C 8,0 km/h (2 Bft)
16.08.2017 12:58 21,3 °C 21,3 °C 83 % 1018,9 hPa 0,0 mm 2,7 km/h (1 Bft) NO 43 ° 1 min 0,000 mm 6,3 UV-I 831 W/m² 18,3 °C 21,3 °C 4,8 km/h (1 Bft)
16.08.2017 12:59 21,2 °C 21,3 °C 77 % 1018,9 hPa 0,0 mm 3,0 km/h (1 Bft) O 96 ° 1 min 0,000 mm 6,3 UV-I 840 W/m² 17,0 °C 21,2 °C 6,4 km/h (2 Bft)
16.08.2017 13:00 21,2 °C 21,2 °C 77 % 1018,9 hPa 0,0 mm 4,8 km/h (1 Bft) O-NO 67 ° 1 min 0,000 mm 4,4 UV-I 840 W/m² 17,0 °C 21,2 °C 8,0 km/h (2 Bft)
16.08.2017 13:01 21,2 °C 21,2 °C 77 % 1018,9 hPa 0,0 mm 4,3 km/h (1 Bft) S-SO 151 ° 1 min 0,458 mm 6,4 UV-I 840 W/m² 17,0 °C 21,2 °C 6,4 km/h (2 Bft)
16.08.2017 13:02 21,1 °C 21,2 °C 75 % 1018,8 hPa 0,0 mm 3,0 km/h (1 Bft) O-NO 57 ° 1 min 0,000 mm 6,3 UV-I 840 W/m² 16,5 °C 21,1 °C 6,4 km/h (2 Bft)
16.08.2017 13:03 21,1 °C 21,1 °C 76 % 1018,8 hPa 0,0 mm 2,7 km/h (1 Bft) O-NO 73 ° 1 min 0,000 mm 4,7 UV-I 840 W/m² 16,7 °C 21,1 °C 3,2 km/h (1 Bft)
16.08.2017 13:04 21,0 °C 21,1 °C 77 % 1018,9 hPa 0,0 mm 2,5 km/h (1 Bft) O 81 ° 1 min 0,000 mm 6,4 UV-I 840 W/m² 16,8 °C 21,0 °C 4,8 km/h (1 Bft)
16.08.2017 13:05 21,0 °C 21,0 °C 77 % 1018,8 hPa 0,0 mm 3,6 km/h (1 Bft) O 79 ° 1 min 0,000 mm 6,4 UV-I 835 W/m² 16,8 °C 21,0 °C 4,8 km/h (1 Bft)
16.08.2017 13:06 21,1 °C 21,1 °C 81 % 1018,9 hPa 0,0 mm 3,7 km/h (1 Bft) NO 49 ° 1 min 0,000 mm 6,3 UV-I 828 W/m² 17,7 °C 21,1 °C 9,7 km/h (2 Bft)
16.08.2017 13:07 21,2 °C 21,2 °C 75 % 1018,9 hPa 0,0 mm 7,7 km/h (2 Bft) N-NO 28 ° 1 min 0,000 mm 6,3 UV-I 826 W/m² 16,6 °C 21,2 °C 11,3 km/h (2 Bft)
16.08.2017 13:08 21,2 °C 21,2 °C 77 % 1018,8 hPa 0,0 mm 7,4 km/h (2 Bft) O-NO 74 ° 1 min 0,000 mm 6,3 UV-I 826 W/m² 17,0 °C 21,2 °C 11,3 km/h (2 Bft)
16.08.2017 13:09 21,3 °C 21,3 °C 74 % 1018,8 hPa 0,0 mm 4,5 km/h (1 Bft) N 11 ° 1 min 0,000 mm 6,3 UV-I 833 W/m² 16,5 °C 21,3 °C 8,0 km/h (2 Bft)
16.08.2017 13:10 21,4 °C 21,4 °C 78 % 1018,8 hPa 0,0 mm 6,4 km/h (2 Bft) O-NO 58 ° 1 min 0,000 mm 6,3 UV-I 831 W/m² 17,4 °C 21,4 °C 9,7 km/h (2 Bft)
16.08.2017 13:11 21,4 °C 21,4 °C 77 % 1018,9 hPa 0,0 mm 5,1 km/h (1 Bft) O 80 ° 1 min 0,000 mm 6,3 UV-I 831 W/m² 17,2 °C 21,4 °C 8,0 km/h (2 Bft)
16.08.2017 13:12 21,4 °C 21,4 °C 77 % 1018,8 hPa 0,0 mm 4,9 km/h (1 Bft) O 81 ° 1 min 0,000 mm 6,3 UV-I 838 W/m² 17,2 °C 21,4 °C 6,4 km/h (2 Bft)
16.08.2017 13:13 21,3 °C 21,4 °C 76 % 1018,8 hPa 0,0 mm 1,5 km/h (1 Bft) N-NO 16 ° 1 min 0,000 mm 3,0 UV-I 772 W/m² 16,9 °C 21,3 °C 4,8 km/h (1 Bft)
16.08.2017 13:14 21,2 °C 21,3 °C 76 % 1018,8 hPa 0,0 mm 3,9 km/h (1 Bft) O-NO 60 ° 0 min 0,000 mm 2,8 UV-I 207 W/m² 16,8 °C 21,2 °C 4,8 km/h (1 Bft)
16.08.2017 13:15 21,2 °C 21,2 °C 74 % 1018,8 hPa 0,0 mm 3,2 km/h (1 Bft) NO 55 ° 0 min 0,000 mm 2,7 UV-I 120 W/m² 16,4 °C 21,2 °C 8,0 km/h (2 Bft)
16.08.2017 13:16 21,1 °C 21,2 °C 77 % 1018,8 hPa 0,0 mm 4,2 km/h (1 Bft) O 90 ° 0 min 0,000 mm 2,6 UV-I 111 W/m² 16,9 °C 21,1 °C 6,4 km/h (2 Bft)
16.08.2017 13:17 21,0 °C 21,1 °C 75 % 1018,8 hPa 0,0 mm 3,0 km/h (1 Bft) O 88 ° 0 min 0,000 mm 2,6 UV-I 125 W/m² 16,4 °C 21,0 °C 4,8 km/h (1 Bft)
16.08.2017 13:18 20,9 °C 21,0 °C 76 % 1018,8 hPa 0,0 mm 5,1 km/h (1 Bft) O 99 ° 0 min 0,000 mm 3,6 UV-I 172 W/m² 16,5 °C 20,9 °C 8,0 km/h (2 Bft)
16.08.2017 13:19 20,7 °C 20,9 °C 77 % 1018,8 hPa 0,0 mm 4,5 km/h (1 Bft) S-SO 148 ° 0 min 0,000 mm 2,7 UV-I 162 W/m² 16,5 °C 20,7 °C 6,4 km/h (2 Bft)
16.08.2017 13:20 20,5 °C 20,7 °C 76 % 1018,8 hPa 0,0 mm 5,1 km/h (1 Bft) O 95 ° 0 min 0,000 mm 2,6 UV-I 120 W/m² 16,1 °C 20,5 °C 8,0 km/h (2 Bft)
16.08.2017 13:21 20,4 °C 20,5 °C 78 % 1018,8 hPa 0,0 mm 3,8 km/h (1 Bft) O 101 ° 0 min 0,000 mm 2,5 UV-I 121 W/m² 16,4 °C 20,4 °C 4,8 km/h (1 Bft)
16.08.2017 13:22 20,3 °C 20,4 °C 75 % 1018,8 hPa 0,0 mm 4,5 km/h (1 Bft) O 101 ° 0 min 0,000 mm 2,4 UV-I 125 W/m² 15,7 °C 20,3 °C 6,4 km/h (2 Bft)
16.08.2017 13:23 20,3 °C 20,3 °C 78 % 1018,8 hPa 0,0 mm 2,9 km/h (1 Bft) O 97 ° 0 min 0,000 mm 2,5 UV-I 128 W/m² 16,3 °C 20,3 °C 4,8 km/h (1 Bft)
16.08.2017 13:24 20,3 °C 20,3 °C 77 % 1018,8 hPa 0,0 mm 2,5 km/h (1 Bft) O 97 ° 0 min 0,000 mm 2,5 UV-I 135 W/m² 16,1 °C 20,3 °C 4,8 km/h (1 Bft)
16.08.2017 13:25 20,3 °C 20,3 °C 75 % 1018,8 hPa 0,0 mm 0,6 km/h (0 Bft) O 97 ° 0 min 0,000 mm 2,5 UV-I 127 W/m² 15,7 °C 20,3 °C 3,2 km/h (1 Bft)
16.08.2017 13:26 20,2 °C 20,3 °C 78 % 1018,9 hPa 0,0 mm 4,6 km/h (1 Bft) O-SO 104 ° 0 min 0,000 mm 2,6 UV-I 142 W/m² 16,2 °C 20,2 °C 6,4 km/h (2 Bft)
16.08.2017 13:27 20,1 °C 20,2 °C 79 % 1018,8 hPa 0,0 mm 3,8 km/h (1 Bft) SO 127 ° 0 min 0,000 mm 2,9 UV-I 167 W/m² 16,3 °C 20,1 °C 6,4 km/h (2 Bft)
16.08.2017 13:28 19,9 °C 20,1 °C 80 % 1018,8 hPa 0,0 mm 5,2 km/h (1 Bft) O-SO 116 ° 0 min 0,000 mm 6,4 UV-I 167 W/m² 16,3 °C 19,9 °C 6,4 km/h (2 Bft)
16.08.2017 13:29 20,1 °C 20,1 °C 77 % 1018,8 hPa 0,0 mm 4,4 km/h (1 Bft) O 98 ° 1 min 0,000 mm 6,4 UV-I 851 W/m² 15,9 °C 20,1 °C 6,4 km/h (2 Bft)
16.08.2017 13:30 20,3 °C 20,3 °C 80 % 1018,8 hPa 0,0 mm 3,4 km/h (1 Bft) O 98 ° 1 min 0,000 mm 6,4 UV-I 905 W/m² 16,7 °C 20,3 °C 4,8 km/h (1 Bft)
16.08.2017 13:31 20,5 °C 20,5 °C 78 % 1018,7 hPa 0,0 mm 3,6 km/h (1 Bft) O-NO 71 ° 1 min 0,000 mm 6,3 UV-I 882 W/m² 16,5 °C 20,5 °C 4,8 km/h (1 Bft)
16.08.2017 13:32 20,8 °C 20,8 °C 75 % 1018,7 hPa 0,0 mm 3,6 km/h (1 Bft) NO 44 ° 1 min 0,000 mm 6,3 UV-I 891 W/m² 16,2 °C 20,8 °C 4,8 km/h (1 Bft)
16.08.2017 13:33 21,0 °C 21,0 °C 75 % 1018,7 hPa 0,0 mm 1,1 km/h (1 Bft) NO 44 ° 1 min 0,000 mm 6,3 UV-I 891 W/m² 16,4 °C 21,0 °C 3,2 km/h (1 Bft)
16.08.2017 13:34 21,1 °C 21,1 °C 76 % 1018,7 hPa 0,0 mm 0,5 km/h (0 Bft) NO 44 ° 1 min 0,000 mm 6,5 UV-I 891 W/m² 16,7 °C 21,1 °C 1,6 km/h (1 Bft)
16.08.2017 13:35 21,4 °C 21,4 °C 83 % 1018,7 hPa 0,0 mm 0,9 km/h (0 Bft) NO 44 ° 1 min 0,000 mm 6,6 UV-I 911 W/m² 18,4 °C 21,4 °C 3,2 km/h (1 Bft)
16.08.2017 13:36 21,6 °C 21,6 °C 79 % 1018,7 hPa 0,0 mm 1,4 km/h (1 Bft) NO 44 ° 1 min 0,000 mm 6,6 UV-I 904 W/m² 17,8 °C 21,6 °C 4,8 km/h (1 Bft)
16.08.2017 13:37 21,5 °C 21,6 °C 77 % 1018,7 hPa 0,0 mm 2,8 km/h (1 Bft) O 85 ° 1 min 0,000 mm 6,6 UV-I 891 W/m² 17,3 °C 21,5 °C 3,2 km/h (1 Bft)
16.08.2017 13:38 21,5 °C 21,6 °C 77 % 1018,6 hPa 0,0 mm 2,6 km/h (1 Bft) O 85 ° 1 min 0,000 mm 6,6 UV-I 872 W/m² 17,3 °C 21,5 °C 4,8 km/h (1 Bft)
16.08.2017 13:39 21,5 °C 21,5 °C 75 % 1018,6 hPa 0,0 mm 1,2 km/h (1 Bft) N 9 ° 1 min 0,000 mm 6,5 UV-I 886 W/m² 16,9 °C 21,5 °C 4,8 km/h (1 Bft)
16.08.2017 13:40 21,6 °C 21,6 °C 76 % 1018,7 hPa 0,0 mm 4,4 km/h (1 Bft) N-NO 16 ° 1 min 0,000 mm 3,1 UV-I 886 W/m² 17,2 °C 21,6 °C 6,4 km/h (2 Bft)
16.08.2017 13:41 21,7 °C 21,7 °C 79 % 1018,6 hPa 0,0 mm 2,7 km/h (1 Bft) N-NO 15 ° 1 min 0,000 mm 3,7 UV-I 886 W/m² 17,9 °C 21,7 °C 4,8 km/h (1 Bft)
16.08.2017 13:42 21,7 °C 21,7 °C 79 % 1018,6 hPa 0,0 mm 1,1 km/h (1 Bft) N-NO 16 ° 1 min 0,000 mm 4,4 UV-I 886 W/m² 17,9 °C 21,7 °C 4,8 km/h (1 Bft)
16.08.2017 13:43 21,7 °C 21,8 °C 76 % 1018,6 hPa 0,0 mm 0,7 km/h (0 Bft) NO 39 ° 1 min 0,000 mm 6,4 UV-I 886 W/m² 17,3 °C 21,7 °C 3,2 km/h (1 Bft)
16.08.2017 13:44 21,7 °C 21,8 °C 74 % 1018,6 hPa 0,0 mm 1,6 km/h (1 Bft) NO 40 ° 1 min 0,000 mm 6,4 UV-I 833 W/m² 16,9 °C 21,7 °C 4,8 km/h (1 Bft)
16.08.2017 13:45 21,7 °C 21,8 °C 73 % 1018,6 hPa 0,0 mm 2,1 km/h (1 Bft) NO 40 ° 1 min 0,000 mm 6,4 UV-I 831 W/m² 16,6 °C 21,7 °C 4,8 km/h (1 Bft)
16.08.2017 13:46 21,7 °C 21,7 °C 72 % 1018,6 hPa 0,0 mm 0,8 km/h (0 Bft) NO 40 ° 1 min 0,000 mm 6,4 UV-I 835 W/m² 16,4 °C 21,7 °C 1,6 km/h (1 Bft)
16.08.2017 13:47 21,7 °C 21,7 °C 71 % 1018,6 hPa 0,0 mm 0,1 km/h (0 Bft) NO 40 ° 1 min 0,000 mm 6,4 UV-I 837 W/m² 16,2 °C 21,7 °C 1,6 km/h (1 Bft)
16.08.2017 13:48 21,8 °C 21,8 °C 73 % 1018,5 hPa 0,0 mm 1,3 km/h (1 Bft) NO 40 ° 1 min 0,000 mm 6,4 UV-I 842 W/m² 16,7 °C 21,8 °C 4,8 km/h (1 Bft)
16.08.2017 13:49 21,9 °C 21,9 °C 75 % 1018,6 hPa 0,0 mm 5,1 km/h (1 Bft) NO 49 ° 1 min 0,000 mm 6,4 UV-I 854 W/m² 17,3 °C 21,9 °C 8,0 km/h (2 Bft)
16.08.2017 13:50 22,2 °C 22,2 °C 73 % 1018,6 hPa 0,0 mm 4,0 km/h (1 Bft) O-NO 63 ° 1 min 0,000 mm 6,4 UV-I 846 W/m² 17,1 °C 22,2 °C 8,0 km/h (2 Bft)
16.08.2017 13:51 22,3 °C 22,3 °C 73 % 1018,6 hPa 0,0 mm 6,8 km/h (2 Bft) N-NO 33 ° 1 min 0,000 mm 6,4 UV-I 837 W/m² 17,2 °C 22,3 °C 9,7 km/h (2 Bft)
16.08.2017 13:52 22,3 °C 22,3 °C 72 % 1018,6 hPa 0,0 mm 3,7 km/h (1 Bft) N-NO 30 ° 1 min 0,000 mm 6,3 UV-I 830 W/m² 17,0 °C 22,3 °C 6,4 km/h (2 Bft)
16.08.2017 13:53 22,2 °C 22,3 °C 75 % 1018,5 hPa 0,0 mm 3,8 km/h (1 Bft) NO 51 ° 1 min 0,000 mm 6,3 UV-I 826 W/m² 17,5 °C 22,2 °C 6,4 km/h (2 Bft)
16.08.2017 13:54 22,4 °C 22,4 °C 74 % 1018,6 hPa 0,0 mm 2,1 km/h (1 Bft) O-NO 65 ° 1 min 0,000 mm 6,2 UV-I 817 W/m² 17,5 °C 22,4 °C 4,8 km/h (1 Bft)
16.08.2017 13:55 22,4 °C 22,4 °C 75 % 1018,6 hPa 0,0 mm 6,2 km/h (2 Bft) O 101 ° 1 min 0,000 mm 6,1 UV-I 810 W/m² 17,7 °C 22,4 °C 9,7 km/h (2 Bft)
16.08.2017 13:56 22,2 °C 22,4 °C 72 % 1018,6 hPa 0,0 mm 5,2 km/h (1 Bft) O 90 ° 1 min 0,000 mm 6,2 UV-I 816 W/m² 16,9 °C 22,2 °C 9,7 km/h (2 Bft)
16.08.2017 13:57 22,0 °C 22,2 °C 76 % 1018,6 hPa 0,0 mm 6,9 km/h (2 Bft) NO 55 ° 1 min 0,000 mm 6,2 UV-I 826 W/m² 17,6 °C 22,0 °C 9,7 km/h (2 Bft)
16.08.2017 13:58 22,0 °C 22,0 °C 73 % 1018,5 hPa 0,0 mm 4,6 km/h (1 Bft) N-NO 27 ° 1 min 0,000 mm 6,2 UV-I 854 W/m² 16,9 °C 22,0 °C 6,4 km/h (2 Bft)
16.08.2017 13:59 22,2 °C 22,2 °C 75 % 1018,5 hPa 0,0 mm 4,9 km/h (1 Bft) NO 56 ° 1 min 0,000 mm 6,3 UV-I 858 W/m² 17,5 °C 22,2 °C 8,0 km/h (2 Bft)
16.08.2017 14:00 22,3 °C 22,3 °C 73 % 1018,5 hPa 0,0 mm 9,1 km/h (2 Bft) N 355 ° 1 min 0,000 mm 6,2 UV-I 828 W/m² 17,2 °C 22,3 °C 12,9 km/h (3 Bft)
16.08.2017 14:01 22,3 °C 22,3 °C 73 % 1018,4 hPa 0,0 mm 4,2 km/h (1 Bft) N 360 ° 1 min 0,381 mm 6,2 UV-I 847 W/m² 17,2 °C 22,3 °C 6,4 km/h (2 Bft)
16.08.2017 14:02 22,3 °C 22,3 °C 74 % 1018,4 hPa 0,0 mm 5,5 km/h (1 Bft) NO 48 ° 1 min 0,000 mm 6,3 UV-I 856 W/m² 17,4 °C 22,3 °C 8,0 km/h (2 Bft)
16.08.2017 14:03 22,3 °C 22,3 °C 73 % 1018,5 hPa 0,0 mm 7,8 km/h (2 Bft) O-NO 69 ° 1 min 0,000 mm 6,3 UV-I 858 W/m² 17,2 °C 22,3 °C 11,3 km/h (2 Bft)
16.08.2017 14:04 22,4 °C 22,4 °C 74 % 1018,5 hPa 0,0 mm 7,1 km/h (2 Bft) NO 45 ° 1 min 0,000 mm 6,3 UV-I 860 W/m² 17,5 °C 22,4 °C 9,7 km/h (2 Bft)
16.08.2017 14:05 22,3 °C 22,4 °C 72 % 1018,4 hPa 0,0 mm 5,0 km/h (1 Bft) N-NO 25 ° 1 min 0,000 mm 6,3 UV-I 861 W/m² 17,0 °C 22,3 °C 8,0 km/h (2 Bft)
16.08.2017 14:06 22,2 °C 22,3 °C 71 % 1018,4 hPa 0,0 mm 5,9 km/h (2 Bft) N 5 ° 1 min 0,000 mm 6,3 UV-I 865 W/m² 16,7 °C 22,2 °C 8,0 km/h (2 Bft)
16.08.2017 14:07 22,4 °C 22,4 °C 74 % 1018,4 hPa 0,0 mm 5,2 km/h (1 Bft) NO 53 ° 1 min 0,000 mm 6,3 UV-I 865 W/m² 17,5 °C 22,4 °C 8,0 km/h (2 Bft)
16.08.2017 14:08 22,5 °C 22,5 °C 72 % 1018,4 hPa 0,0 mm 3,1 km/h (1 Bft) O-SO 103 ° 1 min 0,000 mm 6,1 UV-I 867 W/m² 17,2 °C 22,5 °C 6,4 km/h (2 Bft)
16.08.2017 14:09 22,4 °C 22,5 °C 71 % 1018,4 hPa 0,0 mm 1,7 km/h (1 Bft) O-NO 59 ° 1 min 0,000 mm 6,4 UV-I 872 W/m² 16,9 °C 22,4 °C 3,2 km/h (1 Bft)
16.08.2017 14:10 22,5 °C 22,5 °C 75 % 1018,4 hPa 0,0 mm 4,4 km/h (1 Bft) O-NO 57 ° 1 min 0,000 mm 6,3 UV-I 874 W/m² 17,8 °C 22,5 °C 6,4 km/h (2 Bft)
16.08.2017 14:11 22,7 °C 22,7 °C 74 % 1018,5 hPa 0,0 mm 5,6 km/h (1 Bft) N 5 ° 1 min 0,000 mm 6,4 UV-I 879 W/m² 17,8 °C 22,7 °C 8,0 km/h (2 Bft)
16.08.2017 14:12 22,7 °C 22,7 °C 71 % 1018,5 hPa 0,0 mm 3,4 km/h (1 Bft) NO 51 ° 1 min 0,000 mm 6,3 UV-I 875 W/m² 17,2 °C 22,7 °C 4,8 km/h (1 Bft)
16.08.2017 14:13 22,7 °C 22,7 °C 73 % 1018,4 hPa 0,0 mm 6,2 km/h (2 Bft) N 360 ° 1 min 0,000 mm 6,4 UV-I 893 W/m² 17,6 °C 22,7 °C 8,0 km/h (2 Bft)
16.08.2017 14:14 22,7 °C 22,7 °C 72 % 1018,4 hPa 0,0 mm 6,0 km/h (2 Bft) N 5 ° 1 min 0,000 mm 6,4 UV-I 893 W/m² 17,4 °C 22,7 °C 8,0 km/h (2 Bft)
16.08.2017 14:15 22,8 °C 22,8 °C 70 % 1018,4 hPa 0,0 mm 6,0 km/h (2 Bft) N-NO 15 ° 1 min 0,000 mm 6,4 UV-I 889 W/m² 17,0 °C 22,8 °C 8,0 km/h (2 Bft)
16.08.2017 14:16 22,9 °C 22,9 °C 69 % 1018,4 hPa 0,0 mm 4,5 km/h (1 Bft) O-NO 63 ° 1 min 0,000 mm 6,4 UV-I 884 W/m² 16,9 °C 22,9 °C 8,0 km/h (2 Bft)
16.08.2017 14:17 22,7 °C 22,9 °C 71 % 1018,4 hPa 0,0 mm 3,4 km/h (1 Bft) O-NO 68 ° 1 min 0,000 mm 6,3 UV-I 875 W/m² 17,2 °C 22,7 °C 6,4 km/h (2 Bft)
16.08.2017 14:18 22,7 °C 22,7 °C 72 % 1018,4 hPa 0,0 mm 6,7 km/h (2 Bft) O-NO 64 ° 1 min 0,000 mm 6,3 UV-I 867 W/m² 17,4 °C 22,7 °C 14,5 km/h (3 Bft)
16.08.2017 14:19 22,6 °C 22,7 °C 72 % 1018,4 hPa 0,0 mm 7,8 km/h (2 Bft) O-NO 76 ° 1 min 0,000 mm 6,2 UV-I 870 W/m² 17,3 °C 22,6 °C 14,5 km/h (3 Bft)
16.08.2017 14:20 22,4 °C 22,6 °C 72 % 1018,4 hPa 0,0 mm 6,6 km/h (2 Bft) O-NO 64 ° 1 min 0,000 mm 6,2 UV-I 872 W/m² 17,1 °C 22,4 °C 11,3 km/h (2 Bft)
16.08.2017 14:21 22,3 °C 22,4 °C 73 % 1018,4 hPa 0,0 mm 7,0 km/h (2 Bft) O-NO 65 ° 1 min 0,000 mm 6,1 UV-I 865 W/m² 17,2 °C 22,3 °C 11,3 km/h (2 Bft)
16.08.2017 14:22 22,2 °C 22,3 °C 73 % 1018,4 hPa 0,0 mm 6,7 km/h (2 Bft) O-NO 59 ° 1 min 0,000 mm 6,2 UV-I 861 W/m² 17,1 °C 22,2 °C 11,3 km/h (2 Bft)
16.08.2017 14:23 22,2 °C 22,2 °C 74 % 1018,4 hPa 0,0 mm 4,1 km/h (1 Bft) O 86 ° 1 min 0,000 mm 6,2 UV-I 856 W/m² 17,3 °C 22,2 °C 9,7 km/h (2 Bft)
16.08.2017 14:24 22,2 °C 22,2 °C 75 % 1018,3 hPa 0,0 mm 5,7 km/h (1 Bft) N-NO 26 ° 1 min 0,000 mm 6,1 UV-I 854 W/m² 17,5 °C 22,2 °C 9,7 km/h (2 Bft)
16.08.2017 14:25 22,2 °C 22,2 °C 73 % 1018,3 hPa 0,0 mm 6,4 km/h (2 Bft) NO 37 ° 1 min 0,000 mm 6,1 UV-I 865 W/m² 17,1 °C 22,2 °C 8,0 km/h (2 Bft)
16.08.2017 14:26 22,3 °C 22,3 °C 71 % 1018,3 hPa 0,0 mm 5,7 km/h (1 Bft) O-NO 59 ° 1 min 0,000 mm 6,2 UV-I 872 W/m² 16,8 °C 22,3 °C 8,0 km/h (2 Bft)
16.08.2017 14:27 22,3 °C 22,4 °C 75 % 1018,3 hPa 0,0 mm 5,5 km/h (1 Bft) O-NO 58 ° 1 min 0,000 mm 6,1 UV-I 875 W/m² 17,6 °C 22,3 °C 8,0 km/h (2 Bft)
16.08.2017 14:28 22,4 °C 22,4 °C 74 % 1018,2 hPa 0,0 mm 5,4 km/h (1 Bft) NO 37 ° 1 min 0,000 mm 6,1 UV-I 875 W/m² 17,5 °C 22,4 °C 9,7 km/h (2 Bft)
16.08.2017 14:29 22,4 °C 22,4 °C 72 % 1018,2 hPa 0,0 mm 5,5 km/h (1 Bft) NO 56 ° 1 min 0,000 mm 6,2 UV-I 879 W/m² 17,1 °C 22,4 °C 8,0 km/h (2 Bft)
16.08.2017 14:30 22,6 °C 22,6 °C 72 % 1018,2 hPa 0,0 mm 4,2 km/h (1 Bft) NO 56 ° 1 min 0,000 mm 6,2 UV-I 905 W/m² 17,3 °C 22,6 °C 8,0 km/h (2 Bft)
16.08.2017 14:31 22,7 °C 22,7 °C 72 % 1018,2 hPa 0,0 mm 7,7 km/h (2 Bft) N-NO 30 ° 1 min 0,000 mm 6,2 UV-I 907 W/m² 17,4 °C 22,7 °C 11,3 km/h (2 Bft)
16.08.2017 14:32 22,7 °C 22,7 °C 71 % 1018,2 hPa 0,0 mm 7,9 km/h (2 Bft) N 5 ° 1 min 0,000 mm 5,3 UV-I 907 W/m² 17,2 °C 22,7 °C 9,7 km/h (2 Bft)
16.08.2017 14:33 22,7 °C 22,7 °C 73 % 1018,2 hPa 0,0 mm 5,2 km/h (1 Bft) N 5 ° 1 min 0,000 mm 6,3 UV-I 907 W/m² 17,6 °C 22,7 °C 8,0 km/h (2 Bft)
16.08.2017 14:34 22,8 °C 22,8 °C 71 % 1018,2 hPa 0,0 mm 3,6 km/h (1 Bft) O-NO 60 ° 1 min 0,000 mm 6,2 UV-I 893 W/m² 17,3 °C 22,8 °C 6,4 km/h (2 Bft)
16.08.2017 14:35 22,7 °C 22,8 °C 72 % 1018,2 hPa 0,0 mm 4,0 km/h (1 Bft) O-SO 107 ° 1 min 0,000 mm 6,2 UV-I 867 W/m² 17,4 °C 22,7 °C 6,4 km/h (2 Bft)
16.08.2017 14:36 22,7 °C 22,7 °C 72 % 1018,2 hPa 0,0 mm 7,7 km/h (2 Bft) O-NO 74 ° 1 min 0,000 mm 6,0 UV-I 853 W/m² 17,4 °C 22,7 °C 11,3 km/h (2 Bft)
16.08.2017 14:37 22,6 °C 22,7 °C 72 % 1018,3 hPa 0,0 mm 8,8 km/h (2 Bft) O-NO 75 ° 1 min 0,000 mm 5,9 UV-I 824 W/m² 17,3 °C 22,6 °C 14,5 km/h (3 Bft)
16.08.2017 14:38 22,6 °C 22,6 °C 74 % 1018,2 hPa 0,0 mm 5,7 km/h (1 Bft) NO 45 ° 1 min 0,000 mm 5,9 UV-I 819 W/m² 17,7 °C 22,6 °C 12,9 km/h (3 Bft)
16.08.2017 14:39 22,6 °C 22,6 °C 73 % 1018,2 hPa 0,0 mm 10,1 km/h (2 Bft) O-NO 78 ° 1 min 0,000 mm 5,8 UV-I 851 W/m² 17,5 °C 22,6 °C 14,5 km/h (3 Bft)
16.08.2017 14:40 22,4 °C 22,6 °C 72 % 1018,2 hPa 0,0 mm 8,4 km/h (2 Bft) O-NO 71 ° 1 min 0,000 mm 2,6 UV-I 851 W/m² 17,1 °C 22,4 °C 12,9 km/h (3 Bft)
16.08.2017 14:41 22,2 °C 22,4 °C 73 % 1018,3 hPa 0,0 mm 7,6 km/h (2 Bft) N-NO 24 ° 0 min 0,000 mm 2,7 UV-I 128 W/m² 17,1 °C 22,2 °C 16,1 km/h (3 Bft)
16.08.2017 14:42 22,2 °C 22,2 °C 73 % 1018,2 hPa 0,0 mm 6,3 km/h (2 Bft) O 80 ° 0 min 0,000 mm 5,8 UV-I 128 W/m² 17,1 °C 22,2 °C 9,7 km/h (2 Bft)
16.08.2017 14:43 22,3 °C 22,3 °C 74 % 1018,2 hPa 0,0 mm 4,7 km/h (1 Bft) O-NO 67 ° 0 min 0,000 mm 2,6 UV-I 156 W/m² 17,4 °C 22,3 °C 6,4 km/h (2 Bft)
16.08.2017 14:44 22,2 °C 22,3 °C 74 % 1018,2 hPa 0,0 mm 5,0 km/h (1 Bft) NO 38 ° 0 min 0,000 mm 2,4 UV-I 111 W/m² 17,3 °C 22,2 °C 6,4 km/h (2 Bft)
16.08.2017 14:45 22,2 °C 22,2 °C 73 % 1018,2 hPa 0,0 mm 4,6 km/h (1 Bft) O-SO 118 ° 0 min 0,000 mm 2,3 UV-I 95 W/m² 17,1 °C 22,2 °C 8,0 km/h (2 Bft)
16.08.2017 14:46 22,0 °C 22,2 °C 72 % 1018,2 hPa 0,0 mm 4,6 km/h (1 Bft) O-NO 66 ° 0 min 0,000 mm 2,2 UV-I 95 W/m² 16,7 °C 22,0 °C 6,4 km/h (2 Bft)
16.08.2017 14:47 21,8 °C 22,0 °C 72 % 1018,3 hPa 0,0 mm 4,0 km/h (1 Bft) O-NO 76 ° 0 min 0,000 mm 2,2 UV-I 93 W/m² 16,5 °C 21,8 °C 8,0 km/h (2 Bft)
16.08.2017 14:48 21,6 °C 21,8 °C 73 % 1018,2 hPa 0,0 mm 0,1 km/h (0 Bft) O-NO 76 ° 0 min 0,000 mm 2,2 UV-I 88 W/m² 16,5 °C 21,6 °C 1,6 km/h (1 Bft)
16.08.2017 14:49 21,5 °C 21,6 °C 74 % 1018,2 hPa 0,0 mm 0,8 km/h (0 Bft) O-NO 76 ° 0 min 0,000 mm 2,1 UV-I 88 W/m² 16,7 °C 21,5 °C 3,2 km/h (1 Bft)
16.08.2017 14:50 21,3 °C 21,5 °C 75 % 1018,3 hPa 0,0 mm 3,9 km/h (1 Bft) NO 40 ° 0 min 0,000 mm 2,1 UV-I 93 W/m² 16,7 °C 21,3 °C 6,4 km/h (2 Bft)
16.08.2017 14:51 21,2 °C 21,3 °C 76 % 1018,2 hPa 0,0 mm 1,7 km/h (1 Bft) O-NO 57 ° 0 min 0,000 mm 2,1 UV-I 98 W/m² 16,8 °C 21,2 °C 4,8 km/h (1 Bft)
16.08.2017 14:52 21,2 °C 21,2 °C 75 % 1018,2 hPa 0,0 mm 0,0 km/h (0 Bft) O-NO 57 ° 0 min 0,000 mm 2,1 UV-I 98 W/m² 16,6 °C 21,2 °C 0,0 km/h (0 Bft)
16.08.2017 14:53 21,1 °C 21,2 °C 77 % 1018,2 hPa 0,0 mm 2,7 km/h (1 Bft) O-NO 59 ° 0 min 0,000 mm 2,0 UV-I 97 W/m² 16,9 °C 21,1 °C 4,8 km/h (1 Bft)
16.08.2017 14:54 20,9 °C 21,1 °C 77 % 1018,2 hPa 0,0 mm 0,9 km/h (0 Bft) O-NO 59 ° 0 min 0,000 mm 1,9 UV-I 93 W/m² 16,7 °C 20,9 °C 3,2 km/h (1 Bft)
16.08.2017 14:55 20,8 °C 20,9 °C 77 % 1018,2 hPa 0,0 mm 1,1 km/h (1 Bft) O-NO 59 ° 0 min 0,000 mm 1,9 UV-I 102 W/m² 16,6 °C 20,8 °C 1,6 km/h (1 Bft)
16.08.2017 14:56 20,8 °C 20,8 °C 77 % 1018,2 hPa 0,0 mm 0,7 km/h (0 Bft) O-NO 59 ° 0 min 0,000 mm 1,9 UV-I 107 W/m² 16,6 °C 20,8 °C 1,6 km/h (1 Bft)
16.08.2017 14:57 20,8 °C 20,8 °C 79 % 1018,2 hPa 0,0 mm 1,2 km/h (1 Bft) O-NO 59 ° 0 min 0,000 mm 1,9 UV-I 109 W/m² 17,0 °C 20,8 °C 4,8 km/h (1 Bft)
16.08.2017 14:58 20,7 °C 20,8 °C 78 % 1018,2 hPa 0,0 mm 2,9 km/h (1 Bft) O-NO 58 ° 0 min 0,000 mm 1,9 UV-I 111 W/m² 16,7 °C 20,7 °C 4,8 km/h (1 Bft)
16.08.2017 14:59 20,7 °C 20,7 °C 80 % 1018,2 hPa 0,0 mm 1,6 km/h (1 Bft) O-NO 59 ° 0 min 0,000 mm 2,0 UV-I 114 W/m² 17,1 °C 20,7 °C 3,2 km/h (1 Bft)
16.08.2017 15:00 20,4 °C 20,7 °C 80 % 1018,2 hPa 0,0 mm 1,9 km/h (1 Bft) O-NO 59 ° 0 min 0,000 mm 2,1 UV-I 137 W/m² 16,8 °C 20,4 °C 3,2 km/h (1 Bft)
16.08.2017 15:01 20,4 °C 20,5 °C 78 % 1018,1 hPa 0,0 mm 1,0 km/h (0 Bft) O-NO 74 ° 0 min 0,406 mm 2,3 UV-I 149 W/m² 16,4 °C 20,4 °C 4,8 km/h (1 Bft)
16.08.2017 15:02 20,5 °C 20,5 °C 80 % 1018,1 hPa 0,0 mm 1,0 km/h (0 Bft) O-NO 74 ° 0 min 0,000 mm 5,3 UV-I 149 W/m² 16,9 °C 20,5 °C 4,8 km/h (1 Bft)
16.08.2017 15:03 20,6 °C 20,6 °C 79 % 1018,1 hPa 0,0 mm 2,5 km/h (1 Bft) O-NO 74 ° 1 min 0,000 mm 5,4 UV-I 837 W/m² 16,8 °C 20,6 °C 4,8 km/h (1 Bft)
16.08.2017 15:04 20,7 °C 20,7 °C 78 % 1018,1 hPa 0,0 mm 1,1 km/h (1 Bft) O-NO 74 ° 1 min 0,000 mm 5,3 UV-I 828 W/m² 16,7 °C 20,7 °C 3,2 km/h (1 Bft)
16.08.2017 15:05 20,8 °C 20,8 °C 80 % 1018,2 hPa 0,0 mm 3,1 km/h (1 Bft) NO 54 ° 1 min 0,000 mm 2,7 UV-I 828 W/m² 17,2 °C 20,8 °C 4,8 km/h (1 Bft)
16.08.2017 15:06 21,1 °C 21,1 °C 78 % 1018,1 hPa 0,0 mm 3,2 km/h (1 Bft) O-NO 59 ° 1 min 0,000 mm 4,9 UV-I 828 W/m² 17,1 °C 21,1 °C 4,8 km/h (1 Bft)
16.08.2017 15:07 21,2 °C 21,2 °C 78 % 1018,1 hPa 0,0 mm 3,9 km/h (1 Bft) O-NO 64 ° 1 min 0,000 mm 5,3 UV-I 793 W/m² 17,2 °C 21,2 °C 6,4 km/h (2 Bft)
16.08.2017 15:08 21,4 °C 21,4 °C 81 % 1018,1 hPa 0,0 mm 4,1 km/h (1 Bft) O 79 ° 1 min 0,000 mm 5,3 UV-I 788 W/m² 18,0 °C 21,4 °C 6,4 km/h (2 Bft)
16.08.2017 15:09 21,6 °C 21,6 °C 76 % 1018,0 hPa 0,0 mm 3,1 km/h (1 Bft) O 89 ° 1 min 0,000 mm 5,3 UV-I 780 W/m² 17,2 °C 21,6 °C 4,8 km/h (1 Bft)
16.08.2017 15:10 21,7 °C 21,7 °C 75 % 1018,1 hPa 0,0 mm 3,3 km/h (1 Bft) NO 42 ° 1 min 0,000 mm 5,3 UV-I 773 W/m² 17,1 °C 21,7 °C 4,8 km/h (1 Bft)
16.08.2017 15:11 21,8 °C 21,8 °C 75 % 1018,1 hPa 0,0 mm 2,0 km/h (1 Bft) O-NO 71 ° 1 min 0,000 mm 5,2 UV-I 768 W/m² 17,2 °C 21,8 °C 4,8 km/h (1 Bft)
16.08.2017 15:12 22,1 °C 22,1 °C 76 % 1018,1 hPa 0,0 mm 4,3 km/h (1 Bft) O 92 ° 1 min 0,000 mm 5,3 UV-I 777 W/m² 17,7 °C 22,1 °C 6,4 km/h (2 Bft)
16.08.2017 15:13 22,2 °C 22,2 °C 74 % 1018,1 hPa 0,0 mm 2,2 km/h (1 Bft) O 86 ° 1 min 0,000 mm 5,4 UV-I 784 W/m² 17,3 °C 22,2 °C 4,8 km/h (1 Bft)
16.08.2017 15:14 22,2 °C 22,2 °C 73 % 1018,1 hPa 0,0 mm 4,7 km/h (1 Bft) NO 52 ° 1 min 0,000 mm 5,4 UV-I 786 W/m² 17,1 °C 22,2 °C 6,4 km/h (2 Bft)
16.08.2017 15:15 22,4 °C 22,4 °C 76 % 1018,1 hPa 0,0 mm 1,4 km/h (1 Bft) O-NO 60 ° 1 min 0,000 mm 5,4 UV-I 777 W/m² 18,0 °C 22,4 °C 1,6 km/h (1 Bft)
16.08.2017 15:16 22,4 °C 22,4 °C 74 % 1018,0 hPa 0,0 mm 2,7 km/h (1 Bft) NO 44 ° 1 min 0,000 mm 5,4 UV-I 768 W/m² 17,5 °C 22,4 °C 6,4 km/h (2 Bft)
16.08.2017 15:17 22,5 °C 22,5 °C 73 % 1018,0 hPa 0,0 mm 5,4 km/h (1 Bft) N-NO 30 ° 1 min 0,000 mm 5,3 UV-I 752 W/m² 17,4 °C 22,5 °C 8,0 km/h (2 Bft)
16.08.2017 15:18 22,7 °C 22,7 °C 74 % 1018,0 hPa 0,0 mm 5,8 km/h (2 Bft) NO 53 ° 1 min 0,000 mm 5,3 UV-I 749 W/m² 17,8 °C 22,7 °C 6,4 km/h (2 Bft)
16.08.2017 15:19 22,8 °C 22,8 °C 75 % 1018,0 hPa 0,0 mm 4,0 km/h (1 Bft) O-NO 77 ° 1 min 0,000 mm 5,3 UV-I 747 W/m² 18,1 °C 22,8 °C 6,4 km/h (2 Bft)
16.08.2017 15:20 22,8 °C 22,8 °C 73 % 1018,0 hPa 0,0 mm 5,6 km/h (1 Bft) NO 39 ° 1 min 0,000 mm 5,3 UV-I 745 W/m² 17,7 °C 22,8 °C 9,7 km/h (2 Bft)
16.08.2017 15:21 22,9 °C 22,9 °C 72 % 1018,0 hPa 0,0 mm 5,2 km/h (1 Bft) N-NO 24 ° 1 min 0,000 mm 5,2 UV-I 744 W/m² 17,6 °C 22,9 °C 6,4 km/h (2 Bft)
16.08.2017 15:22 22,9 °C 22,9 °C 70 % 1018,0 hPa 0,0 mm 5,0 km/h (1 Bft) O 98 ° 1 min 0,000 mm 5,2 UV-I 742 W/m² 17,1 °C 22,9 °C 6,4 km/h (2 Bft)
16.08.2017 15:23 22,7 °C 22,9 °C 71 % 1018,0 hPa 0,0 mm 5,1 km/h (1 Bft) O 98 ° 1 min 0,000 mm 5,2 UV-I 735 W/m² 17,2 °C 22,7 °C 12,9 km/h (3 Bft)
16.08.2017 15:24 22,6 °C 22,7 °C 70 % 1018,0 hPa 0,0 mm 5,3 km/h (1 Bft) O-NO 74 ° 1 min 0,000 mm 5,1 UV-I 731 W/m² 16,8 °C 22,6 °C 11,3 km/h (2 Bft)
16.08.2017 15:25 22,5 °C 22,6 °C 70 % 1018,0 hPa 0,0 mm 5,0 km/h (1 Bft) O 82 ° 1 min 0,000 mm 5,1 UV-I 729 W/m² 16,7 °C 22,5 °C 11,3 km/h (2 Bft)
16.08.2017 15:26 22,4 °C 22,5 °C 69 % 1018,0 hPa 0,0 mm 7,2 km/h (2 Bft) O 92 ° 1 min 0,000 mm 5,1 UV-I 731 W/m² 16,4 °C 22,4 °C 12,9 km/h (3 Bft)
16.08.2017 15:27 22,4 °C 22,4 °C 71 % 1018,0 hPa 0,0 mm 4,4 km/h (1 Bft) O-NO 74 ° 1 min 0,000 mm 5,1 UV-I 731 W/m² 16,9 °C 22,4 °C 8,0 km/h (2 Bft)
16.08.2017 15:28 22,3 °C 22,4 °C 72 % 1018,0 hPa 0,0 mm 3,7 km/h (1 Bft) O-SO 123 ° 1 min 0,000 mm 5,0 UV-I 721 W/m² 17,0 °C 22,3 °C 6,4 km/h (2 Bft)
16.08.2017 15:29 22,4 °C 22,4 °C 71 % 1018,0 hPa 0,0 mm 3,9 km/h (1 Bft) NO 42 ° 1 min 0,000 mm 5,0 UV-I 721 W/m² 16,9 °C 22,4 °C 6,4 km/h (2 Bft)
16.08.2017 15:30 22,4 °C 22,4 °C 72 % 1018,0 hPa 0,0 mm 6,6 km/h (2 Bft) O-NO 68 ° 1 min 0,000 mm 5,0 UV-I 712 W/m² 17,1 °C 22,4 °C 12,9 km/h (3 Bft)
16.08.2017 15:31 22,5 °C 22,5 °C 71 % 1018,0 hPa 0,0 mm 7,7 km/h (2 Bft) O-NO 75 ° 1 min 0,000 mm 5,0 UV-I 712 W/m² 17,0 °C 22,5 °C 12,9 km/h (3 Bft)
16.08.2017 15:32 22,6 °C 22,6 °C 70 % 1017,9 hPa 0,0 mm 5,9 km/h (2 Bft) O-NO 61 ° 1 min 0,000 mm 4,9 UV-I 710 W/m² 16,8 °C 22,6 °C 12,9 km/h (3 Bft)
16.08.2017 15:33 22,6 °C 22,6 °C 69 % 1017,9 hPa 0,0 mm 3,9 km/h (1 Bft) O-NO 76 ° 1 min 0,000 mm 4,9 UV-I 712 W/m² 16,6 °C 22,6 °C 6,4 km/h (2 Bft)
16.08.2017 15:34 22,5 °C 22,6 °C 70 % 1017,9 hPa 0,0 mm 3,9 km/h (1 Bft) O 92 ° 1 min 0,000 mm 4,9 UV-I 714 W/m² 16,7 °C 22,5 °C 6,4 km/h (2 Bft)
16.08.2017 15:35 22,5 °C 22,5 °C 70 % 1017,9 hPa 0,0 mm 6,2 km/h (2 Bft) NO 49 ° 1 min 0,000 mm 4,9 UV-I 710 W/m² 16,7 °C 22,5 °C 9,7 km/h (2 Bft)
16.08.2017 15:36 22,5 °C 22,5 °C 69 % 1017,9 hPa 0,0 mm 5,8 km/h (2 Bft) N-NO 12 ° 1 min 0,000 mm 4,9 UV-I 712 W/m² 16,5 °C 22,5 °C 8,0 km/h (2 Bft)
16.08.2017 15:37 22,5 °C 22,6 °C 71 % 1017,9 hPa 0,0 mm 7,2 km/h (2 Bft) S-SO 163 ° 1 min 0,000 mm 4,9 UV-I 707 W/m² 17,0 °C 22,5 °C 11,3 km/h (2 Bft)
16.08.2017 15:38 22,4 °C 22,5 °C 70 % 1017,9 hPa 0,0 mm 4,4 km/h (1 Bft) O 94 ° 1 min 0,000 mm 4,8 UV-I 703 W/m² 16,7 °C 22,4 °C 9,7 km/h (2 Bft)
16.08.2017 15:39 22,4 °C 22,4 °C 70 % 1017,9 hPa 0,0 mm 5,2 km/h (1 Bft) O 93 ° 1 min 0,000 mm 4,8 UV-I 700 W/m² 16,7 °C 22,4 °C 11,3 km/h (2 Bft)
16.08.2017 15:40 22,4 °C 22,4 °C 69 % 1017,9 hPa 0,0 mm 9,1 km/h (2 Bft) S 170 ° 1 min 0,000 mm 4,8 UV-I 698 W/m² 16,4 °C 22,4 °C 12,9 km/h (3 Bft)
16.08.2017 15:41 22,4 °C 22,4 °C 70 % 1017,9 hPa 0,0 mm 5,0 km/h (1 Bft) O-NO 66 ° 1 min 0,000 mm 4,8 UV-I 698 W/m² 16,7 °C 22,4 °C 6,4 km/h (2 Bft)
16.08.2017 15:42 22,5 °C 22,5 °C 69 % 1017,9 hPa 0,0 mm 4,1 km/h (1 Bft) O-NO 65 ° 1 min 0,000 mm 4,8 UV-I 698 W/m² 16,5 °C 22,5 °C 6,4 km/h (2 Bft)
16.08.2017 15:43 22,6 °C 22,6 °C 70 % 1017,9 hPa 0,0 mm 3,8 km/h (1 Bft) S-SO 149 ° 1 min 0,000 mm 4,7 UV-I 700 W/m² 16,8 °C 22,6 °C 6,4 km/h (2 Bft)
16.08.2017 15:44 22,4 °C 22,6 °C 68 % 1018,0 hPa 0,0 mm 5,1 km/h (1 Bft) S 190 ° 1 min 0,000 mm 4,7 UV-I 696 W/m² 16,2 °C 22,4 °C 9,7 km/h (2 Bft)
16.08.2017 15:45 22,4 °C 22,4 °C 68 % 1017,9 hPa 0,0 mm 1,1 km/h (1 Bft) S-SW 193 ° 1 min 0,000 mm 4,7 UV-I 694 W/m² 16,2 °C 22,4 °C 3,2 km/h (1 Bft)
16.08.2017 15:46 22,4 °C 22,4 °C 68 % 1017,9 hPa 0,0 mm 1,9 km/h (1 Bft) N 9 ° 1 min 0,000 mm 4,7 UV-I 694 W/m² 16,2 °C 22,4 °C 3,2 km/h (1 Bft)
16.08.2017 15:47 22,6 °C 22,6 °C 70 % 1017,9 hPa 0,0 mm 3,5 km/h (1 Bft) O-SO 103 ° 1 min 0,000 mm 4,6 UV-I 693 W/m² 16,8 °C 22,6 °C 6,4 km/h (2 Bft)
16.08.2017 15:48 22,8 °C 22,8 °C 73 % 1017,9 hPa 0,0 mm 6,6 km/h (2 Bft) NO 42 ° 1 min 0,000 mm 4,6 UV-I 680 W/m² 17,7 °C 22,8 °C 11,3 km/h (2 Bft)
16.08.2017 15:49 22,9 °C 22,9 °C 70 % 1017,9 hPa 0,0 mm 5,6 km/h (1 Bft) SO 130 ° 1 min 0,000 mm 4,6 UV-I 675 W/m² 17,1 °C 22,9 °C 11,3 km/h (2 Bft)
16.08.2017 15:50 22,9 °C 22,9 °C 68 % 1017,9 hPa 0,0 mm 7,9 km/h (2 Bft) O-NO 67 ° 1 min 0,000 mm 4,6 UV-I 668 W/m² 16,7 °C 22,9 °C 12,9 km/h (3 Bft)
16.08.2017 15:51 22,8 °C 22,9 °C 68 % 1017,9 hPa 0,0 mm 4,6 km/h (1 Bft) N-NO 28 ° 1 min 0,000 mm 4,6 UV-I 673 W/m² 16,6 °C 22,8 °C 8,0 km/h (2 Bft)
16.08.2017 15:52 22,9 °C 22,9 °C 70 % 1017,8 hPa 0,0 mm 5,4 km/h (1 Bft) NO 37 ° 1 min 0,000 mm 4,5 UV-I 671 W/m² 17,1 °C 22,9 °C 8,0 km/h (2 Bft)
16.08.2017 15:53 22,9 °C 22,9 °C 69 % 1017,8 hPa 0,0 mm 6,2 km/h (2 Bft) O 97 ° 1 min 0,000 mm 4,5 UV-I 663 W/m² 16,9 °C 22,9 °C 9,7 km/h (2 Bft)
16.08.2017 15:54 23,0 °C 23,0 °C 73 % 1017,9 hPa 0,0 mm 4,6 km/h (1 Bft) O-NO 78 ° 1 min 0,000 mm 4,4 UV-I 652 W/m² 17,9 °C 23,0 °C 9,7 km/h (2 Bft)
16.08.2017 15:55 22,9 °C 23,0 °C 69 % 1017,8 hPa 0,0 mm 4,0 km/h (1 Bft) O-NO 63 ° 1 min 0,000 mm 4,3 UV-I 650 W/m² 16,9 °C 22,9 °C 8,0 km/h (2 Bft)
16.08.2017 15:56 22,9 °C 22,9 °C 67 % 1017,8 hPa 0,0 mm 6,6 km/h (2 Bft) O-NO 75 ° 1 min 0,000 mm 4,3 UV-I 636 W/m² 16,4 °C 22,9 °C 12,9 km/h (3 Bft)
16.08.2017 15:57 22,8 °C 22,9 °C 66 % 1017,8 hPa 0,0 mm 3,7 km/h (1 Bft) O-NO 65 ° 1 min 0,000 mm 4,3 UV-I 638 W/m² 16,1 °C 22,8 °C 4,8 km/h (1 Bft)
16.08.2017 15:58 22,8 °C 22,8 °C 69 % 1017,8 hPa 0,0 mm 3,7 km/h (1 Bft) O-SO 115 ° 1 min 0,000 mm 4,3 UV-I 638 W/m² 16,8 °C 22,8 °C 6,4 km/h (2 Bft)
16.08.2017 15:59 22,8 °C 22,8 °C 68 % 1017,8 hPa 0,0 mm 2,5 km/h (1 Bft) O-SO 117 ° 1 min 0,000 mm 4,3 UV-I 670 W/m² 16,6 °C 22,8 °C 3,2 km/h (1 Bft)
16.08.2017 16:00 22,7 °C 22,8 °C 66 % 1017,8 hPa 0,0 mm 1,4 km/h (1 Bft) O-SO 117 ° 1 min 0,432 mm 4,3 UV-I 675 W/m² 16,0 °C 22,7 °C 3,2 km/h (1 Bft)
16.08.2017 16:01 22,7 °C 22,8 °C 68 % 1017,8 hPa 0,0 mm 0,1 km/h (0 Bft) O-SO 117 ° 1 min 0,000 mm 4,4 UV-I 698 W/m² 16,5 °C 22,7 °C 1,6 km/h (1 Bft)
16.08.2017 16:02 22,7 °C 22,8 °C 67 % 1017,8 hPa 0,0 mm 4,2 km/h (1 Bft) SO 129 ° 1 min 0,000 mm 4,5 UV-I 717 W/m² 16,2 °C 22,7 °C 6,4 km/h (2 Bft)
16.08.2017 16:03 22,7 °C 22,7 °C 69 % 1017,7 hPa 0,0 mm 2,3 km/h (1 Bft) SO 142 ° 1 min 0,000 mm 4,4 UV-I 729 W/m² 16,7 °C 22,7 °C 4,8 km/h (1 Bft)
16.08.2017 16:04 22,8 °C 22,8 °C 68 % 1017,7 hPa 0,0 mm 1,6 km/h (1 Bft) S-SO 163 ° 1 min 0,000 mm 4,5 UV-I 737 W/m² 16,6 °C 22,8 °C 6,4 km/h (2 Bft)
16.08.2017 16:05 22,8 °C 22,8 °C 67 % 1017,8 hPa 0,0 mm 0,0 km/h (0 Bft) S-SO 163 ° 1 min 0,000 mm 4,4 UV-I 737 W/m² 16,3 °C 22,8 °C 0,0 km/h (0 Bft)
16.08.2017 16:06 22,9 °C 22,9 °C 67 % 1017,8 hPa 0,0 mm 0,0 km/h (0 Bft) S-SO 163 ° 1 min 0,000 mm 4,3 UV-I 728 W/m² 16,4 °C 22,9 °C 0,0 km/h (0 Bft)
16.08.2017 16:07 22,9 °C 22,9 °C 70 % 1017,8 hPa 0,0 mm 0,1 km/h (0 Bft) NO 34 ° 1 min 0,000 mm 4,3 UV-I 731 W/m² 17,1 °C 22,9 °C 3,2 km/h (1 Bft)
16.08.2017 16:08 23,1 °C 23,1 °C 72 % 1017,8 hPa 0,0 mm 3,9 km/h (1 Bft) O-NO 66 ° 1 min 0,000 mm 4,2 UV-I 712 W/m² 17,8 °C 23,1 °C 4,8 km/h (1 Bft)
16.08.2017 16:09 23,2 °C 23,2 °C 68 % 1017,8 hPa 0,0 mm 6,0 km/h (2 Bft) N-NO 28 ° 1 min 0,000 mm 4,2 UV-I 698 W/m² 17,0 °C 23,2 °C 9,7 km/h (2 Bft)
16.08.2017 16:10 23,3 °C 23,3 °C 67 % 1017,8 hPa 0,0 mm 7,0 km/h (2 Bft) NO 43 ° 1 min 0,000 mm 4,2 UV-I 724 W/m² 16,8 °C 23,3 °C 11,3 km/h (2 Bft)
16.08.2017 16:11 23,3 °C 23,3 °C 65 % 1017,8 hPa 0,0 mm 6,2 km/h (2 Bft) O-NO 61 ° 1 min 0,000 mm 2,5 UV-I 724 W/m² 16,3 °C 23,3 °C 9,7 km/h (2 Bft)
16.08.2017 16:12 23,1 °C 23,3 °C 66 % 1017,8 hPa 0,0 mm 2,2 km/h (1 Bft) O-NO 69 ° 0 min 0,000 mm 2,4 UV-I 225 W/m² 16,4 °C 23,1 °C 4,8 km/h (1 Bft)
16.08.2017 16:13 22,9 °C 23,1 °C 67 % 1017,8 hPa 0,0 mm 2,7 km/h (1 Bft) O-NO 61 ° 0 min 0,000 mm 2,8 UV-I 265 W/m² 16,4 °C 22,9 °C 4,8 km/h (1 Bft)
16.08.2017 16:14 22,7 °C 22,9 °C 69 % 1017,8 hPa 0,0 mm 2,7 km/h (1 Bft) NO 46 ° 0 min 0,000 mm 3,0 UV-I 281 W/m² 16,7 °C 22,7 °C 4,8 km/h (1 Bft)
16.08.2017 16:15 22,7 °C 22,7 °C 70 % 1017,8 hPa 0,0 mm 5,2 km/h (1 Bft) N-NO 29 ° 0 min 0,000 mm 2,3 UV-I 218 W/m² 16,9 °C 22,7 °C 8,0 km/h (2 Bft)
16.08.2017 16:16 22,7 °C 22,7 °C 71 % 1017,8 hPa 0,0 mm 5,7 km/h (1 Bft) NO 56 ° 0 min 0,000 mm 2,3 UV-I 200 W/m² 17,2 °C 22,7 °C 9,7 km/h (2 Bft)
16.08.2017 16:17 22,6 °C 22,7 °C 69 % 1017,9 hPa 0,0 mm 3,8 km/h (1 Bft) NO 56 ° 0 min 0,000 mm 2,2 UV-I 192 W/m² 16,6 °C 22,6 °C 9,7 km/h (2 Bft)
16.08.2017 16:18 22,5 °C 22,6 °C 69 % 1017,9 hPa 0,0 mm 4,2 km/h (1 Bft) NO 46 ° 0 min 0,000 mm 2,3 UV-I 195 W/m² 16,5 °C 22,5 °C 6,4 km/h (2 Bft)
16.08.2017 16:19 22,5 °C 22,5 °C 69 % 1017,8 hPa 0,0 mm 4,6 km/h (1 Bft) NO 51 ° 0 min 0,000 mm 2,2 UV-I 195 W/m² 16,5 °C 22,5 °C 8,0 km/h (2 Bft)
16.08.2017 16:20 22,4 °C 22,5 °C 69 % 1017,8 hPa 0,0 mm 4,2 km/h (1 Bft) O-NO 59 ° 0 min 0,000 mm 2,2 UV-I 192 W/m² 16,4 °C 22,4 °C 8,0 km/h (2 Bft)
16.08.2017 16:21 22,4 °C 22,4 °C 70 % 1017,8 hPa 0,0 mm 5,6 km/h (1 Bft) O-NO 67 ° 0 min 0,000 mm 2,2 UV-I 181 W/m² 16,7 °C 22,4 °C 8,0 km/h (2 Bft)
16.08.2017 16:22 22,3 °C 22,4 °C 69 % 1017,8 hPa 0,0 mm 5,1 km/h (1 Bft) O-SO 120 ° 0 min 0,000 mm 2,3 UV-I 214 W/m² 16,3 °C 22,3 °C 6,4 km/h (2 Bft)
16.08.2017 16:23 22,3 °C 22,3 °C 69 % 1017,8 hPa 0,0 mm 4,2 km/h (1 Bft) O 92 ° 0 min 0,000 mm 2,2 UV-I 214 W/m² 16,3 °C 22,3 °C 6,4 km/h (2 Bft)
16.08.2017 16:24 22,3 °C 22,3 °C 70 % 1017,9 hPa 0,0 mm 5,4 km/h (1 Bft) O 88 ° 0 min 0,000 mm 2,2 UV-I 162 W/m² 16,6 °C 22,3 °C 9,7 km/h (2 Bft)
16.08.2017 16:25 22,2 °C 22,3 °C 73 % 1017,9 hPa 0,0 mm 3,2 km/h (1 Bft) O 95 ° 0 min 0,000 mm 2,1 UV-I 146 W/m² 17,1 °C 22,2 °C 6,4 km/h (2 Bft)
16.08.2017 16:26 22,1 °C 22,2 °C 71 % 1017,9 hPa 0,0 mm 2,8 km/h (1 Bft) O-SO 112 ° 0 min 0,000 mm 2,0 UV-I 128 W/m² 16,6 °C 22,1 °C 6,4 km/h (2 Bft)
16.08.2017 16:27 22,0 °C 22,1 °C 71 % 1017,8 hPa 0,0 mm 2,2 km/h (1 Bft) O-NO 61 ° 0 min 0,000 mm 2,0 UV-I 121 W/m² 16,5 °C 22,0 °C 3,2 km/h (1 Bft)
16.08.2017 16:28 22,0 °C 22,0 °C 73 % 1017,8 hPa 0,0 mm 2,0 km/h (1 Bft) N 360 ° 0 min 0,000 mm 2,0 UV-I 120 W/m² 16,9 °C 22,0 °C 3,2 km/h (1 Bft)
16.08.2017 16:29 21,9 °C 22,0 °C 73 % 1017,8 hPa 0,0 mm 2,6 km/h (1 Bft) N-NO 30 ° 0 min 0,000 mm 2,1 UV-I 123 W/m² 16,8 °C 21,9 °C 3,2 km/h (1 Bft)
16.08.2017 16:30 21,8 °C 21,9 °C 78 % 1017,8 hPa 0,0 mm 1,4 km/h (1 Bft) N-NO 29 ° 0 min 0,000 mm 2,1 UV-I 118 W/m² 17,8 °C 21,8 °C 3,2 km/h (1 Bft)
16.08.2017 16:31 21,9 °C 21,9 °C 75 % 1017,8 hPa 0,0 mm 4,9 km/h (1 Bft) O-NO 65 ° 0 min 0,000 mm 2,1 UV-I 113 W/m² 17,3 °C 21,9 °C 6,4 km/h (2 Bft)
16.08.2017 16:32 22,0 °C 22,0 °C 73 % 1017,8 hPa 0,0 mm 5,3 km/h (1 Bft) NO 47 ° 0 min 0,000 mm 2,0 UV-I 109 W/m² 16,9 °C 22,0 °C 8,0 km/h (2 Bft)
16.08.2017 16:33 22,1 °C 22,1 °C 72 % 1017,8 hPa 0,0 mm 3,0 km/h (1 Bft) O-NO 66 ° 0 min 0,000 mm 2,0 UV-I 120 W/m² 16,8 °C 22,1 °C 6,4 km/h (2 Bft)
16.08.2017 16:34 22,2 °C 22,2 °C 71 % 1017,7 hPa 0,0 mm 4,0 km/h (1 Bft) NO 51 ° 0 min 0,000 mm 2,0 UV-I 125 W/m² 16,7 °C 22,2 °C 6,4 km/h (2 Bft)
16.08.2017 16:35 22,3 °C 22,3 °C 72 % 1017,8 hPa 0,0 mm 4,8 km/h (1 Bft) N 351 ° 0 min 0,000 mm 2,0 UV-I 128 W/m² 17,0 °C 22,3 °C 9,7 km/h (2 Bft)
16.08.2017 16:36 22,3 °C 22,3 °C 71 % 1017,8 hPa 0,0 mm 3,1 km/h (1 Bft) N-NO 33 ° 0 min 0,000 mm 2,0 UV-I 130 W/m² 16,8 °C 22,3 °C 4,8 km/h (1 Bft)
16.08.2017 16:37 22,4 °C 22,4 °C 69 % 1017,8 hPa 0,0 mm 7,6 km/h (2 Bft) NO 40 ° 0 min 0,000 mm 2,0 UV-I 132 W/m² 16,4 °C 22,4 °C 11,3 km/h (2 Bft)
16.08.2017 16:38 22,4 °C 22,4 °C 68 % 1017,8 hPa 0,0 mm 4,4 km/h (1 Bft) N 360 ° 0 min 0,000 mm 2,0 UV-I 137 W/m² 16,2 °C 22,4 °C 6,4 km/h (2 Bft)
16.08.2017 16:39 22,4 °C 22,4 °C 69 % 1017,8 hPa 0,0 mm 5,8 km/h (2 Bft) N-NW 348 ° 0 min 0,000 mm 2,0 UV-I 142 W/m² 16,4 °C 22,4 °C 8,0 km/h (2 Bft)
16.08.2017 16:40 22,5 °C 22,5 °C 70 % 1017,8 hPa 0,0 mm 7,8 km/h (2 Bft) N 5 ° 0 min 0,000 mm 2,0 UV-I 135 W/m² 16,7 °C 22,5 °C 11,3 km/h (2 Bft)
16.08.2017 16:41 22,6 °C 22,6 °C 69 % 1017,8 hPa 0,0 mm 10,6 km/h (2 Bft) N-NO 15 ° 0 min 0,000 mm 2,0 UV-I 135 W/m² 16,6 °C 22,6 °C 12,9 km/h (3 Bft)
16.08.2017 16:42 22,6 °C 22,6 °C 68 % 1017,8 hPa 0,0 mm 6,8 km/h (2 Bft) N 360 ° 0 min 0,000 mm 2,0 UV-I 121 W/m² 16,4 °C 22,6 °C 8,0 km/h (2 Bft)
16.08.2017 16:43 22,6 °C 22,6 °C 69 % 1017,8 hPa 0,0 mm 6,7 km/h (2 Bft) N-NW 329 ° 0 min 0,000 mm 2,0 UV-I 121 W/m² 16,6 °C 22,6 °C 9,7 km/h (2 Bft)
16.08.2017 16:44 22,6 °C 22,7 °C 70 % 1017,8 hPa 0,0 mm 4,3 km/h (1 Bft) N-NO 13 ° 0 min 0,000 mm 2,0 UV-I 123 W/m² 16,8 °C 22,6 °C 6,4 km/h (2 Bft)
16.08.2017 16:45 22,7 °C 22,7 °C 69 % 1017,8 hPa 0,0 mm 6,8 km/h (2 Bft) NO 34 ° 0 min 0,000 mm 2,0 UV-I 120 W/m² 16,7 °C 22,7 °C 11,3 km/h (2 Bft)
16.08.2017 16:46 22,7 °C 22,7 °C 71 % 1017,8 hPa 0,0 mm 3,1 km/h (1 Bft) NO 49 ° 0 min 0,000 mm 2,1 UV-I 186 W/m² 17,2 °C 22,7 °C 6,4 km/h (2 Bft)
16.08.2017 16:47 22,7 °C 22,7 °C 69 % 1017,8 hPa 0,0 mm 4,3 km/h (1 Bft) O 94 ° 0 min 0,000 mm 2,1 UV-I 141 W/m² 16,7 °C 22,7 °C 6,4 km/h (2 Bft)
16.08.2017 16:48 22,7 °C 22,7 °C 71 % 1017,8 hPa 0,0 mm 5,4 km/h (1 Bft) SO 135 ° 0 min 0,000 mm 1,9 UV-I 111 W/m² 17,2 °C 22,7 °C 6,4 km/h (2 Bft)
16.08.2017 16:49 22,6 °C 22,7 °C 71 % 1017,9 hPa 0,0 mm 5,0 km/h (1 Bft) O-NO 57 ° 0 min 0,000 mm 1,9 UV-I 114 W/m² 17,1 °C 22,6 °C 6,4 km/h (2 Bft)
16.08.2017 16:50 22,6 °C 22,6 °C 69 % 1017,9 hPa 0,0 mm 3,0 km/h (1 Bft) NO 56 ° 0 min 0,000 mm 1,9 UV-I 120 W/m² 16,6 °C 22,6 °C 4,8 km/h (1 Bft)
16.08.2017 16:51 22,6 °C 22,6 °C 68 % 1017,9 hPa 0,0 mm 4,9 km/h (1 Bft) N-NO 30 ° 0 min 0,000 mm 1,9 UV-I 127 W/m² 16,4 °C 22,6 °C 6,4 km/h (2 Bft)
16.08.2017 16:52 22,6 °C 22,6 °C 68 % 1017,9 hPa 0,0 mm 4,0 km/h (1 Bft) NO 48 ° 0 min 0,000 mm 1,9 UV-I 134 W/m² 16,4 °C 22,6 °C 6,4 km/h (2 Bft)
16.08.2017 16:53 22,7 °C 22,7 °C 67 % 1017,8 hPa 0,0 mm 4,4 km/h (1 Bft) N-NO 24 ° 0 min 0,000 mm 1,9 UV-I 128 W/m² 16,2 °C 22,7 °C 6,4 km/h (2 Bft)
16.08.2017 16:54 22,7 °C 22,7 °C 68 % 1017,9 hPa 0,0 mm 4,2 km/h (1 Bft) NO 52 ° 0 min 0,000 mm 1,9 UV-I 128 W/m² 16,5 °C 22,7 °C 6,4 km/h (2 Bft)
16.08.2017 16:55 22,7 °C 22,7 °C 68 % 1017,9 hPa 0,0 mm 5,0 km/h (1 Bft) O-NO 71 ° 0 min 0,000 mm 1,9 UV-I 132 W/m² 16,5 °C 22,7 °C 8,0 km/h (2 Bft)
16.08.2017 16:56 22,6 °C 22,7 °C 67 % 1017,9 hPa 0,0 mm 5,8 km/h (2 Bft) O 89 ° 0 min 0,000 mm 1,8 UV-I 130 W/m² 16,2 °C 22,6 °C 8,0 km/h (2 Bft)
16.08.2017 16:57 22,6 °C 22,6 °C 67 % 1017,9 hPa 0,0 mm 3,9 km/h (1 Bft) O-NO 74 ° 0 min 0,000 mm 1,8 UV-I 135 W/m² 16,2 °C 22,6 °C 6,4 km/h (2 Bft)
16.08.2017 16:58 22,6 °C 22,6 °C 67 % 1017,9 hPa 0,0 mm 4,1 km/h (1 Bft) O-NO 75 ° 0 min 0,000 mm 1,8 UV-I 137 W/m² 16,2 °C 22,6 °C 4,8 km/h (1 Bft)
16.08.2017 16:59 22,5 °C 22,6 °C 67 % 1017,9 hPa 0,0 mm 2,1 km/h (1 Bft) O-NO 74 ° 0 min 0,000 mm 1,8 UV-I 137 W/m² 16,1 °C 22,5 °C 3,2 km/h (1 Bft)
16.08.2017 17:00 22,5 °C 22,5 °C 67 % 1017,9 hPa 0,0 mm 2,4 km/h (1 Bft) NO 54 ° 0 min 0,000 mm 1,8 UV-I 139 W/m² 16,1 °C 22,5 °C 3,2 km/h (1 Bft)
16.08.2017 17:01 22,4 °C 22,5 °C 66 % 1017,9 hPa 0,0 mm 4,2 km/h (1 Bft) O 82 ° 0 min 0,178 mm 1,8 UV-I 139 W/m² 15,7 °C 22,4 °C 6,4 km/h (2 Bft)
16.08.2017 17:02 22,4 °C 22,4 °C 70 % 1017,9 hPa 0,0 mm 2,4 km/h (1 Bft) O 82 ° 0 min 0,000 mm 1,8 UV-I 142 W/m² 16,7 °C 22,4 °C 3,2 km/h (1 Bft)
16.08.2017 17:03 22,3 °C 22,4 °C 74 % 1017,9 hPa 0,0 mm 1,3 km/h (1 Bft) O 82 ° 0 min 0,000 mm 1,8 UV-I 148 W/m² 17,4 °C 22,3 °C 3,2 km/h (1 Bft)
16.08.2017 17:04 22,3 °C 22,3 °C 69 % 1017,9 hPa 0,0 mm 1,0 km/h (0 Bft) O 90 ° 0 min 0,000 mm 1,7 UV-I 148 W/m² 16,3 °C 22,3 °C 3,2 km/h (1 Bft)
16.08.2017 17:05 22,3 °C 22,3 °C 69 % 1017,9 hPa 0,0 mm 5,5 km/h (1 Bft) S 187 ° 0 min 0,000 mm 1,7 UV-I 142 W/m² 16,3 °C 22,3 °C 6,4 km/h (2 Bft)
16.08.2017 17:06 22,3 °C 22,3 °C 70 % 1017,8 hPa 0,0 mm 2,3 km/h (1 Bft) S 182 ° 0 min 0,000 mm 1,7 UV-I 144 W/m² 16,6 °C 22,3 °C 4,8 km/h (1 Bft)
16.08.2017 17:07 22,2 °C 22,3 °C 72 % 1017,9 hPa 0,0 mm 3,9 km/h (1 Bft) O-SO 111 ° 0 min 0,000 mm 1,6 UV-I 146 W/m² 16,9 °C 22,2 °C 6,4 km/h (2 Bft)
16.08.2017 17:08 22,1 °C 22,2 °C 72 % 1017,9 hPa 0,0 mm 0,9 km/h (0 Bft) O-SO 111 ° 0 min 0,000 mm 1,6 UV-I 151 W/m² 16,8 °C 22,1 °C 3,2 km/h (1 Bft)
16.08.2017 17:09 22,0 °C 22,1 °C 70 % 1017,9 hPa 0,0 mm 0,9 km/h (0 Bft) O-SO 111 ° 0 min 0,000 mm 1,6 UV-I 155 W/m² 16,3 °C 22,0 °C 3,2 km/h (1 Bft)
16.08.2017 17:10 22,0 °C 22,0 °C 70 % 1017,9 hPa 0,0 mm 3,5 km/h (1 Bft) NO 53 ° 0 min 0,000 mm 1,6 UV-I 158 W/m² 16,3 °C 22,0 °C 4,8 km/h (1 Bft)
16.08.2017 17:11 22,0 °C 22,0 °C 72 % 1017,8 hPa 0,0 mm 3,8 km/h (1 Bft) O-NO 57 ° 0 min 0,000 mm 1,7 UV-I 206 W/m² 16,7 °C 22,0 °C 6,4 km/h (2 Bft)
16.08.2017 17:12 21,9 °C 22,0 °C 75 % 1017,9 hPa 0,0 mm 1,1 km/h (1 Bft) O-NO 57 ° 0 min 0,000 mm 1,5 UV-I 153 W/m² 17,3 °C 21,9 °C 3,2 km/h (1 Bft)
16.08.2017 17:13 21,9 °C 21,9 °C 72 % 1017,9 hPa 0,0 mm 1,5 km/h (1 Bft) O-NO 57 ° 0 min 0,000 mm 1,5 UV-I 149 W/m² 16,6 °C 21,9 °C 3,2 km/h (1 Bft)
16.08.2017 17:14 21,9 °C 21,9 °C 70 % 1017,9 hPa 0,0 mm 0,0 km/h (0 Bft) O-NO 57 ° 0 min 0,000 mm 1,5 UV-I 151 W/m² 16,2 °C 21,9 °C 0,0 km/h (0 Bft)
16.08.2017 17:15 22,0 °C 22,0 °C 70 % 1017,9 hPa 0,0 mm 0,0 km/h (0 Bft) O-NO 57 ° 0 min 0,000 mm 1,5 UV-I 162 W/m² 16,3 °C 22,0 °C 0,0 km/h (0 Bft)
16.08.2017 17:16 22,1 °C 22,1 °C 70 % 1017,9 hPa 0,0 mm 0,8 km/h (0 Bft) O-NO 57 ° 0 min 0,000 mm 1,5 UV-I 158 W/m² 16,4 °C 22,1 °C 3,2 km/h (1 Bft)
16.08.2017 17:17 22,1 °C 22,1 °C 70 % 1017,9 hPa 0,0 mm 0,2 km/h (0 Bft) O-NO 57 ° 0 min 0,000 mm 1,5 UV-I 158 W/m² 16,4 °C 22,1 °C 1,6 km/h (1 Bft)
16.08.2017 17:18 22,1 °C 22,1 °C 70 % 1017,8 hPa 0,0 mm 3,3 km/h (1 Bft) NO 44 ° 0 min 0,000 mm 1,4 UV-I 155 W/m² 16,4 °C 22,1 °C 4,8 km/h (1 Bft)
16.08.2017 17:19 22,0 °C 22,1 °C 74 % 1017,9 hPa 0,0 mm 4,6 km/h (1 Bft) O-SO 117 ° 0 min 0,000 mm 1,4 UV-I 155 W/m² 17,1 °C 22,0 °C 6,4 km/h (2 Bft)
16.08.2017 17:20 21,9 °C 22,0 °C 72 % 1017,9 hPa 0,0 mm 2,2 km/h (1 Bft) O 92 ° 0 min 0,000 mm 1,4 UV-I 167 W/m² 16,6 °C 21,9 °C 4,8 km/h (1 Bft)
16.08.2017 17:21 21,9 °C 21,9 °C 72 % 1017,9 hPa 0,0 mm 1,5 km/h (1 Bft) O 92 ° 0 min 0,000 mm 1,4 UV-I 163 W/m² 16,6 °C 21,9 °C 3,2 km/h (1 Bft)
16.08.2017 17:22 22,0 °C 22,0 °C 71 % 1017,9 hPa 0,0 mm 3,0 km/h (1 Bft) NO 52 ° 0 min 0,000 mm 1,5 UV-I 169 W/m² 16,5 °C 22,0 °C 6,4 km/h (2 Bft)
16.08.2017 17:23 22,1 °C 22,1 °C 73 % 1017,9 hPa 0,0 mm 6,6 km/h (2 Bft) O 84 ° 0 min 0,000 mm 1,6 UV-I 192 W/m² 17,0 °C 22,1 °C 9,7 km/h (2 Bft)
16.08.2017 17:24 22,1 °C 22,1 °C 75 % 1017,9 hPa 0,0 mm 4,9 km/h (1 Bft) O-NO 65 ° 0 min 0,000 mm 1,7 UV-I 199 W/m² 17,5 °C 22,1 °C 6,4 km/h (2 Bft)
16.08.2017 17:25 22,1 °C 22,1 °C 74 % 1017,9 hPa 0,0 mm 4,1 km/h (1 Bft) O-NO 68 ° 0 min 0,000 mm 1,7 UV-I 200 W/m² 17,2 °C 22,1 °C 6,4 km/h (2 Bft)
16.08.2017 17:26 22,1 °C 22,1 °C 74 % 1017,8 hPa 0,0 mm 3,9 km/h (1 Bft) O 89 ° 0 min 0,000 mm 1,7 UV-I 192 W/m² 17,2 °C 22,1 °C 6,4 km/h (2 Bft)
16.08.2017 17:27 22,2 °C 22,2 °C 77 % 1017,9 hPa 0,0 mm 3,5 km/h (1 Bft) O-SO 111 ° 0 min 0,000 mm 1,7 UV-I 185 W/m² 18,0 °C 22,2 °C 8,0 km/h (2 Bft)
16.08.2017 17:28 22,2 °C 22,2 °C 77 % 1017,9 hPa 0,0 mm 5,4 km/h (1 Bft) O-NO 67 ° 0 min 0,000 mm 1,7 UV-I 174 W/m² 18,0 °C 22,2 °C 8,0 km/h (2 Bft)
16.08.2017 17:29 22,3 °C 22,3 °C 73 % 1017,9 hPa 0,0 mm 2,9 km/h (1 Bft) O 84 ° 0 min 0,000 mm 1,6 UV-I 160 W/m² 17,2 °C 22,3 °C 6,4 km/h (2 Bft)
16.08.2017 17:30 22,3 °C 22,3 °C 71 % 1017,8 hPa 0,0 mm 4,2 km/h (1 Bft) S 175 ° 0 min 0,000 mm 1,6 UV-I 142 W/m² 16,8 °C 22,3 °C 6,4 km/h (2 Bft)
16.08.2017 17:31 22,3 °C 22,3 °C 71 % 1017,8 hPa 0,0 mm 3,2 km/h (1 Bft) NO 52 ° 0 min 0,000 mm 1,5 UV-I 127 W/m² 16,8 °C 22,3 °C 6,4 km/h (2 Bft)
16.08.2017 17:32 22,4 °C 22,4 °C 70 % 1017,9 hPa 0,0 mm 5,5 km/h (1 Bft) N-NO 32 ° 0 min 0,000 mm 1,5 UV-I 113 W/m² 16,7 °C 22,4 °C 8,0 km/h (2 Bft)
16.08.2017 17:33 22,4 °C 22,4 °C 71 % 1017,8 hPa 0,0 mm 4,8 km/h (1 Bft) O-NO 65 ° 0 min 0,000 mm 1,5 UV-I 118 W/m² 16,9 °C 22,4 °C 8,0 km/h (2 Bft)
16.08.2017 17:34 22,3 °C 22,4 °C 73 % 1017,8 hPa 0,0 mm 5,4 km/h (1 Bft) N-NO 26 ° 0 min 0,000 mm 1,4 UV-I 111 W/m² 17,2 °C 22,3 °C 8,0 km/h (2 Bft)
16.08.2017 17:35 22,3 °C 22,3 °C 70 % 1017,8 hPa 0,0 mm 6,2 km/h (2 Bft) NO 56 ° 0 min 0,000 mm 1,4 UV-I 111 W/m² 16,6 °C 22,3 °C 11,3 km/h (2 Bft)
16.08.2017 17:36 22,4 °C 22,4 °C 68 % 1017,7 hPa 0,0 mm 5,9 km/h (2 Bft) N-NO 27 ° 0 min 0,000 mm 1,4 UV-I 97 W/m² 16,2 °C 22,4 °C 8,0 km/h (2 Bft)
16.08.2017 17:37 22,4 °C 22,4 °C 69 % 1017,7 hPa 0,0 mm 5,6 km/h (1 Bft) O-NO 70 ° 0 min 0,000 mm 1,4 UV-I 91 W/m² 16,4 °C 22,4 °C 8,0 km/h (2 Bft)
16.08.2017 17:38 22,4 °C 22,4 °C 68 % 1017,7 hPa 0,0 mm 2,5 km/h (1 Bft) SO 135 ° 0 min 0,000 mm 1,3 UV-I 81 W/m² 16,2 °C 22,4 °C 3,2 km/h (1 Bft)
16.08.2017 17:39 22,3 °C 22,4 °C 68 % 1017,7 hPa 0,0 mm 2,7 km/h (1 Bft) O-NO 72 ° 0 min 0,000 mm 1,3 UV-I 88 W/m² 16,1 °C 22,3 °C 4,8 km/h (1 Bft)
16.08.2017 17:40 22,3 °C 22,3 °C 69 % 1017,7 hPa 0,0 mm 0,5 km/h (0 Bft) O 98 ° 0 min 0,000 mm 1,3 UV-I 91 W/m² 16,3 °C 22,3 °C 1,6 km/h (1 Bft)
16.08.2017 17:41 22,3 °C 22,3 °C 70 % 1017,7 hPa 0,0 mm 3,6 km/h (1 Bft) O-NO 72 ° 0 min 0,000 mm 1,3 UV-I 97 W/m² 16,6 °C 22,3 °C 6,4 km/h (2 Bft)
16.08.2017 17:42 22,3 °C 22,3 °C 69 % 1017,8 hPa 0,0 mm 5,1 km/h (1 Bft) NO 43 ° 0 min 0,000 mm 1,3 UV-I 93 W/m² 16,3 °C 22,3 °C 6,4 km/h (2 Bft)
16.08.2017 17:43 22,3 °C 22,3 °C 71 % 1017,8 hPa 0,0 mm 2,9 km/h (1 Bft) S 171 ° 0 min 0,000 mm 1,3 UV-I 84 W/m² 16,8 °C 22,3 °C 6,4 km/h (2 Bft)
16.08.2017 17:44 22,2 °C 22,3 °C 70 % 1017,8 hPa 0,0 mm 0,8 km/h (0 Bft) SO 140 ° 0 min 0,000 mm 1,3 UV-I 74 W/m² 16,5 °C 22,2 °C 1,6 km/h (1 Bft)
16.08.2017 17:45 22,1 °C 22,2 °C 72 % 1017,9 hPa 0,0 mm 3,5 km/h (1 Bft) SO 142 ° 0 min 0,000 mm 1,2 UV-I 72 W/m² 16,8 °C 22,1 °C 4,8 km/h (1 Bft)
16.08.2017 17:46 21,9 °C 22,1 °C 74 % 1017,8 hPa 0,0 mm 3,2 km/h (1 Bft) SO 142 ° 0 min 0,000 mm 1,2 UV-I 76 W/m² 17,0 °C 21,9 °C 4,8 km/h (1 Bft)
16.08.2017 17:47 21,8 °C 21,9 °C 70 % 1017,8 hPa 0,0 mm 0,8 km/h (0 Bft) SO 142 ° 0 min 0,000 mm 1,2 UV-I 77 W/m² 16,1 °C 21,8 °C 3,2 km/h (1 Bft)
16.08.2017 17:48 21,8 °C 21,8 °C 72 % 1017,8 hPa 0,0 mm 1,5 km/h (1 Bft) SO 142 ° 0 min 0,000 mm 1,2 UV-I 72 W/m² 16,5 °C 21,8 °C 3,2 km/h (1 Bft)
16.08.2017 17:49 21,7 °C 21,8 °C 72 % 1017,8 hPa 0,0 mm 0,1 km/h (0 Bft) SO 142 ° 0 min 0,000 mm 1,2 UV-I 70 W/m² 16,4 °C 21,7 °C 1,6 km/h (1 Bft)
16.08.2017 17:50 21,6 °C 21,7 °C 73 % 1017,8 hPa 0,0 mm 1,1 km/h (1 Bft) SO 142 ° 0 min 0,000 mm 1,1 UV-I 79 W/m² 16,5 °C 21,6 °C 1,6 km/h (1 Bft)
16.08.2017 17:51 21,6 °C 21,6 °C 77 % 1017,8 hPa 0,0 mm 2,0 km/h (1 Bft) SO 142 ° 0 min 0,000 mm 1,2 UV-I 81 W/m² 17,4 °C 21,6 °C 4,8 km/h (1 Bft)
16.08.2017 17:52 21,4 °C 21,6 °C 74 % 1017,8 hPa 0,0 mm 0,0 km/h (0 Bft) SO 142 ° 0 min 0,000 mm 1,2 UV-I 83 W/m² 16,6 °C 21,4 °C 0,0 km/h (0 Bft)
16.08.2017 17:53 21,4 °C 21,4 °C 74 % 1017,8 hPa 0,0 mm 0,0 km/h (0 Bft) SO 142 ° 0 min 0,000 mm 1,2 UV-I 83 W/m² 16,6 °C 21,4 °C 0,0 km/h (0 Bft)
16.08.2017 17:54 21,4 °C 21,4 °C 73 % 1017,8 hPa 0,0 mm 2,1 km/h (1 Bft) O 85 ° 0 min 0,000 mm 1,2 UV-I 90 W/m² 16,4 °C 21,4 °C 3,2 km/h (1 Bft)
16.08.2017 17:55 21,4 °C 21,4 °C 74 % 1017,8 hPa 0,0 mm 0,5 km/h (0 Bft) O 85 ° 0 min 0,000 mm 1,2 UV-I 97 W/m² 16,6 °C 21,4 °C 1,6 km/h (1 Bft)
16.08.2017 17:56 21,5 °C 21,5 °C 75 % 1017,8 hPa 0,0 mm 0,0 km/h (0 Bft) O 85 ° 0 min 0,000 mm 1,2 UV-I 105 W/m² 16,9 °C 21,5 °C 0,0 km/h (0 Bft)
16.08.2017 17:57 21,5 °C 21,5 °C 75 % 1017,8 hPa 0,0 mm 0,0 km/h (0 Bft) O 85 ° 0 min 0,000 mm 1,2 UV-I 98 W/m² 16,9 °C 21,5 °C 0,0 km/h (0 Bft)
16.08.2017 17:58 21,5 °C 21,5 °C 72 % 1017,7 hPa 0,0 mm 3,5 km/h (1 Bft) S-SO 150 ° 0 min 0,000 mm 1,2 UV-I 97 W/m² 16,2 °C 21,5 °C 6,4 km/h (2 Bft)
16.08.2017 17:59 21,6 °C 21,6 °C 73 % 1017,7 hPa 0,0 mm 1,4 km/h (1 Bft) SO 130 ° 0 min 0,000 mm 1,2 UV-I 93 W/m² 16,5 °C 21,6 °C 3,2 km/h (1 Bft)
16.08.2017 18:00 21,7 °C 21,7 °C 73 % 1017,7 hPa 0,0 mm 1,1 km/h (1 Bft) SO 130 ° 0 min 0,000 mm 1,2 UV-I 84 W/m² 16,6 °C 21,7 °C 3,2 km/h (1 Bft)
16.08.2017 18:01 21,6 °C 21,7 °C 74 % 1017,7 hPa 0,0 mm 3,6 km/h (1 Bft) S-SO 150 ° 0 min 0,101 mm 1,2 UV-I 77 W/m² 16,8 °C 21,6 °C 6,4 km/h (2 Bft)
16.08.2017 18:02 21,6 °C 21,6 °C 73 % 1017,8 hPa 0,0 mm 1,4 km/h (1 Bft) S-SO 149 ° 0 min 0,000 mm 1,1 UV-I 79 W/m² 16,5 °C 21,6 °C 3,2 km/h (1 Bft)
16.08.2017 18:03 21,6 °C 21,6 °C 72 % 1017,8 hPa 0,0 mm 0,0 km/h (0 Bft) S-SO 149 ° 0 min 0,000 mm 1,1 UV-I 79 W/m² 16,3 °C 21,6 °C 0,0 km/h (0 Bft)
16.08.2017 18:04 21,6 °C 21,6 °C 72 % 1017,8 hPa 0,0 mm 1,2 km/h (1 Bft) S-SO 149 ° 0 min 0,000 mm 1,1 UV-I 77 W/m² 16,3 °C 21,6 °C 4,8 km/h (1 Bft)
16.08.2017 18:05 21,6 °C 21,6 °C 76 % 1017,8 hPa 0,0 mm 1,9 km/h (1 Bft) S-SO 149 ° 0 min 0,000 mm 1,1 UV-I 76 W/m² 17,2 °C 21,6 °C 4,8 km/h (1 Bft)
16.08.2017 18:06 21,5 °C 21,6 °C 74 % 1017,8 hPa 0,0 mm 0,4 km/h (0 Bft) S-SO 149 ° 0 min 0,000 mm 1,1 UV-I 72 W/m² 16,7 °C 21,5 °C 3,2 km/h (1 Bft)
16.08.2017 18:07 21,4 °C 21,5 °C 74 % 1017,9 hPa 0,0 mm 1,1 km/h (1 Bft) S-SO 149 ° 0 min 0,000 mm 1,1 UV-I 72 W/m² 16,6 °C 21,4 °C 3,2 km/h (1 Bft)
16.08.2017 18:08 21,4 °C 21,4 °C 75 % 1017,8 hPa 0,0 mm 1,1 km/h (1 Bft) SO 144 ° 0 min 0,000 mm 1,1 UV-I 70 W/m² 16,8 °C 21,4 °C 3,2 km/h (1 Bft)
16.08.2017 18:09 21,3 °C 21,4 °C 75 % 1017,8 hPa 0,0 mm 0,1 km/h (0 Bft) SO 143 ° 0 min 0,000 mm 1,1 UV-I 70 W/m² 16,7 °C 21,3 °C 1,6 km/h (1 Bft)
16.08.2017 18:10 21,4 °C 21,4 °C 74 % 1017,8 hPa 0,0 mm 2,7 km/h (1 Bft) S-SO 149 ° 0 min 0,000 mm 1,0 UV-I 69 W/m² 16,6 °C 21,4 °C 6,4 km/h (2 Bft)
16.08.2017 18:11 21,4 °C 21,4 °C 73 % 1017,7 hPa 0,0 mm 0,8 km/h (0 Bft) S-SO 149 ° 0 min 0,000 mm 1,0 UV-I 69 W/m² 16,4 °C 21,4 °C 3,2 km/h (1 Bft)
16.08.2017 18:12 21,4 °C 21,4 °C 76 % 1017,7 hPa 0,0 mm 1,0 km/h (0 Bft) S-SO 149 ° 0 min 0,000 mm 1,0 UV-I 67 W/m² 17,0 °C 21,4 °C 1,6 km/h (1 Bft)
16.08.2017 18:13 21,3 °C 21,4 °C 74 % 1017,7 hPa 0,0 mm 2,2 km/h (1 Bft) NO 45 ° 0 min 0,000 mm 1,0 UV-I 69 W/m² 16,5 °C 21,3 °C 4,8 km/h (1 Bft)
16.08.2017 18:14 21,4 °C 21,4 °C 73 % 1017,7 hPa 0,0 mm 4,1 km/h (1 Bft) O 86 ° 0 min 0,000 mm 1,0 UV-I 67 W/m² 16,4 °C 21,4 °C 6,4 km/h (2 Bft)
16.08.2017 18:15 21,3 °C 21,4 °C 75 % 1017,7 hPa 0,0 mm 4,0 km/h (1 Bft) O-SO 105 ° 0 min 0,000 mm 1,0 UV-I 65 W/m² 16,7 °C 21,3 °C 6,4 km/h (2 Bft)
16.08.2017 18:16 21,3 °C 21,3 °C 74 % 1017,7 hPa 0,0 mm 0,2 km/h (0 Bft) O-SO 105 ° 0 min 0,000 mm 1,0 UV-I 63 W/m² 16,5 °C 21,3 °C 1,6 km/h (1 Bft)
16.08.2017 18:17 21,3 °C 21,3 °C 74 % 1017,7 hPa 0,0 mm 0,3 km/h (0 Bft) O-SO 105 ° 0 min 0,000 mm 1,0 UV-I 63 W/m² 16,5 °C 21,3 °C 3,2 km/h (1 Bft)
16.08.2017 18:18 21,3 °C 21,3 °C 75 % 1017,7 hPa 0,0 mm 0,7 km/h (0 Bft) O-SO 105 ° 0 min 0,000 mm 0,9 UV-I 63 W/m² 16,7 °C 21,3 °C 1,6 km/h (1 Bft)
16.08.2017 18:19 21,2 °C 21,3 °C 75 % 1017,7 hPa 0,0 mm 1,3 km/h (1 Bft) O-SO 105 ° 0 min 0,000 mm 0,9 UV-I 63 W/m² 16,6 °C 21,2 °C 3,2 km/h (1 Bft)
16.08.2017 18:20 21,3 °C 21,3 °C 74 % 1017,6 hPa 0,0 mm 0,8 km/h (0 Bft) O-SO 105 ° 0 min 0,000 mm 0,9 UV-I 63 W/m² 16,5 °C 21,3 °C 3,2 km/h (1 Bft)
16.08.2017 18:21 21,3 °C 21,3 °C 74 % 1017,6 hPa 0,0 mm 0,2 km/h (0 Bft) O-SO 104 ° 0 min 0,000 mm 0,9 UV-I 63 W/m² 16,5 °C 21,3 °C 3,2 km/h (1 Bft)
16.08.2017 18:22 21,3 °C 21,3 °C 75 % 1017,7 hPa 0,0 mm 0,7 km/h (0 Bft) O-SO 104 ° 0 min 0,000 mm 0,9 UV-I 63 W/m² 16,7 °C 21,3 °C 3,2 km/h (1 Bft)
16.08.2017 18:23 21,3 °C 21,3 °C 74 % 1017,7 hPa 0,0 mm 0,6 km/h (0 Bft) O 101 ° 0 min 0,000 mm 0,9 UV-I 62 W/m² 16,5 °C 21,3 °C 3,2 km/h (1 Bft)
16.08.2017 18:24 21,3 °C 21,3 °C 74 % 1017,7 hPa 0,0 mm 0,2 km/h (0 Bft) O-SO 102 ° 0 min 0,000 mm 0,9 UV-I 62 W/m² 16,5 °C 21,3 °C 1,6 km/h (1 Bft)
16.08.2017 18:25 21,3 °C 21,3 °C 75 % 1017,7 hPa 0,0 mm 0,0 km/h (0 Bft) O 101 ° 0 min 0,000 mm 0,9 UV-I 63 W/m² 16,7 °C 21,3 °C 0,0 km/h (0 Bft)
16.08.2017 18:26 21,3 °C 21,3 °C 74 % 1017,7 hPa 0,0 mm 0,1 km/h (0 Bft) O-SO 102 ° 0 min 0,000 mm 0,8 UV-I 63 W/m² 16,5 °C 21,3 °C 1,6 km/h (1 Bft)
16.08.2017 18:27 21,3 °C 21,3 °C 75 % 1017,7 hPa 0,0 mm 0,0 km/h (0 Bft) O-SO 102 ° 0 min 0,000 mm 0,8 UV-I 65 W/m² 16,7 °C 21,3 °C 0,0 km/h (0 Bft)
16.08.2017 18:28 21,3 °C 21,3 °C 76 % 1017,7 hPa 0,0 mm 0,1 km/h (0 Bft) O 101 ° 0 min 0,000 mm 0,8 UV-I 65 W/m² 16,9 °C 21,3 °C 1,6 km/h (1 Bft)
16.08.2017 18:29 21,3 °C 21,3 °C 75 % 1017,8 hPa 0,0 mm 0,2 km/h (0 Bft) O 101 ° 0 min 0,000 mm 0,8 UV-I 65 W/m² 16,7 °C 21,3 °C 1,6 km/h (1 Bft)
16.08.2017 18:30 21,3 °C 21,3 °C 75 % 1017,7 hPa 0,0 mm 0,4 km/h (0 Bft) O 101 ° 0 min 0,000 mm 0,8 UV-I 65 W/m² 16,7 °C 21,3 °C 1,6 km/h (1 Bft)
16.08.2017 18:31 21,3 °C 21,3 °C 76 % 1017,7 hPa 0,0 mm 0,3 km/h (0 Bft) O 101 ° 0 min 0,000 mm 0,8 UV-I 62 W/m² 16,9 °C 21,3 °C 1,6 km/h (1 Bft)
16.08.2017 18:32 21,2 °C 21,3 °C 77 % 1017,7 hPa 0,0 mm 0,1 km/h (0 Bft) O-SO 102 ° 0 min 0,000 mm 0,8 UV-I 62 W/m² 17,0 °C 21,2 °C 1,6 km/h (1 Bft)
16.08.2017 18:33 21,3 °C 21,3 °C 75 % 1017,7 hPa 0,0 mm 1,4 km/h (1 Bft) O-SO 102 ° 0 min 0,000 mm 0,8 UV-I 62 W/m² 16,7 °C 21,3 °C 4,8 km/h (1 Bft)
16.08.2017 18:34 21,3 °C 21,3 °C 74 % 1017,7 hPa 0,0 mm 1,7 km/h (1 Bft) O-SO 102 ° 0 min 0,000 mm 0,8 UV-I 63 W/m² 16,5 °C 21,3 °C 3,2 km/h (1 Bft)
16.08.2017 18:35 21,3 °C 21,3 °C 73 % 1017,7 hPa 0,0 mm 0,6 km/h (0 Bft) O-SO 102 ° 0 min 0,000 mm 0,8 UV-I 63 W/m² 16,3 °C 21,3 °C 1,6 km/h (1 Bft)
16.08.2017 18:36 21,3 °C 21,3 °C 76 % 1017,7 hPa 0,0 mm 1,7 km/h (1 Bft) O-SO 102 ° 0 min 0,000 mm 0,8 UV-I 63 W/m² 16,9 °C 21,3 °C 4,8 km/h (1 Bft)
16.08.2017 18:37 21,2 °C 21,3 °C 77 % 1017,8 hPa 0,0 mm 1,9 km/h (1 Bft) O-SO 102 ° 0 min 0,000 mm 0,8 UV-I 65 W/m² 17,0 °C 21,2 °C 3,2 km/h (1 Bft)
16.08.2017 18:38 21,2 °C 21,2 °C 73 % 1017,7 hPa 0,0 mm 0,0 km/h (0 Bft) O-SO 102 ° 0 min 0,000 mm 0,8 UV-I 65 W/m² 16,2 °C 21,2 °C 0,0 km/h (0 Bft)
16.08.2017 18:39 21,2 °C 21,2 °C 74 % 1017,8 hPa 0,0 mm 0,0 km/h (0 Bft) O-SO 102 ° 0 min 0,000 mm 0,8 UV-I 63 W/m² 16,4 °C 21,2 °C 0,0 km/h (0 Bft)
16.08.2017 18:40 21,2 °C 21,2 °C 76 % 1017,7 hPa 0,0 mm 0,0 km/h (0 Bft) O-SO 102 ° 0 min 0,000 mm 0,7 UV-I 65 W/m² 16,8 °C 21,2 °C 0,0 km/h (0 Bft)
16.08.2017 18:41 21,2 °C 21,2 °C 76 % 1017,8 hPa 0,0 mm 0,0 km/h (0 Bft) O-SO 102 ° 0 min 0,000 mm 0,7 UV-I 67 W/m² 16,8 °C 21,2 °C 0,0 km/h (0 Bft)
16.08.2017 18:42 21,1 °C 21,2 °C 75 % 1017,7 hPa 0,0 mm 0,4 km/h (0 Bft) O-SO 102 ° 0 min 0,000 mm 0,7 UV-I 67 W/m² 16,5 °C 21,1 °C 1,6 km/h (1 Bft)
16.08.2017 18:43 21,1 °C 21,1 °C 75 % 1017,7 hPa 0,0 mm 0,0 km/h (0 Bft) O-SO 102 ° 0 min 0,000 mm 0,7 UV-I 70 W/m² 16,5 °C 21,1 °C 0,0 km/h (0 Bft)
16.08.2017 18:44 21,0 °C 21,1 °C 75 % 1017,7 hPa 0,0 mm 1,1 km/h (1 Bft) O-SO 102 ° 0 min 0,000 mm 0,7 UV-I 69 W/m² 16,4 °C 21,0 °C 3,2 km/h (1 Bft)
16.08.2017 18:45 21,0 °C 21,1 °C 74 % 1017,7 hPa 0,0 mm 0,7 km/h (0 Bft) O-SO 102 ° 0 min 0,000 mm 0,7 UV-I 67 W/m² 16,2 °C 21,0 °C 3,2 km/h (1 Bft)
16.08.2017 18:46 20,9 °C 21,0 °C 75 % 1017,7 hPa 0,0 mm 1,5 km/h (1 Bft) O-SO 102 ° 0 min 0,000 mm 0,7 UV-I 65 W/m² 16,3 °C 20,9 °C 3,2 km/h (1 Bft)
16.08.2017 18:47 20,9 °C 21,0 °C 75 % 1017,7 hPa 0,0 mm 0,7 km/h (0 Bft) O-SO 102 ° 0 min 0,000 mm 0,7 UV-I 65 W/m² 16,3 °C 20,9 °C 1,6 km/h (1 Bft)
16.08.2017 18:48 20,9 °C 20,9 °C 75 % 1017,7 hPa 0,0 mm 0,8 km/h (0 Bft) O-SO 102 ° 0 min 0,000 mm 0,7 UV-I 62 W/m² 16,3 °C 20,9 °C 1,6 km/h (1 Bft)
16.08.2017 18:49 20,9 °C 20,9 °C 76 % 1017,7 hPa 0,0 mm 0,0 km/h (0 Bft) O-SO 102 ° 0 min 0,000 mm 0,7 UV-I 62 W/m² 16,5 °C 20,9 °C 0,0 km/h (0 Bft)
16.08.2017 18:50 20,8 °C 20,9 °C 75 % 1017,7 hPa 0,0 mm 0,0 km/h (0 Bft) O-SO 102 ° 0 min 0,000 mm 0,7 UV-I 60 W/m² 16,2 °C 20,8 °C 0,0 km/h (0 Bft)
16.08.2017 18:51 20,8 °C 20,8 °C 75 % 1017,7 hPa 0,0 mm 0,5 km/h (0 Bft) O-SO 102 ° 0 min 0,000 mm 0,6 UV-I 58 W/m² 16,2 °C 20,8 °C 1,6 km/h (1 Bft)
16.08.2017 18:52 20,8 °C 20,9 °C 75 % 1017,7 hPa 0,0 mm 1,2 km/h (1 Bft) O-SO 102 ° 0 min 0,000 mm 0,6 UV-I 58 W/m² 16,2 °C 20,8 °C 3,2 km/h (1 Bft)
16.08.2017 18:53 20,8 °C 20,8 °C 76 % 1017,7 hPa 0,0 mm 1,6 km/h (1 Bft) O-SO 102 ° 0 min 0,000 mm 0,6 UV-I 58 W/m² 16,4 °C 20,8 °C 3,2 km/h (1 Bft)
16.08.2017 18:54 20,8 °C 20,8 °C 75 % 1017,7 hPa 0,0 mm 0,1 km/h (0 Bft) O-SO 102 ° 0 min 0,000 mm 0,6 UV-I 58 W/m² 16,2 °C 20,8 °C 1,6 km/h (1 Bft)
16.08.2017 18:55 20,7 °C 20,8 °C 76 % 1017,7 hPa 0,0 mm 0,5 km/h (0 Bft) O-SO 102 ° 0 min 0,000 mm 0,6 UV-I 56 W/m² 16,3 °C 20,7 °C 1,6 km/h (1 Bft)
16.08.2017 18:56 20,7 °C 20,7 °C 77 % 1017,8 hPa 0,0 mm 0,0 km/h (0 Bft) O-SO 102 ° 0 min 0,000 mm 0,6 UV-I 56 W/m² 16,5 °C 20,7 °C 0,0 km/h (0 Bft)
16.08.2017 18:57 20,7 °C 20,7 °C 76 % 1017,7 hPa 0,0 mm 0,1 km/h (0 Bft) O-SO 102 ° 0 min 0,000 mm 0,0 UV-I 54 W/m² 16,3 °C 20,7 °C 1,6 km/h (1 Bft)
16.08.2017 18:58 20,7 °C 20,7 °C 76 % 1017,7 hPa 0,0 mm 0,3 km/h (0 Bft) O-SO 102 ° 0 min 0,000 mm 0,0 UV-I 54 W/m² 16,3 °C 20,7 °C 1,6 km/h (1 Bft)
16.08.2017 18:59 20,7 °C 20,7 °C 76 % 1017,8 hPa 0,0 mm 1,8 km/h (1 Bft) O-SO 102 ° 0 min 0,000 mm 0,0 UV-I 54 W/m² 16,3 °C 20,7 °C 3,2 km/h (1 Bft)
16.08.2017 19:00 20,7 °C 20,7 °C 76 % 1017,8 hPa 0,0 mm 0,7 km/h (0 Bft) O-SO 102 ° 0 min 0,000 mm 0,0 UV-I 54 W/m² 16,3 °C 20,7 °C 1,6 km/h (1 Bft)
16.08.2017 19:01 20,7 °C 20,8 °C 77 % 1017,8 hPa 0,0 mm 0,9 km/h (0 Bft) O-SO 102 ° 0 min 0,051 mm 0,5 UV-I 56 W/m² 16,5 °C 20,7 °C 3,2 km/h (1 Bft)
16.08.2017 19:02 20,7 °C 20,7 °C 78 % 1017,8 hPa 0,0 mm 0,7 km/h (0 Bft) O-SO 102 ° 0 min 0,000 mm 0,5 UV-I 60 W/m² 16,7 °C 20,7 °C 1,6 km/h (1 Bft)
16.08.2017 19:03 20,7 °C 20,7 °C 79 % 1017,7 hPa 0,0 mm 1,4 km/h (1 Bft) O-SO 102 ° 0 min 0,000 mm 0,5 UV-I 65 W/m² 16,9 °C 20,7 °C 3,2 km/h (1 Bft)
16.08.2017 19:04 20,6 °C 20,7 °C 77 % 1017,8 hPa 0,0 mm 1,8 km/h (1 Bft) O-SO 102 ° 0 min 0,000 mm 0,5 UV-I 67 W/m² 16,4 °C 20,6 °C 3,2 km/h (1 Bft)
16.08.2017 19:05 20,6 °C 20,6 °C 78 % 1017,8 hPa 0,0 mm 1,2 km/h (1 Bft) O-SO 102 ° 0 min 0,000 mm 0,5 UV-I 67 W/m² 16,6 °C 20,6 °C 3,2 km/h (1 Bft)
16.08.2017 19:06 20,6 °C 20,6 °C 77 % 1017,8 hPa 0,0 mm 2,2 km/h (1 Bft) O-SO 102 ° 0 min 0,000 mm 0,5 UV-I 54 W/m² 16,4 °C 20,6 °C 3,2 km/h (1 Bft)
16.08.2017 19:07 20,5 °C 20,6 °C 78 % 1017,7 hPa 0,0 mm 0,5 km/h (0 Bft) O-SO 102 ° 0 min 0,000 mm 0,0 UV-I 54 W/m² 16,5 °C 20,5 °C 1,6 km/h (1 Bft)
16.08.2017 19:08 20,5 °C 20,5 °C 78 % 1017,7 hPa 0,0 mm 1,7 km/h (1 Bft) O-SO 102 ° 0 min 0,000 mm 0,0 UV-I 53 W/m² 16,5 °C 20,5 °C 3,2 km/h (1 Bft)
16.08.2017 19:09 20,5 °C 20,5 °C 77 % 1017,7 hPa 0,0 mm 0,0 km/h (0 Bft) O-SO 102 ° 0 min 0,000 mm 0,0 UV-I 51 W/m² 16,3 °C 20,5 °C 0,0 km/h (0 Bft)
16.08.2017 19:10 20,4 °C 20,5 °C 77 % 1017,7 hPa 0,0 mm 0,0 km/h (0 Bft) O-SO 102 ° 0 min 0,000 mm 0,0 UV-I 49 W/m² 16,2 °C 20,4 °C 0,0 km/h (0 Bft)
16.08.2017 19:11 20,4 °C 20,5 °C 78 % 1017,7 hPa 0,0 mm 0,0 km/h (0 Bft) O-SO 102 ° 0 min 0,000 mm 0,0 UV-I 49 W/m² 16,4 °C 20,4 °C 0,0 km/h (0 Bft)
16.08.2017 19:12 20,4 °C 20,4 °C 79 % 1017,8 hPa 0,0 mm 0,0 km/h (0 Bft) O-SO 102 ° 0 min 0,000 mm 0,0 UV-I 51 W/m² 16,6 °C 20,4 °C 0,0 km/h (0 Bft)
16.08.2017 19:13 20,4 °C 20,4 °C 78 % 1017,8 hPa 0,0 mm 0,0 km/h (0 Bft) O-SO 102 ° 0 min 0,000 mm 0,0 UV-I 51 W/m² 16,4 °C 20,4 °C 0,0 km/h (0 Bft)
16.08.2017 19:14 20,4 °C 20,4 °C 78 % 1017,8 hPa 0,0 mm 0,0 km/h (0 Bft) O-SO 102 ° 0 min 0,000 mm 0,0 UV-I 51 W/m² 16,4 °C 20,4 °C 0,0 km/h (0 Bft)
16.08.2017 19:15 20,3 °C 20,4 °C 80 % 1017,8 hPa 0,0 mm 0,0 km/h (0 Bft) O-SO 102 ° 0 min 0,000 mm 0,0 UV-I 51 W/m² 16,7 °C 20,3 °C 0,0 km/h (0 Bft)
16.08.2017 19:16 20,3 °C 20,3 °C 80 % 1017,8 hPa 0,0 mm 0,0 km/h (0 Bft) O-SO 102 ° 0 min 0,000 mm 0,0 UV-I 51 W/m² 16,7 °C 20,3 °C 0,0 km/h (0 Bft)
16.08.2017 19:17 20,2 °C 20,3 °C 79 % 1017,8 hPa 0,0 mm 0,0 km/h (0 Bft) O-SO 102 ° 0 min 0,000 mm 0,0 UV-I 53 W/m² 16,4 °C 20,2 °C 0,0 km/h (0 Bft)
16.08.2017 19:18 20,2 °C 20,3 °C 80 % 1017,7 hPa 0,0 mm 0,0 km/h (0 Bft) O-SO 102 ° 0 min 0,000 mm 0,0 UV-I 54 W/m² 16,6 °C 20,2 °C 0,0 km/h (0 Bft)
16.08.2017 19:19 20,2 °C 20,2 °C 79 % 1017,8 hPa 0,0 mm 0,1 km/h (0 Bft) O-SO 102 ° 0 min 0,000 mm 0,0 UV-I 56 W/m² 16,4 °C 20,2 °C 1,6 km/h (1 Bft)
16.08.2017 19:20 20,2 °C 20,2 °C 81 % 1017,8 hPa 0,0 mm 0,0 km/h (0 Bft) O-SO 102 ° 0 min 0,000 mm 0,0 UV-I 58 W/m² 16,8 °C 20,2 °C 0,0 km/h (0 Bft)
16.08.2017 19:21 20,2 °C 20,2 °C 80 % 1017,8 hPa 0,0 mm 0,0 km/h (0 Bft) O-SO 102 ° 0 min 0,000 mm 0,0 UV-I 56 W/m² 16,6 °C 20,2 °C 0,0 km/h (0 Bft)
16.08.2017 19:22 20,1 °C 20,2 °C 80 % 1017,8 hPa 0,0 mm 0,0 km/h (0 Bft) O-SO 102 ° 0 min 0,000 mm 0,0 UV-I 54 W/m² 16,5 °C 20,1 °C 0,0 km/h (0 Bft)
16.08.2017 19:23 20,1 °C 20,2 °C 80 % 1017,8 hPa 0,0 mm 0,0 km/h (0 Bft) O-SO 102 ° 0 min 0,000 mm 0,0 UV-I 53 W/m² 16,5 °C 20,1 °C 0,0 km/h (0 Bft)
16.08.2017 19:24 20,1 °C 20,1 °C 81 % 1017,8 hPa 0,0 mm 0,0 km/h (0 Bft) O-SO 102 ° 0 min 0,000 mm 0,0 UV-I 53 W/m² 16,7 °C 20,1 °C 0,0 km/h (0 Bft)
16.08.2017 19:25 20,1 °C 20,2 °C 80 % 1017,8 hPa 0,0 mm 0,0 km/h (0 Bft) O-SO 102 ° 0 min 0,000 mm 0,0 UV-I 51 W/m² 16,5 °C 20,1 °C 0,0 km/h (0 Bft)
16.08.2017 19:26 20,1 °C 20,1 °C 81 % 1017,8 hPa 0,0 mm 0,0 km/h (0 Bft) O-SO 102 ° 0 min 0,000 mm 0,0 UV-I 51 W/m² 16,7 °C 20,1 °C 0,0 km/h (0 Bft)
16.08.2017 19:27 20,1 °C 20,1 °C 82 % 1017,8 hPa 0,0 mm 0,0 km/h (0 Bft) O-SO 102 ° 0 min 0,000 mm 0,0 UV-I 49 W/m² 16,9 °C 20,1 °C 0,0 km/h (0 Bft)
16.08.2017 19:28 20,1 °C 20,1 °C 81 % 1017,8 hPa 0,0 mm 0,0 km/h (0 Bft) O-SO 102 ° 0 min 0,000 mm 0,0 UV-I 49 W/m² 16,7 °C 20,1 °C 0,0 km/h (0 Bft)
16.08.2017 19:29 20,0 °C 20,1 °C 82 % 1017,9 hPa 0,0 mm 0,1 km/h (0 Bft) O-SO 102 ° 0 min 0,000 mm 0,0 UV-I 47 W/m² 16,8 °C 20,0 °C 1,6 km/h (1 Bft)
16.08.2017 19:30 20,0 °C 20,0 °C 81 % 1017,8 hPa 0,0 mm 0,0 km/h (0 Bft) O-SO 102 ° 0 min 0,000 mm 0,0 UV-I 47 W/m² 16,6 °C 20,0 °C 0,0 km/h (0 Bft)
16.08.2017 19:31 19,9 °C 20,0 °C 82 % 1017,9 hPa 0,0 mm 0,0 km/h (0 Bft) O-SO 102 ° 0 min 0,000 mm 0,0 UV-I 46 W/m² 16,7 °C 19,9 °C 0,0 km/h (0 Bft)
16.08.2017 19:32 19,8 °C 19,9 °C 82 % 1017,9 hPa 0,0 mm 0,0 km/h (0 Bft) O-SO 102 ° 0 min 0,000 mm 0,0 UV-I 46 W/m² 16,6 °C 19,8 °C 0,0 km/h (0 Bft)
16.08.2017 19:33 19,8 °C 19,8 °C 83 % 1017,9 hPa 0,0 mm 0,0 km/h (0 Bft) O-SO 102 ° 0 min 0,000 mm 0,0 UV-I 46 W/m² 16,8 °C 19,8 °C 0,0 km/h (0 Bft)
16.08.2017 19:34 19,7 °C 19,8 °C 83 % 1017,9 hPa 0,0 mm 0,0 km/h (0 Bft) O-SO 102 ° 0 min 0,000 mm 0,0 UV-I 44 W/m² 16,7 °C 19,7 °C 0,0 km/h (0 Bft)
16.08.2017 19:35 19,7 °C 19,7 °C 83 % 1017,8 hPa 0,0 mm 0,0 km/h (0 Bft) O-SO 102 ° 0 min 0,000 mm 0,0 UV-I 42 W/m² 16,7 °C 19,7 °C 0,0 km/h (0 Bft)
16.08.2017 19:36 19,7 °C 19,7 °C 82 % 1017,9 hPa 0,0 mm 0,0 km/h (0 Bft) O-SO 102 ° 0 min 0,000 mm 0,0 UV-I 40 W/m² 16,5 °C 19,7 °C 0,0 km/h (0 Bft)
16.08.2017 19:37 19,6 °C 19,7 °C 83 % 1017,8 hPa 0,0 mm 0,0 km/h (0 Bft) O-SO 102 ° 0 min 0,000 mm 0,0 UV-I 40 W/m² 16,6 °C 19,6 °C 0,0 km/h (0 Bft)
16.08.2017 19:38 19,6 °C 19,6 °C 82 % 1017,9 hPa 0,0 mm 0,0 km/h (0 Bft) O-SO 102 ° 0 min 0,000 mm 0,0 UV-I 39 W/m² 16,4 °C 19,6 °C 0,0 km/h (0 Bft)
16.08.2017 19:39 19,6 °C 19,6 °C 82 % 1017,9 hPa 0,0 mm 0,0 km/h (0 Bft) O-SO 102 ° 0 min 0,000 mm 0,0 UV-I 37 W/m² 16,4 °C 19,6 °C 0,0 km/h (0 Bft)
16.08.2017 19:40 19,6 °C 19,6 °C 82 % 1017,9 hPa 0,0 mm 0,0 km/h (0 Bft) O-SO 102 ° 0 min 0,000 mm 0,0 UV-I 37 W/m² 16,4 °C 19,6 °C 0,0 km/h (0 Bft)
16.08.2017 19:41 19,6 °C 19,6 °C 82 % 1017,8 hPa 0,0 mm 0,0 km/h (0 Bft) O-SO 102 ° 0 min 0,000 mm 0,0 UV-I 35 W/m² 16,4 °C 19,6 °C 0,0 km/h (0 Bft)
16.08.2017 19:42 19,6 °C 19,6 °C 82 % 1017,9 hPa 0,0 mm 0,0 km/h (0 Bft) O-SO 102 ° 0 min 0,000 mm 0,0 UV-I 33 W/m² 16,4 °C 19,6 °C 0,0 km/h (0 Bft)
16.08.2017 19:43 19,5 °C 19,6 °C 83 % 1017,8 hPa 0,0 mm 0,0 km/h (0 Bft) O-SO 102 ° 0 min 0,000 mm 0,0 UV-I 33 W/m² 16,5 °C 19,5 °C 0,0 km/h (0 Bft)
16.08.2017 19:44 19,4 °C 19,5 °C 83 % 1017,8 hPa 0,0 mm 0,0 km/h (0 Bft) O-SO 102 ° 0 min 0,000 mm 0,0 UV-I 32 W/m² 16,4 °C 19,4 °C 0,0 km/h (0 Bft)
16.08.2017 19:45 19,4 °C 19,4 °C 83 % 1017,8 hPa 0,0 mm 0,0 km/h (0 Bft) O-SO 102 ° 0 min 0,000 mm 0,0 UV-I 32 W/m² 16,4 °C 19,4 °C 0,0 km/h (0 Bft)
16.08.2017 19:46 19,4 °C 19,4 °C 83 % 1017,9 hPa 0,0 mm 0,1 km/h (0 Bft) O-SO 102 ° 0 min 0,000 mm 0,0 UV-I 30 W/m² 16,4 °C 19,4 °C 1,6 km/h (1 Bft)
16.08.2017 19:47 19,4 °C 19,4 °C 83 % 1017,9 hPa 0,0 mm 0,0 km/h (0 Bft) O-SO 102 ° 0 min 0,000 mm 0,0 UV-I 28 W/m² 16,4 °C 19,4 °C 0,0 km/h (0 Bft)
16.08.2017 19:48 19,3 °C 19,4 °C 83 % 1017,8 hPa 0,0 mm 0,0 km/h (0 Bft) O-SO 102 ° 0 min 0,000 mm 0,0 UV-I 28 W/m² 16,3 °C 19,3 °C 0,0 km/h (0 Bft)
16.08.2017 19:49 19,3 °C 19,3 °C 83 % 1017,9 hPa 0,0 mm 0,0 km/h (0 Bft) O-SO 102 ° 0 min 0,000 mm 0,0 UV-I 26 W/m² 16,3 °C 19,3 °C 0,0 km/h (0 Bft)
16.08.2017 19:50 19,2 °C 19,3 °C 84 % 1017,9 hPa 0,0 mm 0,0 km/h (0 Bft) O-SO 102 ° 0 min 0,000 mm 0,0 UV-I 26 W/m² 16,4 °C 19,2 °C 0,0 km/h (0 Bft)
16.08.2017 19:51 19,2 °C 19,2 °C 84 % 1017,9 hPa 0,0 mm 0,0 km/h (0 Bft) O-SO 102 ° 0 min 0,000 mm 0,0 UV-I 26 W/m² 16,4 °C 19,2 °C 0,0 km/h (0 Bft)
16.08.2017 19:52 19,2 °C 19,2 °C 84 % 1017,9 hPa 0,0 mm 0,0 km/h (0 Bft) O-SO 102 ° 0 min 0,000 mm 0,0 UV-I 25 W/m² 16,4 °C 19,2 °C 0,0 km/h (0 Bft)
16.08.2017 19:53 19,2 °C 19,2 °C 84 % 1017,8 hPa 0,0 mm 0,0 km/h (0 Bft) O-SO 102 ° 0 min 0,000 mm 0,0 UV-I 23 W/m² 16,4 °C 19,2 °C 0,0 km/h (0 Bft)
16.08.2017 19:54 19,1 °C 19,2 °C 84 % 1017,8 hPa 0,0 mm 0,0 km/h (0 Bft) O-SO 102 ° 0 min 0,000 mm 0,0 UV-I 23 W/m² 16,3 °C 19,1 °C 0,0 km/h (0 Bft)
16.08.2017 19:55 19,1 °C 19,1 °C 84 % 1017,9 hPa 0,0 mm 0,0 km/h (0 Bft) O-SO 102 ° 0 min 0,000 mm 0,0 UV-I 21 W/m² 16,3 °C 19,1 °C 0,0 km/h (0 Bft)
16.08.2017 19:56 19,1 °C 19,1 °C 84 % 1017,9 hPa 0,0 mm 0,0 km/h (0 Bft) O-SO 102 ° 0 min 0,000 mm 0,0 UV-I 21 W/m² 16,3 °C 19,1 °C 0,0 km/h (0 Bft)
16.08.2017 19:57 19,0 °C 19,1 °C 84 % 1017,9 hPa 0,0 mm 0,0 km/h (0 Bft) O-SO 102 ° 0 min 0,000 mm 0,0 UV-I 21 W/m² 16,2 °C 19,0 °C 0,0 km/h (0 Bft)
16.08.2017 19:58 19,0 °C 19,1 °C 84 % 1017,9 hPa 0,0 mm 0,0 km/h (0 Bft) O-SO 102 ° 0 min 0,000 mm 0,0 UV-I 19 W/m² 16,2 °C 19,0 °C 0,0 km/h (0 Bft)
16.08.2017 19:59 18,9 °C 19,0 °C 84 % 1017,9 hPa 0,0 mm 0,0 km/h (0 Bft) O-SO 102 ° 0 min 0,000 mm 0,0 UV-I 18 W/m² 16,1 °C 18,9 °C 0,0 km/h (0 Bft)
16.08.2017 20:00 18,8 °C 18,9 °C 84 % 1017,9 hPa 0,0 mm 0,0 km/h (0 Bft) O-SO 102 ° 0 min 0,000 mm 0,0 UV-I 18 W/m² 16,0 °C 18,8 °C 0,0 km/h (0 Bft)
16.08.2017 20:01 18,8 °C 18,8 °C 84 % 1017,9 hPa 0,0 mm 0,0 km/h (0 Bft) O-SO 102 ° 0 min 0,025 mm 0,0 UV-I 18 W/m² 16,0 °C 18,8 °C 0,0 km/h (0 Bft)
16.08.2017 20:02 18,7 °C 18,8 °C 85 % 1017,9 hPa 0,0 mm 0,0 km/h (0 Bft) O-SO 102 ° 0 min 0,000 mm 0,0 UV-I 16 W/m² 16,1 °C 18,7 °C 0,0 km/h (0 Bft)
16.08.2017 20:03 18,7 °C 18,7 °C 85 % 1017,8 hPa 0,0 mm 0,0 km/h (0 Bft) O-SO 102 ° 0 min 0,000 mm 0,0 UV-I 16 W/m² 16,1 °C 18,7 °C 0,0 km/h (0 Bft)
16.08.2017 20:04 18,7 °C 18,7 °C 85 % 1017,9 hPa 0,0 mm 0,0 km/h (0 Bft) O-SO 102 ° 0 min 0,000 mm 0,0 UV-I 16 W/m² 16,1 °C 18,7 °C 0,0 km/h (0 Bft)
16.08.2017 20:05 18,6 °C 18,7 °C 85 % 1017,9 hPa 0,0 mm 0,0 km/h (0 Bft) O-SO 102 ° 0 min 0,000 mm 0,0 UV-I 14 W/m² 16,0 °C 18,6 °C 0,0 km/h (0 Bft)
16.08.2017 20:06 18,6 °C 18,6 °C 85 % 1017,9 hPa 0,0 mm 0,0 km/h (0 Bft) O-SO 102 ° 0 min 0,000 mm 0,0 UV-I 14 W/m² 16,0 °C 18,6 °C 0,0 km/h (0 Bft)
16.08.2017 20:07 18,4 °C 18,6 °C 85 % 1017,9 hPa 0,0 mm 0,0 km/h (0 Bft) O-SO 102 ° 0 min 0,000 mm 0,0 UV-I 12 W/m² 15,8 °C 18,4 °C 0,0 km/h (0 Bft)
16.08.2017 20:08 18,4 °C 18,4 °C 85 % 1017,9 hPa 0,0 mm 0,0 km/h (0 Bft) O-SO 102 ° 0 min 0,000 mm 0,0 UV-I 12 W/m² 15,8 °C 18,4 °C 0,0 km/h (0 Bft)
16.08.2017 20:09 18,4 °C 18,4 °C 85 % 1017,9 hPa 0,0 mm 0,0 km/h (0 Bft) O-SO 102 ° 0 min 0,000 mm 0,0 UV-I 12 W/m² 15,8 °C 18,4 °C 0,0 km/h (0 Bft)
16.08.2017 20:10 18,3 °C 18,4 °C 85 % 1017,9 hPa 0,0 mm 0,1 km/h (0 Bft) O-SO 102 ° 0 min 0,000 mm 0,0 UV-I 11 W/m² 15,7 °C 18,3 °C 1,6 km/h (1 Bft)
16.08.2017 20:11 18,3 °C 18,3 °C 85 % 1017,9 hPa 0,0 mm 0,0 km/h (0 Bft) O-SO 102 ° 0 min 0,000 mm 0,0 UV-I 11 W/m² 15,7 °C 18,3 °C 0,0 km/h (0 Bft)
16.08.2017 20:12 18,3 °C 18,3 °C 85 % 1017,9 hPa 0,0 mm 0,0 km/h (0 Bft) O-SO 102 ° 0 min 0,000 mm 0,0 UV-I 9 W/m² 15,7 °C 18,3 °C 0,0 km/h (0 Bft)
16.08.2017 20:13 18,3 °C 18,3 °C 85 % 1017,9 hPa 0,0 mm 0,0 km/h (0 Bft) O-SO 102 ° 0 min 0,000 mm 0,0 UV-I 9 W/m² 15,7 °C 18,3 °C 0,0 km/h (0 Bft)
16.08.2017 20:14 18,3 °C 18,3 °C 85 % 1017,9 hPa 0,0 mm 0,0 km/h (0 Bft) O-SO 102 ° 0 min 0,000 mm 0,0 UV-I 9 W/m² 15,7 °C 18,3 °C 0,0 km/h (0 Bft)
16.08.2017 20:15 18,3 °C 18,3 °C 85 % 1018,0 hPa 0,0 mm 0,0 km/h (0 Bft) O-SO 102 ° 0 min 0,000 mm 0,0 UV-I 7 W/m² 15,7 °C 18,3 °C 0,0 km/h (0 Bft)
16.08.2017 20:16 18,3 °C 18,3 °C 85 % 1018,0 hPa 0,0 mm 0,0 km/h (0 Bft) O-SO 102 ° 0 min 0,000 mm 0,0 UV-I 7 W/m² 15,7 °C 18,3 °C 0,0 km/h (0 Bft)
16.08.2017 20:17 18,2 °C 18,3 °C 85 % 1018,0 hPa 0,0 mm 0,0 km/h (0 Bft) O-SO 102 ° 0 min 0,000 mm 0,0 UV-I 5 W/m² 15,6 °C 18,2 °C 0,0 km/h (0 Bft)
16.08.2017 20:18 18,1 °C 18,2 °C 85 % 1018,0 hPa 0,0 mm 0,1 km/h (0 Bft) O-SO 102 ° 0 min 0,000 mm 0,0 UV-I 5 W/m² 15,5 °C 18,1 °C 1,6 km/h (1 Bft)
16.08.2017 20:19 18,1 °C 18,2 °C 85 % 1018,0 hPa 0,0 mm 0,0 km/h (0 Bft) O-SO 102 ° 0 min 0,000 mm 0,0 UV-I 5 W/m² 15,5 °C 18,1 °C 0,0 km/h (0 Bft)
16.08.2017 20:20 17,9 °C 18,1 °C 86 % 1018,1 hPa 0,0 mm 0,0 km/h (0 Bft) O-SO 102 ° 0 min 0,000 mm 0,0 UV-I 5 W/m² 15,5 °C 17,9 °C 0,0 km/h (0 Bft)
16.08.2017 20:21 17,8 °C 17,9 °C 86 % 1018,1 hPa 0,0 mm 0,0 km/h (0 Bft) O-SO 102 ° 0 min 0,000 mm 0,0 UV-I 5 W/m² 15,4 °C 17,8 °C 0,0 km/h (0 Bft)
16.08.2017 20:22 17,7 °C 17,8 °C 87 % 1018,1 hPa 0,0 mm 0,0 km/h (0 Bft) O-SO 102 ° 0 min 0,000 mm 0,0 UV-I 0 W/m² 15,5 °C 17,7 °C 0,0 km/h (0 Bft)
16.08.2017 20:23 17,6 °C 17,7 °C 87 % 1018,1 hPa 0,0 mm 0,0 km/h (0 Bft) O-SO 102 ° 0 min 0,000 mm 0,0 UV-I 0 W/m² 15,4 °C 17,6 °C 0,0 km/h (0 Bft)
16.08.2017 20:24 17,4 °C 17,6 °C 88 % 1018,1 hPa 0,0 mm 0,0 km/h (0 Bft) O-SO 102 ° 0 min 0,000 mm 0,0 UV-I 0 W/m² 15,4 °C 17,4 °C 0,0 km/h (0 Bft)
16.08.2017 20:25 17,4 °C 17,4 °C 89 % 1018,1 hPa 0,0 mm 0,0 km/h (0 Bft) O-SO 102 ° 0 min 0,000 mm 0,0 UV-I 0 W/m² 15,6 °C 17,4 °C 0,0 km/h (0 Bft)
16.08.2017 20:26 17,4 °C 17,4 °C 89 % 1018,1 hPa 0,0 mm 0,0 km/h (0 Bft) O-SO 102 ° 0 min 0,000 mm 0,0 UV-I 0 W/m² 15,6 °C 17,4 °C 0,0 km/h (0 Bft)
16.08.2017 20:27 17,4 °C 17,4 °C 89 % 1018,1 hPa 0,0 mm 0,0 km/h (0 Bft) O-SO 102 ° 0 min 0,000 mm 0,0 UV-I 0 W/m² 15,6 °C 17,4 °C 0,0 km/h (0 Bft)
16.08.2017 20:28 17,5 °C 17,5 °C 88 % 1018,1 hPa 0,0 mm 0,0 km/h (0 Bft) O-SO 102 ° 0 min 0,000 mm 0,0 UV-I 0 W/m² 15,5 °C 17,5 °C 0,0 km/h (0 Bft)
16.08.2017 20:29 17,6 °C 17,6 °C 88 % 1018,1 hPa 0,0 mm 0,0 km/h (0 Bft) O-SO 102 ° 0 min 0,000 mm 0,0 UV-I 0 W/m² 15,6 °C 17,6 °C 0,0 km/h (0 Bft)
16.08.2017 20:30 17,6 °C 17,6 °C 88 % 1018,0 hPa 0,0 mm 0,0 km/h (0 Bft) O-SO 102 ° 0 min 0,000 mm 0,0 UV-I 0 W/m² 15,6 °C 17,6 °C 0,0 km/h (0 Bft)
16.08.2017 20:31 17,6 °C 17,6 °C 87 % 1018,1 hPa 0,0 mm 0,0 km/h (0 Bft) O-SO 102 ° 0 min 0,000 mm 0,0 UV-I 0 W/m² 15,4 °C 17,6 °C 0,0 km/h (0 Bft)
16.08.2017 20:32 17,6 °C 17,6 °C 87 % 1018,1 hPa 0,0 mm 0,0 km/h (0 Bft) O-SO 102 ° 0 min 0,000 mm 0,0 UV-I 0 W/m² 15,4 °C 17,6 °C 0,0 km/h (0 Bft)
16.08.2017 20:33 17,5 °C 17,6 °C 87 % 1018,1 hPa 0,0 mm 1,7 km/h (1 Bft) O-SO 102 ° 0 min 0,000 mm 0,0 UV-I 0 W/m² 15,3 °C 17,5 °C 4,8 km/h (1 Bft)
16.08.2017 20:34 17,4 °C 17,5 °C 87 % 1018,0 hPa 0,0 mm 1,4 km/h (1 Bft) O-SO 102 ° 0 min 0,000 mm 0,0 UV-I 0 W/m² 15,2 °C 17,4 °C 3,2 km/h (1 Bft)
16.08.2017 20:35 17,4 °C 17,4 °C 87 % 1018,1 hPa 0,0 mm 0,0 km/h (0 Bft) O-SO 102 ° 0 min 0,000 mm 0,0 UV-I 0 W/m² 15,2 °C 17,4 °C 0,0 km/h (0 Bft)
16.08.2017 20:36 17,4 °C 17,4 °C 87 % 1018,1 hPa 0,0 mm 1,1 km/h (1 Bft) O-SO 102 ° 0 min 0,000 mm 0,0 UV-I 0 W/m² 15,2 °C 17,4 °C 3,2 km/h (1 Bft)
16.08.2017 20:37 17,4 °C 17,4 °C 88 % 1018,0 hPa 0,0 mm 3,2 km/h (1 Bft) O-SO 102 ° 0 min 0,000 mm 0,0 UV-I 0 W/m² 15,4 °C 17,4 °C 4,8 km/h (1 Bft)
16.08.2017 20:38 17,4 °C 17,4 °C 88 % 1018,1 hPa 0,0 mm 1,9 km/h (1 Bft) O-SO 102 ° 0 min 0,000 mm 0,0 UV-I 0 W/m² 15,4 °C 17,4 °C 3,2 km/h (1 Bft)
16.08.2017 20:39 17,5 °C 17,5 °C 88 % 1018,1 hPa 0,0 mm 1,3 km/h (1 Bft) O-SO 102 ° 0 min 0,000 mm 0,0 UV-I 0 W/m² 15,5 °C 17,5 °C 1,6 km/h (1 Bft)
16.08.2017 20:40 17,5 °C 17,5 °C 88 % 1018,0 hPa 0,0 mm 0,9 km/h (0 Bft) O-SO 102 ° 0 min 0,000 mm 0,0 UV-I 0 W/m² 15,5 °C 17,5 °C 1,6 km/h (1 Bft)
16.08.2017 20:41 17,5 °C 17,5 °C 88 % 1018,1 hPa 0,0 mm 1,5 km/h (1 Bft) O-SO 102 ° 0 min 0,000 mm 0,0 UV-I 0 W/m² 15,5 °C 17,5 °C 3,2 km/h (1 Bft)
16.08.2017 20:42 17,5 °C 17,5 °C 88 % 1018,2 hPa 0,0 mm 2,7 km/h (1 Bft) O-SO 102 ° 0 min 0,000 mm 0,0 UV-I 0 W/m² 15,5 °C 17,5 °C 4,8 km/h (1 Bft)
16.08.2017 20:43 17,5 °C 17,5 °C 88 % 1018,2 hPa 0,0 mm 0,6 km/h (0 Bft) O-SO 102 ° 0 min 0,000 mm 0,0 UV-I 0 W/m² 15,5 °C 17,5 °C 3,2 km/h (1 Bft)
16.08.2017 20:44 17,5 °C 17,5 °C 88 % 1018,2 hPa 0,0 mm 0,8 km/h (0 Bft) O-SO 102 ° 0 min 0,000 mm 0,0 UV-I 0 W/m² 15,5 °C 17,5 °C 1,6 km/h (1 Bft)
16.08.2017 20:45 17,5 °C 17,5 °C 88 % 1018,2 hPa 0,0 mm 1,0 km/h (0 Bft) O-SO 102 ° 0 min 0,000 mm 0,0 UV-I 0 W/m² 15,5 °C 17,5 °C 3,2 km/h (1 Bft)
16.08.2017 20:46 17,3 °C 17,5 °C 87 % 1018,2 hPa 0,0 mm 0,0 km/h (0 Bft) O-SO 102 ° 0 min 0,000 mm 0,0 UV-I 0 W/m² 15,1 °C 17,3 °C 0,0 km/h (0 Bft)
16.08.2017 20:47 17,3 °C 17,3 °C 88 % 1018,2 hPa 0,0 mm 0,0 km/h (0 Bft) O-SO 102 ° 0 min 0,000 mm 0,0 UV-I 0 W/m² 15,3 °C 17,3 °C 0,0 km/h (0 Bft)
16.08.2017 20:48 17,2 °C 17,3 °C 88 % 1018,2 hPa 0,0 mm 0,0 km/h (0 Bft) O-SO 102 ° 0 min 0,000 mm 0,0 UV-I 0 W/m² 15,2 °C 17,2 °C 0,0 km/h (0 Bft)
16.08.2017 20:49 17,0 °C 17,2 °C 89 % 1018,2 hPa 0,0 mm 0,0 km/h (0 Bft) O-SO 102 ° 0 min 0,000 mm 0,0 UV-I 0 W/m² 15,2 °C 17,0 °C 0,0 km/h (0 Bft)
16.08.2017 20:50 16,9 °C 17,0 °C 89 % 1018,3 hPa 0,0 mm 0,0 km/h (0 Bft) O-SO 102 ° 0 min 0,000 mm 0,0 UV-I 0 W/m² 15,1 °C 16,9 °C 0,0 km/h (0 Bft)
16.08.2017 20:51 16,9 °C 16,9 °C 90 % 1018,3 hPa 0,0 mm 0,0 km/h (0 Bft) O-SO 102 ° 0 min 0,000 mm 0,0 UV-I 0 W/m² 15,2 °C 16,9 °C 0,0 km/h (0 Bft)
16.08.2017 20:52 16,9 °C 16,9 °C 90 % 1018,3 hPa 0,0 mm 0,0 km/h (0 Bft) O-SO 102 ° 0 min 0,000 mm 0,0 UV-I 0 W/m² 15,2 °C 16,9 °C 0,0 km/h (0 Bft)
16.08.2017 20:53 16,9 °C 16,9 °C 90 % 1018,3 hPa 0,0 mm 0,0 km/h (0 Bft) O-SO 102 ° 0 min 0,000 mm 0,0 UV-I 0 W/m² 15,2 °C 16,9 °C 0,0 km/h (0 Bft)
16.08.2017 20:54 17,0 °C 17,0 °C 90 % 1018,4 hPa 0,0 mm 0,0 km/h (0 Bft) O-SO 102 ° 0 min 0,000 mm 0,0 UV-I 0 W/m² 15,3 °C 17,0 °C 0,0 km/h (0 Bft)
16.08.2017 20:55 17,0 °C 17,0 °C 90 % 1018,4 hPa 0,0 mm 0,0 km/h (0 Bft) O-SO 102 ° 0 min 0,000 mm 0,0 UV-I 0 W/m² 15,3 °C 17,0 °C 0,0 km/h (0 Bft)
16.08.2017 20:56 16,9 °C 17,0 °C 90 % 1018,4 hPa 0,0 mm 0,0 km/h (0 Bft) O-SO 102 ° 0 min 0,000 mm 0,0 UV-I 0 W/m² 15,2 °C 16,9 °C 0,0 km/h (0 Bft)
16.08.2017 20:57 16,9 °C 16,9 °C 89 % 1018,4 hPa 0,0 mm 0,0 km/h (0 Bft) O-SO 102 ° 0 min 0,000 mm 0,0 UV-I 0 W/m² 15,1 °C 16,9 °C 0,0 km/h (0 Bft)
16.08.2017 20:58 16,8 °C 16,9 °C 89 % 1018,4 hPa 0,0 mm 0,0 km/h (0 Bft) O-SO 102 ° 0 min 0,000 mm 0,0 UV-I 0 W/m² 15,0 °C 16,8 °C 0,0 km/h (0 Bft)
16.08.2017 20:59 16,8 °C 16,8 °C 90 % 1018,4 hPa 0,0 mm 0,0 km/h (0 Bft) O-SO 102 ° 0 min 0,000 mm 0,0 UV-I 0 W/m² 15,1 °C 16,8 °C 0,0 km/h (0 Bft)
16.08.2017 21:00 16,8 °C 16,8 °C 90 % 1018,4 hPa 0,0 mm 0,0 km/h (0 Bft) O-SO 102 ° 0 min 0,000 mm 0,0 UV-I 0 W/m² 15,1 °C 16,8 °C 0,0 km/h (0 Bft)
16.08.2017 21:01 16,8 °C 16,8 °C 89 % 1018,4 hPa 0,0 mm 0,0 km/h (0 Bft) O-SO 102 ° 0 min 0,000 mm 0,0 UV-I 0 W/m² 15,0 °C 16,8 °C 0,0 km/h (0 Bft)
16.08.2017 21:02 16,8 °C 16,8 °C 90 % 1018,5 hPa 0,0 mm 0,0 km/h (0 Bft) O-SO 102 ° 0 min 0,000 mm 0,0 UV-I 0 W/m² 15,1 °C 16,8 °C 0,0 km/h (0 Bft)
16.08.2017 21:03 16,7 °C 16,8 °C 90 % 1018,5 hPa 0,0 mm 0,0 km/h (0 Bft) O-SO 102 ° 0 min 0,000 mm 0,0 UV-I 0 W/m² 15,0 °C 16,7 °C 0,0 km/h (0 Bft)
16.08.2017 21:04 16,6 °C 16,7 °C 90 % 1018,5 hPa 0,0 mm 0,0 km/h (0 Bft) O-SO 102 ° 0 min 0,000 mm 0,0 UV-I 0 W/m² 15,0 °C 16,6 °C 0,0 km/h (0 Bft)
16.08.2017 21:05 16,4 °C 16,6 °C 90 % 1018,5 hPa 0,0 mm 0,0 km/h (0 Bft) O-SO 102 ° 0 min 0,000 mm 0,0 UV-I 0 W/m² 14,8 °C 16,4 °C 0,0 km/h (0 Bft)
16.08.2017 21:06 16,4 °C 16,4 °C 90 % 1018,5 hPa 0,0 mm 0,0 km/h (0 Bft) O-SO 102 ° 0 min 0,000 mm 0,0 UV-I 0 W/m² 14,8 °C 16,4 °C 0,0 km/h (0 Bft)
16.08.2017 21:07 16,4 °C 16,4 °C 91 % 1018,5 hPa 0,0 mm 0,0 km/h (0 Bft) O-SO 102 ° 0 min 0,000 mm 0,0 UV-I 0 W/m² 14,9 °C 16,4 °C 0,0 km/h (0 Bft)
16.08.2017 21:08 16,4 °C 16,4 °C 91 % 1018,6 hPa 0,0 mm 0,0 km/h (0 Bft) O-SO 102 ° 0 min 0,000 mm 0,0 UV-I 0 W/m² 14,9 °C 16,4 °C 0,0 km/h (0 Bft)
16.08.2017 21:09 16,4 °C 16,4 °C 91 % 1018,6 hPa 0,0 mm 0,0 km/h (0 Bft) O-SO 102 ° 0 min 0,000 mm 0,0 UV-I 0 W/m² 14,9 °C 16,4 °C 0,0 km/h (0 Bft)
16.08.2017 21:10 16,4 °C 16,4 °C 91 % 1018,6 hPa 0,0 mm 0,0 km/h (0 Bft) O-SO 102 ° 0 min 0,000 mm 0,0 UV-I 0 W/m² 14,9 °C 16,4 °C 0,0 km/h (0 Bft)
16.08.2017 21:11 16,4 °C 16,4 °C 92 % 1018,6 hPa 0,0 mm 0,0 km/h (0 Bft) O-SO 102 ° 0 min 0,000 mm 0,0 UV-I 0 W/m² 15,1 °C 16,4 °C 0,0 km/h (0 Bft)
16.08.2017 21:12 16,5 °C 16,5 °C 91 % 1018,6 hPa 0,0 mm 0,0 km/h (0 Bft) O-SO 102 ° 0 min 0,000 mm 0,0 UV-I 0 W/m² 15,0 °C 16,5 °C 0,0 km/h (0 Bft)
16.08.2017 21:14 16,6 °C 16,6 °C 91 % 1018,6 hPa 0,0 mm 0,0 km/h (0 Bft) O-SO 102 ° 0 min 0,000 mm 0,0 UV-I 0 W/m² 15,1 °C 16,6 °C 0,0 km/h (0 Bft)
16.08.2017 21:15 16,6 °C 16,6 °C 91 % 1018,6 hPa 0,0 mm 0,0 km/h (0 Bft) O-SO 102 ° 0 min 0,000 mm 0,0 UV-I 0 W/m² 15,1 °C 16,6 °C 0,0 km/h (0 Bft)
16.08.2017 21:16 16,5 °C 16,6 °C 91 % 1018,6 hPa 0,0 mm 0,0 km/h (0 Bft) O-SO 102 ° 0 min 0,000 mm 0,0 UV-I 0 W/m² 15,0 °C 16,5 °C 0,0 km/h (0 Bft)
16.08.2017 21:17 16,6 °C 16,6 °C 91 % 1018,6 hPa 0,0 mm 0,0 km/h (0 Bft) O-SO 102 ° 0 min 0,000 mm 0,0 UV-I 0 W/m² 15,1 °C 16,6 °C 0,0 km/h (0 Bft)
16.08.2017 21:18 16,6 °C 16,6 °C 91 % 1018,7 hPa 0,0 mm 0,0 km/h (0 Bft) O-SO 102 ° 0 min 0,000 mm 0,0 UV-I 0 W/m² 15,1 °C 16,6 °C 0,0 km/h (0 Bft)
16.08.2017 21:19 16,6 °C 16,6 °C 91 % 1018,7 hPa 0,0 mm 0,0 km/h (0 Bft) O-SO 102 ° 0 min 0,000 mm 0,0 UV-I 0 W/m² 15,1 °C 16,6 °C 0,0 km/h (0 Bft)
16.08.2017 21:20 16,6 °C 16,6 °C 91 % 1018,6 hPa 0,0 mm 0,0 km/h (0 Bft) O-SO 102 ° 0 min 0,000 mm 0,0 UV-I 0 W/m² 15,1 °C 16,6 °C 0,0 km/h (0 Bft)
16.08.2017 21:21 16,7 °C 16,7 °C 91 % 1018,6 hPa 0,0 mm 0,0 km/h (0 Bft) O-SO 102 ° 0 min 0,000 mm 0,0 UV-I 0 W/m² 15,2 °C 16,7 °C 0,0 km/h (0 Bft)
16.08.2017 21:22 16,7 °C 16,7 °C 92 % 1018,6 hPa 0,0 mm 0,0 km/h (0 Bft) O-SO 102 ° 0 min 0,000 mm 0,0 UV-I 0 W/m² 15,4 °C 16,7 °C 0,0 km/h (0 Bft)
16.08.2017 21:23 16,6 °C 16,7 °C 91 % 1018,6 hPa 0,0 mm 0,0 km/h (0 Bft) O-SO 102 ° 0 min 0,000 mm 0,0 UV-I 0 W/m² 15,1 °C 16,6 °C 0,0 km/h (0 Bft)
16.08.2017 21:24 16,6 °C 16,6 °C 91 % 1018,6 hPa 0,0 mm 0,0 km/h (0 Bft) O-SO 102 ° 0 min 0,000 mm 0,0 UV-I 0 W/m² 15,1 °C 16,6 °C 0,0 km/h (0 Bft)
16.08.2017 21:25 16,5 °C 16,6 °C 91 % 1018,6 hPa 0,0 mm 0,0 km/h (0 Bft) O-SO 102 ° 0 min 0,000 mm 0,0 UV-I 0 W/m² 15,0 °C 16,5 °C 0,0 km/h (0 Bft)
16.08.2017 21:26 16,4 °C 16,5 °C 91 % 1018,6 hPa 0,0 mm 0,0 km/h (0 Bft) O-SO 102 ° 0 min 0,000 mm 0,0 UV-I 0 W/m² 14,9 °C 16,4 °C 0,0 km/h (0 Bft)
16.08.2017 21:27 16,3 °C 16,4 °C 91 % 1018,6 hPa 0,0 mm 0,0 km/h (0 Bft) O-SO 102 ° 0 min 0,000 mm 0,0 UV-I 0 W/m² 14,8 °C 16,3 °C 0,0 km/h (0 Bft)
16.08.2017 21:28 16,3 °C 16,3 °C 91 % 1018,6 hPa 0,0 mm 0,0 km/h (0 Bft) O-SO 102 ° 0 min 0,000 mm 0,0 UV-I 0 W/m² 14,8 °C 16,3 °C 0,0 km/h (0 Bft)
16.08.2017 21:29 16,3 °C 16,3 °C 91 % 1018,6 hPa 0,0 mm 0,0 km/h (0 Bft) O-SO 102 ° 0 min 0,000 mm 0,0 UV-I 0 W/m² 14,8 °C 16,3 °C 0,0 km/h (0 Bft)
16.08.2017 21:30 16,3 °C 16,3 °C 91 % 1018,6 hPa 0,0 mm 0,0 km/h (0 Bft) O-SO 102 ° 0 min 0,000 mm 0,0 UV-I 0 W/m² 14,8 °C 16,3 °C 0,0 km/h (0 Bft)
16.08.2017 21:31 16,2 °C 16,3 °C 91 % 1018,6 hPa 0,0 mm 0,0 km/h (0 Bft) O-SO 102 ° 0 min 0,000 mm 0,0 UV-I 0 W/m² 14,7 °C 16,2 °C 0,0 km/h (0 Bft)
16.08.2017 21:32 16,2 °C 16,2 °C 91 % 1018,6 hPa 0,0 mm 0,0 km/h (0 Bft) O-SO 102 ° 0 min 0,000 mm 0,0 UV-I 0 W/m² 14,7 °C 16,2 °C 0,0 km/h (0 Bft)
16.08.2017 21:33 16,2 °C 16,2 °C 91 % 1018,6 hPa 0,0 mm 0,0 km/h (0 Bft) O-SO 102 ° 0 min 0,000 mm 0,0 UV-I 0 W/m² 14,7 °C 16,2 °C 0,0 km/h (0 Bft)
16.08.2017 21:34 16,2 °C 16,2 °C 92 % 1018,7 hPa 0,0 mm 0,0 km/h (0 Bft) O-SO 102 ° 0 min 0,000 mm 0,0 UV-I 0 W/m² 14,9 °C 16,2 °C 0,0 km/h (0 Bft)
16.08.2017 21:35 16,2 °C 16,2 °C 92 % 1018,7 hPa 0,0 mm 0,0 km/h (0 Bft) O-SO 102 ° 0 min 0,000 mm 0,0 UV-I 0 W/m² 14,9 °C 16,2 °C 0,0 km/h (0 Bft)
16.08.2017 21:36 16,2 °C 16,2 °C 92 % 1018,7 hPa 0,0 mm 0,0 km/h (0 Bft) O-SO 102 ° 0 min 0,000 mm 0,0 UV-I 0 W/m² 14,9 °C 16,2 °C 0,0 km/h (0 Bft)
16.08.2017 21:37 16,3 °C 16,3 °C 92 % 1018,7 hPa 0,0 mm 0,0 km/h (0 Bft) O-SO 102 ° 0 min 0,000 mm 0,0 UV-I 0 W/m² 15,0 °C 16,3 °C 0,0 km/h (0 Bft)
16.08.2017 21:38 16,3 °C 16,3 °C 92 % 1018,6 hPa 0,0 mm 0,0 km/h (0 Bft) O-SO 102 ° 0 min 0,000 mm 0,0 UV-I 0 W/m² 15,0 °C 16,3 °C 0,0 km/h (0 Bft)
16.08.2017 21:39 16,3 °C 16,3 °C 92 % 1018,6 hPa 0,0 mm 0,0 km/h (0 Bft) O-SO 102 ° 0 min 0,000 mm 0,0 UV-I 0 W/m² 15,0 °C 16,3 °C 0,0 km/h (0 Bft)
16.08.2017 21:40 16,3 °C 16,3 °C 92 % 1018,6 hPa 0,0 mm 0,0 km/h (0 Bft) O-SO 102 ° 0 min 0,000 mm 0,0 UV-I 0 W/m² 15,0 °C 16,3 °C 0,0 km/h (0 Bft)
16.08.2017 21:41 16,3 °C 16,3 °C 92 % 1018,7 hPa 0,0 mm 0,0 km/h (0 Bft) O-SO 102 ° 0 min 0,000 mm 0,0 UV-I 0 W/m² 15,0 °C 16,3 °C 0,0 km/h (0 Bft)
16.08.2017 21:42 16,3 °C 16,3 °C 92 % 1018,6 hPa 0,0 mm 0,0 km/h (0 Bft) O-SO 102 ° 0 min 0,000 mm 0,0 UV-I 0 W/m² 15,0 °C 16,3 °C 0,0 km/h (0 Bft)
16.08.2017 21:43 16,2 °C 16,3 °C 92 % 1018,7 hPa 0,0 mm 0,0 km/h (0 Bft) O-SO 102 ° 0 min 0,000 mm 0,0 UV-I 0 W/m² 14,9 °C 16,2 °C 0,0 km/h (0 Bft)
16.08.2017 21:44 16,3 °C 16,3 °C 92 % 1018,7 hPa 0,0 mm 0,0 km/h (0 Bft) O-SO 102 ° 0 min 0,000 mm 0,0 UV-I 0 W/m² 15,0 °C 16,3 °C 0,0 km/h (0 Bft)
16.08.2017 21:45 16,2 °C 16,3 °C 92 % 1018,7 hPa 0,0 mm 0,0 km/h (0 Bft) O-SO 102 ° 0 min 0,000 mm 0,0 UV-I 0 W/m² 14,9 °C 16,2 °C 0,0 km/h (0 Bft)
16.08.2017 21:46 16,2 °C 16,2 °C 92 % 1018,7 hPa 0,0 mm 0,0 km/h (0 Bft) O-SO 102 ° 0 min 0,000 mm 0,0 UV-I 0 W/m² 14,9 °C 16,2 °C 0,0 km/h (0 Bft)
16.08.2017 21:47 16,1 °C 16,2 °C 92 % 1018,7 hPa 0,0 mm 0,0 km/h (0 Bft) O-SO 102 ° 0 min 0,000 mm 0,0 UV-I 0 W/m² 14,8 °C 16,1 °C 0,0 km/h (0 Bft)
16.08.2017 21:48 16,1 °C 16,1 °C 92 % 1018,7 hPa 0,0 mm 0,0 km/h (0 Bft) O-SO 102 ° 0 min 0,000 mm 0,0 UV-I 0 W/m² 14,8 °C 16,1 °C 0,0 km/h (0 Bft)
16.08.2017 21:49 16,1 °C 16,1 °C 92 % 1018,6 hPa 0,0 mm 0,0 km/h (0 Bft) O-SO 102 ° 0 min 0,000 mm 0,0 UV-I 0 W/m² 14,8 °C 16,1 °C 0,0 km/h (0 Bft)
16.08.2017 21:50 16,1 °C 16,1 °C 92 % 1018,7 hPa 0,0 mm 0,0 km/h (0 Bft) O-SO 102 ° 0 min 0,000 mm 0,0 UV-I 0 W/m² 14,8 °C 16,1 °C 0,0 km/h (0 Bft)
16.08.2017 21:51 16,1 °C 16,1 °C 92 % 1018,7 hPa 0,0 mm 0,0 km/h (0 Bft) O-SO 102 ° 0 min 0,000 mm 0,0 UV-I 0 W/m² 14,8 °C 16,1 °C 0,0 km/h (0 Bft)
16.08.2017 21:52 16,0 °C 16,1 °C 92 % 1018,6 hPa 0,0 mm 0,0 km/h (0 Bft) O-SO 102 ° 0 min 0,000 mm 0,0 UV-I 0 W/m² 14,7 °C 16,0 °C 0,0 km/h (0 Bft)
16.08.2017 21:53 16,0 °C 16,0 °C 92 % 1018,6 hPa 0,0 mm 0,0 km/h (0 Bft) O-SO 102 ° 0 min 0,000 mm 0,0 UV-I 0 W/m² 14,7 °C 16,0 °C 0,0 km/h (0 Bft)
16.08.2017 21:54 16,0 °C 16,0 °C 92 % 1018,6 hPa 0,0 mm 0,0 km/h (0 Bft) O-SO 102 ° 0 min 0,000 mm 0,0 UV-I 0 W/m² 14,7 °C 16,0 °C 0,0 km/h (0 Bft)
16.08.2017 21:55 16,0 °C 16,0 °C 92 % 1018,6 hPa 0,0 mm 0,0 km/h (0 Bft) O-SO 102 ° 0 min 0,000 mm 0,0 UV-I 0 W/m² 14,7 °C 16,0 °C 0,0 km/h (0 Bft)
16.08.2017 21:56 16,0 °C 16,0 °C 92 % 1018,6 hPa 0,0 mm 0,0 km/h (0 Bft) O-SO 102 ° 0 min 0,000 mm 0,0 UV-I 0 W/m² 14,7 °C 16,0 °C 0,0 km/h (0 Bft)
16.08.2017 21:57 16,1 °C 16,1 °C 92 % 1018,6 hPa 0,0 mm 0,0 km/h (0 Bft) O-SO 102 ° 0 min 0,000 mm 0,0 UV-I 0 W/m² 14,8 °C 16,1 °C 0,0 km/h (0 Bft)
16.08.2017 21:58 16,0 °C 16,1 °C 92 % 1018,5 hPa 0,0 mm 0,0 km/h (0 Bft) O-SO 102 ° 0 min 0,000 mm 0,0 UV-I 0 W/m² 14,7 °C 16,0 °C 0,0 km/h (0 Bft)
16.08.2017 21:59 16,0 °C 16,1 °C 92 % 1018,6 hPa 0,0 mm 0,0 km/h (0 Bft) O-SO 102 ° 0 min 0,000 mm 0,0 UV-I 0 W/m² 14,7 °C 16,0 °C 0,0 km/h (0 Bft)
16.08.2017 22:00 16,1 °C 16,1 °C 92 % 1018,6 hPa 0,0 mm 0,0 km/h (0 Bft) O-SO 102 ° 0 min 0,000 mm 0,0 UV-I 0 W/m² 14,8 °C 16,1 °C 0,0 km/h (0 Bft)
16.08.2017 22:01 16,1 °C 16,1 °C 92 % 1018,5 hPa 0,0 mm 0,0 km/h (0 Bft) O-SO 102 ° 0 min 0,000 mm 0,0 UV-I 0 W/m² 14,8 °C 16,1 °C 0,0 km/h (0 Bft)
16.08.2017 22:02 16,1 °C 16,1 °C 92 % 1018,5 hPa 0,0 mm 0,1 km/h (0 Bft) O-SO 102 ° 0 min 0,000 mm 0,0 UV-I 0 W/m² 14,8 °C 16,1 °C 1,6 km/h (1 Bft)
16.08.2017 22:03 16,1 °C 16,1 °C 92 % 1018,5 hPa 0,0 mm 0,0 km/h (0 Bft) O-SO 102 ° 0 min 0,000 mm 0,0 UV-I 0 W/m² 14,8 °C 16,1 °C 0,0 km/h (0 Bft)
16.08.2017 22:04 16,1 °C 16,1 °C 92 % 1018,5 hPa 0,0 mm 0,0 km/h (0 Bft) O-SO 102 ° 0 min 0,000 mm 0,0 UV-I 0 W/m² 14,8 °C 16,1 °C 0,0 km/h (0 Bft)
16.08.2017 22:05 16,1 °C 16,1 °C 92 % 1018,5 hPa 0,0 mm 0,0 km/h (0 Bft) O-SO 102 ° 0 min 0,000 mm 0,0 UV-I 0 W/m² 14,8 °C 16,1 °C 0,0 km/h (0 Bft)
16.08.2017 22:06 16,1 °C 16,1 °C 92 % 1018,4 hPa 0,0 mm 0,0 km/h (0 Bft) O-SO 102 ° 0 min 0,000 mm 0,0 UV-I 0 W/m² 14,8 °C 16,1 °C 0,0 km/h (0 Bft)
16.08.2017 22:07 16,1 °C 16,1 °C 92 % 1018,5 hPa 0,0 mm 0,0 km/h (0 Bft) O-SO 102 ° 0 min 0,000 mm 0,0 UV-I 0 W/m² 14,8 °C 16,1 °C 0,0 km/h (0 Bft)
16.08.2017 22:08 16,1 °C 16,1 °C 92 % 1018,4 hPa 0,0 mm 0,0 km/h (0 Bft) O-SO 102 ° 0 min 0,000 mm 0,0 UV-I 0 W/m² 14,8 °C 16,1 °C 0,0 km/h (0 Bft)
16.08.2017 22:09 16,1 °C 16,1 °C 92 % 1018,5 hPa 0,0 mm 0,0 km/h (0 Bft) O-SO 102 ° 0 min 0,000 mm 0,0 UV-I 0 W/m² 14,8 °C 16,1 °C 0,0 km/h (0 Bft)
16.08.2017 22:10 16,1 °C 16,2 °C 92 % 1018,5 hPa 0,0 mm 0,0 km/h (0 Bft) O-SO 102 ° 0 min 0,000 mm 0,0 UV-I 0 W/m² 14,8 °C 16,1 °C 0,0 km/h (0 Bft)
16.08.2017 22:11 16,2 °C 16,2 °C 92 % 1018,5 hPa 0,0 mm 0,0 km/h (0 Bft) O-SO 102 ° 0 min 0,000 mm 0,0 UV-I 0 W/m² 14,9 °C 16,2 °C 0,0 km/h (0 Bft)
16.08.2017 22:12 16,3 °C 16,3 °C 92 % 1018,5 hPa 0,0 mm 0,0 km/h (0 Bft) O-SO 102 ° 0 min 0,000 mm 0,0 UV-I 0 W/m² 15,0 °C 16,3 °C 0,0 km/h (0 Bft)
16.08.2017 22:13 16,3 °C 16,3 °C 92 % 1018,5 hPa 0,0 mm 0,0 km/h (0 Bft) O-SO 102 ° 0 min 0,000 mm 0,0 UV-I 0 W/m² 15,0 °C 16,3 °C 0,0 km/h (0 Bft)
16.08.2017 22:14 16,3 °C 16,3 °C 92 % 1018,5 hPa 0,0 mm 0,1 km/h (0 Bft) O-SO 102 ° 0 min 0,000 mm 0,0 UV-I 0 W/m² 15,0 °C 16,3 °C 1,6 km/h (1 Bft)
16.08.2017 22:15 16,3 °C 16,3 °C 92 % 1018,5 hPa 0,0 mm 0,3 km/h (0 Bft) O-SO 102 ° 0 min 0,000 mm 0,0 UV-I 0 W/m² 15,0 °C 16,3 °C 1,6 km/h (1 Bft)
16.08.2017 22:16 16,3 °C 16,3 °C 91 % 1018,5 hPa 0,0 mm 0,0 km/h (0 Bft) O-SO 102 ° 0 min 0,000 mm 0,0 UV-I 0 W/m² 14,8 °C 16,3 °C 0,0 km/h (0 Bft)
16.08.2017 22:17 16,3 °C 16,3 °C 91 % 1018,5 hPa 0,0 mm 0,0 km/h (0 Bft) O-SO 102 ° 0 min 0,000 mm 0,0 UV-I 0 W/m² 14,8 °C 16,3 °C 0,0 km/h (0 Bft)
16.08.2017 22:18 16,2 °C 16,3 °C 91 % 1018,6 hPa 0,0 mm 0,0 km/h (0 Bft) O-SO 102 ° 0 min 0,000 mm 0,0 UV-I 0 W/m² 14,7 °C 16,2 °C 0,0 km/h (0 Bft)
16.08.2017 22:19 16,3 °C 16,3 °C 92 % 1018,6 hPa 0,0 mm 0,1 km/h (0 Bft) O-SO 102 ° 0 min 0,000 mm 0,0 UV-I 0 W/m² 15,0 °C 16,3 °C 1,6 km/h (1 Bft)
16.08.2017 22:20 16,3 °C 16,3 °C 92 % 1018,5 hPa 0,0 mm 0,0 km/h (0 Bft) O-SO 102 ° 0 min 0,000 mm 0,0 UV-I 0 W/m² 15,0 °C 16,3 °C 0,0 km/h (0 Bft)
16.08.2017 22:21 16,3 °C 16,3 °C 92 % 1018,6 hPa 0,0 mm 0,0 km/h (0 Bft) O-SO 102 ° 0 min 0,000 mm 0,0 UV-I 0 W/m² 15,0 °C 16,3 °C 0,0 km/h (0 Bft)
16.08.2017 22:22 16,3 °C 16,3 °C 92 % 1018,6 hPa 0,0 mm 0,0 km/h (0 Bft) O-SO 102 ° 0 min 0,000 mm 0,0 UV-I 0 W/m² 15,0 °C 16,3 °C 0,0 km/h (0 Bft)
16.08.2017 22:23 16,4 °C 16,4 °C 92 % 1018,6 hPa 0,0 mm 0,0 km/h (0 Bft) O-SO 102 ° 0 min 0,000 mm 0,0 UV-I 0 W/m² 15,1 °C 16,4 °C 0,0 km/h (0 Bft)
16.08.2017 22:24 16,4 °C 16,4 °C 92 % 1018,6 hPa 0,0 mm 0,0 km/h (0 Bft) O-SO 102 ° 0 min 0,000 mm 0,0 UV-I 0 W/m² 15,1 °C 16,4 °C 0,0 km/h (0 Bft)
16.08.2017 22:25 16,4 °C 16,4 °C 92 % 1018,6 hPa 0,0 mm 0,0 km/h (0 Bft) O-SO 102 ° 0 min 0,000 mm 0,0 UV-I 0 W/m² 15,1 °C 16,4 °C 0,0 km/h (0 Bft)
16.08.2017 22:26 16,4 °C 16,4 °C 92 % 1018,6 hPa 0,0 mm 0,0 km/h (0 Bft) O-SO 102 ° 0 min 0,000 mm 0,0 UV-I 0 W/m² 15,1 °C 16,4 °C 0,0 km/h (0 Bft)
16.08.2017 22:27 16,4 °C 16,4 °C 92 % 1018,5 hPa 0,0 mm 0,0 km/h (0 Bft) O-SO 102 ° 0 min 0,000 mm 0,0 UV-I 0 W/m² 15,1 °C 16,4 °C 0,0 km/h (0 Bft)
16.08.2017 22:28 16,4 °C 16,4 °C 92 % 1018,5 hPa 0,0 mm 0,0 km/h (0 Bft) O-SO 102 ° 0 min 0,000 mm 0,0 UV-I 0 W/m² 15,1 °C 16,4 °C 0,0 km/h (0 Bft)
16.08.2017 22:29 16,4 °C 16,4 °C 92 % 1018,5 hPa 0,0 mm 0,0 km/h (0 Bft) O-SO 102 ° 0 min 0,000 mm 0,0 UV-I 0 W/m² 15,1 °C 16,4 °C 0,0 km/h (0 Bft)
16.08.2017 22:30 16,4 °C 16,4 °C 92 % 1018,5 hPa 0,0 mm 0,0 km/h (0 Bft) O-SO 102 ° 0 min 0,000 mm 0,0 UV-I 0 W/m² 15,1 °C 16,4 °C 0,0 km/h (0 Bft)
16.08.2017 22:31 16,3 °C 16,4 °C 92 % 1018,5 hPa 0,0 mm 0,0 km/h (0 Bft) O-SO 102 ° 0 min 0,000 mm 0,0 UV-I 0 W/m² 15,0 °C 16,3 °C 0,0 km/h (0 Bft)
16.08.2017 22:32 16,3 °C 16,4 °C 91 % 1018,5 hPa 0,0 mm 0,0 km/h (0 Bft) O-SO 102 ° 0 min 0,000 mm 0,0 UV-I 0 W/m² 14,8 °C 16,3 °C 0,0 km/h (0 Bft)
16.08.2017 22:33 16,3 °C 16,3 °C 92 % 1018,5 hPa 0,0 mm 0,0 km/h (0 Bft) O-SO 102 ° 0 min 0,000 mm 0,0 UV-I 0 W/m² 15,0 °C 16,3 °C 0,0 km/h (0 Bft)
16.08.2017 22:34 16,3 °C 16,3 °C 92 % 1018,5 hPa 0,0 mm 0,0 km/h (0 Bft) O-SO 102 ° 0 min 0,000 mm 0,0 UV-I 0 W/m² 15,0 °C 16,3 °C 0,0 km/h (0 Bft)
16.08.2017 22:35 16,3 °C 16,3 °C 92 % 1018,4 hPa 0,0 mm 0,0 km/h (0 Bft) O-SO 102 ° 0 min 0,000 mm 0,0 UV-I 0 W/m² 15,0 °C 16,3 °C 0,0 km/h (0 Bft)
16.08.2017 22:36 16,3 °C 16,3 °C 92 % 1018,4 hPa 0,0 mm 0,0 km/h (0 Bft) O-SO 102 ° 0 min 0,000 mm 0,0 UV-I 0 W/m² 15,0 °C 16,3 °C 0,0 km/h (0 Bft)
16.08.2017 22:37 16,2 °C 16,3 °C 92 % 1018,4 hPa 0,0 mm 0,0 km/h (0 Bft) O-SO 102 ° 0 min 0,000 mm 0,0 UV-I 0 W/m² 14,9 °C 16,2 °C 0,0 km/h (0 Bft)
16.08.2017 22:38 16,2 °C 16,2 °C 92 % 1018,4 hPa 0,0 mm 0,0 km/h (0 Bft) O-SO 102 ° 0 min 0,000 mm 0,0 UV-I 0 W/m² 14,9 °C 16,2 °C 0,0 km/h (0 Bft)
16.08.2017 22:39 16,1 °C 16,2 °C 92 % 1018,4 hPa 0,0 mm 0,0 km/h (0 Bft) O-SO 102 ° 0 min 0,000 mm 0,0 UV-I 0 W/m² 14,8 °C 16,1 °C 0,0 km/h (0 Bft)
16.08.2017 22:40 16,1 °C 16,1 °C 92 % 1018,4 hPa 0,0 mm 0,0 km/h (0 Bft) O-SO 102 ° 0 min 0,000 mm 0,0 UV-I 0 W/m² 14,8 °C 16,1 °C 0,0 km/h (0 Bft)
16.08.2017 22:41 16,1 °C 16,1 °C 92 % 1018,4 hPa 0,0 mm 0,0 km/h (0 Bft) O-SO 102 ° 0 min 0,000 mm 0,0 UV-I 0 W/m² 14,8 °C 16,1 °C 0,0 km/h (0 Bft)
16.08.2017 22:42 16,0 °C 16,1 °C 92 % 1018,4 hPa 0,0 mm 0,0 km/h (0 Bft) O-SO 102 ° 0 min 0,000 mm 0,0 UV-I 0 W/m² 14,7 °C 16,0 °C 0,0 km/h (0 Bft)
16.08.2017 22:43 15,9 °C 16,0 °C 92 % 1018,4 hPa 0,0 mm 0,0 km/h (0 Bft) O-SO 102 ° 0 min 0,000 mm 0,0 UV-I 0 W/m² 14,6 °C 15,9 °C 0,0 km/h (0 Bft)
16.08.2017 22:44 15,9 °C 15,9 °C 92 % 1018,4 hPa 0,0 mm 0,0 km/h (0 Bft) O-SO 102 ° 0 min 0,000 mm 0,0 UV-I 0 W/m² 14,6 °C 15,9 °C 0,0 km/h (0 Bft)
16.08.2017 22:45 15,8 °C 15,9 °C 92 % 1018,4 hPa 0,0 mm 0,0 km/h (0 Bft) O-SO 102 ° 0 min 0,000 mm 0,0 UV-I 0 W/m² 14,5 °C 15,8 °C 0,0 km/h (0 Bft)
16.08.2017 22:46 15,8 °C 15,8 °C 92 % 1018,4 hPa 0,0 mm 0,0 km/h (0 Bft) O-SO 102 ° 0 min 0,000 mm 0,0 UV-I 0 W/m² 14,5 °C 15,8 °C 0,0 km/h (0 Bft)
16.08.2017 22:47 15,7 °C 15,8 °C 92 % 1018,4 hPa 0,0 mm 0,0 km/h (0 Bft) O-SO 102 ° 0 min 0,000 mm 0,0 UV-I 0 W/m² 14,4 °C 15,7 °C 0,0 km/h (0 Bft)
16.08.2017 22:48 15,7 °C 15,7 °C 92 % 1018,4 hPa 0,0 mm 0,0 km/h (0 Bft) O-SO 102 ° 0 min 0,000 mm 0,0 UV-I 0 W/m² 14,4 °C 15,7 °C 0,0 km/h (0 Bft)
16.08.2017 22:49 15,6 °C 15,7 °C 92 % 1018,4 hPa 0,0 mm 0,0 km/h (0 Bft) O-SO 102 ° 0 min 0,000 mm 0,0 UV-I 0 W/m² 14,3 °C 15,6 °C 0,0 km/h (0 Bft)
16.08.2017 22:50 15,6 °C 15,6 °C 92 % 1018,4 hPa 0,0 mm 0,0 km/h (0 Bft) O-SO 102 ° 0 min 0,000 mm 0,0 UV-I 0 W/m² 14,3 °C 15,6 °C 0,0 km/h (0 Bft)
16.08.2017 22:51 15,6 °C 15,6 °C 93 % 1018,4 hPa 0,0 mm 0,0 km/h (0 Bft) O-SO 102 ° 0 min 0,000 mm 0,0 UV-I 0 W/m² 14,5 °C 15,6 °C 0,0 km/h (0 Bft)
16.08.2017 22:52 15,5 °C 15,6 °C 93 % 1018,4 hPa 0,0 mm 0,0 km/h (0 Bft) O-SO 102 ° 0 min 0,000 mm 0,0 UV-I 0 W/m² 14,4 °C 15,5 °C 0,0 km/h (0 Bft)
16.08.2017 22:53 15,4 °C 15,5 °C 93 % 1018,4 hPa 0,0 mm 0,0 km/h (0 Bft) O-SO 102 ° 0 min 0,000 mm 0,0 UV-I 0 W/m² 14,3 °C 15,4 °C 0,0 km/h (0 Bft)
16.08.2017 22:54 15,5 °C 15,5 °C 93 % 1018,4 hPa 0,0 mm 0,0 km/h (0 Bft) O-SO 102 ° 0 min 0,000 mm 0,0 UV-I 0 W/m² 14,4 °C 15,5 °C 0,0 km/h (0 Bft)
16.08.2017 22:55 15,5 °C 15,5 °C 93 % 1018,4 hPa 0,0 mm 0,0 km/h (0 Bft) O-SO 102 ° 0 min 0,000 mm 0,0 UV-I 0 W/m² 14,4 °C 15,5 °C 0,0 km/h (0 Bft)
16.08.2017 22:56 15,5 °C 15,6 °C 93 % 1018,4 hPa 0,0 mm 0,0 km/h (0 Bft) O-SO 102 ° 0 min 0,000 mm 0,0 UV-I 0 W/m² 14,4 °C 15,5 °C 0,0 km/h (0 Bft)
16.08.2017 22:57 15,5 °C 15,6 °C 93 % 1018,4 hPa 0,0 mm 0,0 km/h (0 Bft) O-SO 102 ° 0 min 0,000 mm 0,0 UV-I 0 W/m² 14,4 °C 15,5 °C 0,0 km/h (0 Bft)
16.08.2017 22:58 15,5 °C 15,5 °C 93 % 1018,4 hPa 0,0 mm 0,0 km/h (0 Bft) O-SO 102 ° 0 min 0,000 mm 0,0 UV-I 0 W/m² 14,4 °C 15,5 °C 0,0 km/h (0 Bft)
16.08.2017 22:59 15,5 °C 15,5 °C 93 % 1018,4 hPa 0,0 mm 0,0 km/h (0 Bft) O-SO 102 ° 0 min 0,000 mm 0,0 UV-I 0 W/m² 14,4 °C 15,5 °C 0,0 km/h (0 Bft)
16.08.2017 23:00 15,5 °C 15,5 °C 93 % 1018,4 hPa 0,0 mm 0,0 km/h (0 Bft) O-SO 102 ° 0 min 0,000 mm 0,0 UV-I 0 W/m² 14,4 °C 15,5 °C 0,0 km/h (0 Bft)
16.08.2017 23:01 15,4 °C 15,5 °C 93 % 1018,3 hPa 0,0 mm 0,0 km/h (0 Bft) O-SO 102 ° 0 min 0,000 mm 0,0 UV-I 0 W/m² 14,3 °C 15,4 °C 0,0 km/h (0 Bft)
16.08.2017 23:02 15,4 °C 15,4 °C 93 % 1018,4 hPa 0,0 mm 0,0 km/h (0 Bft) O-SO 102 ° 0 min 0,000 mm 0,0 UV-I 0 W/m² 14,3 °C 15,4 °C 0,0 km/h (0 Bft)
16.08.2017 23:03 15,4 °C 15,5 °C 93 % 1018,4 hPa 0,0 mm 0,0 km/h (0 Bft) O-SO 102 ° 0 min 0,000 mm 0,0 UV-I 0 W/m² 14,3 °C 15,4 °C 0,0 km/h (0 Bft)
16.08.2017 23:04 15,5 °C 15,5 °C 93 % 1018,4 hPa 0,0 mm 0,0 km/h (0 Bft) O-SO 102 ° 0 min 0,000 mm 0,0 UV-I 0 W/m² 14,4 °C 15,5 °C 0,0 km/h (0 Bft)
16.08.2017 23:05 15,4 °C 15,5 °C 94 % 1018,4 hPa 0,0 mm 0,0 km/h (0 Bft) O-SO 102 ° 0 min 0,000 mm 0,0 UV-I 0 W/m² 14,4 °C 15,4 °C 0,0 km/h (0 Bft)
16.08.2017 23:06 15,4 °C 15,4 °C 93 % 1018,4 hPa 0,0 mm 0,0 km/h (0 Bft) O-SO 102 ° 0 min 0,000 mm 0,0 UV-I 0 W/m² 14,3 °C 15,4 °C 0,0 km/h (0 Bft)
16.08.2017 23:07 15,4 °C 15,4 °C 93 % 1018,4 hPa 0,0 mm 0,0 km/h (0 Bft) O-SO 102 ° 0 min 0,000 mm 0,0 UV-I 0 W/m² 14,3 °C 15,4 °C 0,0 km/h (0 Bft)
16.08.2017 23:08 15,4 °C 15,4 °C 93 % 1018,3 hPa 0,0 mm 0,0 km/h (0 Bft) O-SO 102 ° 0 min 0,000 mm 0,0 UV-I 0 W/m² 14,3 °C 15,4 °C 0,0 km/h (0 Bft)
16.08.2017 23:09 15,4 °C 15,4 °C 93 % 1018,4 hPa 0,0 mm 0,0 km/h (0 Bft) O-SO 102 ° 0 min 0,000 mm 0,0 UV-I 0 W/m² 14,3 °C 15,4 °C 0,0 km/h (0 Bft)
16.08.2017 23:10 15,4 °C 15,4 °C 93 % 1018,3 hPa 0,0 mm 0,0 km/h (0 Bft) O-SO 102 ° 0 min 0,000 mm 0,0 UV-I 0 W/m² 14,3 °C 15,4 °C 0,0 km/h (0 Bft)
16.08.2017 23:11 15,3 °C 15,4 °C 93 % 1018,3 hPa 0,0 mm 0,0 km/h (0 Bft) O-SO 102 ° 0 min 0,000 mm 0,0 UV-I 0 W/m² 14,2 °C 15,3 °C 0,0 km/h (0 Bft)
16.08.2017 23:12 15,3 °C 15,3 °C 93 % 1018,3 hPa 0,0 mm 0,0 km/h (0 Bft) O-SO 102 ° 0 min 0,000 mm 0,0 UV-I 0 W/m² 14,2 °C 15,3 °C 0,0 km/h (0 Bft)
16.08.2017 23:13 15,3 °C 15,3 °C 93 % 1018,3 hPa 0,0 mm 0,0 km/h (0 Bft) O-SO 102 ° 0 min 0,000 mm 0,0 UV-I 0 W/m² 14,2 °C 15,3 °C 0,0 km/h (0 Bft)
16.08.2017 23:14 15,2 °C 15,3 °C 93 % 1018,3 hPa 0,0 mm 0,0 km/h (0 Bft) O-SO 102 ° 0 min 0,000 mm 0,0 UV-I 0 W/m² 14,1 °C 15,2 °C 0,0 km/h (0 Bft)
16.08.2017 23:15 15,1 °C 15,2 °C 93 % 1018,3 hPa 0,0 mm 0,0 km/h (0 Bft) O-SO 102 ° 0 min 0,000 mm 0,0 UV-I 0 W/m² 14,0 °C 15,1 °C 0,0 km/h (0 Bft)
16.08.2017 23:16 15,1 °C 15,2 °C 93 % 1018,3 hPa 0,0 mm 0,0 km/h (0 Bft) O-SO 102 ° 0 min 0,000 mm 0,0 UV-I 0 W/m² 14,0 °C 15,1 °C 0,0 km/h (0 Bft)
16.08.2017 23:17 15,1 °C 15,1 °C 93 % 1018,4 hPa 0,0 mm 0,0 km/h (0 Bft) O-SO 102 ° 0 min 0,000 mm 0,0 UV-I 0 W/m² 14,0 °C 15,1 °C 0,0 km/h (0 Bft)
16.08.2017 23:18 15,1 °C 15,1 °C 93 % 1018,3 hPa 0,0 mm 0,0 km/h (0 Bft) O-SO 102 ° 0 min 0,000 mm 0,0 UV-I 0 W/m² 14,0 °C 15,1 °C 0,0 km/h (0 Bft)
16.08.2017 23:19 15,1 °C 15,1 °C 93 % 1018,3 hPa 0,0 mm 0,0 km/h (0 Bft) O-SO 102 ° 0 min 0,000 mm 0,0 UV-I 0 W/m² 14,0 °C 15,1 °C 0,0 km/h (0 Bft)
16.08.2017 23:20 15,0 °C 15,1 °C 93 % 1018,3 hPa 0,0 mm 0,0 km/h (0 Bft) O-SO 102 ° 0 min 0,000 mm 0,0 UV-I 0 W/m² 13,9 °C 15,0 °C 0,0 km/h (0 Bft)
16.08.2017 23:21 15,1 °C 15,1 °C 93 % 1018,3 hPa 0,0 mm 0,0 km/h (0 Bft) O-SO 102 ° 0 min 0,000 mm 0,0 UV-I 0 W/m² 14,0 °C 15,1 °C 0,0 km/h (0 Bft)
16.08.2017 23:22 15,1 °C 15,1 °C 93 % 1018,3 hPa 0,0 mm 0,0 km/h (0 Bft) O-SO 102 ° 0 min 0,000 mm 0,0 UV-I 0 W/m² 14,0 °C 15,1 °C 0,0 km/h (0 Bft)
16.08.2017 23:23 15,1 °C 15,1 °C 94 % 1018,3 hPa 0,0 mm 0,0 km/h (0 Bft) O-SO 102 ° 0 min 0,000 mm 0,0 UV-I 0 W/m² 14,1 °C 15,1 °C 0,0 km/h (0 Bft)
16.08.2017 23:24 15,1 °C 15,1 °C 94 % 1018,3 hPa 0,0 mm 0,0 km/h (0 Bft) O-SO 102 ° 0 min 0,000 mm 0,0 UV-I 0 W/m² 14,1 °C 15,1 °C 0,0 km/h (0 Bft)
16.08.2017 23:25 15,2 °C 15,2 °C 94 % 1018,3 hPa 0,0 mm 0,0 km/h (0 Bft) O-SO 102 ° 0 min 0,000 mm 0,0 UV-I 0 W/m² 14,2 °C 15,2 °C 0,0 km/h (0 Bft)
16.08.2017 23:26 15,1 °C 15,2 °C 94 % 1018,3 hPa 0,0 mm 0,0 km/h (0 Bft) O-SO 102 ° 0 min 0,000 mm 0,0 UV-I 0 W/m² 14,1 °C 15,1 °C 0,0 km/h (0 Bft)
16.08.2017 23:27 15,1 °C 15,1 °C 94 % 1018,3 hPa 0,0 mm 0,0 km/h (0 Bft) O-SO 102 ° 0 min 0,000 mm 0,0 UV-I 0 W/m² 14,1 °C 15,1 °C 0,0 km/h (0 Bft)
16.08.2017 23:28 15,1 °C 15,1 °C 94 % 1018,3 hPa 0,0 mm 0,0 km/h (0 Bft) O-SO 102 ° 0 min 0,000 mm 0,0 UV-I 0 W/m² 14,1 °C 15,1 °C 0,0 km/h (0 Bft)
16.08.2017 23:29 15,1 °C 15,1 °C 94 % 1018,3 hPa 0,0 mm 0,0 km/h (0 Bft) O-SO 102 ° 0 min 0,000 mm 0,0 UV-I 0 W/m² 14,1 °C 15,1 °C 0,0 km/h (0 Bft)
16.08.2017 23:30 15,1 °C 15,2 °C 94 % 1018,3 hPa 0,0 mm 0,0 km/h (0 Bft) O-SO 102 ° 0 min 0,000 mm 0,0 UV-I 0 W/m² 14,1 °C 15,1 °C 0,0 km/h (0 Bft)
16.08.2017 23:31 15,2 °C 15,2 °C 94 % 1018,3 hPa 0,0 mm 0,0 km/h (0 Bft) O-SO 102 ° 0 min 0,000 mm 0,0 UV-I 0 W/m² 14,2 °C 15,2 °C 0,0 km/h (0 Bft)
16.08.2017 23:32 15,2 °C 15,2 °C 94 % 1018,3 hPa 0,0 mm 0,0 km/h (0 Bft) O-SO 102 ° 0 min 0,000 mm 0,0 UV-I 0 W/m² 14,2 °C 15,2 °C 0,0 km/h (0 Bft)
16.08.2017 23:33 15,1 °C 15,2 °C 94 % 1018,4 hPa 0,0 mm 0,0 km/h (0 Bft) O-SO 102 ° 0 min 0,000 mm 0,0 UV-I 0 W/m² 14,1 °C 15,1 °C 0,0 km/h (0 Bft)
16.08.2017 23:34 15,1 °C 15,1 °C 94 % 1018,3 hPa 0,0 mm 0,0 km/h (0 Bft) O-SO 102 ° 0 min 0,000 mm 0,0 UV-I 0 W/m² 14,1 °C 15,1 °C 0,0 km/h (0 Bft)
16.08.2017 23:35 15,1 °C 15,1 °C 94 % 1018,3 hPa 0,0 mm 0,0 km/h (0 Bft) O-SO 102 ° 0 min 0,000 mm 0,0 UV-I 0 W/m² 14,1 °C 15,1 °C 0,0 km/h (0 Bft)
16.08.2017 23:36 15,1 °C 15,1 °C 94 % 1018,3 hPa 0,0 mm 0,0 km/h (0 Bft) O-SO 102 ° 0 min 0,000 mm 0,0 UV-I 0 W/m² 14,1 °C 15,1 °C 0,0 km/h (0 Bft)
16.08.2017 23:37 15,1 °C 15,1 °C 94 % 1018,3 hPa 0,0 mm 0,0 km/h (0 Bft) O-SO 102 ° 0 min 0,000 mm 0,0 UV-I 0 W/m² 14,1 °C 15,1 °C 0,0 km/h (0 Bft)
16.08.2017 23:38 15,1 °C 15,1 °C 94 % 1018,3 hPa 0,0 mm 0,0 km/h (0 Bft) O-SO 102 ° 0 min 0,000 mm 0,0 UV-I 0 W/m² 14,1 °C 15,1 °C 0,0 km/h (0 Bft)
16.08.2017 23:39 15,1 °C 15,1 °C 94 % 1018,2 hPa 0,0 mm 0,0 km/h (0 Bft) O-SO 102 ° 0 min 0,000 mm 0,0 UV-I 0 W/m² 14,1 °C 15,1 °C 0,0 km/h (0 Bft)
16.08.2017 23:40 15,1 °C 15,1 °C 94 % 1018,2 hPa 0,0 mm 0,0 km/h (0 Bft) O-SO 102 ° 0 min 0,000 mm 0,0 UV-I 0 W/m² 14,1 °C 15,1 °C 0,0 km/h (0 Bft)
16.08.2017 23:41 15,0 °C 15,1 °C 94 % 1018,3 hPa 0,0 mm 0,0 km/h (0 Bft) O-SO 102 ° 0 min 0,000 mm 0,0 UV-I 0 W/m² 14,0 °C 15,0 °C 0,0 km/h (0 Bft)
16.08.2017 23:42 15,1 °C 15,1 °C 94 % 1018,2 hPa 0,0 mm 0,0 km/h (0 Bft) O-SO 102 ° 0 min 0,000 mm 0,0 UV-I 0 W/m² 14,1 °C 15,1 °C 0,0 km/h (0 Bft)
16.08.2017 23:43 15,1 °C 15,1 °C 94 % 1018,3 hPa 0,0 mm 0,0 km/h (0 Bft) O-SO 102 ° 0 min 0,000 mm 0,0 UV-I 0 W/m² 14,1 °C 15,1 °C 0,0 km/h (0 Bft)
16.08.2017 23:44 15,0 °C 15,1 °C 94 % 1018,3 hPa 0,0 mm 0,0 km/h (0 Bft) O-SO 102 ° 0 min 0,000 mm 0,0 UV-I 0 W/m² 14,0 °C 15,0 °C 0,0 km/h (0 Bft)
16.08.2017 23:45 15,0 °C 15,0 °C 94 % 1018,2 hPa 0,0 mm 0,0 km/h (0 Bft) O-SO 102 ° 0 min 0,000 mm 0,0 UV-I 0 W/m² 14,0 °C 15,0 °C 0,0 km/h (0 Bft)
16.08.2017 23:46 15,0 °C 15,0 °C 94 % 1018,3 hPa 0,0 mm 0,0 km/h (0 Bft) O-SO 102 ° 0 min 0,000 mm 0,0 UV-I 0 W/m² 14,0 °C 15,0 °C 0,0 km/h (0 Bft)
16.08.2017 23:47 14,9 °C 15,0 °C 94 % 1018,2 hPa 0,0 mm 0,0 km/h (0 Bft) O-SO 102 ° 0 min 0,000 mm 0,0 UV-I 0 W/m² 13,9 °C 14,9 °C 0,0 km/h (0 Bft)
16.08.2017 23:48 15,0 °C 15,0 °C 94 % 1018,2 hPa 0,0 mm 0,0 km/h (0 Bft) O-SO 102 ° 0 min 0,000 mm 0,0 UV-I 0 W/m² 14,0 °C 15,0 °C 0,0 km/h (0 Bft)
16.08.2017 23:49 15,0 °C 15,0 °C 94 % 1018,3 hPa 0,0 mm 0,0 km/h (0 Bft) O-SO 102 ° 0 min 0,000 mm 0,0 UV-I 0 W/m² 14,0 °C 15,0 °C 0,0 km/h (0 Bft)
16.08.2017 23:50 15,0 °C 15,0 °C 94 % 1018,2 hPa 0,0 mm 0,0 km/h (0 Bft) O-SO 102 ° 0 min 0,000 mm 0,0 UV-I 0 W/m² 14,0 °C 15,0 °C 0,0 km/h (0 Bft)
16.08.2017 23:51 15,0 °C 15,0 °C 94 % 1018,3 hPa 0,0 mm 0,0 km/h (0 Bft) O-SO 102 ° 0 min 0,000 mm 0,0 UV-I 0 W/m² 14,0 °C 15,0 °C 0,0 km/h (0 Bft)
16.08.2017 23:52 15,0 °C 15,0 °C 94 % 1018,2 hPa 0,0 mm 0,0 km/h (0 Bft) O-SO 102 ° 0 min 0,000 mm 0,0 UV-I 0 W/m² 14,0 °C 15,0 °C 0,0 km/h (0 Bft)
16.08.2017 23:53 15,0 °C 15,0 °C 94 % 1018,3 hPa 0,0 mm 0,0 km/h (0 Bft) O-SO 102 ° 0 min 0,000 mm 0,0 UV-I 0 W/m² 14,0 °C 15,0 °C 0,0 km/h (0 Bft)
16.08.2017 23:54 15,0 °C 15,0 °C 94 % 1018,3 hPa 0,0 mm 0,0 km/h (0 Bft) O-SO 102 ° 0 min 0,000 mm 0,0 UV-I 0 W/m² 14,0 °C 15,0 °C 0,0 km/h (0 Bft)
16.08.2017 23:55 14,9 °C 15,0 °C 94 % 1018,3 hPa 0,0 mm 0,0 km/h (0 Bft) O-SO 102 ° 0 min 0,000 mm 0,0 UV-I 0 W/m² 13,9 °C 14,9 °C 0,0 km/h (0 Bft)
16.08.2017 23:56 15,0 °C 15,0 °C 94 % 1018,3 hPa 0,0 mm 0,0 km/h (0 Bft) O-SO 102 ° 0 min 0,000 mm 0,0 UV-I 0 W/m² 14,0 °C 15,0 °C 0,0 km/h (0 Bft)
16.08.2017 23:57 15,1 °C 15,1 °C 94 % 1018,3 hPa 0,0 mm 1,0 km/h (0 Bft) O-SO 102 ° 0 min 0,000 mm 0,0 UV-I 0 W/m² 14,1 °C 15,1 °C 3,2 km/h (1 Bft)
16.08.2017 23:58 15,1 °C 15,1 °C 94 % 1018,3 hPa 0,0 mm 0,0 km/h (0 Bft) O-SO 102 ° 0 min 0,000 mm 0,0 UV-I 0 W/m² 14,1 °C 15,1 °C 0,0 km/h (0 Bft)
16.08.2017 23:59 15,1 °C 15,1 °C 94 % 1018,2 hPa 0,0 mm 0,0 km/h (0 Bft) O-SO 102 ° 0 min 0,000 mm 0,0 UV-I 0 W/m² 14,1 °C 15,1 °C 0,0 km/h (0 Bft)
_ Min-Zeit 06:56 06:55 16:11 02:28 - 23:59 - - - - - - 06:22 06:56 23:59
Minimum _ 14,0 °C 14,0 °C 65 % 1017,2 hPa - 0,0 km/h (0 Bft) - - - - - - 13,1 °C 14,0 °C 0,0 km/h (0 Bft)
_ Max-Zeit 16:11 16:12 07:34 09:36 04:51 04:09 - - 16:11 13:01 13:38 13:35 13:35 16:11 04:11
Maximum _ 23,3 °C 23,3 °C 96 % 1019,9 hPa 0,2 mm 21,0 km/h
W (4 Bft)
- - 1 min 0,458 mm 6,6 UV-I 911 W/m² 18,4 °C 23,3 °C 29,0 km/h
W (5 Bft)
Durchschnitt _ 17,6 °C 17,7 °C 86 % 1018,5 hPa #9,6 mm 2,2 km/h (1 Bft) O-NO - #4:51 h #2,692 mm 3,1 UV-I 184 W/m² 15,2 °C 17,6 °C 3,8 km/h (1 Bft)